<?xml version="1.0" encoding="UTF-8"?>
<gpx
  version="1.0"
  creator="pymavlink"
  xmlns:xsi="http://www.w3.org/2001/XMLSchema-instance"
  xmlns="http://www.topografix.com/GPX/1/0"
  xsi:schemaLocation="http://www.topografix.com/GPX/1/0 http://www.topografix.com/GPX/1/0/gpx.xsd">
<trk>
<trkseg>
<trkpt lat="-27.274439" lon="151.290064">
  <ele>343.0</ele>
  <time>2026-08-27T18:32:04Z</time>
  <course>264.82</course>
  <speed>0.16401219466856726</speed>
  <fix>3d</fix>
</trkpt>
<trkpt lat="-27.274439" lon="151.290064">
  <ele>343.0</ele>
  <time>2026-08-27T18:32:04Z</time>
  <course>0.0</course>
  <speed>0.0</speed>
  <fix>3d</fix>
</trkpt>
<trkpt lat="-27.274439" lon="151.290064">
  <ele>343.0</ele>
  <time>2026-08-27T18:32:04Z</time>
  <course>258.74</course>
  <speed>0.17492855684535902</speed>
  <fix>3d</fix>
</trkpt>
<trkpt lat="-27.274439" lon="151.290064">
  <ele>343.0</ele>
  <time>2026-08-27T18:32:04Z</time>
  <course>0.0</course>
  <speed>0.0</speed>
  <fix>3d</fix>
</trkpt>
<trkpt lat="-27.274439" lon="151.290064">
  <ele>343.0</ele>
  <time>2026-08-27T18:32:04Z</time>
  <course>325.88</course>
  <speed>0.0</speed>
  <fix>3d</fix>
</trkpt>
<trkpt lat="-27.274439" lon="151.290064">
  <ele>343.0</ele>
  <time>2026-08-27T18:32:04Z</time>
  <course>324.43</course>
  <speed>0.0</speed>
  <fix>3d</fix>
</trkpt>
<trkpt lat="-27.274439" lon="151.290064">
  <ele>343.0</ele>
  <time>2026-08-27T18:32:04Z</time>
  <course>321.86</course>
  <speed>0.0</speed>
  <fix>3d</fix>
</trkpt>
<trkpt lat="-27.274439" lon="151.290064">
  <ele>343.0</ele>
  <time>2026-08-27T18:32:04Z</time>
  <course>295.0</course>
  <speed>0.0</speed>
  <fix>3d</fix>
</trkpt>
<trkpt lat="-27.274439" lon="151.290064">
  <ele>343.0</ele>
  <time>2026-08-27T18:32:04Z</time>
  <course>290.72</course>
  <speed>0.0</speed>
  <fix>3d</fix>
</trkpt>
<trkpt lat="-27.274439" lon="151.290064">
  <ele>343.0</ele>
  <time>2026-08-27T18:32:04Z</time>
  <course>284.84</course>
  <speed>0.0</speed>
  <fix>3d</fix>
</trkpt>
<trkpt lat="-27.274439" lon="151.290064">
  <ele>343.0</ele>
  <time>2026-08-27T18:32:04Z</time>
  <course>277.79</course>
  <speed>0.0</speed>
  <fix>3d</fix>
</trkpt>
<trkpt lat="-27.274439" lon="151.290064">
  <ele>343.0</ele>
  <time>2026-08-27T18:32:04Z</time>
  <course>269.55</course>
  <speed>0.0</speed>
  <fix>3d</fix>
</trkpt>
<trkpt lat="-27.274439" lon="151.290064">
  <ele>343.0</ele>
  <time>2026-08-27T18:32:04Z</time>
  <course>262.16</course>
  <speed>0.9176055797563569</speed>
  <fix>3d</fix>
</trkpt>
<trkpt lat="-27.274439" lon="151.290064">
  <ele>343.0</ele>
  <time>2026-08-27T18:32:04Z</time>
  <course>0.0</course>
  <speed>0.0</speed>
  <fix>3d</fix>
</trkpt>
<trkpt lat="-27.274439" lon="151.290064">
  <ele>343.0</ele>
  <time>2026-08-27T18:32:04Z</time>
  <course>256.4</course>
  <speed>0.9403190947758107</speed>
  <fix>3d</fix>
</trkpt>
<trkpt lat="-27.274439" lon="151.290064">
  <ele>343.0</ele>
  <time>2026-08-27T18:32:04Z</time>
  <course>249.45</course>
  <speed>0.756042326857432</speed>
  <fix>3d</fix>
</trkpt>
<trkpt lat="-27.274439" lon="151.290064">
  <ele>343.0</ele>
  <time>2026-08-27T18:32:04Z</time>
  <course>0.0</course>
  <speed>0.0</speed>
  <fix>3d</fix>
</trkpt>
<trkpt lat="-27.274439" lon="151.290064">
  <ele>343.0</ele>
  <time>2026-08-27T18:32:04Z</time>
  <course>241.79</course>
  <speed>0.6596969000988256</speed>
  <fix>3d</fix>
</trkpt>
<trkpt lat="-27.274439" lon="151.290064">
  <ele>343.0</ele>
  <time>2026-08-27T18:32:04Z</time>
  <course>0.0</course>
  <speed>0.0</speed>
  <fix>3d</fix>
</trkpt>
<trkpt lat="-27.274439" lon="151.290064">
  <ele>343.0</ele>
  <time>2026-08-27T18:32:04Z</time>
  <course>233.59</course>
  <speed>0.6618912297349165</speed>
  <fix>3d</fix>
</trkpt>
<trkpt lat="-27.274439" lon="151.290064">
  <ele>343.0</ele>
  <time>2026-08-27T18:32:04Z</time>
  <course>0.0</course>
  <speed>0.0</speed>
  <fix>3d</fix>
</trkpt>
<trkpt lat="-27.274439" lon="151.290064">
  <ele>343.0</ele>
  <time>2026-08-27T18:32:04Z</time>
  <course>225.02</course>
  <speed>0.7034202158027589</speed>
  <fix>3d</fix>
</trkpt>
<trkpt lat="-27.274439" lon="151.290064">
  <ele>343.0</ele>
  <time>2026-08-27T18:32:04Z</time>
  <course>0.0</course>
  <speed>0.0</speed>
  <fix>3d</fix>
</trkpt>
<trkpt lat="-27.274439" lon="151.290064">
  <ele>343.0</ele>
  <time>2026-08-27T18:32:04Z</time>
  <course>216.17</course>
  <speed>0.7539230729988305</speed>
  <fix>3d</fix>
</trkpt>
<trkpt lat="-27.274439" lon="151.290064">
  <ele>343.0</ele>
  <time>2026-08-27T18:32:04Z</time>
  <course>0.0</course>
  <speed>0.0</speed>
  <fix>3d</fix>
</trkpt>
<trkpt lat="-27.274439" lon="151.290064">
  <ele>343.0</ele>
  <time>2026-08-27T18:32:04Z</time>
  <course>207.13</course>
  <speed>0.8052949770115296</speed>
  <fix>3d</fix>
</trkpt>
<trkpt lat="-27.274439" lon="151.290064">
  <ele>343.0</ele>
  <time>2026-08-27T18:32:04Z</time>
  <course>0.0</course>
  <speed>0.0</speed>
  <fix>3d</fix>
</trkpt>
<trkpt lat="-27.274439" lon="151.290064">
  <ele>343.0</ele>
  <time>2026-08-27T18:32:04Z</time>
  <course>197.95</course>
  <speed>0.8453401682163222</speed>
  <fix>3d</fix>
</trkpt>
<trkpt lat="-27.274439" lon="151.290064">
  <ele>343.0</ele>
  <time>2026-08-27T18:32:04Z</time>
  <course>0.0</course>
  <speed>0.0</speed>
  <fix>3d</fix>
</trkpt>
<trkpt lat="-27.274439" lon="151.290064">
  <ele>343.0</ele>
  <time>2026-08-27T18:32:04Z</time>
  <course>188.67</course>
  <speed>0.878179936004006</speed>
  <fix>3d</fix>
</trkpt>
<trkpt lat="-27.274439" lon="151.290064">
  <ele>343.0</ele>
  <time>2026-08-27T18:32:04Z</time>
  <course>0.0</course>
  <speed>0.0</speed>
  <fix>3d</fix>
</trkpt>
<trkpt lat="-27.274439" lon="151.290064">
  <ele>343.0</ele>
  <time>2026-08-27T18:32:05Z</time>
  <course>179.31</course>
  <speed>0.8848163651289458</speed>
  <fix>3d</fix>
</trkpt>
<trkpt lat="-27.274439" lon="151.290064">
  <ele>343.0</ele>
  <time>2026-08-27T18:32:05Z</time>
  <course>0.0</course>
  <speed>0.0</speed>
  <fix>3d</fix>
</trkpt>
<trkpt lat="-27.274439" lon="151.290064">
  <ele>343.0</ele>
  <time>2026-08-27T18:32:05Z</time>
  <course>169.93</course>
  <speed>0.9140021881811882</speed>
  <fix>3d</fix>
</trkpt>
<trkpt lat="-27.274439" lon="151.290064">
  <ele>343.0</ele>
  <time>2026-08-27T18:32:05Z</time>
  <course>0.0</course>
  <speed>0.0</speed>
  <fix>3d</fix>
</trkpt>
<trkpt lat="-27.274439" lon="151.290064">
  <ele>343.0</ele>
  <time>2026-08-27T18:32:05Z</time>
  <course>161.9</course>
  <speed>0.9219544457292888</speed>
  <fix>3d</fix>
</trkpt>
<trkpt lat="-27.274439" lon="151.290064">
  <ele>343.0</ele>
  <time>2026-08-27T18:32:05Z</time>
  <course>0.0</course>
  <speed>0.0</speed>
  <fix>3d</fix>
</trkpt>
<trkpt lat="-27.274439" lon="151.290064">
  <ele>343.0</ele>
  <time>2026-08-27T18:32:05Z</time>
  <course>158.55</course>
  <speed>0.9411163583744573</speed>
  <fix>3d</fix>
</trkpt>
<trkpt lat="-27.274439" lon="151.290064">
  <ele>343.0</ele>
  <time>2026-08-27T18:32:05Z</time>
  <course>0.0</course>
  <speed>0.0</speed>
  <fix>3d</fix>
</trkpt>
<trkpt lat="-27.274439" lon="151.290064">
  <ele>343.0</ele>
  <time>2026-08-27T18:32:05Z</time>
  <course>157.2</course>
  <speed>0.9546203433826455</speed>
  <fix>3d</fix>
</trkpt>
<trkpt lat="-27.274439" lon="151.290064">
  <ele>343.0</ele>
  <time>2026-08-27T18:32:05Z</time>
  <course>0.0</course>
  <speed>0.0</speed>
  <fix>3d</fix>
</trkpt>
<trkpt lat="-27.274439" lon="151.290064">
  <ele>343.0</ele>
  <time>2026-08-27T18:32:05Z</time>
  <course>156.57</course>
  <speed>0.9642613753542137</speed>
  <fix>3d</fix>
</trkpt>
<trkpt lat="-27.274439" lon="151.290064">
  <ele>343.0</ele>
  <time>2026-08-27T18:32:05Z</time>
  <course>0.0</course>
  <speed>0.0</speed>
  <fix>3d</fix>
</trkpt>
<trkpt lat="-27.274439" lon="151.290064">
  <ele>343.0</ele>
  <time>2026-08-27T18:32:05Z</time>
  <course>156.21</course>
  <speed>0.9602083107326242</speed>
  <fix>3d</fix>
</trkpt>
<trkpt lat="-27.274439" lon="151.290064">
  <ele>343.0</ele>
  <time>2026-08-27T18:32:05Z</time>
  <course>0.0</course>
  <speed>0.0</speed>
  <fix>3d</fix>
</trkpt>
<trkpt lat="-27.274439" lon="151.290064">
  <ele>343.0</ele>
  <time>2026-08-27T18:32:05Z</time>
  <course>155.95</course>
  <speed>0.9689685237405805</speed>
  <fix>3d</fix>
</trkpt>
<trkpt lat="-27.274439" lon="151.290064">
  <ele>343.0</ele>
  <time>2026-08-27T18:32:05Z</time>
  <course>0.0</course>
  <speed>0.0</speed>
  <fix>3d</fix>
</trkpt>
<trkpt lat="-27.274439" lon="151.290064">
  <ele>343.0</ele>
  <time>2026-08-27T18:32:05Z</time>
  <course>155.71</course>
  <speed>0.9800510190801294</speed>
  <fix>3d</fix>
</trkpt>
<trkpt lat="-27.274439" lon="151.290064">
  <ele>343.0</ele>
  <time>2026-08-27T18:32:05Z</time>
  <course>0.0</course>
  <speed>0.0</speed>
  <fix>3d</fix>
</trkpt>
<trkpt lat="-27.274439" lon="151.290064">
  <ele>343.0</ele>
  <time>2026-08-27T18:32:05Z</time>
  <course>155.49</course>
  <speed>0.9972963451251589</speed>
  <fix>3d</fix>
</trkpt>
<trkpt lat="-27.274439" lon="151.290064">
  <ele>343.0</ele>
  <time>2026-08-27T18:32:05Z</time>
  <course>0.0</course>
  <speed>0.0</speed>
  <fix>3d</fix>
</trkpt>
<trkpt lat="-27.274439" lon="151.290064">
  <ele>343.0</ele>
  <time>2026-08-27T18:32:05Z</time>
  <course>155.27</course>
  <speed>1.0113357503816425</speed>
  <fix>3d</fix>
</trkpt>
<trkpt lat="-27.274439" lon="151.290064">
  <ele>343.0</ele>
  <time>2026-08-27T18:32:05Z</time>
  <course>0.0</course>
  <speed>0.0</speed>
  <fix>3d</fix>
</trkpt>
<trkpt lat="-27.274439" lon="151.290064">
  <ele>343.0</ele>
  <time>2026-08-27T18:32:05Z</time>
  <course>155.07</course>
  <speed>1.010198000393982</speed>
  <fix>3d</fix>
</trkpt>
<trkpt lat="-27.274439" lon="151.290064">
  <ele>343.0</ele>
  <time>2026-08-27T18:32:05Z</time>
  <course>0.0</course>
  <speed>0.0</speed>
  <fix>3d</fix>
</trkpt>
<trkpt lat="-27.274439" lon="151.290064">
  <ele>343.0</ele>
  <time>2026-08-27T18:32:05Z</time>
  <course>154.88</course>
  <speed>0.9962429422585637</speed>
  <fix>3d</fix>
</trkpt>
<trkpt lat="-27.274439" lon="151.290064">
  <ele>343.0</ele>
  <time>2026-08-27T18:32:05Z</time>
  <course>0.0</course>
  <speed>0.0</speed>
  <fix>3d</fix>
</trkpt>
<trkpt lat="-27.274439" lon="151.290064">
  <ele>343.0</ele>
  <time>2026-08-27T18:32:05Z</time>
  <course>154.68</course>
  <speed>0.9751410154434076</speed>
  <fix>3d</fix>
</trkpt>
<trkpt lat="-27.274439" lon="151.290064">
  <ele>343.0</ele>
  <time>2026-08-27T18:32:05Z</time>
  <course>0.0</course>
  <speed>0.0</speed>
  <fix>3d</fix>
</trkpt>
<trkpt lat="-27.274439" lon="151.290064">
  <ele>343.0</ele>
  <time>2026-08-27T18:32:05Z</time>
  <course>154.49</course>
  <speed>0.951892851112981</speed>
  <fix>3d</fix>
</trkpt>
<trkpt lat="-27.274439" lon="151.290064">
  <ele>343.0</ele>
  <time>2026-08-27T18:32:05Z</time>
  <course>0.0</course>
  <speed>0.0</speed>
  <fix>3d</fix>
</trkpt>
<trkpt lat="-27.274439" lon="151.290064">
  <ele>343.0</ele>
  <time>2026-08-27T18:32:05Z</time>
  <course>154.29</course>
  <speed>0.9243916918709297</speed>
  <fix>3d</fix>
</trkpt>
<trkpt lat="-27.274439" lon="151.290064">
  <ele>343.0</ele>
  <time>2026-08-27T18:32:05Z</time>
  <course>0.0</course>
  <speed>0.0</speed>
  <fix>3d</fix>
</trkpt>
<trkpt lat="-27.274439" lon="151.290064">
  <ele>343.0</ele>
  <time>2026-08-27T18:32:05Z</time>
  <course>154.09</course>
  <speed>0.8900561780022652</speed>
  <fix>3d</fix>
</trkpt>
<trkpt lat="-27.274439" lon="151.290064">
  <ele>343.0</ele>
  <time>2026-08-27T18:32:05Z</time>
  <course>0.0</course>
  <speed>0.0</speed>
  <fix>3d</fix>
</trkpt>
<trkpt lat="-27.274439" lon="151.290064">
  <ele>343.0</ele>
  <time>2026-08-27T18:32:05Z</time>
  <course>153.88</course>
  <speed>0.8514693182963201</speed>
  <fix>3d</fix>
</trkpt>
<trkpt lat="-27.274439" lon="151.290064">
  <ele>343.0</ele>
  <time>2026-08-27T18:32:05Z</time>
  <course>0.0</course>
  <speed>0.0</speed>
  <fix>3d</fix>
</trkpt>
<trkpt lat="-27.274439" lon="151.290064">
  <ele>343.0</ele>
  <time>2026-08-27T18:32:05Z</time>
  <course>153.67</course>
  <speed>0.8174350127074322</speed>
  <fix>3d</fix>
</trkpt>
<trkpt lat="-27.274439" lon="151.290064">
  <ele>343.0</ele>
  <time>2026-08-27T18:32:05Z</time>
  <course>0.0</course>
  <speed>0.0</speed>
  <fix>3d</fix>
</trkpt>
<trkpt lat="-27.274439" lon="151.290064">
  <ele>343.0</ele>
  <time>2026-08-27T18:32:05Z</time>
  <course>153.46</course>
  <speed>0.7962411694957753</speed>
  <fix>3d</fix>
</trkpt>
<trkpt lat="-27.274439" lon="151.290064">
  <ele>343.0</ele>
  <time>2026-08-27T18:32:05Z</time>
  <course>0.0</course>
  <speed>0.0</speed>
  <fix>3d</fix>
</trkpt>
<trkpt lat="-27.274439" lon="151.290064">
  <ele>343.0</ele>
  <time>2026-08-27T18:32:05Z</time>
  <course>153.24</course>
  <speed>0.7569015788066504</speed>
  <fix>3d</fix>
</trkpt>
<trkpt lat="-27.274439" lon="151.290064">
  <ele>343.0</ele>
  <time>2026-08-27T18:32:05Z</time>
  <course>0.0</course>
  <speed>0.0</speed>
  <fix>3d</fix>
</trkpt>
<trkpt lat="-27.274439" lon="151.2900646">
  <ele>343.04</ele>
  <time>2026-08-27T18:32:05Z</time>
  <course>153.03</course>
  <speed>0.0</speed>
  <fix>3d</fix>
</trkpt>
<trkpt lat="-27.274439" lon="151.290064">
  <ele>343.0</ele>
  <time>2026-08-27T18:32:05Z</time>
  <course>0.0</course>
  <speed>0.0</speed>
  <fix>3d</fix>
</trkpt>
<trkpt lat="-27.2744392" lon="151.2900653">
  <ele>343.03</ele>
  <time>2026-08-27T18:32:05Z</time>
  <course>152.83</course>
  <speed>0.0848528137423857</speed>
  <fix>3d</fix>
</trkpt>
<trkpt lat="-27.274439" lon="151.290064">
  <ele>343.0</ele>
  <time>2026-08-27T18:32:05Z</time>
  <course>0.0</course>
  <speed>0.0</speed>
  <fix>3d</fix>
</trkpt>
<trkpt lat="-27.2744393" lon="151.2900645">
  <ele>343.02</ele>
  <time>2026-08-27T18:32:05Z</time>
  <course>152.57</course>
  <speed>0.08602325267042626</speed>
  <fix>3d</fix>
</trkpt>
<trkpt lat="-27.274439" lon="151.290064">
  <ele>343.0</ele>
  <time>2026-08-27T18:32:05Z</time>
  <course>0.0</course>
  <speed>0.0</speed>
  <fix>3d</fix>
</trkpt>
<trkpt lat="-27.2744392" lon="151.2900642">
  <ele>343.03</ele>
  <time>2026-08-27T18:32:05Z</time>
  <course>152.29</course>
  <speed>0.05830951894845301</speed>
  <fix>3d</fix>
</trkpt>
<trkpt lat="-27.274439" lon="151.290064">
  <ele>343.0</ele>
  <time>2026-08-27T18:32:05Z</time>
  <course>0.0</course>
  <speed>0.0</speed>
  <fix>3d</fix>
</trkpt>
<trkpt lat="-27.2744391" lon="151.2900641">
  <ele>343.06</ele>
  <time>2026-08-27T18:32:05Z</time>
  <course>152.03</course>
  <speed>0.02</speed>
  <fix>3d</fix>
</trkpt>
<trkpt lat="-27.274439" lon="151.290064">
  <ele>343.0</ele>
  <time>2026-08-27T18:32:05Z</time>
  <course>0.0</course>
  <speed>0.0</speed>
  <fix>3d</fix>
</trkpt>
<trkpt lat="-27.274439" lon="151.290064">
  <ele>343.05</ele>
  <time>2026-08-27T18:32:05Z</time>
  <course>151.79</course>
  <speed>0.01</speed>
  <fix>3d</fix>
</trkpt>
<trkpt lat="-27.274439" lon="151.290064">
  <ele>343.0</ele>
  <time>2026-08-27T18:32:05Z</time>
  <course>0.0</course>
  <speed>0.0</speed>
  <fix>3d</fix>
</trkpt>
<trkpt lat="-27.274439" lon="151.290064">
  <ele>343.04</ele>
  <time>2026-08-27T18:32:05Z</time>
  <course>151.57</course>
  <speed>0.01414213562373095</speed>
  <fix>3d</fix>
</trkpt>
<trkpt lat="-27.274439" lon="151.290064">
  <ele>343.0</ele>
  <time>2026-08-27T18:32:05Z</time>
  <course>0.0</course>
  <speed>0.0</speed>
  <fix>3d</fix>
</trkpt>
<trkpt lat="-27.2744389" lon="151.2900639">
  <ele>343.04</ele>
  <time>2026-08-27T18:32:05Z</time>
  <course>151.37</course>
  <speed>0.01414213562373095</speed>
  <fix>3d</fix>
</trkpt>
<trkpt lat="-27.274439" lon="151.290064">
  <ele>343.0</ele>
  <time>2026-08-27T18:32:05Z</time>
  <course>0.0</course>
  <speed>0.0</speed>
  <fix>3d</fix>
</trkpt>
<trkpt lat="-27.2744389" lon="151.2900638">
  <ele>343.05</ele>
  <time>2026-08-27T18:32:05Z</time>
  <course>151.18</course>
  <speed>0.0282842712474619</speed>
  <fix>3d</fix>
</trkpt>
<trkpt lat="-27.274439" lon="151.290064">
  <ele>343.0</ele>
  <time>2026-08-27T18:32:05Z</time>
  <course>0.0</course>
  <speed>0.0</speed>
  <fix>3d</fix>
</trkpt>
<trkpt lat="-27.2744389" lon="151.2900638">
  <ele>343.06</ele>
  <time>2026-08-27T18:32:05Z</time>
  <course>151.01</course>
  <speed>0.0282842712474619</speed>
  <fix>3d</fix>
</trkpt>
<trkpt lat="-27.274439" lon="151.290064">
  <ele>343.0</ele>
  <time>2026-08-27T18:32:05Z</time>
  <course>0.0</course>
  <speed>0.0</speed>
  <fix>3d</fix>
</trkpt>
<trkpt lat="-27.2744389" lon="151.2900638">
  <ele>343.03</ele>
  <time>2026-08-27T18:32:05Z</time>
  <course>150.84</course>
  <speed>0.0282842712474619</speed>
  <fix>3d</fix>
</trkpt>
<trkpt lat="-27.274439" lon="151.290064">
  <ele>343.0</ele>
  <time>2026-08-27T18:32:05Z</time>
  <course>0.0</course>
  <speed>0.0</speed>
  <fix>3d</fix>
</trkpt>
<trkpt lat="-27.2744389" lon="151.2900638">
  <ele>343.04</ele>
  <time>2026-08-27T18:32:05Z</time>
  <course>150.68</course>
  <speed>0.0282842712474619</speed>
  <fix>3d</fix>
</trkpt>
<trkpt lat="-27.274439" lon="151.290064">
  <ele>343.0</ele>
  <time>2026-08-27T18:32:05Z</time>
  <course>0.0</course>
  <speed>0.0</speed>
  <fix>3d</fix>
</trkpt>
<trkpt lat="-27.2744389" lon="151.2900638">
  <ele>343.03</ele>
  <time>2026-08-27T18:32:05Z</time>
  <course>150.52</course>
  <speed>0.022360679774997897</speed>
  <fix>3d</fix>
</trkpt>
<trkpt lat="-27.274439" lon="151.290064">
  <ele>343.0</ele>
  <time>2026-08-27T18:32:05Z</time>
  <course>0.0</course>
  <speed>0.0</speed>
  <fix>3d</fix>
</trkpt>
<trkpt lat="-27.2744389" lon="151.2900638">
  <ele>343.04</ele>
  <time>2026-08-27T18:32:05Z</time>
  <course>150.38</course>
  <speed>0.022360679774997897</speed>
  <fix>3d</fix>
</trkpt>
<trkpt lat="-27.274439" lon="151.290064">
  <ele>343.0</ele>
  <time>2026-08-27T18:32:05Z</time>
  <course>0.0</course>
  <speed>0.0</speed>
  <fix>3d</fix>
</trkpt>
<trkpt lat="-27.2744389" lon="151.2900638">
  <ele>343.03</ele>
  <time>2026-08-27T18:32:05Z</time>
  <course>150.24</course>
  <speed>0.022360679774997897</speed>
  <fix>3d</fix>
</trkpt>
<trkpt lat="-27.274439" lon="151.290064">
  <ele>343.0</ele>
  <time>2026-08-27T18:32:05Z</time>
  <course>0.0</course>
  <speed>0.0</speed>
  <fix>3d</fix>
</trkpt>
<trkpt lat="-27.2744389" lon="151.2900638">
  <ele>343.02</ele>
  <time>2026-08-27T18:32:05Z</time>
  <course>150.11</course>
  <speed>0.022360679774997897</speed>
  <fix>3d</fix>
</trkpt>
<trkpt lat="-27.274439" lon="151.290064">
  <ele>343.0</ele>
  <time>2026-08-27T18:32:05Z</time>
  <course>0.0</course>
  <speed>0.0</speed>
  <fix>3d</fix>
</trkpt>
<trkpt lat="-27.2744389" lon="151.2900638">
  <ele>343.0</ele>
  <time>2026-08-27T18:32:05Z</time>
  <course>149.98</course>
  <speed>0.022360679774997897</speed>
  <fix>3d</fix>
</trkpt>
<trkpt lat="-27.274439" lon="151.290064">
  <ele>343.0</ele>
  <time>2026-08-27T18:32:05Z</time>
  <course>0.0</course>
  <speed>0.0</speed>
  <fix>3d</fix>
</trkpt>
<trkpt lat="-27.2744389" lon="151.2900638">
  <ele>343.01</ele>
  <time>2026-08-27T18:32:05Z</time>
  <course>149.86</course>
  <speed>0.022360679774997897</speed>
  <fix>3d</fix>
</trkpt>
<trkpt lat="-27.274439" lon="151.290064">
  <ele>343.0</ele>
  <time>2026-08-27T18:32:05Z</time>
  <course>0.0</course>
  <speed>0.0</speed>
  <fix>3d</fix>
</trkpt>
<trkpt lat="-27.2744389" lon="151.2900638">
  <ele>343.04</ele>
  <time>2026-08-27T18:32:05Z</time>
  <course>149.75</course>
  <speed>0.022360679774997897</speed>
  <fix>3d</fix>
</trkpt>
<trkpt lat="-27.274439" lon="151.290064">
  <ele>343.0</ele>
  <time>2026-08-27T18:32:05Z</time>
  <course>0.0</course>
  <speed>0.0</speed>
  <fix>3d</fix>
</trkpt>
<trkpt lat="-27.2744389" lon="151.2900638">
  <ele>343.04</ele>
  <time>2026-08-27T18:32:05Z</time>
  <course>149.64</course>
  <speed>0.022360679774997897</speed>
  <fix>3d</fix>
</trkpt>
<trkpt lat="-27.274439" lon="151.290064">
  <ele>343.0</ele>
  <time>2026-08-27T18:32:05Z</time>
  <course>0.0</course>
  <speed>0.0</speed>
  <fix>3d</fix>
</trkpt>
<trkpt lat="-27.2744389" lon="151.2900638">
  <ele>343.04</ele>
  <time>2026-08-27T18:32:05Z</time>
  <course>149.53</course>
  <speed>0.022360679774997897</speed>
  <fix>3d</fix>
</trkpt>
<trkpt lat="-27.274439" lon="151.290064">
  <ele>343.0</ele>
  <time>2026-08-27T18:32:05Z</time>
  <course>0.0</course>
  <speed>0.0</speed>
  <fix>3d</fix>
</trkpt>
<trkpt lat="-27.2744389" lon="151.2900638">
  <ele>343.04</ele>
  <time>2026-08-27T18:32:05Z</time>
  <course>149.44</course>
  <speed>0.022360679774997897</speed>
  <fix>3d</fix>
</trkpt>
<trkpt lat="-27.274439" lon="151.290064">
  <ele>343.0</ele>
  <time>2026-08-27T18:32:05Z</time>
  <course>0.0</course>
  <speed>0.0</speed>
  <fix>3d</fix>
</trkpt>
<trkpt lat="-27.2744389" lon="151.2900638">
  <ele>343.03</ele>
  <time>2026-08-27T18:32:05Z</time>
  <course>149.34</course>
  <speed>0.022360679774997897</speed>
  <fix>3d</fix>
</trkpt>
<trkpt lat="-27.274439" lon="151.290064">
  <ele>343.0</ele>
  <time>2026-08-27T18:32:05Z</time>
  <course>0.0</course>
  <speed>0.0</speed>
  <fix>3d</fix>
</trkpt>
<trkpt lat="-27.2744389" lon="151.2900638">
  <ele>343.02</ele>
  <time>2026-08-27T18:32:05Z</time>
  <course>149.25</course>
  <speed>0.022360679774997897</speed>
  <fix>3d</fix>
</trkpt>
<trkpt lat="-27.274439" lon="151.290064">
  <ele>343.0</ele>
  <time>2026-08-27T18:32:05Z</time>
  <course>0.0</course>
  <speed>0.0</speed>
  <fix>3d</fix>
</trkpt>
<trkpt lat="-27.2744389" lon="151.2900638">
  <ele>343.05</ele>
  <time>2026-08-27T18:32:05Z</time>
  <course>149.17</course>
  <speed>0.022360679774997897</speed>
  <fix>3d</fix>
</trkpt>
<trkpt lat="-27.274439" lon="151.290064">
  <ele>343.0</ele>
  <time>2026-08-27T18:32:05Z</time>
  <course>0.0</course>
  <speed>0.0</speed>
  <fix>3d</fix>
</trkpt>
<trkpt lat="-27.2744389" lon="151.2900638">
  <ele>343.04</ele>
  <time>2026-08-27T18:32:05Z</time>
  <course>149.09</course>
  <speed>0.02</speed>
  <fix>3d</fix>
</trkpt>
<trkpt lat="-27.274439" lon="151.290064">
  <ele>343.0</ele>
  <time>2026-08-27T18:32:05Z</time>
  <course>0.0</course>
  <speed>0.0</speed>
  <fix>3d</fix>
</trkpt>
<trkpt lat="-27.2744389" lon="151.2900638">
  <ele>343.05</ele>
  <time>2026-08-27T18:32:05Z</time>
  <course>149.01</course>
  <speed>0.022360679774997897</speed>
  <fix>3d</fix>
</trkpt>
<trkpt lat="-27.274439" lon="151.290064">
  <ele>343.0</ele>
  <time>2026-08-27T18:32:05Z</time>
  <course>0.0</course>
  <speed>0.0</speed>
  <fix>3d</fix>
</trkpt>
<trkpt lat="-27.2744389" lon="151.2900638">
  <ele>343.03</ele>
  <time>2026-08-27T18:32:05Z</time>
  <course>148.94</course>
  <speed>0.02</speed>
  <fix>3d</fix>
</trkpt>
<trkpt lat="-27.274439" lon="151.290064">
  <ele>343.0</ele>
  <time>2026-08-27T18:32:05Z</time>
  <course>0.0</course>
  <speed>0.0</speed>
  <fix>3d</fix>
</trkpt>
<trkpt lat="-27.2744389" lon="151.2900638">
  <ele>343.02</ele>
  <time>2026-08-27T18:32:05Z</time>
  <course>148.87</course>
  <speed>0.022360679774997897</speed>
  <fix>3d</fix>
</trkpt>
<trkpt lat="-27.274439" lon="151.290064">
  <ele>343.0</ele>
  <time>2026-08-27T18:32:05Z</time>
  <course>0.0</course>
  <speed>0.0</speed>
  <fix>3d</fix>
</trkpt>
<trkpt lat="-27.2744389" lon="151.2900638">
  <ele>343.02</ele>
  <time>2026-08-27T18:32:05Z</time>
  <course>148.8</course>
  <speed>0.02</speed>
  <fix>3d</fix>
</trkpt>
<trkpt lat="-27.274439" lon="151.290064">
  <ele>343.0</ele>
  <time>2026-08-27T18:32:05Z</time>
  <course>0.0</course>
  <speed>0.0</speed>
  <fix>3d</fix>
</trkpt>
<trkpt lat="-27.2744389" lon="151.2900638">
  <ele>343.02</ele>
  <time>2026-08-27T18:32:05Z</time>
  <course>148.74</course>
  <speed>0.02</speed>
  <fix>3d</fix>
</trkpt>
<trkpt lat="-27.274439" lon="151.290064">
  <ele>343.0</ele>
  <time>2026-08-27T18:32:05Z</time>
  <course>0.0</course>
  <speed>0.0</speed>
  <fix>3d</fix>
</trkpt>
<trkpt lat="-27.2744389" lon="151.2900638">
  <ele>343.0</ele>
  <time>2026-08-27T18:32:05Z</time>
  <course>148.67</course>
  <speed>0.02</speed>
  <fix>3d</fix>
</trkpt>
<trkpt lat="-27.274439" lon="151.290064">
  <ele>343.0</ele>
  <time>2026-08-27T18:32:05Z</time>
  <course>0.0</course>
  <speed>0.0</speed>
  <fix>3d</fix>
</trkpt>
<trkpt lat="-27.2744389" lon="151.2900638">
  <ele>343.0</ele>
  <time>2026-08-27T18:32:05Z</time>
  <course>148.62</course>
  <speed>0.02</speed>
  <fix>3d</fix>
</trkpt>
<trkpt lat="-27.274439" lon="151.290064">
  <ele>343.0</ele>
  <time>2026-08-27T18:32:05Z</time>
  <course>0.0</course>
  <speed>0.0</speed>
  <fix>3d</fix>
</trkpt>
<trkpt lat="-27.2744389" lon="151.2900638">
  <ele>343.01</ele>
  <time>2026-08-27T18:32:05Z</time>
  <course>148.56</course>
  <speed>0.02</speed>
  <fix>3d</fix>
</trkpt>
<trkpt lat="-27.274439" lon="151.290064">
  <ele>343.0</ele>
  <time>2026-08-27T18:32:05Z</time>
  <course>0.0</course>
  <speed>0.0</speed>
  <fix>3d</fix>
</trkpt>
<trkpt lat="-27.2744389" lon="151.2900638">
  <ele>342.99</ele>
  <time>2026-08-27T18:32:05Z</time>
  <course>148.51</course>
  <speed>0.02</speed>
  <fix>3d</fix>
</trkpt>
<trkpt lat="-27.274439" lon="151.290064">
  <ele>343.0</ele>
  <time>2026-08-27T18:32:05Z</time>
  <course>0.0</course>
  <speed>0.0</speed>
  <fix>3d</fix>
</trkpt>
<trkpt lat="-27.2744389" lon="151.2900638">
  <ele>342.99</ele>
  <time>2026-08-27T18:32:05Z</time>
  <course>148.46</course>
  <speed>0.02</speed>
  <fix>3d</fix>
</trkpt>
<trkpt lat="-27.274439" lon="151.290064">
  <ele>343.0</ele>
  <time>2026-08-27T18:32:05Z</time>
  <course>0.0</course>
  <speed>0.0</speed>
  <fix>3d</fix>
</trkpt>
<trkpt lat="-27.2744389" lon="151.2900638">
  <ele>342.99</ele>
  <time>2026-08-27T18:32:05Z</time>
  <course>148.41</course>
  <speed>0.02</speed>
  <fix>3d</fix>
</trkpt>
<trkpt lat="-27.274439" lon="151.290064">
  <ele>343.0</ele>
  <time>2026-08-27T18:32:05Z</time>
  <course>0.0</course>
  <speed>0.0</speed>
  <fix>3d</fix>
</trkpt>
<trkpt lat="-27.2744389" lon="151.2900638">
  <ele>343.01</ele>
  <time>2026-08-27T18:32:05Z</time>
  <course>148.36</course>
  <speed>0.02</speed>
  <fix>3d</fix>
</trkpt>
<trkpt lat="-27.274439" lon="151.290064">
  <ele>343.0</ele>
  <time>2026-08-27T18:32:05Z</time>
  <course>0.0</course>
  <speed>0.0</speed>
  <fix>3d</fix>
</trkpt>
<trkpt lat="-27.2744389" lon="151.2900638">
  <ele>343.01</ele>
  <time>2026-08-27T18:32:05Z</time>
  <course>148.32</course>
  <speed>0.02</speed>
  <fix>3d</fix>
</trkpt>
<trkpt lat="-27.274439" lon="151.290064">
  <ele>343.0</ele>
  <time>2026-08-27T18:32:05Z</time>
  <course>0.0</course>
  <speed>0.0</speed>
  <fix>3d</fix>
</trkpt>
<trkpt lat="-27.2744389" lon="151.2900638">
  <ele>343.02</ele>
  <time>2026-08-27T18:32:05Z</time>
  <course>148.27</course>
  <speed>0.02</speed>
  <fix>3d</fix>
</trkpt>
<trkpt lat="-27.274439" lon="151.290064">
  <ele>343.0</ele>
  <time>2026-08-27T18:32:05Z</time>
  <course>0.0</course>
  <speed>0.0</speed>
  <fix>3d</fix>
</trkpt>
<trkpt lat="-27.2744389" lon="151.2900638">
  <ele>343.01</ele>
  <time>2026-08-27T18:32:05Z</time>
  <course>148.23</course>
  <speed>0.02</speed>
  <fix>3d</fix>
</trkpt>
<trkpt lat="-27.274439" lon="151.290064">
  <ele>343.0</ele>
  <time>2026-08-27T18:32:05Z</time>
  <course>0.0</course>
  <speed>0.0</speed>
  <fix>3d</fix>
</trkpt>
<trkpt lat="-27.2744389" lon="151.2900638">
  <ele>343.02</ele>
  <time>2026-08-27T18:32:05Z</time>
  <course>148.19</course>
  <speed>0.02</speed>
  <fix>3d</fix>
</trkpt>
<trkpt lat="-27.274439" lon="151.290064">
  <ele>343.0</ele>
  <time>2026-08-27T18:32:05Z</time>
  <course>0.0</course>
  <speed>0.0</speed>
  <fix>3d</fix>
</trkpt>
<trkpt lat="-27.2744389" lon="151.2900638">
  <ele>343.05</ele>
  <time>2026-08-27T18:32:05Z</time>
  <course>148.15</course>
  <speed>0.02</speed>
  <fix>3d</fix>
</trkpt>
<trkpt lat="-27.274439" lon="151.290064">
  <ele>343.0</ele>
  <time>2026-08-27T18:32:05Z</time>
  <course>0.0</course>
  <speed>0.0</speed>
  <fix>3d</fix>
</trkpt>
<trkpt lat="-27.2744389" lon="151.2900638">
  <ele>343.03</ele>
  <time>2026-08-27T18:32:05Z</time>
  <course>148.12</course>
  <speed>0.02</speed>
  <fix>3d</fix>
</trkpt>
<trkpt lat="-27.274439" lon="151.290064">
  <ele>343.0</ele>
  <time>2026-08-27T18:32:05Z</time>
  <course>0.0</course>
  <speed>0.0</speed>
  <fix>3d</fix>
</trkpt>
<trkpt lat="-27.2744389" lon="151.2900638">
  <ele>343.04</ele>
  <time>2026-08-27T18:32:05Z</time>
  <course>148.08</course>
  <speed>0.02</speed>
  <fix>3d</fix>
</trkpt>
<trkpt lat="-27.274439" lon="151.290064">
  <ele>343.0</ele>
  <time>2026-08-27T18:32:05Z</time>
  <course>0.0</course>
  <speed>0.0</speed>
  <fix>3d</fix>
</trkpt>
<trkpt lat="-27.2744389" lon="151.2900638">
  <ele>343.03</ele>
  <time>2026-08-27T18:32:05Z</time>
  <course>148.05</course>
  <speed>0.02</speed>
  <fix>3d</fix>
</trkpt>
<trkpt lat="-27.274439" lon="151.290064">
  <ele>343.0</ele>
  <time>2026-08-27T18:32:05Z</time>
  <course>0.0</course>
  <speed>0.0</speed>
  <fix>3d</fix>
</trkpt>
<trkpt lat="-27.2744389" lon="151.2900638">
  <ele>343.03</ele>
  <time>2026-08-27T18:32:05Z</time>
  <course>148.02</course>
  <speed>0.02</speed>
  <fix>3d</fix>
</trkpt>
<trkpt lat="-27.274439" lon="151.290064">
  <ele>343.0</ele>
  <time>2026-08-27T18:32:05Z</time>
  <course>0.0</course>
  <speed>0.0</speed>
  <fix>3d</fix>
</trkpt>
<trkpt lat="-27.2744389" lon="151.2900638">
  <ele>343.03</ele>
  <time>2026-08-27T18:32:05Z</time>
  <course>147.98</course>
  <speed>0.02</speed>
  <fix>3d</fix>
</trkpt>
<trkpt lat="-27.274439" lon="151.290064">
  <ele>343.0</ele>
  <time>2026-08-27T18:32:05Z</time>
  <course>0.0</course>
  <speed>0.0</speed>
  <fix>3d</fix>
</trkpt>
<trkpt lat="-27.2744389" lon="151.2900638">
  <ele>343.02</ele>
  <time>2026-08-27T18:32:06Z</time>
  <course>147.95</course>
  <speed>0.02</speed>
  <fix>3d</fix>
</trkpt>
<trkpt lat="-27.274439" lon="151.290064">
  <ele>343.0</ele>
  <time>2026-08-27T18:32:06Z</time>
  <course>0.0</course>
  <speed>0.0</speed>
  <fix>3d</fix>
</trkpt>
<trkpt lat="-27.2744389" lon="151.2900638">
  <ele>343.03</ele>
  <time>2026-08-27T18:32:06Z</time>
  <course>147.93</course>
  <speed>0.02</speed>
  <fix>3d</fix>
</trkpt>
<trkpt lat="-27.274439" lon="151.290064">
  <ele>343.0</ele>
  <time>2026-08-27T18:32:06Z</time>
  <course>0.0</course>
  <speed>0.0</speed>
  <fix>3d</fix>
</trkpt>
<trkpt lat="-27.2744389" lon="151.2900638">
  <ele>343.03</ele>
  <time>2026-08-27T18:32:06Z</time>
  <course>147.89</course>
  <speed>0.02</speed>
  <fix>3d</fix>
</trkpt>
<trkpt lat="-27.274439" lon="151.290064">
  <ele>343.0</ele>
  <time>2026-08-27T18:32:06Z</time>
  <course>0.0</course>
  <speed>0.0</speed>
  <fix>3d</fix>
</trkpt>
<trkpt lat="-27.2744389" lon="151.2900638">
  <ele>343.02</ele>
  <time>2026-08-27T18:32:06Z</time>
  <course>147.87</course>
  <speed>0.02</speed>
  <fix>3d</fix>
</trkpt>
<trkpt lat="-27.274439" lon="151.290064">
  <ele>343.0</ele>
  <time>2026-08-27T18:32:06Z</time>
  <course>0.0</course>
  <speed>0.0</speed>
  <fix>3d</fix>
</trkpt>
<trkpt lat="-27.2744389" lon="151.2900638">
  <ele>343.05</ele>
  <time>2026-08-27T18:32:06Z</time>
  <course>147.84</course>
  <speed>0.02</speed>
  <fix>3d</fix>
</trkpt>
<trkpt lat="-27.274439" lon="151.290064">
  <ele>343.0</ele>
  <time>2026-08-27T18:32:06Z</time>
  <course>0.0</course>
  <speed>0.0</speed>
  <fix>3d</fix>
</trkpt>
<trkpt lat="-27.2744389" lon="151.2900638">
  <ele>343.03</ele>
  <time>2026-08-27T18:32:06Z</time>
  <course>147.82</course>
  <speed>0.02</speed>
  <fix>3d</fix>
</trkpt>
<trkpt lat="-27.274439" lon="151.290064">
  <ele>343.0</ele>
  <time>2026-08-27T18:32:06Z</time>
  <course>0.0</course>
  <speed>0.0</speed>
  <fix>3d</fix>
</trkpt>
<trkpt lat="-27.2744389" lon="151.2900638">
  <ele>343.02</ele>
  <time>2026-08-27T18:32:06Z</time>
  <course>147.79</course>
  <speed>0.02</speed>
  <fix>3d</fix>
</trkpt>
<trkpt lat="-27.274439" lon="151.290064">
  <ele>343.0</ele>
  <time>2026-08-27T18:32:06Z</time>
  <course>0.0</course>
  <speed>0.0</speed>
  <fix>3d</fix>
</trkpt>
<trkpt lat="-27.2744389" lon="151.2900638">
  <ele>343.01</ele>
  <time>2026-08-27T18:32:06Z</time>
  <course>147.77</course>
  <speed>0.02</speed>
  <fix>3d</fix>
</trkpt>
<trkpt lat="-27.274439" lon="151.290064">
  <ele>343.0</ele>
  <time>2026-08-27T18:32:06Z</time>
  <course>0.0</course>
  <speed>0.0</speed>
  <fix>3d</fix>
</trkpt>
<trkpt lat="-27.2744389" lon="151.2900638">
  <ele>343.0</ele>
  <time>2026-08-27T18:32:06Z</time>
  <course>147.74</course>
  <speed>0.02</speed>
  <fix>3d</fix>
</trkpt>
<trkpt lat="-27.274439" lon="151.290064">
  <ele>343.0</ele>
  <time>2026-08-27T18:32:06Z</time>
  <course>0.0</course>
  <speed>0.0</speed>
  <fix>3d</fix>
</trkpt>
<trkpt lat="-27.2744389" lon="151.2900638">
  <ele>343.01</ele>
  <time>2026-08-27T18:32:06Z</time>
  <course>147.73</course>
  <speed>0.02</speed>
  <fix>3d</fix>
</trkpt>
<trkpt lat="-27.274439" lon="151.290064">
  <ele>343.0</ele>
  <time>2026-08-27T18:32:06Z</time>
  <course>0.0</course>
  <speed>0.0</speed>
  <fix>3d</fix>
</trkpt>
<trkpt lat="-27.2744389" lon="151.2900638">
  <ele>343.0</ele>
  <time>2026-08-27T18:32:06Z</time>
  <course>147.7</course>
  <speed>0.02</speed>
  <fix>3d</fix>
</trkpt>
<trkpt lat="-27.274439" lon="151.290064">
  <ele>343.0</ele>
  <time>2026-08-27T18:32:06Z</time>
  <course>0.0</course>
  <speed>0.0</speed>
  <fix>3d</fix>
</trkpt>
<trkpt lat="-27.2744389" lon="151.2900638">
  <ele>342.99</ele>
  <time>2026-08-27T18:32:06Z</time>
  <course>147.69</course>
  <speed>0.02</speed>
  <fix>3d</fix>
</trkpt>
<trkpt lat="-27.274439" lon="151.290064">
  <ele>343.0</ele>
  <time>2026-08-27T18:32:06Z</time>
  <course>0.0</course>
  <speed>0.0</speed>
  <fix>3d</fix>
</trkpt>
<trkpt lat="-27.2744389" lon="151.2900638">
  <ele>342.99</ele>
  <time>2026-08-27T18:32:06Z</time>
  <course>147.66</course>
  <speed>0.02</speed>
  <fix>3d</fix>
</trkpt>
<trkpt lat="-27.274439" lon="151.290064">
  <ele>343.0</ele>
  <time>2026-08-27T18:32:06Z</time>
  <course>0.0</course>
  <speed>0.0</speed>
  <fix>3d</fix>
</trkpt>
<trkpt lat="-27.2744389" lon="151.2900638">
  <ele>343.0</ele>
  <time>2026-08-27T18:32:06Z</time>
  <course>147.65</course>
  <speed>0.02</speed>
  <fix>3d</fix>
</trkpt>
<trkpt lat="-27.274439" lon="151.290064">
  <ele>343.0</ele>
  <time>2026-08-27T18:32:06Z</time>
  <course>0.0</course>
  <speed>0.0</speed>
  <fix>3d</fix>
</trkpt>
<trkpt lat="-27.2744389" lon="151.2900638">
  <ele>343.01</ele>
  <time>2026-08-27T18:32:06Z</time>
  <course>147.63</course>
  <speed>0.02</speed>
  <fix>3d</fix>
</trkpt>
<trkpt lat="-27.274439" lon="151.290064">
  <ele>343.0</ele>
  <time>2026-08-27T18:32:06Z</time>
  <course>0.0</course>
  <speed>0.0</speed>
  <fix>3d</fix>
</trkpt>
<trkpt lat="-27.2744389" lon="151.2900638">
  <ele>343.0</ele>
  <time>2026-08-27T18:32:06Z</time>
  <course>147.61</course>
  <speed>0.02</speed>
  <fix>3d</fix>
</trkpt>
<trkpt lat="-27.274439" lon="151.290064">
  <ele>343.0</ele>
  <time>2026-08-27T18:32:06Z</time>
  <course>0.0</course>
  <speed>0.0</speed>
  <fix>3d</fix>
</trkpt>
<trkpt lat="-27.2744389" lon="151.2900638">
  <ele>342.99</ele>
  <time>2026-08-27T18:32:06Z</time>
  <course>147.6</course>
  <speed>0.02</speed>
  <fix>3d</fix>
</trkpt>
<trkpt lat="-27.274439" lon="151.290064">
  <ele>343.0</ele>
  <time>2026-08-27T18:32:06Z</time>
  <course>0.0</course>
  <speed>0.0</speed>
  <fix>3d</fix>
</trkpt>
<trkpt lat="-27.2744389" lon="151.2900638">
  <ele>342.99</ele>
  <time>2026-08-27T18:32:06Z</time>
  <course>147.58</course>
  <speed>0.02</speed>
  <fix>3d</fix>
</trkpt>
<trkpt lat="-27.274439" lon="151.290064">
  <ele>343.0</ele>
  <time>2026-08-27T18:32:06Z</time>
  <course>0.0</course>
  <speed>0.0</speed>
  <fix>3d</fix>
</trkpt>
<trkpt lat="-27.2744389" lon="151.2900638">
  <ele>343.0</ele>
  <time>2026-08-27T18:32:06Z</time>
  <course>147.56</course>
  <speed>0.02</speed>
  <fix>3d</fix>
</trkpt>
<trkpt lat="-27.274439" lon="151.290064">
  <ele>343.0</ele>
  <time>2026-08-27T18:32:06Z</time>
  <course>0.0</course>
  <speed>0.0</speed>
  <fix>3d</fix>
</trkpt>
<trkpt lat="-27.2744389" lon="151.2900638">
  <ele>343.02</ele>
  <time>2026-08-27T18:32:06Z</time>
  <course>147.55</course>
  <speed>0.02</speed>
  <fix>3d</fix>
</trkpt>
<trkpt lat="-27.274439" lon="151.290064">
  <ele>343.0</ele>
  <time>2026-08-27T18:32:06Z</time>
  <course>0.0</course>
  <speed>0.0</speed>
  <fix>3d</fix>
</trkpt>
<trkpt lat="-27.2744389" lon="151.2900638">
  <ele>343.01</ele>
  <time>2026-08-27T18:32:06Z</time>
  <course>147.53</course>
  <speed>0.02</speed>
  <fix>3d</fix>
</trkpt>
<trkpt lat="-27.274439" lon="151.290064">
  <ele>343.0</ele>
  <time>2026-08-27T18:32:06Z</time>
  <course>0.0</course>
  <speed>0.0</speed>
  <fix>3d</fix>
</trkpt>
<trkpt lat="-27.2744389" lon="151.2900638">
  <ele>343.01</ele>
  <time>2026-08-27T18:32:06Z</time>
  <course>147.52</course>
  <speed>0.02</speed>
  <fix>3d</fix>
</trkpt>
<trkpt lat="-27.274439" lon="151.290064">
  <ele>343.0</ele>
  <time>2026-08-27T18:32:06Z</time>
  <course>0.0</course>
  <speed>0.0</speed>
  <fix>3d</fix>
</trkpt>
<trkpt lat="-27.2744389" lon="151.2900638">
  <ele>343.02</ele>
  <time>2026-08-27T18:32:06Z</time>
  <course>147.51</course>
  <speed>0.02</speed>
  <fix>3d</fix>
</trkpt>
<trkpt lat="-27.274439" lon="151.290064">
  <ele>343.0</ele>
  <time>2026-08-27T18:32:06Z</time>
  <course>0.0</course>
  <speed>0.0</speed>
  <fix>3d</fix>
</trkpt>
<trkpt lat="-27.2744389" lon="151.2900638">
  <ele>343.01</ele>
  <time>2026-08-27T18:32:06Z</time>
  <course>147.49</course>
  <speed>0.02</speed>
  <fix>3d</fix>
</trkpt>
<trkpt lat="-27.274439" lon="151.290064">
  <ele>343.0</ele>
  <time>2026-08-27T18:32:06Z</time>
  <course>0.0</course>
  <speed>0.0</speed>
  <fix>3d</fix>
</trkpt>
<trkpt lat="-27.2744389" lon="151.2900638">
  <ele>343.0</ele>
  <time>2026-08-27T18:32:06Z</time>
  <course>147.48</course>
  <speed>0.02</speed>
  <fix>3d</fix>
</trkpt>
<trkpt lat="-27.274439" lon="151.290064">
  <ele>343.0</ele>
  <time>2026-08-27T18:32:06Z</time>
  <course>0.0</course>
  <speed>0.0</speed>
  <fix>3d</fix>
</trkpt>
<trkpt lat="-27.2744389" lon="151.2900638">
  <ele>343.04</ele>
  <time>2026-08-27T18:32:06Z</time>
  <course>147.47</course>
  <speed>0.02</speed>
  <fix>3d</fix>
</trkpt>
<trkpt lat="-27.274439" lon="151.290064">
  <ele>343.0</ele>
  <time>2026-08-27T18:32:06Z</time>
  <course>0.0</course>
  <speed>0.0</speed>
  <fix>3d</fix>
</trkpt>
<trkpt lat="-27.2744389" lon="151.2900638">
  <ele>343.04</ele>
  <time>2026-08-27T18:32:06Z</time>
  <course>147.46</course>
  <speed>0.02</speed>
  <fix>3d</fix>
</trkpt>
<trkpt lat="-27.274439" lon="151.290064">
  <ele>343.0</ele>
  <time>2026-08-27T18:32:06Z</time>
  <course>0.0</course>
  <speed>0.0</speed>
  <fix>3d</fix>
</trkpt>
<trkpt lat="-27.2744389" lon="151.2900638">
  <ele>343.01</ele>
  <time>2026-08-27T18:32:06Z</time>
  <course>147.44</course>
  <speed>0.02</speed>
  <fix>3d</fix>
</trkpt>
<trkpt lat="-27.274439" lon="151.290064">
  <ele>343.0</ele>
  <time>2026-08-27T18:32:06Z</time>
  <course>0.0</course>
  <speed>0.0</speed>
  <fix>3d</fix>
</trkpt>
<trkpt lat="-27.2744389" lon="151.2900638">
  <ele>343.01</ele>
  <time>2026-08-27T18:32:06Z</time>
  <course>147.43</course>
  <speed>0.02</speed>
  <fix>3d</fix>
</trkpt>
<trkpt lat="-27.274439" lon="151.290064">
  <ele>343.0</ele>
  <time>2026-08-27T18:32:06Z</time>
  <course>0.0</course>
  <speed>0.0</speed>
  <fix>3d</fix>
</trkpt>
<trkpt lat="-27.2744389" lon="151.2900638">
  <ele>343.02</ele>
  <time>2026-08-27T18:32:06Z</time>
  <course>147.42</course>
  <speed>0.02</speed>
  <fix>3d</fix>
</trkpt>
<trkpt lat="-27.274439" lon="151.290064">
  <ele>343.0</ele>
  <time>2026-08-27T18:32:06Z</time>
  <course>0.0</course>
  <speed>0.0</speed>
  <fix>3d</fix>
</trkpt>
<trkpt lat="-27.2744389" lon="151.2900638">
  <ele>343.04</ele>
  <time>2026-08-27T18:32:06Z</time>
  <course>147.41</course>
  <speed>0.02</speed>
  <fix>3d</fix>
</trkpt>
<trkpt lat="-27.274439" lon="151.290064">
  <ele>343.0</ele>
  <time>2026-08-27T18:32:06Z</time>
  <course>0.0</course>
  <speed>0.0</speed>
  <fix>3d</fix>
</trkpt>
<trkpt lat="-27.2744389" lon="151.2900638">
  <ele>343.03</ele>
  <time>2026-08-27T18:32:06Z</time>
  <course>147.4</course>
  <speed>0.02</speed>
  <fix>3d</fix>
</trkpt>
<trkpt lat="-27.274439" lon="151.290064">
  <ele>343.0</ele>
  <time>2026-08-27T18:32:06Z</time>
  <course>0.0</course>
  <speed>0.0</speed>
  <fix>3d</fix>
</trkpt>
<trkpt lat="-27.2744389" lon="151.2900638">
  <ele>343.01</ele>
  <time>2026-08-27T18:32:06Z</time>
  <course>147.39</course>
  <speed>0.02</speed>
  <fix>3d</fix>
</trkpt>
<trkpt lat="-27.274439" lon="151.290064">
  <ele>343.0</ele>
  <time>2026-08-27T18:32:06Z</time>
  <course>0.0</course>
  <speed>0.0</speed>
  <fix>3d</fix>
</trkpt>
<trkpt lat="-27.2744389" lon="151.2900638">
  <ele>343.02</ele>
  <time>2026-08-27T18:32:06Z</time>
  <course>147.38</course>
  <speed>0.02</speed>
  <fix>3d</fix>
</trkpt>
<trkpt lat="-27.274439" lon="151.290064">
  <ele>343.0</ele>
  <time>2026-08-27T18:32:06Z</time>
  <course>0.0</course>
  <speed>0.0</speed>
  <fix>3d</fix>
</trkpt>
<trkpt lat="-27.2744389" lon="151.2900638">
  <ele>343.01</ele>
  <time>2026-08-27T18:32:06Z</time>
  <course>147.38</course>
  <speed>0.02</speed>
  <fix>3d</fix>
</trkpt>
<trkpt lat="-27.274439" lon="151.290064">
  <ele>343.0</ele>
  <time>2026-08-27T18:32:06Z</time>
  <course>0.0</course>
  <speed>0.0</speed>
  <fix>3d</fix>
</trkpt>
<trkpt lat="-27.2744389" lon="151.2900638">
  <ele>343.01</ele>
  <time>2026-08-27T18:32:06Z</time>
  <course>147.36</course>
  <speed>0.02</speed>
  <fix>3d</fix>
</trkpt>
<trkpt lat="-27.274439" lon="151.290064">
  <ele>343.0</ele>
  <time>2026-08-27T18:32:06Z</time>
  <course>0.0</course>
  <speed>0.0</speed>
  <fix>3d</fix>
</trkpt>
<trkpt lat="-27.2744389" lon="151.2900638">
  <ele>343.01</ele>
  <time>2026-08-27T18:32:06Z</time>
  <course>147.36</course>
  <speed>0.02</speed>
  <fix>3d</fix>
</trkpt>
<trkpt lat="-27.274439" lon="151.290064">
  <ele>343.0</ele>
  <time>2026-08-27T18:32:06Z</time>
  <course>0.0</course>
  <speed>0.0</speed>
  <fix>3d</fix>
</trkpt>
<trkpt lat="-27.2744389" lon="151.2900638">
  <ele>343.01</ele>
  <time>2026-08-27T18:32:06Z</time>
  <course>147.35</course>
  <speed>0.02</speed>
  <fix>3d</fix>
</trkpt>
<trkpt lat="-27.274439" lon="151.290064">
  <ele>343.0</ele>
  <time>2026-08-27T18:32:06Z</time>
  <course>0.0</course>
  <speed>0.0</speed>
  <fix>3d</fix>
</trkpt>
<trkpt lat="-27.2744389" lon="151.2900638">
  <ele>343.03</ele>
  <time>2026-08-27T18:32:06Z</time>
  <course>147.34</course>
  <speed>0.02</speed>
  <fix>3d</fix>
</trkpt>
<trkpt lat="-27.274439" lon="151.290064">
  <ele>343.0</ele>
  <time>2026-08-27T18:32:06Z</time>
  <course>0.0</course>
  <speed>0.0</speed>
  <fix>3d</fix>
</trkpt>
<trkpt lat="-27.2744389" lon="151.2900638">
  <ele>343.03</ele>
  <time>2026-08-27T18:32:06Z</time>
  <course>147.33</course>
  <speed>0.02</speed>
  <fix>3d</fix>
</trkpt>
<trkpt lat="-27.274439" lon="151.290064">
  <ele>343.0</ele>
  <time>2026-08-27T18:32:06Z</time>
  <course>0.0</course>
  <speed>0.0</speed>
  <fix>3d</fix>
</trkpt>
<trkpt lat="-27.2744389" lon="151.2900638">
  <ele>343.04</ele>
  <time>2026-08-27T18:32:06Z</time>
  <course>147.32</course>
  <speed>0.02</speed>
  <fix>3d</fix>
</trkpt>
<trkpt lat="-27.274439" lon="151.290064">
  <ele>343.0</ele>
  <time>2026-08-27T18:32:06Z</time>
  <course>0.0</course>
  <speed>0.0</speed>
  <fix>3d</fix>
</trkpt>
<trkpt lat="-27.2744389" lon="151.2900638">
  <ele>343.03</ele>
  <time>2026-08-27T18:32:06Z</time>
  <course>147.32</course>
  <speed>0.02</speed>
  <fix>3d</fix>
</trkpt>
<trkpt lat="-27.274439" lon="151.290064">
  <ele>343.0</ele>
  <time>2026-08-27T18:32:06Z</time>
  <course>0.0</course>
  <speed>0.0</speed>
  <fix>3d</fix>
</trkpt>
<trkpt lat="-27.2744389" lon="151.2900638">
  <ele>343.01</ele>
  <time>2026-08-27T18:32:06Z</time>
  <course>147.31</course>
  <speed>0.02</speed>
  <fix>3d</fix>
</trkpt>
<trkpt lat="-27.274439" lon="151.290064">
  <ele>343.0</ele>
  <time>2026-08-27T18:32:06Z</time>
  <course>0.0</course>
  <speed>0.0</speed>
  <fix>3d</fix>
</trkpt>
<trkpt lat="-27.2744389" lon="151.2900638">
  <ele>343.01</ele>
  <time>2026-08-27T18:32:06Z</time>
  <course>147.3</course>
  <speed>0.02</speed>
  <fix>3d</fix>
</trkpt>
<trkpt lat="-27.274439" lon="151.290064">
  <ele>343.0</ele>
  <time>2026-08-27T18:32:06Z</time>
  <course>0.0</course>
  <speed>0.0</speed>
  <fix>3d</fix>
</trkpt>
<trkpt lat="-27.2744389" lon="151.2900638">
  <ele>343.03</ele>
  <time>2026-08-27T18:32:06Z</time>
  <course>147.3</course>
  <speed>0.02</speed>
  <fix>3d</fix>
</trkpt>
<trkpt lat="-27.274439" lon="151.290064">
  <ele>343.0</ele>
  <time>2026-08-27T18:32:06Z</time>
  <course>0.0</course>
  <speed>0.0</speed>
  <fix>3d</fix>
</trkpt>
<trkpt lat="-27.2744389" lon="151.2900638">
  <ele>343.02</ele>
  <time>2026-08-27T18:32:06Z</time>
  <course>147.29</course>
  <speed>0.02</speed>
  <fix>3d</fix>
</trkpt>
<trkpt lat="-27.274439" lon="151.290064">
  <ele>343.0</ele>
  <time>2026-08-27T18:32:06Z</time>
  <course>0.0</course>
  <speed>0.0</speed>
  <fix>3d</fix>
</trkpt>
<trkpt lat="-27.2744389" lon="151.2900638">
  <ele>343.02</ele>
  <time>2026-08-27T18:32:06Z</time>
  <course>147.28</course>
  <speed>0.02</speed>
  <fix>3d</fix>
</trkpt>
<trkpt lat="-27.274439" lon="151.290064">
  <ele>343.0</ele>
  <time>2026-08-27T18:32:06Z</time>
  <course>0.0</course>
  <speed>0.0</speed>
  <fix>3d</fix>
</trkpt>
<trkpt lat="-27.2744389" lon="151.2900638">
  <ele>343.01</ele>
  <time>2026-08-27T18:32:06Z</time>
  <course>147.28</course>
  <speed>0.02</speed>
  <fix>3d</fix>
</trkpt>
<trkpt lat="-27.274439" lon="151.290064">
  <ele>343.0</ele>
  <time>2026-08-27T18:32:06Z</time>
  <course>0.0</course>
  <speed>0.0</speed>
  <fix>3d</fix>
</trkpt>
<trkpt lat="-27.2744389" lon="151.2900638">
  <ele>343.02</ele>
  <time>2026-08-27T18:32:06Z</time>
  <course>147.27</course>
  <speed>0.02</speed>
  <fix>3d</fix>
</trkpt>
<trkpt lat="-27.274439" lon="151.290064">
  <ele>343.0</ele>
  <time>2026-08-27T18:32:06Z</time>
  <course>0.0</course>
  <speed>0.0</speed>
  <fix>3d</fix>
</trkpt>
<trkpt lat="-27.2744389" lon="151.2900638">
  <ele>343.02</ele>
  <time>2026-08-27T18:32:06Z</time>
  <course>147.27</course>
  <speed>0.02</speed>
  <fix>3d</fix>
</trkpt>
<trkpt lat="-27.274439" lon="151.290064">
  <ele>343.0</ele>
  <time>2026-08-27T18:32:06Z</time>
  <course>0.0</course>
  <speed>0.0</speed>
  <fix>3d</fix>
</trkpt>
<trkpt lat="-27.2744389" lon="151.2900638">
  <ele>343.04</ele>
  <time>2026-08-27T18:32:06Z</time>
  <course>147.26</course>
  <speed>0.02</speed>
  <fix>3d</fix>
</trkpt>
<trkpt lat="-27.274439" lon="151.290064">
  <ele>343.0</ele>
  <time>2026-08-27T18:32:06Z</time>
  <course>0.0</course>
  <speed>0.0</speed>
  <fix>3d</fix>
</trkpt>
<trkpt lat="-27.2744389" lon="151.2900638">
  <ele>343.04</ele>
  <time>2026-08-27T18:32:06Z</time>
  <course>147.25</course>
  <speed>0.02</speed>
  <fix>3d</fix>
</trkpt>
<trkpt lat="-27.274439" lon="151.290064">
  <ele>343.0</ele>
  <time>2026-08-27T18:32:06Z</time>
  <course>0.0</course>
  <speed>0.0</speed>
  <fix>3d</fix>
</trkpt>
<trkpt lat="-27.2744389" lon="151.2900638">
  <ele>343.01</ele>
  <time>2026-08-27T18:32:06Z</time>
  <course>147.25</course>
  <speed>0.02</speed>
  <fix>3d</fix>
</trkpt>
<trkpt lat="-27.274439" lon="151.290064">
  <ele>343.0</ele>
  <time>2026-08-27T18:32:06Z</time>
  <course>0.0</course>
  <speed>0.0</speed>
  <fix>3d</fix>
</trkpt>
<trkpt lat="-27.2744389" lon="151.2900638">
  <ele>343.01</ele>
  <time>2026-08-27T18:32:06Z</time>
  <course>147.24</course>
  <speed>0.02</speed>
  <fix>3d</fix>
</trkpt>
<trkpt lat="-27.274439" lon="151.290064">
  <ele>343.0</ele>
  <time>2026-08-27T18:32:06Z</time>
  <course>0.0</course>
  <speed>0.0</speed>
  <fix>3d</fix>
</trkpt>
<trkpt lat="-27.2744389" lon="151.2900638">
  <ele>343.04</ele>
  <time>2026-08-27T18:32:06Z</time>
  <course>147.24</course>
  <speed>0.02</speed>
  <fix>3d</fix>
</trkpt>
<trkpt lat="-27.274439" lon="151.290064">
  <ele>343.0</ele>
  <time>2026-08-27T18:32:06Z</time>
  <course>0.0</course>
  <speed>0.0</speed>
  <fix>3d</fix>
</trkpt>
<trkpt lat="-27.2744389" lon="151.2900638">
  <ele>343.03</ele>
  <time>2026-08-27T18:32:06Z</time>
  <course>147.24</course>
  <speed>0.02</speed>
  <fix>3d</fix>
</trkpt>
<trkpt lat="-27.274439" lon="151.290064">
  <ele>343.0</ele>
  <time>2026-08-27T18:32:06Z</time>
  <course>0.0</course>
  <speed>0.0</speed>
  <fix>3d</fix>
</trkpt>
<trkpt lat="-27.2744389" lon="151.2900638">
  <ele>343.02</ele>
  <time>2026-08-27T18:32:06Z</time>
  <course>147.23</course>
  <speed>0.02</speed>
  <fix>3d</fix>
</trkpt>
<trkpt lat="-27.274439" lon="151.290064">
  <ele>343.0</ele>
  <time>2026-08-27T18:32:06Z</time>
  <course>0.0</course>
  <speed>0.0</speed>
  <fix>3d</fix>
</trkpt>
<trkpt lat="-27.2744389" lon="151.2900638">
  <ele>343.02</ele>
  <time>2026-08-27T18:32:06Z</time>
  <course>147.23</course>
  <speed>0.02</speed>
  <fix>3d</fix>
</trkpt>
<trkpt lat="-27.274439" lon="151.290064">
  <ele>343.0</ele>
  <time>2026-08-27T18:32:06Z</time>
  <course>0.0</course>
  <speed>0.0</speed>
  <fix>3d</fix>
</trkpt>
<trkpt lat="-27.2744389" lon="151.2900638">
  <ele>343.02</ele>
  <time>2026-08-27T18:32:06Z</time>
  <course>147.22</course>
  <speed>0.02</speed>
  <fix>3d</fix>
</trkpt>
<trkpt lat="-27.274439" lon="151.290064">
  <ele>343.0</ele>
  <time>2026-08-27T18:32:06Z</time>
  <course>0.0</course>
  <speed>0.0</speed>
  <fix>3d</fix>
</trkpt>
<trkpt lat="-27.2744389" lon="151.2900638">
  <ele>343.03</ele>
  <time>2026-08-27T18:32:06Z</time>
  <course>147.22</course>
  <speed>0.02</speed>
  <fix>3d</fix>
</trkpt>
<trkpt lat="-27.274439" lon="151.290064">
  <ele>343.0</ele>
  <time>2026-08-27T18:32:06Z</time>
  <course>0.0</course>
  <speed>0.0</speed>
  <fix>3d</fix>
</trkpt>
<trkpt lat="-27.2744389" lon="151.2900638">
  <ele>343.03</ele>
  <time>2026-08-27T18:32:06Z</time>
  <course>147.21</course>
  <speed>0.02</speed>
  <fix>3d</fix>
</trkpt>
<trkpt lat="-27.274439" lon="151.290064">
  <ele>343.0</ele>
  <time>2026-08-27T18:32:06Z</time>
  <course>0.0</course>
  <speed>0.0</speed>
  <fix>3d</fix>
</trkpt>
<trkpt lat="-27.2744389" lon="151.2900638">
  <ele>343.05</ele>
  <time>2026-08-27T18:32:06Z</time>
  <course>147.21</course>
  <speed>0.02</speed>
  <fix>3d</fix>
</trkpt>
<trkpt lat="-27.274439" lon="151.290064">
  <ele>343.0</ele>
  <time>2026-08-27T18:32:06Z</time>
  <course>0.0</course>
  <speed>0.0</speed>
  <fix>3d</fix>
</trkpt>
<trkpt lat="-27.2744389" lon="151.2900638">
  <ele>343.06</ele>
  <time>2026-08-27T18:32:06Z</time>
  <course>147.21</course>
  <speed>0.02</speed>
  <fix>3d</fix>
</trkpt>
<trkpt lat="-27.274439" lon="151.290064">
  <ele>343.0</ele>
  <time>2026-08-27T18:32:06Z</time>
  <course>0.0</course>
  <speed>0.0</speed>
  <fix>3d</fix>
</trkpt>
<trkpt lat="-27.2744389" lon="151.2900638">
  <ele>343.04</ele>
  <time>2026-08-27T18:32:06Z</time>
  <course>147.2</course>
  <speed>0.02</speed>
  <fix>3d</fix>
</trkpt>
<trkpt lat="-27.274439" lon="151.290064">
  <ele>343.0</ele>
  <time>2026-08-27T18:32:06Z</time>
  <course>0.0</course>
  <speed>0.0</speed>
  <fix>3d</fix>
</trkpt>
<trkpt lat="-27.2744389" lon="151.2900638">
  <ele>343.03</ele>
  <time>2026-08-27T18:32:06Z</time>
  <course>147.2</course>
  <speed>0.02</speed>
  <fix>3d</fix>
</trkpt>
<trkpt lat="-27.274439" lon="151.290064">
  <ele>343.0</ele>
  <time>2026-08-27T18:32:06Z</time>
  <course>0.0</course>
  <speed>0.0</speed>
  <fix>3d</fix>
</trkpt>
<trkpt lat="-27.2744389" lon="151.2900638">
  <ele>343.02</ele>
  <time>2026-08-27T18:32:06Z</time>
  <course>147.2</course>
  <speed>0.02</speed>
  <fix>3d</fix>
</trkpt>
<trkpt lat="-27.274439" lon="151.290064">
  <ele>343.0</ele>
  <time>2026-08-27T18:32:06Z</time>
  <course>0.0</course>
  <speed>0.0</speed>
  <fix>3d</fix>
</trkpt>
<trkpt lat="-27.2744389" lon="151.2900638">
  <ele>343.01</ele>
  <time>2026-08-27T18:32:06Z</time>
  <course>147.19</course>
  <speed>0.02</speed>
  <fix>3d</fix>
</trkpt>
<trkpt lat="-27.274439" lon="151.290064">
  <ele>343.0</ele>
  <time>2026-08-27T18:32:06Z</time>
  <course>0.0</course>
  <speed>0.0</speed>
  <fix>3d</fix>
</trkpt>
<trkpt lat="-27.2744389" lon="151.2900638">
  <ele>342.99</ele>
  <time>2026-08-27T18:32:06Z</time>
  <course>147.19</course>
  <speed>0.02</speed>
  <fix>3d</fix>
</trkpt>
<trkpt lat="-27.274439" lon="151.290064">
  <ele>343.0</ele>
  <time>2026-08-27T18:32:06Z</time>
  <course>0.0</course>
  <speed>0.0</speed>
  <fix>3d</fix>
</trkpt>
<trkpt lat="-27.2744389" lon="151.2900638">
  <ele>342.98</ele>
  <time>2026-08-27T18:32:06Z</time>
  <course>147.19</course>
  <speed>0.02</speed>
  <fix>3d</fix>
</trkpt>
<trkpt lat="-27.274439" lon="151.290064">
  <ele>343.0</ele>
  <time>2026-08-27T18:32:06Z</time>
  <course>0.0</course>
  <speed>0.0</speed>
  <fix>3d</fix>
</trkpt>
<trkpt lat="-27.2744389" lon="151.2900638">
  <ele>342.99</ele>
  <time>2026-08-27T18:32:06Z</time>
  <course>147.19</course>
  <speed>0.02</speed>
  <fix>3d</fix>
</trkpt>
<trkpt lat="-27.274439" lon="151.290064">
  <ele>343.0</ele>
  <time>2026-08-27T18:32:06Z</time>
  <course>0.0</course>
  <speed>0.0</speed>
  <fix>3d</fix>
</trkpt>
<trkpt lat="-27.2744389" lon="151.2900638">
  <ele>343.0</ele>
  <time>2026-08-27T18:32:07Z</time>
  <course>147.18</course>
  <speed>0.02</speed>
  <fix>3d</fix>
</trkpt>
<trkpt lat="-27.274439" lon="151.290064">
  <ele>343.0</ele>
  <time>2026-08-27T18:32:07Z</time>
  <course>0.0</course>
  <speed>0.0</speed>
  <fix>3d</fix>
</trkpt>
<trkpt lat="-27.2744389" lon="151.2900638">
  <ele>343.01</ele>
  <time>2026-08-27T18:32:07Z</time>
  <course>147.18</course>
  <speed>0.02</speed>
  <fix>3d</fix>
</trkpt>
<trkpt lat="-27.274439" lon="151.290064">
  <ele>343.0</ele>
  <time>2026-08-27T18:32:07Z</time>
  <course>0.0</course>
  <speed>0.0</speed>
  <fix>3d</fix>
</trkpt>
<trkpt lat="-27.2744389" lon="151.2900638">
  <ele>343.03</ele>
  <time>2026-08-27T18:32:07Z</time>
  <course>147.18</course>
  <speed>0.02</speed>
  <fix>3d</fix>
</trkpt>
<trkpt lat="-27.274439" lon="151.290064">
  <ele>343.0</ele>
  <time>2026-08-27T18:32:07Z</time>
  <course>0.0</course>
  <speed>0.0</speed>
  <fix>3d</fix>
</trkpt>
<trkpt lat="-27.2744389" lon="151.2900638">
  <ele>343.02</ele>
  <time>2026-08-27T18:32:07Z</time>
  <course>147.17</course>
  <speed>0.02</speed>
  <fix>3d</fix>
</trkpt>
<trkpt lat="-27.274439" lon="151.290064">
  <ele>343.0</ele>
  <time>2026-08-27T18:32:07Z</time>
  <course>0.0</course>
  <speed>0.0</speed>
  <fix>3d</fix>
</trkpt>
<trkpt lat="-27.2744389" lon="151.2900638">
  <ele>343.02</ele>
  <time>2026-08-27T18:32:07Z</time>
  <course>147.17</course>
  <speed>0.02</speed>
  <fix>3d</fix>
</trkpt>
<trkpt lat="-27.274439" lon="151.290064">
  <ele>343.0</ele>
  <time>2026-08-27T18:32:07Z</time>
  <course>0.0</course>
  <speed>0.0</speed>
  <fix>3d</fix>
</trkpt>
<trkpt lat="-27.2744389" lon="151.2900638">
  <ele>343.01</ele>
  <time>2026-08-27T18:32:07Z</time>
  <course>147.17</course>
  <speed>0.02</speed>
  <fix>3d</fix>
</trkpt>
<trkpt lat="-27.274439" lon="151.290064">
  <ele>343.0</ele>
  <time>2026-08-27T18:32:07Z</time>
  <course>0.0</course>
  <speed>0.0</speed>
  <fix>3d</fix>
</trkpt>
<trkpt lat="-27.2744389" lon="151.2900638">
  <ele>343.0</ele>
  <time>2026-08-27T18:32:07Z</time>
  <course>147.17</course>
  <speed>0.02</speed>
  <fix>3d</fix>
</trkpt>
<trkpt lat="-27.274439" lon="151.290064">
  <ele>343.0</ele>
  <time>2026-08-27T18:32:07Z</time>
  <course>0.0</course>
  <speed>0.0</speed>
  <fix>3d</fix>
</trkpt>
<trkpt lat="-27.2744389" lon="151.2900638">
  <ele>343.01</ele>
  <time>2026-08-27T18:32:07Z</time>
  <course>147.16</course>
  <speed>0.02</speed>
  <fix>3d</fix>
</trkpt>
<trkpt lat="-27.274439" lon="151.290064">
  <ele>343.0</ele>
  <time>2026-08-27T18:32:07Z</time>
  <course>0.0</course>
  <speed>0.0</speed>
  <fix>3d</fix>
</trkpt>
<trkpt lat="-27.2744389" lon="151.2900638">
  <ele>343.01</ele>
  <time>2026-08-27T18:32:07Z</time>
  <course>147.16</course>
  <speed>0.02</speed>
  <fix>3d</fix>
</trkpt>
<trkpt lat="-27.274439" lon="151.290064">
  <ele>343.0</ele>
  <time>2026-08-27T18:32:07Z</time>
  <course>0.0</course>
  <speed>0.0</speed>
  <fix>3d</fix>
</trkpt>
<trkpt lat="-27.2744389" lon="151.2900638">
  <ele>343.03</ele>
  <time>2026-08-27T18:32:07Z</time>
  <course>147.16</course>
  <speed>0.02</speed>
  <fix>3d</fix>
</trkpt>
<trkpt lat="-27.274439" lon="151.290064">
  <ele>343.0</ele>
  <time>2026-08-27T18:32:07Z</time>
  <course>0.0</course>
  <speed>0.0</speed>
  <fix>3d</fix>
</trkpt>
<trkpt lat="-27.2744389" lon="151.2900638">
  <ele>343.05</ele>
  <time>2026-08-27T18:32:07Z</time>
  <course>147.16</course>
  <speed>0.02</speed>
  <fix>3d</fix>
</trkpt>
<trkpt lat="-27.274439" lon="151.290064">
  <ele>343.0</ele>
  <time>2026-08-27T18:32:07Z</time>
  <course>0.0</course>
  <speed>0.0</speed>
  <fix>3d</fix>
</trkpt>
<trkpt lat="-27.2744389" lon="151.2900638">
  <ele>343.05</ele>
  <time>2026-08-27T18:32:07Z</time>
  <course>147.16</course>
  <speed>0.02</speed>
  <fix>3d</fix>
</trkpt>
<trkpt lat="-27.274439" lon="151.290064">
  <ele>343.0</ele>
  <time>2026-08-27T18:32:07Z</time>
  <course>0.0</course>
  <speed>0.0</speed>
  <fix>3d</fix>
</trkpt>
<trkpt lat="-27.2744389" lon="151.2900638">
  <ele>343.04</ele>
  <time>2026-08-27T18:32:07Z</time>
  <course>147.16</course>
  <speed>0.02</speed>
  <fix>3d</fix>
</trkpt>
<trkpt lat="-27.274439" lon="151.290064">
  <ele>343.0</ele>
  <time>2026-08-27T18:32:07Z</time>
  <course>0.0</course>
  <speed>0.0</speed>
  <fix>3d</fix>
</trkpt>
<trkpt lat="-27.2744389" lon="151.2900638">
  <ele>343.02</ele>
  <time>2026-08-27T18:32:07Z</time>
  <course>147.15</course>
  <speed>0.02</speed>
  <fix>3d</fix>
</trkpt>
<trkpt lat="-27.274439" lon="151.290064">
  <ele>343.0</ele>
  <time>2026-08-27T18:32:07Z</time>
  <course>0.0</course>
  <speed>0.0</speed>
  <fix>3d</fix>
</trkpt>
<trkpt lat="-27.2744389" lon="151.2900638">
  <ele>343.01</ele>
  <time>2026-08-27T18:32:07Z</time>
  <course>147.15</course>
  <speed>0.02</speed>
  <fix>3d</fix>
</trkpt>
<trkpt lat="-27.274439" lon="151.290064">
  <ele>343.0</ele>
  <time>2026-08-27T18:32:07Z</time>
  <course>0.0</course>
  <speed>0.0</speed>
  <fix>3d</fix>
</trkpt>
<trkpt lat="-27.2744389" lon="151.2900638">
  <ele>343.0</ele>
  <time>2026-08-27T18:32:07Z</time>
  <course>147.15</course>
  <speed>0.02</speed>
  <fix>3d</fix>
</trkpt>
<trkpt lat="-27.274439" lon="151.290064">
  <ele>343.0</ele>
  <time>2026-08-27T18:32:07Z</time>
  <course>0.0</course>
  <speed>0.0</speed>
  <fix>3d</fix>
</trkpt>
<trkpt lat="-27.2744389" lon="151.2900638">
  <ele>342.99</ele>
  <time>2026-08-27T18:32:07Z</time>
  <course>147.15</course>
  <speed>0.02</speed>
  <fix>3d</fix>
</trkpt>
<trkpt lat="-27.274439" lon="151.290064">
  <ele>343.0</ele>
  <time>2026-08-27T18:32:07Z</time>
  <course>0.0</course>
  <speed>0.0</speed>
  <fix>3d</fix>
</trkpt>
<trkpt lat="-27.2744389" lon="151.2900638">
  <ele>343.0</ele>
  <time>2026-08-27T18:32:07Z</time>
  <course>147.15</course>
  <speed>0.02</speed>
  <fix>3d</fix>
</trkpt>
<trkpt lat="-27.274439" lon="151.290064">
  <ele>343.0</ele>
  <time>2026-08-27T18:32:07Z</time>
  <course>0.0</course>
  <speed>0.0</speed>
  <fix>3d</fix>
</trkpt>
<trkpt lat="-27.2744389" lon="151.2900638">
  <ele>343.03</ele>
  <time>2026-08-27T18:32:07Z</time>
  <course>147.15</course>
  <speed>0.02</speed>
  <fix>3d</fix>
</trkpt>
<trkpt lat="-27.274439" lon="151.290064">
  <ele>343.0</ele>
  <time>2026-08-27T18:32:07Z</time>
  <course>0.0</course>
  <speed>0.0</speed>
  <fix>3d</fix>
</trkpt>
<trkpt lat="-27.2744389" lon="151.2900638">
  <ele>343.01</ele>
  <time>2026-08-27T18:32:07Z</time>
  <course>147.14</course>
  <speed>0.02</speed>
  <fix>3d</fix>
</trkpt>
<trkpt lat="-27.274439" lon="151.290064">
  <ele>343.0</ele>
  <time>2026-08-27T18:32:07Z</time>
  <course>0.0</course>
  <speed>0.0</speed>
  <fix>3d</fix>
</trkpt>
<trkpt lat="-27.2744389" lon="151.2900638">
  <ele>343.02</ele>
  <time>2026-08-27T18:32:07Z</time>
  <course>147.14</course>
  <speed>0.02</speed>
  <fix>3d</fix>
</trkpt>
<trkpt lat="-27.274439" lon="151.290064">
  <ele>343.0</ele>
  <time>2026-08-27T18:32:07Z</time>
  <course>0.0</course>
  <speed>0.0</speed>
  <fix>3d</fix>
</trkpt>
<trkpt lat="-27.2744389" lon="151.2900638">
  <ele>343.02</ele>
  <time>2026-08-27T18:32:07Z</time>
  <course>147.14</course>
  <speed>0.02</speed>
  <fix>3d</fix>
</trkpt>
<trkpt lat="-27.274439" lon="151.290064">
  <ele>343.0</ele>
  <time>2026-08-27T18:32:07Z</time>
  <course>0.0</course>
  <speed>0.0</speed>
  <fix>3d</fix>
</trkpt>
<trkpt lat="-27.2744389" lon="151.2900638">
  <ele>343.03</ele>
  <time>2026-08-27T18:32:07Z</time>
  <course>147.14</course>
  <speed>0.02</speed>
  <fix>3d</fix>
</trkpt>
<trkpt lat="-27.274439" lon="151.290064">
  <ele>343.0</ele>
  <time>2026-08-27T18:32:07Z</time>
  <course>0.0</course>
  <speed>0.0</speed>
  <fix>3d</fix>
</trkpt>
<trkpt lat="-27.2744389" lon="151.2900638">
  <ele>343.02</ele>
  <time>2026-08-27T18:32:07Z</time>
  <course>147.14</course>
  <speed>0.02</speed>
  <fix>3d</fix>
</trkpt>
<trkpt lat="-27.274439" lon="151.290064">
  <ele>343.0</ele>
  <time>2026-08-27T18:32:07Z</time>
  <course>0.0</course>
  <speed>0.0</speed>
  <fix>3d</fix>
</trkpt>
<trkpt lat="-27.2744389" lon="151.2900638">
  <ele>343.04</ele>
  <time>2026-08-27T18:32:07Z</time>
  <course>147.14</course>
  <speed>0.02</speed>
  <fix>3d</fix>
</trkpt>
<trkpt lat="-27.274439" lon="151.290064">
  <ele>343.0</ele>
  <time>2026-08-27T18:32:07Z</time>
  <course>0.0</course>
  <speed>0.0</speed>
  <fix>3d</fix>
</trkpt>
<trkpt lat="-27.2744389" lon="151.2900638">
  <ele>343.04</ele>
  <time>2026-08-27T18:32:07Z</time>
  <course>147.14</course>
  <speed>0.02</speed>
  <fix>3d</fix>
</trkpt>
<trkpt lat="-27.274439" lon="151.290064">
  <ele>343.0</ele>
  <time>2026-08-27T18:32:07Z</time>
  <course>0.0</course>
  <speed>0.0</speed>
  <fix>3d</fix>
</trkpt>
<trkpt lat="-27.2744389" lon="151.2900638">
  <ele>343.02</ele>
  <time>2026-08-27T18:32:07Z</time>
  <course>147.14</course>
  <speed>0.02</speed>
  <fix>3d</fix>
</trkpt>
<trkpt lat="-27.274439" lon="151.290064">
  <ele>343.0</ele>
  <time>2026-08-27T18:32:07Z</time>
  <course>0.0</course>
  <speed>0.0</speed>
  <fix>3d</fix>
</trkpt>
<trkpt lat="-27.2744389" lon="151.2900638">
  <ele>343.01</ele>
  <time>2026-08-27T18:32:07Z</time>
  <course>147.14</course>
  <speed>0.02</speed>
  <fix>3d</fix>
</trkpt>
<trkpt lat="-27.274439" lon="151.290064">
  <ele>343.0</ele>
  <time>2026-08-27T18:32:07Z</time>
  <course>0.0</course>
  <speed>0.0</speed>
  <fix>3d</fix>
</trkpt>
<trkpt lat="-27.2744389" lon="151.2900638">
  <ele>343.01</ele>
  <time>2026-08-27T18:32:07Z</time>
  <course>147.13</course>
  <speed>0.02</speed>
  <fix>3d</fix>
</trkpt>
<trkpt lat="-27.274439" lon="151.290064">
  <ele>343.0</ele>
  <time>2026-08-27T18:32:07Z</time>
  <course>0.0</course>
  <speed>0.0</speed>
  <fix>3d</fix>
</trkpt>
<trkpt lat="-27.2744389" lon="151.2900638">
  <ele>343.02</ele>
  <time>2026-08-27T18:32:07Z</time>
  <course>147.13</course>
  <speed>0.02</speed>
  <fix>3d</fix>
</trkpt>
<trkpt lat="-27.274439" lon="151.290064">
  <ele>343.0</ele>
  <time>2026-08-27T18:32:07Z</time>
  <course>0.0</course>
  <speed>0.0</speed>
  <fix>3d</fix>
</trkpt>
<trkpt lat="-27.2744389" lon="151.2900638">
  <ele>343.03</ele>
  <time>2026-08-27T18:32:07Z</time>
  <course>147.13</course>
  <speed>0.02</speed>
  <fix>3d</fix>
</trkpt>
<trkpt lat="-27.274439" lon="151.290064">
  <ele>343.0</ele>
  <time>2026-08-27T18:32:07Z</time>
  <course>0.0</course>
  <speed>0.0</speed>
  <fix>3d</fix>
</trkpt>
<trkpt lat="-27.2744389" lon="151.2900638">
  <ele>343.04</ele>
  <time>2026-08-27T18:32:07Z</time>
  <course>147.13</course>
  <speed>0.02</speed>
  <fix>3d</fix>
</trkpt>
<trkpt lat="-27.274439" lon="151.290064">
  <ele>343.0</ele>
  <time>2026-08-27T18:32:07Z</time>
  <course>0.0</course>
  <speed>0.0</speed>
  <fix>3d</fix>
</trkpt>
<trkpt lat="-27.2744389" lon="151.2900638">
  <ele>343.06</ele>
  <time>2026-08-27T18:32:07Z</time>
  <course>147.13</course>
  <speed>0.02</speed>
  <fix>3d</fix>
</trkpt>
<trkpt lat="-27.274439" lon="151.290064">
  <ele>343.0</ele>
  <time>2026-08-27T18:32:07Z</time>
  <course>0.0</course>
  <speed>0.0</speed>
  <fix>3d</fix>
</trkpt>
<trkpt lat="-27.2744389" lon="151.2900638">
  <ele>343.06</ele>
  <time>2026-08-27T18:32:07Z</time>
  <course>147.13</course>
  <speed>0.02</speed>
  <fix>3d</fix>
</trkpt>
<trkpt lat="-27.274439" lon="151.290064">
  <ele>343.0</ele>
  <time>2026-08-27T18:32:07Z</time>
  <course>0.0</course>
  <speed>0.0</speed>
  <fix>3d</fix>
</trkpt>
<trkpt lat="-27.2744389" lon="151.2900638">
  <ele>343.06</ele>
  <time>2026-08-27T18:32:07Z</time>
  <course>147.13</course>
  <speed>0.02</speed>
  <fix>3d</fix>
</trkpt>
<trkpt lat="-27.274439" lon="151.290064">
  <ele>343.0</ele>
  <time>2026-08-27T18:32:07Z</time>
  <course>0.0</course>
  <speed>0.0</speed>
  <fix>3d</fix>
</trkpt>
<trkpt lat="-27.2744389" lon="151.2900638">
  <ele>343.04</ele>
  <time>2026-08-27T18:32:07Z</time>
  <course>147.13</course>
  <speed>0.02</speed>
  <fix>3d</fix>
</trkpt>
<trkpt lat="-27.274439" lon="151.290064">
  <ele>343.0</ele>
  <time>2026-08-27T18:32:07Z</time>
  <course>0.0</course>
  <speed>0.0</speed>
  <fix>3d</fix>
</trkpt>
<trkpt lat="-27.2744389" lon="151.2900638">
  <ele>343.03</ele>
  <time>2026-08-27T18:32:07Z</time>
  <course>147.13</course>
  <speed>0.02</speed>
  <fix>3d</fix>
</trkpt>
<trkpt lat="-27.274439" lon="151.290064">
  <ele>343.0</ele>
  <time>2026-08-27T18:32:07Z</time>
  <course>0.0</course>
  <speed>0.0</speed>
  <fix>3d</fix>
</trkpt>
<trkpt lat="-27.2744389" lon="151.2900638">
  <ele>343.02</ele>
  <time>2026-08-27T18:32:07Z</time>
  <course>147.13</course>
  <speed>0.02</speed>
  <fix>3d</fix>
</trkpt>
<trkpt lat="-27.274439" lon="151.290064">
  <ele>343.0</ele>
  <time>2026-08-27T18:32:07Z</time>
  <course>0.0</course>
  <speed>0.0</speed>
  <fix>3d</fix>
</trkpt>
<trkpt lat="-27.2744389" lon="151.2900638">
  <ele>343.03</ele>
  <time>2026-08-27T18:32:07Z</time>
  <course>147.13</course>
  <speed>0.02</speed>
  <fix>3d</fix>
</trkpt>
<trkpt lat="-27.274439" lon="151.290064">
  <ele>343.0</ele>
  <time>2026-08-27T18:32:07Z</time>
  <course>0.0</course>
  <speed>0.0</speed>
  <fix>3d</fix>
</trkpt>
<trkpt lat="-27.2744389" lon="151.2900638">
  <ele>343.01</ele>
  <time>2026-08-27T18:32:07Z</time>
  <course>147.13</course>
  <speed>0.02</speed>
  <fix>3d</fix>
</trkpt>
<trkpt lat="-27.274439" lon="151.290064">
  <ele>343.0</ele>
  <time>2026-08-27T18:32:07Z</time>
  <course>0.0</course>
  <speed>0.0</speed>
  <fix>3d</fix>
</trkpt>
<trkpt lat="-27.2744389" lon="151.2900638">
  <ele>343.01</ele>
  <time>2026-08-27T18:32:07Z</time>
  <course>147.12</course>
  <speed>0.02</speed>
  <fix>3d</fix>
</trkpt>
<trkpt lat="-27.274439" lon="151.290064">
  <ele>343.0</ele>
  <time>2026-08-27T18:32:07Z</time>
  <course>0.0</course>
  <speed>0.0</speed>
  <fix>3d</fix>
</trkpt>
<trkpt lat="-27.2744389" lon="151.2900638">
  <ele>343.02</ele>
  <time>2026-08-27T18:32:07Z</time>
  <course>147.13</course>
  <speed>0.02</speed>
  <fix>3d</fix>
</trkpt>
<trkpt lat="-27.274439" lon="151.290064">
  <ele>343.0</ele>
  <time>2026-08-27T18:32:07Z</time>
  <course>0.0</course>
  <speed>0.0</speed>
  <fix>3d</fix>
</trkpt>
<trkpt lat="-27.2744389" lon="151.2900638">
  <ele>343.01</ele>
  <time>2026-08-27T18:32:07Z</time>
  <course>147.12</course>
  <speed>0.02</speed>
  <fix>3d</fix>
</trkpt>
<trkpt lat="-27.274439" lon="151.290064">
  <ele>343.0</ele>
  <time>2026-08-27T18:32:07Z</time>
  <course>0.0</course>
  <speed>0.0</speed>
  <fix>3d</fix>
</trkpt>
<trkpt lat="-27.2744389" lon="151.2900638">
  <ele>343.0</ele>
  <time>2026-08-27T18:32:07Z</time>
  <course>147.13</course>
  <speed>0.02</speed>
  <fix>3d</fix>
</trkpt>
<trkpt lat="-27.274439" lon="151.290064">
  <ele>343.0</ele>
  <time>2026-08-27T18:32:07Z</time>
  <course>0.0</course>
  <speed>0.0</speed>
  <fix>3d</fix>
</trkpt>
<trkpt lat="-27.2744389" lon="151.2900638">
  <ele>343.02</ele>
  <time>2026-08-27T18:32:07Z</time>
  <course>147.12</course>
  <speed>0.02</speed>
  <fix>3d</fix>
</trkpt>
<trkpt lat="-27.274439" lon="151.290064">
  <ele>343.0</ele>
  <time>2026-08-27T18:32:07Z</time>
  <course>0.0</course>
  <speed>0.0</speed>
  <fix>3d</fix>
</trkpt>
<trkpt lat="-27.2744389" lon="151.2900638">
  <ele>343.02</ele>
  <time>2026-08-27T18:32:07Z</time>
  <course>147.13</course>
  <speed>0.02</speed>
  <fix>3d</fix>
</trkpt>
<trkpt lat="-27.274439" lon="151.290064">
  <ele>343.0</ele>
  <time>2026-08-27T18:32:07Z</time>
  <course>0.0</course>
  <speed>0.0</speed>
  <fix>3d</fix>
</trkpt>
<trkpt lat="-27.2744389" lon="151.2900638">
  <ele>343.01</ele>
  <time>2026-08-27T18:32:07Z</time>
  <course>147.12</course>
  <speed>0.02</speed>
  <fix>3d</fix>
</trkpt>
<trkpt lat="-27.274439" lon="151.290064">
  <ele>343.0</ele>
  <time>2026-08-27T18:32:07Z</time>
  <course>0.0</course>
  <speed>0.0</speed>
  <fix>3d</fix>
</trkpt>
<trkpt lat="-27.2744389" lon="151.2900638">
  <ele>343.04</ele>
  <time>2026-08-27T18:32:07Z</time>
  <course>147.13</course>
  <speed>0.02</speed>
  <fix>3d</fix>
</trkpt>
<trkpt lat="-27.274439" lon="151.290064">
  <ele>343.0</ele>
  <time>2026-08-27T18:32:07Z</time>
  <course>0.0</course>
  <speed>0.0</speed>
  <fix>3d</fix>
</trkpt>
<trkpt lat="-27.2744389" lon="151.2900638">
  <ele>343.05</ele>
  <time>2026-08-27T18:32:07Z</time>
  <course>147.12</course>
  <speed>0.02</speed>
  <fix>3d</fix>
</trkpt>
<trkpt lat="-27.274439" lon="151.290064">
  <ele>343.0</ele>
  <time>2026-08-27T18:32:07Z</time>
  <course>0.0</course>
  <speed>0.0</speed>
  <fix>3d</fix>
</trkpt>
<trkpt lat="-27.2744389" lon="151.2900638">
  <ele>343.05</ele>
  <time>2026-08-27T18:32:07Z</time>
  <course>147.13</course>
  <speed>0.02</speed>
  <fix>3d</fix>
</trkpt>
<trkpt lat="-27.274439" lon="151.290064">
  <ele>343.0</ele>
  <time>2026-08-27T18:32:07Z</time>
  <course>0.0</course>
  <speed>0.0</speed>
  <fix>3d</fix>
</trkpt>
<trkpt lat="-27.2744389" lon="151.2900638">
  <ele>343.04</ele>
  <time>2026-08-27T18:32:07Z</time>
  <course>147.12</course>
  <speed>0.02</speed>
  <fix>3d</fix>
</trkpt>
<trkpt lat="-27.274439" lon="151.290064">
  <ele>343.0</ele>
  <time>2026-08-27T18:32:07Z</time>
  <course>0.0</course>
  <speed>0.0</speed>
  <fix>3d</fix>
</trkpt>
<trkpt lat="-27.2744389" lon="151.2900638">
  <ele>343.03</ele>
  <time>2026-08-27T18:32:07Z</time>
  <course>147.13</course>
  <speed>0.02</speed>
  <fix>3d</fix>
</trkpt>
<trkpt lat="-27.274439" lon="151.290064">
  <ele>343.0</ele>
  <time>2026-08-27T18:32:07Z</time>
  <course>0.0</course>
  <speed>0.0</speed>
  <fix>3d</fix>
</trkpt>
<trkpt lat="-27.2744389" lon="151.2900638">
  <ele>343.03</ele>
  <time>2026-08-27T18:32:07Z</time>
  <course>147.13</course>
  <speed>0.02</speed>
  <fix>3d</fix>
</trkpt>
<trkpt lat="-27.274439" lon="151.290064">
  <ele>343.0</ele>
  <time>2026-08-27T18:32:07Z</time>
  <course>0.0</course>
  <speed>0.0</speed>
  <fix>3d</fix>
</trkpt>
<trkpt lat="-27.2744389" lon="151.2900638">
  <ele>343.03</ele>
  <time>2026-08-27T18:32:07Z</time>
  <course>147.13</course>
  <speed>0.02</speed>
  <fix>3d</fix>
</trkpt>
<trkpt lat="-27.274439" lon="151.290064">
  <ele>343.0</ele>
  <time>2026-08-27T18:32:07Z</time>
  <course>0.0</course>
  <speed>0.0</speed>
  <fix>3d</fix>
</trkpt>
<trkpt lat="-27.2744389" lon="151.2900638">
  <ele>343.01</ele>
  <time>2026-08-27T18:32:07Z</time>
  <course>147.13</course>
  <speed>0.02</speed>
  <fix>3d</fix>
</trkpt>
<trkpt lat="-27.274439" lon="151.290064">
  <ele>343.0</ele>
  <time>2026-08-27T18:32:07Z</time>
  <course>0.0</course>
  <speed>0.0</speed>
  <fix>3d</fix>
</trkpt>
<trkpt lat="-27.2744389" lon="151.2900638">
  <ele>343.01</ele>
  <time>2026-08-27T18:32:07Z</time>
  <course>147.12</course>
  <speed>0.02</speed>
  <fix>3d</fix>
</trkpt>
<trkpt lat="-27.274439" lon="151.290064">
  <ele>343.0</ele>
  <time>2026-08-27T18:32:07Z</time>
  <course>0.0</course>
  <speed>0.0</speed>
  <fix>3d</fix>
</trkpt>
<trkpt lat="-27.2744389" lon="151.2900638">
  <ele>343.01</ele>
  <time>2026-08-27T18:32:07Z</time>
  <course>147.13</course>
  <speed>0.02</speed>
  <fix>3d</fix>
</trkpt>
<trkpt lat="-27.274439" lon="151.290064">
  <ele>343.0</ele>
  <time>2026-08-27T18:32:07Z</time>
  <course>0.0</course>
  <speed>0.0</speed>
  <fix>3d</fix>
</trkpt>
<trkpt lat="-27.2744389" lon="151.2900638">
  <ele>343.03</ele>
  <time>2026-08-27T18:32:07Z</time>
  <course>147.12</course>
  <speed>0.02</speed>
  <fix>3d</fix>
</trkpt>
<trkpt lat="-27.274439" lon="151.290064">
  <ele>343.0</ele>
  <time>2026-08-27T18:32:07Z</time>
  <course>0.0</course>
  <speed>0.0</speed>
  <fix>3d</fix>
</trkpt>
<trkpt lat="-27.2744389" lon="151.2900638">
  <ele>343.03</ele>
  <time>2026-08-27T18:32:07Z</time>
  <course>147.12</course>
  <speed>0.02</speed>
  <fix>3d</fix>
</trkpt>
<trkpt lat="-27.274439" lon="151.290064">
  <ele>343.0</ele>
  <time>2026-08-27T18:32:07Z</time>
  <course>0.0</course>
  <speed>0.0</speed>
  <fix>3d</fix>
</trkpt>
<trkpt lat="-27.2744389" lon="151.2900638">
  <ele>343.03</ele>
  <time>2026-08-27T18:32:07Z</time>
  <course>147.12</course>
  <speed>0.02</speed>
  <fix>3d</fix>
</trkpt>
<trkpt lat="-27.274439" lon="151.290064">
  <ele>343.0</ele>
  <time>2026-08-27T18:32:07Z</time>
  <course>0.0</course>
  <speed>0.0</speed>
  <fix>3d</fix>
</trkpt>
<trkpt lat="-27.2744389" lon="151.2900638">
  <ele>343.03</ele>
  <time>2026-08-27T18:32:07Z</time>
  <course>147.13</course>
  <speed>0.02</speed>
  <fix>3d</fix>
</trkpt>
<trkpt lat="-27.274439" lon="151.290064">
  <ele>343.0</ele>
  <time>2026-08-27T18:32:07Z</time>
  <course>0.0</course>
  <speed>0.0</speed>
  <fix>3d</fix>
</trkpt>
<trkpt lat="-27.2744389" lon="151.2900638">
  <ele>343.0</ele>
  <time>2026-08-27T18:32:07Z</time>
  <course>147.12</course>
  <speed>0.02</speed>
  <fix>3d</fix>
</trkpt>
<trkpt lat="-27.274439" lon="151.290064">
  <ele>343.0</ele>
  <time>2026-08-27T18:32:07Z</time>
  <course>0.0</course>
  <speed>0.0</speed>
  <fix>3d</fix>
</trkpt>
<trkpt lat="-27.2744389" lon="151.2900638">
  <ele>343.03</ele>
  <time>2026-08-27T18:32:07Z</time>
  <course>147.13</course>
  <speed>0.02</speed>
  <fix>3d</fix>
</trkpt>
<trkpt lat="-27.274439" lon="151.290064">
  <ele>343.0</ele>
  <time>2026-08-27T18:32:07Z</time>
  <course>0.0</course>
  <speed>0.0</speed>
  <fix>3d</fix>
</trkpt>
<trkpt lat="-27.2744389" lon="151.2900638">
  <ele>343.03</ele>
  <time>2026-08-27T18:32:07Z</time>
  <course>147.12</course>
  <speed>0.02</speed>
  <fix>3d</fix>
</trkpt>
<trkpt lat="-27.274439" lon="151.290064">
  <ele>343.0</ele>
  <time>2026-08-27T18:32:07Z</time>
  <course>0.0</course>
  <speed>0.0</speed>
  <fix>3d</fix>
</trkpt>
<trkpt lat="-27.2744389" lon="151.2900638">
  <ele>343.01</ele>
  <time>2026-08-27T18:32:07Z</time>
  <course>147.13</course>
  <speed>0.02</speed>
  <fix>3d</fix>
</trkpt>
<trkpt lat="-27.274439" lon="151.290064">
  <ele>343.0</ele>
  <time>2026-08-27T18:32:07Z</time>
  <course>0.0</course>
  <speed>0.0</speed>
  <fix>3d</fix>
</trkpt>
<trkpt lat="-27.2744389" lon="151.2900638">
  <ele>343.0</ele>
  <time>2026-08-27T18:32:07Z</time>
  <course>147.12</course>
  <speed>0.02</speed>
  <fix>3d</fix>
</trkpt>
<trkpt lat="-27.274439" lon="151.290064">
  <ele>343.0</ele>
  <time>2026-08-27T18:32:07Z</time>
  <course>0.0</course>
  <speed>0.0</speed>
  <fix>3d</fix>
</trkpt>
<trkpt lat="-27.2744389" lon="151.2900638">
  <ele>343.0</ele>
  <time>2026-08-27T18:32:07Z</time>
  <course>147.13</course>
  <speed>0.02</speed>
  <fix>3d</fix>
</trkpt>
<trkpt lat="-27.274439" lon="151.290064">
  <ele>343.0</ele>
  <time>2026-08-27T18:32:07Z</time>
  <course>0.0</course>
  <speed>0.0</speed>
  <fix>3d</fix>
</trkpt>
<trkpt lat="-27.2744389" lon="151.2900638">
  <ele>342.99</ele>
  <time>2026-08-27T18:32:07Z</time>
  <course>147.12</course>
  <speed>0.02</speed>
  <fix>3d</fix>
</trkpt>
<trkpt lat="-27.274439" lon="151.290064">
  <ele>343.0</ele>
  <time>2026-08-27T18:32:07Z</time>
  <course>0.0</course>
  <speed>0.0</speed>
  <fix>3d</fix>
</trkpt>
<trkpt lat="-27.2744389" lon="151.2900638">
  <ele>342.99</ele>
  <time>2026-08-27T18:32:07Z</time>
  <course>147.13</course>
  <speed>0.02</speed>
  <fix>3d</fix>
</trkpt>
<trkpt lat="-27.274439" lon="151.290064">
  <ele>343.0</ele>
  <time>2026-08-27T18:32:07Z</time>
  <course>0.0</course>
  <speed>0.0</speed>
  <fix>3d</fix>
</trkpt>
<trkpt lat="-27.2744389" lon="151.2900638">
  <ele>343.01</ele>
  <time>2026-08-27T18:32:07Z</time>
  <course>147.13</course>
  <speed>0.02</speed>
  <fix>3d</fix>
</trkpt>
<trkpt lat="-27.274439" lon="151.290064">
  <ele>343.0</ele>
  <time>2026-08-27T18:32:07Z</time>
  <course>0.0</course>
  <speed>0.0</speed>
  <fix>3d</fix>
</trkpt>
<trkpt lat="-27.2744389" lon="151.2900638">
  <ele>343.02</ele>
  <time>2026-08-27T18:32:07Z</time>
  <course>147.13</course>
  <speed>0.02</speed>
  <fix>3d</fix>
</trkpt>
<trkpt lat="-27.274439" lon="151.290064">
  <ele>343.0</ele>
  <time>2026-08-27T18:32:07Z</time>
  <course>0.0</course>
  <speed>0.0</speed>
  <fix>3d</fix>
</trkpt>
<trkpt lat="-27.2744389" lon="151.2900638">
  <ele>343.02</ele>
  <time>2026-08-27T18:32:08Z</time>
  <course>147.13</course>
  <speed>0.02</speed>
  <fix>3d</fix>
</trkpt>
<trkpt lat="-27.274439" lon="151.290064">
  <ele>343.0</ele>
  <time>2026-08-27T18:32:08Z</time>
  <course>0.0</course>
  <speed>0.0</speed>
  <fix>3d</fix>
</trkpt>
<trkpt lat="-27.2744389" lon="151.2900638">
  <ele>343.03</ele>
  <time>2026-08-27T18:32:08Z</time>
  <course>147.13</course>
  <speed>0.02</speed>
  <fix>3d</fix>
</trkpt>
<trkpt lat="-27.274439" lon="151.290064">
  <ele>343.0</ele>
  <time>2026-08-27T18:32:08Z</time>
  <course>0.0</course>
  <speed>0.0</speed>
  <fix>3d</fix>
</trkpt>
<trkpt lat="-27.2744389" lon="151.2900638">
  <ele>342.99</ele>
  <time>2026-08-27T18:32:08Z</time>
  <course>147.13</course>
  <speed>0.02</speed>
  <fix>3d</fix>
</trkpt>
<trkpt lat="-27.274439" lon="151.290064">
  <ele>343.0</ele>
  <time>2026-08-27T18:32:08Z</time>
  <course>0.0</course>
  <speed>0.0</speed>
  <fix>3d</fix>
</trkpt>
<trkpt lat="-27.2744389" lon="151.2900638">
  <ele>342.96</ele>
  <time>2026-08-27T18:32:08Z</time>
  <course>147.13</course>
  <speed>0.02</speed>
  <fix>3d</fix>
</trkpt>
<trkpt lat="-27.274439" lon="151.290064">
  <ele>343.0</ele>
  <time>2026-08-27T18:32:08Z</time>
  <course>0.0</course>
  <speed>0.0</speed>
  <fix>3d</fix>
</trkpt>
<trkpt lat="-27.2744389" lon="151.2900638">
  <ele>342.97</ele>
  <time>2026-08-27T18:32:08Z</time>
  <course>147.13</course>
  <speed>0.02</speed>
  <fix>3d</fix>
</trkpt>
<trkpt lat="-27.274439" lon="151.290064">
  <ele>343.0</ele>
  <time>2026-08-27T18:32:08Z</time>
  <course>0.0</course>
  <speed>0.0</speed>
  <fix>3d</fix>
</trkpt>
<trkpt lat="-27.2744389" lon="151.2900638">
  <ele>342.96</ele>
  <time>2026-08-27T18:32:08Z</time>
  <course>147.13</course>
  <speed>0.02</speed>
  <fix>3d</fix>
</trkpt>
<trkpt lat="-27.274439" lon="151.290064">
  <ele>343.0</ele>
  <time>2026-08-27T18:32:08Z</time>
  <course>0.0</course>
  <speed>0.0</speed>
  <fix>3d</fix>
</trkpt>
<trkpt lat="-27.2744389" lon="151.2900638">
  <ele>342.97</ele>
  <time>2026-08-27T18:32:08Z</time>
  <course>147.13</course>
  <speed>0.02</speed>
  <fix>3d</fix>
</trkpt>
<trkpt lat="-27.274439" lon="151.290064">
  <ele>343.0</ele>
  <time>2026-08-27T18:32:08Z</time>
  <course>0.0</course>
  <speed>0.0</speed>
  <fix>3d</fix>
</trkpt>
<trkpt lat="-27.2744389" lon="151.2900638">
  <ele>342.99</ele>
  <time>2026-08-27T18:32:08Z</time>
  <course>147.13</course>
  <speed>0.02</speed>
  <fix>3d</fix>
</trkpt>
<trkpt lat="-27.274439" lon="151.290064">
  <ele>343.0</ele>
  <time>2026-08-27T18:32:08Z</time>
  <course>0.0</course>
  <speed>0.0</speed>
  <fix>3d</fix>
</trkpt>
<trkpt lat="-27.2744389" lon="151.2900638">
  <ele>342.99</ele>
  <time>2026-08-27T18:32:08Z</time>
  <course>147.13</course>
  <speed>0.02</speed>
  <fix>3d</fix>
</trkpt>
<trkpt lat="-27.274439" lon="151.290064">
  <ele>343.0</ele>
  <time>2026-08-27T18:32:08Z</time>
  <course>0.0</course>
  <speed>0.0</speed>
  <fix>3d</fix>
</trkpt>
<trkpt lat="-27.2744389" lon="151.2900638">
  <ele>342.98</ele>
  <time>2026-08-27T18:32:08Z</time>
  <course>147.13</course>
  <speed>0.02</speed>
  <fix>3d</fix>
</trkpt>
<trkpt lat="-27.274439" lon="151.290064">
  <ele>343.0</ele>
  <time>2026-08-27T18:32:08Z</time>
  <course>0.0</course>
  <speed>0.0</speed>
  <fix>3d</fix>
</trkpt>
<trkpt lat="-27.2744389" lon="151.2900638">
  <ele>343.01</ele>
  <time>2026-08-27T18:32:08Z</time>
  <course>147.13</course>
  <speed>0.02</speed>
  <fix>3d</fix>
</trkpt>
<trkpt lat="-27.274439" lon="151.290064">
  <ele>343.0</ele>
  <time>2026-08-27T18:32:08Z</time>
  <course>0.0</course>
  <speed>0.0</speed>
  <fix>3d</fix>
</trkpt>
<trkpt lat="-27.2744389" lon="151.2900638">
  <ele>343.03</ele>
  <time>2026-08-27T18:32:08Z</time>
  <course>147.13</course>
  <speed>0.02</speed>
  <fix>3d</fix>
</trkpt>
<trkpt lat="-27.274439" lon="151.290064">
  <ele>343.0</ele>
  <time>2026-08-27T18:32:08Z</time>
  <course>0.0</course>
  <speed>0.0</speed>
  <fix>3d</fix>
</trkpt>
<trkpt lat="-27.2744389" lon="151.2900638">
  <ele>343.03</ele>
  <time>2026-08-27T18:32:08Z</time>
  <course>147.13</course>
  <speed>0.02</speed>
  <fix>3d</fix>
</trkpt>
<trkpt lat="-27.274439" lon="151.290064">
  <ele>343.0</ele>
  <time>2026-08-27T18:32:08Z</time>
  <course>0.0</course>
  <speed>0.0</speed>
  <fix>3d</fix>
</trkpt>
<trkpt lat="-27.2744389" lon="151.2900638">
  <ele>343.0</ele>
  <time>2026-08-27T18:32:08Z</time>
  <course>147.13</course>
  <speed>0.02</speed>
  <fix>3d</fix>
</trkpt>
<trkpt lat="-27.274439" lon="151.290064">
  <ele>343.0</ele>
  <time>2026-08-27T18:32:08Z</time>
  <course>0.0</course>
  <speed>0.0</speed>
  <fix>3d</fix>
</trkpt>
<trkpt lat="-27.2744389" lon="151.2900638">
  <ele>342.99</ele>
  <time>2026-08-27T18:32:08Z</time>
  <course>147.13</course>
  <speed>0.02</speed>
  <fix>3d</fix>
</trkpt>
<trkpt lat="-27.274439" lon="151.290064">
  <ele>343.0</ele>
  <time>2026-08-27T18:32:08Z</time>
  <course>0.0</course>
  <speed>0.0</speed>
  <fix>3d</fix>
</trkpt>
<trkpt lat="-27.2744389" lon="151.2900638">
  <ele>343.01</ele>
  <time>2026-08-27T18:32:08Z</time>
  <course>147.13</course>
  <speed>0.02</speed>
  <fix>3d</fix>
</trkpt>
<trkpt lat="-27.274439" lon="151.290064">
  <ele>343.0</ele>
  <time>2026-08-27T18:32:08Z</time>
  <course>0.0</course>
  <speed>0.0</speed>
  <fix>3d</fix>
</trkpt>
<trkpt lat="-27.2744389" lon="151.2900638">
  <ele>343.01</ele>
  <time>2026-08-27T18:32:08Z</time>
  <course>147.13</course>
  <speed>0.02</speed>
  <fix>3d</fix>
</trkpt>
<trkpt lat="-27.274439" lon="151.290064">
  <ele>343.0</ele>
  <time>2026-08-27T18:32:08Z</time>
  <course>0.0</course>
  <speed>0.0</speed>
  <fix>3d</fix>
</trkpt>
<trkpt lat="-27.2744389" lon="151.2900638">
  <ele>343.02</ele>
  <time>2026-08-27T18:32:08Z</time>
  <course>147.13</course>
  <speed>0.02</speed>
  <fix>3d</fix>
</trkpt>
<trkpt lat="-27.274439" lon="151.290064">
  <ele>343.0</ele>
  <time>2026-08-27T18:32:08Z</time>
  <course>0.0</course>
  <speed>0.0</speed>
  <fix>3d</fix>
</trkpt>
<trkpt lat="-27.2744389" lon="151.2900638">
  <ele>343.02</ele>
  <time>2026-08-27T18:32:08Z</time>
  <course>147.13</course>
  <speed>0.02</speed>
  <fix>3d</fix>
</trkpt>
<trkpt lat="-27.274439" lon="151.290064">
  <ele>343.0</ele>
  <time>2026-08-27T18:32:08Z</time>
  <course>0.0</course>
  <speed>0.0</speed>
  <fix>3d</fix>
</trkpt>
<trkpt lat="-27.2744389" lon="151.2900638">
  <ele>343.02</ele>
  <time>2026-08-27T18:32:08Z</time>
  <course>147.13</course>
  <speed>0.02</speed>
  <fix>3d</fix>
</trkpt>
<trkpt lat="-27.274439" lon="151.290064">
  <ele>343.0</ele>
  <time>2026-08-27T18:32:08Z</time>
  <course>0.0</course>
  <speed>0.0</speed>
  <fix>3d</fix>
</trkpt>
<trkpt lat="-27.2744389" lon="151.2900638">
  <ele>343.01</ele>
  <time>2026-08-27T18:32:08Z</time>
  <course>147.13</course>
  <speed>0.02</speed>
  <fix>3d</fix>
</trkpt>
<trkpt lat="-27.274439" lon="151.290064">
  <ele>343.0</ele>
  <time>2026-08-27T18:32:08Z</time>
  <course>0.0</course>
  <speed>0.0</speed>
  <fix>3d</fix>
</trkpt>
<trkpt lat="-27.2744389" lon="151.2900638">
  <ele>343.0</ele>
  <time>2026-08-27T18:32:08Z</time>
  <course>147.13</course>
  <speed>0.02</speed>
  <fix>3d</fix>
</trkpt>
<trkpt lat="-27.274439" lon="151.290064">
  <ele>343.0</ele>
  <time>2026-08-27T18:32:08Z</time>
  <course>0.0</course>
  <speed>0.0</speed>
  <fix>3d</fix>
</trkpt>
<trkpt lat="-27.2744389" lon="151.2900638">
  <ele>343.0</ele>
  <time>2026-08-27T18:32:08Z</time>
  <course>147.13</course>
  <speed>0.02</speed>
  <fix>3d</fix>
</trkpt>
<trkpt lat="-27.274439" lon="151.290064">
  <ele>343.0</ele>
  <time>2026-08-27T18:32:08Z</time>
  <course>0.0</course>
  <speed>0.0</speed>
  <fix>3d</fix>
</trkpt>
<trkpt lat="-27.2744389" lon="151.2900638">
  <ele>343.01</ele>
  <time>2026-08-27T18:32:08Z</time>
  <course>147.13</course>
  <speed>0.02</speed>
  <fix>3d</fix>
</trkpt>
<trkpt lat="-27.274439" lon="151.290064">
  <ele>343.0</ele>
  <time>2026-08-27T18:32:08Z</time>
  <course>0.0</course>
  <speed>0.0</speed>
  <fix>3d</fix>
</trkpt>
<trkpt lat="-27.2744389" lon="151.2900638">
  <ele>343.0</ele>
  <time>2026-08-27T18:32:08Z</time>
  <course>147.14</course>
  <speed>0.02</speed>
  <fix>3d</fix>
</trkpt>
<trkpt lat="-27.274439" lon="151.290064">
  <ele>343.0</ele>
  <time>2026-08-27T18:32:08Z</time>
  <course>0.0</course>
  <speed>0.0</speed>
  <fix>3d</fix>
</trkpt>
<trkpt lat="-27.2744389" lon="151.2900638">
  <ele>343.01</ele>
  <time>2026-08-27T18:32:08Z</time>
  <course>147.13</course>
  <speed>0.02</speed>
  <fix>3d</fix>
</trkpt>
<trkpt lat="-27.274439" lon="151.290064">
  <ele>343.0</ele>
  <time>2026-08-27T18:32:08Z</time>
  <course>0.0</course>
  <speed>0.0</speed>
  <fix>3d</fix>
</trkpt>
<trkpt lat="-27.2744389" lon="151.2900638">
  <ele>343.02</ele>
  <time>2026-08-27T18:32:08Z</time>
  <course>147.14</course>
  <speed>0.02</speed>
  <fix>3d</fix>
</trkpt>
<trkpt lat="-27.274439" lon="151.290064">
  <ele>343.0</ele>
  <time>2026-08-27T18:32:08Z</time>
  <course>0.0</course>
  <speed>0.0</speed>
  <fix>3d</fix>
</trkpt>
<trkpt lat="-27.2744389" lon="151.2900638">
  <ele>343.04</ele>
  <time>2026-08-27T18:32:08Z</time>
  <course>147.13</course>
  <speed>0.02</speed>
  <fix>3d</fix>
</trkpt>
<trkpt lat="-27.274439" lon="151.290064">
  <ele>343.0</ele>
  <time>2026-08-27T18:32:08Z</time>
  <course>0.0</course>
  <speed>0.0</speed>
  <fix>3d</fix>
</trkpt>
<trkpt lat="-27.2744389" lon="151.2900638">
  <ele>343.04</ele>
  <time>2026-08-27T18:32:08Z</time>
  <course>147.14</course>
  <speed>0.02</speed>
  <fix>3d</fix>
</trkpt>
<trkpt lat="-27.274439" lon="151.290064">
  <ele>343.0</ele>
  <time>2026-08-27T18:32:08Z</time>
  <course>0.0</course>
  <speed>0.0</speed>
  <fix>3d</fix>
</trkpt>
<trkpt lat="-27.2744389" lon="151.2900638">
  <ele>343.04</ele>
  <time>2026-08-27T18:32:08Z</time>
  <course>147.13</course>
  <speed>0.02</speed>
  <fix>3d</fix>
</trkpt>
<trkpt lat="-27.274439" lon="151.290064">
  <ele>343.0</ele>
  <time>2026-08-27T18:32:08Z</time>
  <course>0.0</course>
  <speed>0.0</speed>
  <fix>3d</fix>
</trkpt>
<trkpt lat="-27.2744389" lon="151.2900638">
  <ele>343.06</ele>
  <time>2026-08-27T18:32:08Z</time>
  <course>147.13</course>
  <speed>0.02</speed>
  <fix>3d</fix>
</trkpt>
<trkpt lat="-27.274439" lon="151.290064">
  <ele>343.0</ele>
  <time>2026-08-27T18:32:08Z</time>
  <course>0.0</course>
  <speed>0.0</speed>
  <fix>3d</fix>
</trkpt>
<trkpt lat="-27.2744389" lon="151.2900638">
  <ele>343.05</ele>
  <time>2026-08-27T18:32:08Z</time>
  <course>147.13</course>
  <speed>0.02</speed>
  <fix>3d</fix>
</trkpt>
<trkpt lat="-27.274439" lon="151.290064">
  <ele>343.0</ele>
  <time>2026-08-27T18:32:08Z</time>
  <course>0.0</course>
  <speed>0.0</speed>
  <fix>3d</fix>
</trkpt>
<trkpt lat="-27.2744389" lon="151.2900638">
  <ele>343.04</ele>
  <time>2026-08-27T18:32:08Z</time>
  <course>147.14</course>
  <speed>0.02</speed>
  <fix>3d</fix>
</trkpt>
<trkpt lat="-27.274439" lon="151.290064">
  <ele>343.0</ele>
  <time>2026-08-27T18:32:08Z</time>
  <course>0.0</course>
  <speed>0.0</speed>
  <fix>3d</fix>
</trkpt>
<trkpt lat="-27.2744389" lon="151.2900638">
  <ele>343.03</ele>
  <time>2026-08-27T18:32:08Z</time>
  <course>147.14</course>
  <speed>0.02</speed>
  <fix>3d</fix>
</trkpt>
<trkpt lat="-27.274439" lon="151.290064">
  <ele>343.0</ele>
  <time>2026-08-27T18:32:08Z</time>
  <course>0.0</course>
  <speed>0.0</speed>
  <fix>3d</fix>
</trkpt>
<trkpt lat="-27.2744389" lon="151.2900638">
  <ele>343.03</ele>
  <time>2026-08-27T18:32:08Z</time>
  <course>147.14</course>
  <speed>0.02</speed>
  <fix>3d</fix>
</trkpt>
<trkpt lat="-27.274439" lon="151.290064">
  <ele>343.0</ele>
  <time>2026-08-27T18:32:08Z</time>
  <course>0.0</course>
  <speed>0.0</speed>
  <fix>3d</fix>
</trkpt>
<trkpt lat="-27.2744389" lon="151.2900638">
  <ele>343.04</ele>
  <time>2026-08-27T18:32:08Z</time>
  <course>147.14</course>
  <speed>0.02</speed>
  <fix>3d</fix>
</trkpt>
<trkpt lat="-27.274439" lon="151.290064">
  <ele>343.0</ele>
  <time>2026-08-27T18:32:08Z</time>
  <course>0.0</course>
  <speed>0.0</speed>
  <fix>3d</fix>
</trkpt>
<trkpt lat="-27.2744389" lon="151.2900638">
  <ele>343.05</ele>
  <time>2026-08-27T18:32:08Z</time>
  <course>147.13</course>
  <speed>0.02</speed>
  <fix>3d</fix>
</trkpt>
<trkpt lat="-27.274439" lon="151.290064">
  <ele>343.0</ele>
  <time>2026-08-27T18:32:08Z</time>
  <course>0.0</course>
  <speed>0.0</speed>
  <fix>3d</fix>
</trkpt>
<trkpt lat="-27.2744389" lon="151.2900638">
  <ele>343.06</ele>
  <time>2026-08-27T18:32:08Z</time>
  <course>147.14</course>
  <speed>0.02</speed>
  <fix>3d</fix>
</trkpt>
<trkpt lat="-27.274439" lon="151.290064">
  <ele>343.0</ele>
  <time>2026-08-27T18:32:08Z</time>
  <course>0.0</course>
  <speed>0.0</speed>
  <fix>3d</fix>
</trkpt>
<trkpt lat="-27.2744389" lon="151.2900638">
  <ele>343.02</ele>
  <time>2026-08-27T18:32:08Z</time>
  <course>147.13</course>
  <speed>0.02</speed>
  <fix>3d</fix>
</trkpt>
<trkpt lat="-27.274439" lon="151.290064">
  <ele>343.0</ele>
  <time>2026-08-27T18:32:08Z</time>
  <course>0.0</course>
  <speed>0.0</speed>
  <fix>3d</fix>
</trkpt>
<trkpt lat="-27.2744389" lon="151.2900638">
  <ele>343.01</ele>
  <time>2026-08-27T18:32:08Z</time>
  <course>147.14</course>
  <speed>0.02</speed>
  <fix>3d</fix>
</trkpt>
<trkpt lat="-27.274439" lon="151.290064">
  <ele>343.0</ele>
  <time>2026-08-27T18:32:08Z</time>
  <course>0.0</course>
  <speed>0.0</speed>
  <fix>3d</fix>
</trkpt>
<trkpt lat="-27.2744389" lon="151.2900638">
  <ele>343.0</ele>
  <time>2026-08-27T18:32:08Z</time>
  <course>147.13</course>
  <speed>0.02</speed>
  <fix>3d</fix>
</trkpt>
<trkpt lat="-27.274439" lon="151.290064">
  <ele>343.0</ele>
  <time>2026-08-27T18:32:08Z</time>
  <course>0.0</course>
  <speed>0.0</speed>
  <fix>3d</fix>
</trkpt>
<trkpt lat="-27.2744389" lon="151.2900638">
  <ele>342.99</ele>
  <time>2026-08-27T18:32:08Z</time>
  <course>147.14</course>
  <speed>0.02</speed>
  <fix>3d</fix>
</trkpt>
<trkpt lat="-27.274439" lon="151.290064">
  <ele>343.0</ele>
  <time>2026-08-27T18:32:08Z</time>
  <course>0.0</course>
  <speed>0.0</speed>
  <fix>3d</fix>
</trkpt>
<trkpt lat="-27.2744389" lon="151.2900638">
  <ele>342.98</ele>
  <time>2026-08-27T18:32:08Z</time>
  <course>147.13</course>
  <speed>0.02</speed>
  <fix>3d</fix>
</trkpt>
<trkpt lat="-27.274439" lon="151.290064">
  <ele>343.0</ele>
  <time>2026-08-27T18:32:08Z</time>
  <course>0.0</course>
  <speed>0.0</speed>
  <fix>3d</fix>
</trkpt>
<trkpt lat="-27.2744389" lon="151.2900638">
  <ele>342.97</ele>
  <time>2026-08-27T18:32:08Z</time>
  <course>147.14</course>
  <speed>0.02</speed>
  <fix>3d</fix>
</trkpt>
<trkpt lat="-27.274439" lon="151.290064">
  <ele>343.0</ele>
  <time>2026-08-27T18:32:08Z</time>
  <course>0.0</course>
  <speed>0.0</speed>
  <fix>3d</fix>
</trkpt>
<trkpt lat="-27.2744389" lon="151.2900638">
  <ele>342.98</ele>
  <time>2026-08-27T18:32:08Z</time>
  <course>147.13</course>
  <speed>0.02</speed>
  <fix>3d</fix>
</trkpt>
<trkpt lat="-27.274439" lon="151.290064">
  <ele>343.0</ele>
  <time>2026-08-27T18:32:08Z</time>
  <course>0.0</course>
  <speed>0.0</speed>
  <fix>3d</fix>
</trkpt>
<trkpt lat="-27.2744389" lon="151.2900638">
  <ele>343.02</ele>
  <time>2026-08-27T18:32:08Z</time>
  <course>147.14</course>
  <speed>0.02</speed>
  <fix>3d</fix>
</trkpt>
<trkpt lat="-27.274439" lon="151.290064">
  <ele>343.0</ele>
  <time>2026-08-27T18:32:08Z</time>
  <course>0.0</course>
  <speed>0.0</speed>
  <fix>3d</fix>
</trkpt>
<trkpt lat="-27.2744389" lon="151.2900638">
  <ele>343.03</ele>
  <time>2026-08-27T18:32:08Z</time>
  <course>147.14</course>
  <speed>0.02</speed>
  <fix>3d</fix>
</trkpt>
<trkpt lat="-27.274439" lon="151.290064">
  <ele>343.0</ele>
  <time>2026-08-27T18:32:08Z</time>
  <course>0.0</course>
  <speed>0.0</speed>
  <fix>3d</fix>
</trkpt>
<trkpt lat="-27.2744389" lon="151.2900638">
  <ele>343.01</ele>
  <time>2026-08-27T18:32:08Z</time>
  <course>147.14</course>
  <speed>0.02</speed>
  <fix>3d</fix>
</trkpt>
<trkpt lat="-27.274439" lon="151.290064">
  <ele>343.0</ele>
  <time>2026-08-27T18:32:08Z</time>
  <course>0.0</course>
  <speed>0.0</speed>
  <fix>3d</fix>
</trkpt>
<trkpt lat="-27.2744389" lon="151.2900638">
  <ele>343.02</ele>
  <time>2026-08-27T18:32:08Z</time>
  <course>147.14</course>
  <speed>0.02</speed>
  <fix>3d</fix>
</trkpt>
<trkpt lat="-27.274439" lon="151.290064">
  <ele>343.0</ele>
  <time>2026-08-27T18:32:08Z</time>
  <course>0.0</course>
  <speed>0.0</speed>
  <fix>3d</fix>
</trkpt>
<trkpt lat="-27.2744389" lon="151.2900638">
  <ele>343.01</ele>
  <time>2026-08-27T18:32:08Z</time>
  <course>147.14</course>
  <speed>0.02</speed>
  <fix>3d</fix>
</trkpt>
<trkpt lat="-27.274439" lon="151.290064">
  <ele>343.0</ele>
  <time>2026-08-27T18:32:08Z</time>
  <course>0.0</course>
  <speed>0.0</speed>
  <fix>3d</fix>
</trkpt>
<trkpt lat="-27.2744389" lon="151.2900638">
  <ele>343.02</ele>
  <time>2026-08-27T18:32:08Z</time>
  <course>147.14</course>
  <speed>0.02</speed>
  <fix>3d</fix>
</trkpt>
<trkpt lat="-27.274439" lon="151.290064">
  <ele>343.0</ele>
  <time>2026-08-27T18:32:08Z</time>
  <course>0.0</course>
  <speed>0.0</speed>
  <fix>3d</fix>
</trkpt>
<trkpt lat="-27.2744389" lon="151.2900638">
  <ele>343.02</ele>
  <time>2026-08-27T18:32:08Z</time>
  <course>147.14</course>
  <speed>0.02</speed>
  <fix>3d</fix>
</trkpt>
<trkpt lat="-27.274439" lon="151.290064">
  <ele>343.0</ele>
  <time>2026-08-27T18:32:08Z</time>
  <course>0.0</course>
  <speed>0.0</speed>
  <fix>3d</fix>
</trkpt>
<trkpt lat="-27.2744389" lon="151.2900638">
  <ele>343.03</ele>
  <time>2026-08-27T18:32:08Z</time>
  <course>147.14</course>
  <speed>0.02</speed>
  <fix>3d</fix>
</trkpt>
<trkpt lat="-27.274439" lon="151.290064">
  <ele>343.0</ele>
  <time>2026-08-27T18:32:08Z</time>
  <course>0.0</course>
  <speed>0.0</speed>
  <fix>3d</fix>
</trkpt>
<trkpt lat="-27.2744389" lon="151.2900638">
  <ele>343.03</ele>
  <time>2026-08-27T18:32:08Z</time>
  <course>147.14</course>
  <speed>0.02</speed>
  <fix>3d</fix>
</trkpt>
<trkpt lat="-27.274439" lon="151.290064">
  <ele>343.0</ele>
  <time>2026-08-27T18:32:08Z</time>
  <course>0.0</course>
  <speed>0.0</speed>
  <fix>3d</fix>
</trkpt>
<trkpt lat="-27.2744389" lon="151.2900638">
  <ele>343.02</ele>
  <time>2026-08-27T18:32:08Z</time>
  <course>147.14</course>
  <speed>0.02</speed>
  <fix>3d</fix>
</trkpt>
<trkpt lat="-27.274439" lon="151.290064">
  <ele>343.0</ele>
  <time>2026-08-27T18:32:08Z</time>
  <course>0.0</course>
  <speed>0.0</speed>
  <fix>3d</fix>
</trkpt>
<trkpt lat="-27.2744389" lon="151.2900638">
  <ele>343.03</ele>
  <time>2026-08-27T18:32:08Z</time>
  <course>147.14</course>
  <speed>0.02</speed>
  <fix>3d</fix>
</trkpt>
<trkpt lat="-27.274439" lon="151.290064">
  <ele>343.0</ele>
  <time>2026-08-27T18:32:08Z</time>
  <course>0.0</course>
  <speed>0.0</speed>
  <fix>3d</fix>
</trkpt>
<trkpt lat="-27.2744389" lon="151.2900638">
  <ele>343.01</ele>
  <time>2026-08-27T18:32:08Z</time>
  <course>147.14</course>
  <speed>0.02</speed>
  <fix>3d</fix>
</trkpt>
<trkpt lat="-27.274439" lon="151.290064">
  <ele>343.0</ele>
  <time>2026-08-27T18:32:08Z</time>
  <course>0.0</course>
  <speed>0.0</speed>
  <fix>3d</fix>
</trkpt>
<trkpt lat="-27.2744389" lon="151.2900638">
  <ele>342.99</ele>
  <time>2026-08-27T18:32:08Z</time>
  <course>147.14</course>
  <speed>0.02</speed>
  <fix>3d</fix>
</trkpt>
<trkpt lat="-27.274439" lon="151.290064">
  <ele>343.0</ele>
  <time>2026-08-27T18:32:08Z</time>
  <course>0.0</course>
  <speed>0.0</speed>
  <fix>3d</fix>
</trkpt>
<trkpt lat="-27.2744389" lon="151.2900638">
  <ele>343.0</ele>
  <time>2026-08-27T18:32:08Z</time>
  <course>147.14</course>
  <speed>0.02</speed>
  <fix>3d</fix>
</trkpt>
<trkpt lat="-27.274439" lon="151.290064">
  <ele>343.0</ele>
  <time>2026-08-27T18:32:08Z</time>
  <course>0.0</course>
  <speed>0.0</speed>
  <fix>3d</fix>
</trkpt>
<trkpt lat="-27.2744389" lon="151.2900638">
  <ele>343.0</ele>
  <time>2026-08-27T18:32:08Z</time>
  <course>147.14</course>
  <speed>0.02</speed>
  <fix>3d</fix>
</trkpt>
<trkpt lat="-27.274439" lon="151.290064">
  <ele>343.0</ele>
  <time>2026-08-27T18:32:08Z</time>
  <course>0.0</course>
  <speed>0.0</speed>
  <fix>3d</fix>
</trkpt>
<trkpt lat="-27.2744389" lon="151.2900638">
  <ele>342.99</ele>
  <time>2026-08-27T18:32:08Z</time>
  <course>147.14</course>
  <speed>0.02</speed>
  <fix>3d</fix>
</trkpt>
<trkpt lat="-27.274439" lon="151.290064">
  <ele>343.0</ele>
  <time>2026-08-27T18:32:08Z</time>
  <course>0.0</course>
  <speed>0.0</speed>
  <fix>3d</fix>
</trkpt>
<trkpt lat="-27.2744389" lon="151.2900638">
  <ele>343.0</ele>
  <time>2026-08-27T18:32:08Z</time>
  <course>147.14</course>
  <speed>0.02</speed>
  <fix>3d</fix>
</trkpt>
<trkpt lat="-27.274439" lon="151.290064">
  <ele>343.0</ele>
  <time>2026-08-27T18:32:08Z</time>
  <course>0.0</course>
  <speed>0.0</speed>
  <fix>3d</fix>
</trkpt>
<trkpt lat="-27.2744389" lon="151.2900638">
  <ele>343.01</ele>
  <time>2026-08-27T18:32:08Z</time>
  <course>147.14</course>
  <speed>0.02</speed>
  <fix>3d</fix>
</trkpt>
<trkpt lat="-27.274439" lon="151.290064">
  <ele>343.0</ele>
  <time>2026-08-27T18:32:08Z</time>
  <course>0.0</course>
  <speed>0.0</speed>
  <fix>3d</fix>
</trkpt>
<trkpt lat="-27.2744389" lon="151.2900638">
  <ele>343.03</ele>
  <time>2026-08-27T18:32:08Z</time>
  <course>147.14</course>
  <speed>0.02</speed>
  <fix>3d</fix>
</trkpt>
<trkpt lat="-27.274439" lon="151.290064">
  <ele>343.0</ele>
  <time>2026-08-27T18:32:08Z</time>
  <course>0.0</course>
  <speed>0.0</speed>
  <fix>3d</fix>
</trkpt>
<trkpt lat="-27.2744389" lon="151.2900638">
  <ele>343.02</ele>
  <time>2026-08-27T18:32:08Z</time>
  <course>147.14</course>
  <speed>0.02</speed>
  <fix>3d</fix>
</trkpt>
<trkpt lat="-27.274439" lon="151.290064">
  <ele>343.0</ele>
  <time>2026-08-27T18:32:08Z</time>
  <course>0.0</course>
  <speed>0.0</speed>
  <fix>3d</fix>
</trkpt>
<trkpt lat="-27.2744389" lon="151.2900638">
  <ele>343.03</ele>
  <time>2026-08-27T18:32:08Z</time>
  <course>147.14</course>
  <speed>0.02</speed>
  <fix>3d</fix>
</trkpt>
<trkpt lat="-27.274439" lon="151.290064">
  <ele>343.0</ele>
  <time>2026-08-27T18:32:08Z</time>
  <course>0.0</course>
  <speed>0.0</speed>
  <fix>3d</fix>
</trkpt>
<trkpt lat="-27.2744389" lon="151.2900638">
  <ele>343.03</ele>
  <time>2026-08-27T18:32:08Z</time>
  <course>147.14</course>
  <speed>0.02</speed>
  <fix>3d</fix>
</trkpt>
<trkpt lat="-27.274439" lon="151.290064">
  <ele>343.0</ele>
  <time>2026-08-27T18:32:08Z</time>
  <course>0.0</course>
  <speed>0.0</speed>
  <fix>3d</fix>
</trkpt>
<trkpt lat="-27.2744389" lon="151.2900638">
  <ele>343.05</ele>
  <time>2026-08-27T18:32:08Z</time>
  <course>147.14</course>
  <speed>0.02</speed>
  <fix>3d</fix>
</trkpt>
<trkpt lat="-27.274439" lon="151.290064">
  <ele>343.0</ele>
  <time>2026-08-27T18:32:08Z</time>
  <course>0.0</course>
  <speed>0.0</speed>
  <fix>3d</fix>
</trkpt>
<trkpt lat="-27.2744389" lon="151.2900638">
  <ele>343.04</ele>
  <time>2026-08-27T18:32:08Z</time>
  <course>147.14</course>
  <speed>0.02</speed>
  <fix>3d</fix>
</trkpt>
<trkpt lat="-27.274439" lon="151.290064">
  <ele>343.0</ele>
  <time>2026-08-27T18:32:08Z</time>
  <course>0.0</course>
  <speed>0.0</speed>
  <fix>3d</fix>
</trkpt>
<trkpt lat="-27.2744389" lon="151.2900638">
  <ele>343.03</ele>
  <time>2026-08-27T18:32:08Z</time>
  <course>147.14</course>
  <speed>0.02</speed>
  <fix>3d</fix>
</trkpt>
<trkpt lat="-27.274439" lon="151.290064">
  <ele>343.0</ele>
  <time>2026-08-27T18:32:08Z</time>
  <course>0.0</course>
  <speed>0.0</speed>
  <fix>3d</fix>
</trkpt>
<trkpt lat="-27.2744389" lon="151.2900638">
  <ele>343.02</ele>
  <time>2026-08-27T18:32:08Z</time>
  <course>147.14</course>
  <speed>0.02</speed>
  <fix>3d</fix>
</trkpt>
<trkpt lat="-27.274439" lon="151.290064">
  <ele>343.0</ele>
  <time>2026-08-27T18:32:08Z</time>
  <course>0.0</course>
  <speed>0.0</speed>
  <fix>3d</fix>
</trkpt>
<trkpt lat="-27.2744389" lon="151.2900638">
  <ele>343.01</ele>
  <time>2026-08-27T18:32:09Z</time>
  <course>147.13</course>
  <speed>0.02</speed>
  <fix>3d</fix>
</trkpt>
<trkpt lat="-27.274439" lon="151.290064">
  <ele>343.0</ele>
  <time>2026-08-27T18:32:09Z</time>
  <course>0.0</course>
  <speed>0.0</speed>
  <fix>3d</fix>
</trkpt>
<trkpt lat="-27.2744389" lon="151.2900638">
  <ele>343.03</ele>
  <time>2026-08-27T18:32:09Z</time>
  <course>147.13</course>
  <speed>0.02</speed>
  <fix>3d</fix>
</trkpt>
<trkpt lat="-27.274439" lon="151.290064">
  <ele>343.0</ele>
  <time>2026-08-27T18:32:09Z</time>
  <course>0.0</course>
  <speed>0.0</speed>
  <fix>3d</fix>
</trkpt>
<trkpt lat="-27.2744389" lon="151.2900638">
  <ele>343.02</ele>
  <time>2026-08-27T18:32:09Z</time>
  <course>147.12</course>
  <speed>0.02</speed>
  <fix>3d</fix>
</trkpt>
<trkpt lat="-27.274439" lon="151.290064">
  <ele>343.0</ele>
  <time>2026-08-27T18:32:09Z</time>
  <course>0.0</course>
  <speed>0.0</speed>
  <fix>3d</fix>
</trkpt>
<trkpt lat="-27.2744389" lon="151.2900638">
  <ele>343.02</ele>
  <time>2026-08-27T18:32:09Z</time>
  <course>147.11</course>
  <speed>0.02</speed>
  <fix>3d</fix>
</trkpt>
<trkpt lat="-27.274439" lon="151.290064">
  <ele>343.0</ele>
  <time>2026-08-27T18:32:09Z</time>
  <course>0.0</course>
  <speed>0.0</speed>
  <fix>3d</fix>
</trkpt>
<trkpt lat="-27.2744389" lon="151.2900638">
  <ele>343.01</ele>
  <time>2026-08-27T18:32:09Z</time>
  <course>147.1</course>
  <speed>0.01</speed>
  <fix>3d</fix>
</trkpt>
<trkpt lat="-27.274439" lon="151.290064">
  <ele>343.0</ele>
  <time>2026-08-27T18:32:09Z</time>
  <course>0.0</course>
  <speed>0.0</speed>
  <fix>3d</fix>
</trkpt>
<trkpt lat="-27.2744389" lon="151.2900638">
  <ele>343.02</ele>
  <time>2026-08-27T18:32:09Z</time>
  <course>147.08</course>
  <speed>0.01</speed>
  <fix>3d</fix>
</trkpt>
<trkpt lat="-27.274439" lon="151.290064">
  <ele>343.0</ele>
  <time>2026-08-27T18:32:09Z</time>
  <course>0.0</course>
  <speed>0.0</speed>
  <fix>3d</fix>
</trkpt>
<trkpt lat="-27.2744389" lon="151.2900638">
  <ele>343.02</ele>
  <time>2026-08-27T18:32:09Z</time>
  <course>147.07</course>
  <speed>0.01</speed>
  <fix>3d</fix>
</trkpt>
<trkpt lat="-27.274439" lon="151.290064">
  <ele>343.0</ele>
  <time>2026-08-27T18:32:09Z</time>
  <course>0.0</course>
  <speed>0.0</speed>
  <fix>3d</fix>
</trkpt>
<trkpt lat="-27.2744389" lon="151.2900638">
  <ele>343.04</ele>
  <time>2026-08-27T18:32:09Z</time>
  <course>147.05</course>
  <speed>0.0</speed>
  <fix>3d</fix>
</trkpt>
<trkpt lat="-27.274439" lon="151.290064">
  <ele>343.0</ele>
  <time>2026-08-27T18:32:09Z</time>
  <course>0.0</course>
  <speed>0.0</speed>
  <fix>3d</fix>
</trkpt>
<trkpt lat="-27.2744389" lon="151.2900639">
  <ele>343.07</ele>
  <time>2026-08-27T18:32:09Z</time>
  <course>147.04</course>
  <speed>0.0</speed>
  <fix>3d</fix>
</trkpt>
<trkpt lat="-27.274439" lon="151.290064">
  <ele>343.0</ele>
  <time>2026-08-27T18:32:09Z</time>
  <course>0.0</course>
  <speed>0.0</speed>
  <fix>3d</fix>
</trkpt>
<trkpt lat="-27.2744389" lon="151.2900639">
  <ele>343.07</ele>
  <time>2026-08-27T18:32:09Z</time>
  <course>147.02</course>
  <speed>0.0</speed>
  <fix>3d</fix>
</trkpt>
<trkpt lat="-27.274439" lon="151.290064">
  <ele>343.0</ele>
  <time>2026-08-27T18:32:09Z</time>
  <course>0.0</course>
  <speed>0.0</speed>
  <fix>3d</fix>
</trkpt>
<trkpt lat="-27.2744389" lon="151.2900639">
  <ele>343.06</ele>
  <time>2026-08-27T18:32:09Z</time>
  <course>147.0</course>
  <speed>0.0</speed>
  <fix>3d</fix>
</trkpt>
<trkpt lat="-27.274439" lon="151.290064">
  <ele>343.0</ele>
  <time>2026-08-27T18:32:09Z</time>
  <course>0.0</course>
  <speed>0.0</speed>
  <fix>3d</fix>
</trkpt>
<trkpt lat="-27.274439" lon="151.2900639">
  <ele>343.05</ele>
  <time>2026-08-27T18:32:09Z</time>
  <course>146.98</course>
  <speed>0.0</speed>
  <fix>3d</fix>
</trkpt>
<trkpt lat="-27.274439" lon="151.290064">
  <ele>343.0</ele>
  <time>2026-08-27T18:32:09Z</time>
  <course>0.0</course>
  <speed>0.0</speed>
  <fix>3d</fix>
</trkpt>
<trkpt lat="-27.274439" lon="151.2900639">
  <ele>343.03</ele>
  <time>2026-08-27T18:32:09Z</time>
  <course>146.96</course>
  <speed>0.0</speed>
  <fix>3d</fix>
</trkpt>
<trkpt lat="-27.274439" lon="151.290064">
  <ele>343.0</ele>
  <time>2026-08-27T18:32:09Z</time>
  <course>0.0</course>
  <speed>0.0</speed>
  <fix>3d</fix>
</trkpt>
<trkpt lat="-27.274439" lon="151.290064">
  <ele>343.03</ele>
  <time>2026-08-27T18:32:09Z</time>
  <course>146.94</course>
  <speed>0.0</speed>
  <fix>3d</fix>
</trkpt>
<trkpt lat="-27.274439" lon="151.290064">
  <ele>343.0</ele>
  <time>2026-08-27T18:32:09Z</time>
  <course>0.0</course>
  <speed>0.0</speed>
  <fix>3d</fix>
</trkpt>
<trkpt lat="-27.274439" lon="151.290064">
  <ele>343.04</ele>
  <time>2026-08-27T18:32:09Z</time>
  <course>146.92</course>
  <speed>0.0</speed>
  <fix>3d</fix>
</trkpt>
<trkpt lat="-27.274439" lon="151.290064">
  <ele>343.0</ele>
  <time>2026-08-27T18:32:09Z</time>
  <course>0.0</course>
  <speed>0.0</speed>
  <fix>3d</fix>
</trkpt>
<trkpt lat="-27.274439" lon="151.290064">
  <ele>343.04</ele>
  <time>2026-08-27T18:32:09Z</time>
  <course>146.89</course>
  <speed>0.0</speed>
  <fix>3d</fix>
</trkpt>
<trkpt lat="-27.274439" lon="151.290064">
  <ele>343.0</ele>
  <time>2026-08-27T18:32:09Z</time>
  <course>0.0</course>
  <speed>0.0</speed>
  <fix>3d</fix>
</trkpt>
<trkpt lat="-27.274439" lon="151.290064">
  <ele>343.03</ele>
  <time>2026-08-27T18:32:09Z</time>
  <course>146.87</course>
  <speed>0.0</speed>
  <fix>3d</fix>
</trkpt>
<trkpt lat="-27.274439" lon="151.290064">
  <ele>343.0</ele>
  <time>2026-08-27T18:32:09Z</time>
  <course>0.0</course>
  <speed>0.0</speed>
  <fix>3d</fix>
</trkpt>
<trkpt lat="-27.274439" lon="151.290064">
  <ele>343.04</ele>
  <time>2026-08-27T18:32:09Z</time>
  <course>146.84</course>
  <speed>0.01</speed>
  <fix>3d</fix>
</trkpt>
<trkpt lat="-27.274439" lon="151.290064">
  <ele>343.0</ele>
  <time>2026-08-27T18:32:09Z</time>
  <course>0.0</course>
  <speed>0.0</speed>
  <fix>3d</fix>
</trkpt>
<trkpt lat="-27.274439" lon="151.290064">
  <ele>343.02</ele>
  <time>2026-08-27T18:32:09Z</time>
  <course>146.82</course>
  <speed>0.01</speed>
  <fix>3d</fix>
</trkpt>
<trkpt lat="-27.274439" lon="151.290064">
  <ele>343.0</ele>
  <time>2026-08-27T18:32:09Z</time>
  <course>0.0</course>
  <speed>0.0</speed>
  <fix>3d</fix>
</trkpt>
<trkpt lat="-27.274439" lon="151.290064">
  <ele>343.02</ele>
  <time>2026-08-27T18:32:09Z</time>
  <course>146.79</course>
  <speed>0.01</speed>
  <fix>3d</fix>
</trkpt>
<trkpt lat="-27.274439" lon="151.290064">
  <ele>343.0</ele>
  <time>2026-08-27T18:32:09Z</time>
  <course>0.0</course>
  <speed>0.0</speed>
  <fix>3d</fix>
</trkpt>
<trkpt lat="-27.274439" lon="151.2900641">
  <ele>343.03</ele>
  <time>2026-08-27T18:32:09Z</time>
  <course>146.77</course>
  <speed>0.01</speed>
  <fix>3d</fix>
</trkpt>
<trkpt lat="-27.274439" lon="151.290064">
  <ele>343.0</ele>
  <time>2026-08-27T18:32:09Z</time>
  <course>0.0</course>
  <speed>0.0</speed>
  <fix>3d</fix>
</trkpt>
<trkpt lat="-27.274439" lon="151.2900641">
  <ele>343.05</ele>
  <time>2026-08-27T18:32:09Z</time>
  <course>146.74</course>
  <speed>0.01</speed>
  <fix>3d</fix>
</trkpt>
<trkpt lat="-27.274439" lon="151.290064">
  <ele>343.0</ele>
  <time>2026-08-27T18:32:09Z</time>
  <course>0.0</course>
  <speed>0.0</speed>
  <fix>3d</fix>
</trkpt>
<trkpt lat="-27.274439" lon="151.2900641">
  <ele>343.03</ele>
  <time>2026-08-27T18:32:09Z</time>
  <course>146.72</course>
  <speed>0.01</speed>
  <fix>3d</fix>
</trkpt>
<trkpt lat="-27.274439" lon="151.290064">
  <ele>343.0</ele>
  <time>2026-08-27T18:32:09Z</time>
  <course>0.0</course>
  <speed>0.0</speed>
  <fix>3d</fix>
</trkpt>
<trkpt lat="-27.274439" lon="151.2900641">
  <ele>343.01</ele>
  <time>2026-08-27T18:32:09Z</time>
  <course>146.69</course>
  <speed>0.01</speed>
  <fix>3d</fix>
</trkpt>
<trkpt lat="-27.274439" lon="151.290064">
  <ele>343.0</ele>
  <time>2026-08-27T18:32:09Z</time>
  <course>0.0</course>
  <speed>0.0</speed>
  <fix>3d</fix>
</trkpt>
<trkpt lat="-27.274439" lon="151.2900641">
  <ele>343.01</ele>
  <time>2026-08-27T18:32:09Z</time>
  <course>146.67</course>
  <speed>0.01</speed>
  <fix>3d</fix>
</trkpt>
<trkpt lat="-27.274439" lon="151.290064">
  <ele>343.0</ele>
  <time>2026-08-27T18:32:09Z</time>
  <course>0.0</course>
  <speed>0.0</speed>
  <fix>3d</fix>
</trkpt>
<trkpt lat="-27.274439" lon="151.2900641">
  <ele>343.01</ele>
  <time>2026-08-27T18:32:09Z</time>
  <course>146.64</course>
  <speed>0.01</speed>
  <fix>3d</fix>
</trkpt>
<trkpt lat="-27.274439" lon="151.290064">
  <ele>343.0</ele>
  <time>2026-08-27T18:32:09Z</time>
  <course>0.0</course>
  <speed>0.0</speed>
  <fix>3d</fix>
</trkpt>
<trkpt lat="-27.274439" lon="151.2900641">
  <ele>343.02</ele>
  <time>2026-08-27T18:32:09Z</time>
  <course>146.61</course>
  <speed>0.02</speed>
  <fix>3d</fix>
</trkpt>
<trkpt lat="-27.274439" lon="151.290064">
  <ele>343.0</ele>
  <time>2026-08-27T18:32:09Z</time>
  <course>0.0</course>
  <speed>0.0</speed>
  <fix>3d</fix>
</trkpt>
<trkpt lat="-27.274439" lon="151.2900641">
  <ele>343.01</ele>
  <time>2026-08-27T18:32:09Z</time>
  <course>146.58</course>
  <speed>0.02</speed>
  <fix>3d</fix>
</trkpt>
<trkpt lat="-27.274439" lon="151.290064">
  <ele>343.0</ele>
  <time>2026-08-27T18:32:09Z</time>
  <course>0.0</course>
  <speed>0.0</speed>
  <fix>3d</fix>
</trkpt>
<trkpt lat="-27.274439" lon="151.2900641">
  <ele>343.02</ele>
  <time>2026-08-27T18:32:09Z</time>
  <course>146.56</course>
  <speed>0.02</speed>
  <fix>3d</fix>
</trkpt>
<trkpt lat="-27.274439" lon="151.290064">
  <ele>343.0</ele>
  <time>2026-08-27T18:32:09Z</time>
  <course>0.0</course>
  <speed>0.0</speed>
  <fix>3d</fix>
</trkpt>
<trkpt lat="-27.274439" lon="151.2900641">
  <ele>343.01</ele>
  <time>2026-08-27T18:32:09Z</time>
  <course>146.53</course>
  <speed>0.02</speed>
  <fix>3d</fix>
</trkpt>
<trkpt lat="-27.274439" lon="151.290064">
  <ele>343.0</ele>
  <time>2026-08-27T18:32:09Z</time>
  <course>0.0</course>
  <speed>0.0</speed>
  <fix>3d</fix>
</trkpt>
<trkpt lat="-27.274439" lon="151.2900641">
  <ele>343.0</ele>
  <time>2026-08-27T18:32:09Z</time>
  <course>146.51</course>
  <speed>0.02</speed>
  <fix>3d</fix>
</trkpt>
<trkpt lat="-27.274439" lon="151.290064">
  <ele>343.0</ele>
  <time>2026-08-27T18:32:09Z</time>
  <course>0.0</course>
  <speed>0.0</speed>
  <fix>3d</fix>
</trkpt>
<trkpt lat="-27.274439" lon="151.2900642">
  <ele>343.01</ele>
  <time>2026-08-27T18:32:09Z</time>
  <course>146.48</course>
  <speed>0.02</speed>
  <fix>3d</fix>
</trkpt>
<trkpt lat="-27.274439" lon="151.290064">
  <ele>343.0</ele>
  <time>2026-08-27T18:32:09Z</time>
  <course>0.0</course>
  <speed>0.0</speed>
  <fix>3d</fix>
</trkpt>
<trkpt lat="-27.274439" lon="151.2900642">
  <ele>343.0</ele>
  <time>2026-08-27T18:32:09Z</time>
  <course>146.45</course>
  <speed>0.02</speed>
  <fix>3d</fix>
</trkpt>
<trkpt lat="-27.274439" lon="151.290064">
  <ele>343.0</ele>
  <time>2026-08-27T18:32:09Z</time>
  <course>0.0</course>
  <speed>0.0</speed>
  <fix>3d</fix>
</trkpt>
<trkpt lat="-27.274439" lon="151.2900642">
  <ele>343.03</ele>
  <time>2026-08-27T18:32:09Z</time>
  <course>146.43</course>
  <speed>0.02</speed>
  <fix>3d</fix>
</trkpt>
<trkpt lat="-27.274439" lon="151.290064">
  <ele>343.0</ele>
  <time>2026-08-27T18:32:09Z</time>
  <course>0.0</course>
  <speed>0.0</speed>
  <fix>3d</fix>
</trkpt>
<trkpt lat="-27.274439" lon="151.2900641">
  <ele>343.03</ele>
  <time>2026-08-27T18:32:09Z</time>
  <course>146.4</course>
  <speed>0.02</speed>
  <fix>3d</fix>
</trkpt>
<trkpt lat="-27.274439" lon="151.290064">
  <ele>343.0</ele>
  <time>2026-08-27T18:32:09Z</time>
  <course>0.0</course>
  <speed>0.0</speed>
  <fix>3d</fix>
</trkpt>
<trkpt lat="-27.274439" lon="151.2900642">
  <ele>343.02</ele>
  <time>2026-08-27T18:32:09Z</time>
  <course>146.37</course>
  <speed>0.02</speed>
  <fix>3d</fix>
</trkpt>
<trkpt lat="-27.274439" lon="151.290064">
  <ele>343.0</ele>
  <time>2026-08-27T18:32:09Z</time>
  <course>0.0</course>
  <speed>0.0</speed>
  <fix>3d</fix>
</trkpt>
<trkpt lat="-27.274439" lon="151.2900642">
  <ele>343.02</ele>
  <time>2026-08-27T18:32:09Z</time>
  <course>146.35</course>
  <speed>0.02</speed>
  <fix>3d</fix>
</trkpt>
<trkpt lat="-27.274439" lon="151.290064">
  <ele>343.0</ele>
  <time>2026-08-27T18:32:09Z</time>
  <course>0.0</course>
  <speed>0.0</speed>
  <fix>3d</fix>
</trkpt>
<trkpt lat="-27.274439" lon="151.2900642">
  <ele>343.03</ele>
  <time>2026-08-27T18:32:09Z</time>
  <course>146.32</course>
  <speed>0.02</speed>
  <fix>3d</fix>
</trkpt>
<trkpt lat="-27.274439" lon="151.290064">
  <ele>343.0</ele>
  <time>2026-08-27T18:32:09Z</time>
  <course>0.0</course>
  <speed>0.0</speed>
  <fix>3d</fix>
</trkpt>
<trkpt lat="-27.274439" lon="151.2900642">
  <ele>343.03</ele>
  <time>2026-08-27T18:32:09Z</time>
  <course>146.3</course>
  <speed>0.02</speed>
  <fix>3d</fix>
</trkpt>
<trkpt lat="-27.274439" lon="151.290064">
  <ele>343.0</ele>
  <time>2026-08-27T18:32:09Z</time>
  <course>0.0</course>
  <speed>0.0</speed>
  <fix>3d</fix>
</trkpt>
<trkpt lat="-27.274439" lon="151.2900642">
  <ele>343.02</ele>
  <time>2026-08-27T18:32:09Z</time>
  <course>146.27</course>
  <speed>0.02</speed>
  <fix>3d</fix>
</trkpt>
<trkpt lat="-27.274439" lon="151.290064">
  <ele>343.0</ele>
  <time>2026-08-27T18:32:09Z</time>
  <course>0.0</course>
  <speed>0.0</speed>
  <fix>3d</fix>
</trkpt>
<trkpt lat="-27.274439" lon="151.2900642">
  <ele>343.01</ele>
  <time>2026-08-27T18:32:09Z</time>
  <course>146.24</course>
  <speed>0.02</speed>
  <fix>3d</fix>
</trkpt>
<trkpt lat="-27.274439" lon="151.290064">
  <ele>343.0</ele>
  <time>2026-08-27T18:32:09Z</time>
  <course>0.0</course>
  <speed>0.0</speed>
  <fix>3d</fix>
</trkpt>
<trkpt lat="-27.274439" lon="151.2900642">
  <ele>343.0</ele>
  <time>2026-08-27T18:32:09Z</time>
  <course>146.22</course>
  <speed>0.02</speed>
  <fix>3d</fix>
</trkpt>
<trkpt lat="-27.274439" lon="151.290064">
  <ele>343.0</ele>
  <time>2026-08-27T18:32:09Z</time>
  <course>0.0</course>
  <speed>0.0</speed>
  <fix>3d</fix>
</trkpt>
<trkpt lat="-27.274439" lon="151.2900642">
  <ele>343.0</ele>
  <time>2026-08-27T18:32:09Z</time>
  <course>146.2</course>
  <speed>0.02</speed>
  <fix>3d</fix>
</trkpt>
<trkpt lat="-27.274439" lon="151.290064">
  <ele>343.0</ele>
  <time>2026-08-27T18:32:09Z</time>
  <course>0.0</course>
  <speed>0.0</speed>
  <fix>3d</fix>
</trkpt>
<trkpt lat="-27.274439" lon="151.2900642">
  <ele>343.02</ele>
  <time>2026-08-27T18:32:09Z</time>
  <course>146.17</course>
  <speed>0.02</speed>
  <fix>3d</fix>
</trkpt>
<trkpt lat="-27.274439" lon="151.290064">
  <ele>343.0</ele>
  <time>2026-08-27T18:32:09Z</time>
  <course>0.0</course>
  <speed>0.0</speed>
  <fix>3d</fix>
</trkpt>
<trkpt lat="-27.274439" lon="151.2900642">
  <ele>343.04</ele>
  <time>2026-08-27T18:32:09Z</time>
  <course>146.15</course>
  <speed>0.02</speed>
  <fix>3d</fix>
</trkpt>
<trkpt lat="-27.274439" lon="151.290064">
  <ele>343.0</ele>
  <time>2026-08-27T18:32:09Z</time>
  <course>0.0</course>
  <speed>0.0</speed>
  <fix>3d</fix>
</trkpt>
<trkpt lat="-27.274439" lon="151.2900642">
  <ele>343.05</ele>
  <time>2026-08-27T18:32:09Z</time>
  <course>146.12</course>
  <speed>0.02</speed>
  <fix>3d</fix>
</trkpt>
<trkpt lat="-27.274439" lon="151.290064">
  <ele>343.0</ele>
  <time>2026-08-27T18:32:09Z</time>
  <course>0.0</course>
  <speed>0.0</speed>
  <fix>3d</fix>
</trkpt>
<trkpt lat="-27.274439" lon="151.2900642">
  <ele>343.05</ele>
  <time>2026-08-27T18:32:09Z</time>
  <course>146.1</course>
  <speed>0.02</speed>
  <fix>3d</fix>
</trkpt>
<trkpt lat="-27.274439" lon="151.290064">
  <ele>343.0</ele>
  <time>2026-08-27T18:32:09Z</time>
  <course>0.0</course>
  <speed>0.0</speed>
  <fix>3d</fix>
</trkpt>
<trkpt lat="-27.274439" lon="151.2900642">
  <ele>343.04</ele>
  <time>2026-08-27T18:32:09Z</time>
  <course>146.08</course>
  <speed>0.02</speed>
  <fix>3d</fix>
</trkpt>
<trkpt lat="-27.274439" lon="151.290064">
  <ele>343.0</ele>
  <time>2026-08-27T18:32:09Z</time>
  <course>0.0</course>
  <speed>0.0</speed>
  <fix>3d</fix>
</trkpt>
<trkpt lat="-27.274439" lon="151.2900642">
  <ele>343.03</ele>
  <time>2026-08-27T18:32:09Z</time>
  <course>146.05</course>
  <speed>0.02</speed>
  <fix>3d</fix>
</trkpt>
<trkpt lat="-27.274439" lon="151.290064">
  <ele>343.0</ele>
  <time>2026-08-27T18:32:09Z</time>
  <course>0.0</course>
  <speed>0.0</speed>
  <fix>3d</fix>
</trkpt>
<trkpt lat="-27.274439" lon="151.2900642">
  <ele>343.02</ele>
  <time>2026-08-27T18:32:09Z</time>
  <course>146.03</course>
  <speed>0.02</speed>
  <fix>3d</fix>
</trkpt>
<trkpt lat="-27.274439" lon="151.290064">
  <ele>343.0</ele>
  <time>2026-08-27T18:32:09Z</time>
  <course>0.0</course>
  <speed>0.0</speed>
  <fix>3d</fix>
</trkpt>
<trkpt lat="-27.274439" lon="151.2900642">
  <ele>343.03</ele>
  <time>2026-08-27T18:32:09Z</time>
  <course>146.01</course>
  <speed>0.02</speed>
  <fix>3d</fix>
</trkpt>
<trkpt lat="-27.274439" lon="151.290064">
  <ele>343.0</ele>
  <time>2026-08-27T18:32:09Z</time>
  <course>0.0</course>
  <speed>0.0</speed>
  <fix>3d</fix>
</trkpt>
<trkpt lat="-27.274439" lon="151.2900642">
  <ele>343.04</ele>
  <time>2026-08-27T18:32:09Z</time>
  <course>145.99</course>
  <speed>0.02</speed>
  <fix>3d</fix>
</trkpt>
<trkpt lat="-27.274439" lon="151.290064">
  <ele>343.0</ele>
  <time>2026-08-27T18:32:09Z</time>
  <course>0.0</course>
  <speed>0.0</speed>
  <fix>3d</fix>
</trkpt>
<trkpt lat="-27.274439" lon="151.2900642">
  <ele>343.05</ele>
  <time>2026-08-27T18:32:09Z</time>
  <course>145.96</course>
  <speed>0.02</speed>
  <fix>3d</fix>
</trkpt>
<trkpt lat="-27.274439" lon="151.290064">
  <ele>343.0</ele>
  <time>2026-08-27T18:32:09Z</time>
  <course>0.0</course>
  <speed>0.0</speed>
  <fix>3d</fix>
</trkpt>
<trkpt lat="-27.274439" lon="151.2900642">
  <ele>343.06</ele>
  <time>2026-08-27T18:32:09Z</time>
  <course>145.95</course>
  <speed>0.02</speed>
  <fix>3d</fix>
</trkpt>
<trkpt lat="-27.274439" lon="151.290064">
  <ele>343.0</ele>
  <time>2026-08-27T18:32:09Z</time>
  <course>0.0</course>
  <speed>0.0</speed>
  <fix>3d</fix>
</trkpt>
<trkpt lat="-27.274439" lon="151.2900642">
  <ele>343.03</ele>
  <time>2026-08-27T18:32:09Z</time>
  <course>145.92</course>
  <speed>0.02</speed>
  <fix>3d</fix>
</trkpt>
<trkpt lat="-27.274439" lon="151.290064">
  <ele>343.0</ele>
  <time>2026-08-27T18:32:09Z</time>
  <course>0.0</course>
  <speed>0.0</speed>
  <fix>3d</fix>
</trkpt>
<trkpt lat="-27.274439" lon="151.2900642">
  <ele>343.02</ele>
  <time>2026-08-27T18:32:09Z</time>
  <course>145.9</course>
  <speed>0.02</speed>
  <fix>3d</fix>
</trkpt>
<trkpt lat="-27.274439" lon="151.290064">
  <ele>343.0</ele>
  <time>2026-08-27T18:32:09Z</time>
  <course>0.0</course>
  <speed>0.0</speed>
  <fix>3d</fix>
</trkpt>
<trkpt lat="-27.274439" lon="151.2900642">
  <ele>343.01</ele>
  <time>2026-08-27T18:32:09Z</time>
  <course>145.88</course>
  <speed>0.03</speed>
  <fix>3d</fix>
</trkpt>
<trkpt lat="-27.274439" lon="151.290064">
  <ele>343.0</ele>
  <time>2026-08-27T18:32:09Z</time>
  <course>0.0</course>
  <speed>0.0</speed>
  <fix>3d</fix>
</trkpt>
<trkpt lat="-27.274439" lon="151.2900642">
  <ele>343.01</ele>
  <time>2026-08-27T18:32:09Z</time>
  <course>145.86</course>
  <speed>0.02</speed>
  <fix>3d</fix>
</trkpt>
<trkpt lat="-27.274439" lon="151.290064">
  <ele>343.0</ele>
  <time>2026-08-27T18:32:09Z</time>
  <course>0.0</course>
  <speed>0.0</speed>
  <fix>3d</fix>
</trkpt>
<trkpt lat="-27.274439" lon="151.2900642">
  <ele>343.03</ele>
  <time>2026-08-27T18:32:09Z</time>
  <course>145.84</course>
  <speed>0.03</speed>
  <fix>3d</fix>
</trkpt>
<trkpt lat="-27.274439" lon="151.290064">
  <ele>343.0</ele>
  <time>2026-08-27T18:32:09Z</time>
  <course>0.0</course>
  <speed>0.0</speed>
  <fix>3d</fix>
</trkpt>
<trkpt lat="-27.274439" lon="151.2900642">
  <ele>343.05</ele>
  <time>2026-08-27T18:32:09Z</time>
  <course>145.83</course>
  <speed>0.02</speed>
  <fix>3d</fix>
</trkpt>
<trkpt lat="-27.274439" lon="151.290064">
  <ele>343.0</ele>
  <time>2026-08-27T18:32:09Z</time>
  <course>0.0</course>
  <speed>0.0</speed>
  <fix>3d</fix>
</trkpt>
<trkpt lat="-27.274439" lon="151.2900642">
  <ele>343.03</ele>
  <time>2026-08-27T18:32:09Z</time>
  <course>145.81</course>
  <speed>0.03</speed>
  <fix>3d</fix>
</trkpt>
<trkpt lat="-27.274439" lon="151.290064">
  <ele>343.0</ele>
  <time>2026-08-27T18:32:09Z</time>
  <course>0.0</course>
  <speed>0.0</speed>
  <fix>3d</fix>
</trkpt>
<trkpt lat="-27.274439" lon="151.2900642">
  <ele>343.03</ele>
  <time>2026-08-27T18:32:09Z</time>
  <course>145.79</course>
  <speed>0.02</speed>
  <fix>3d</fix>
</trkpt>
<trkpt lat="-27.274439" lon="151.290064">
  <ele>343.0</ele>
  <time>2026-08-27T18:32:09Z</time>
  <course>0.0</course>
  <speed>0.0</speed>
  <fix>3d</fix>
</trkpt>
<trkpt lat="-27.274439" lon="151.2900642">
  <ele>343.02</ele>
  <time>2026-08-27T18:32:09Z</time>
  <course>145.77</course>
  <speed>0.03</speed>
  <fix>3d</fix>
</trkpt>
<trkpt lat="-27.274439" lon="151.290064">
  <ele>343.0</ele>
  <time>2026-08-27T18:32:09Z</time>
  <course>0.0</course>
  <speed>0.0</speed>
  <fix>3d</fix>
</trkpt>
<trkpt lat="-27.274439" lon="151.2900642">
  <ele>343.01</ele>
  <time>2026-08-27T18:32:09Z</time>
  <course>145.75</course>
  <speed>0.02</speed>
  <fix>3d</fix>
</trkpt>
<trkpt lat="-27.274439" lon="151.290064">
  <ele>343.0</ele>
  <time>2026-08-27T18:32:09Z</time>
  <course>0.0</course>
  <speed>0.0</speed>
  <fix>3d</fix>
</trkpt>
<trkpt lat="-27.274439" lon="151.2900642">
  <ele>342.99</ele>
  <time>2026-08-27T18:32:09Z</time>
  <course>145.74</course>
  <speed>0.03</speed>
  <fix>3d</fix>
</trkpt>
<trkpt lat="-27.274439" lon="151.290064">
  <ele>343.0</ele>
  <time>2026-08-27T18:32:09Z</time>
  <course>0.0</course>
  <speed>0.0</speed>
  <fix>3d</fix>
</trkpt>
<trkpt lat="-27.274439" lon="151.2900642">
  <ele>342.99</ele>
  <time>2026-08-27T18:32:09Z</time>
  <course>145.72</course>
  <speed>0.02</speed>
  <fix>3d</fix>
</trkpt>
<trkpt lat="-27.274439" lon="151.290064">
  <ele>343.0</ele>
  <time>2026-08-27T18:32:09Z</time>
  <course>0.0</course>
  <speed>0.0</speed>
  <fix>3d</fix>
</trkpt>
<trkpt lat="-27.274439" lon="151.2900642">
  <ele>343.0</ele>
  <time>2026-08-27T18:32:09Z</time>
  <course>145.7</course>
  <speed>0.03</speed>
  <fix>3d</fix>
</trkpt>
<trkpt lat="-27.274439" lon="151.290064">
  <ele>343.0</ele>
  <time>2026-08-27T18:32:09Z</time>
  <course>0.0</course>
  <speed>0.0</speed>
  <fix>3d</fix>
</trkpt>
<trkpt lat="-27.274439" lon="151.2900642">
  <ele>342.99</ele>
  <time>2026-08-27T18:32:09Z</time>
  <course>145.69</course>
  <speed>0.02</speed>
  <fix>3d</fix>
</trkpt>
<trkpt lat="-27.274439" lon="151.290064">
  <ele>343.0</ele>
  <time>2026-08-27T18:32:09Z</time>
  <course>0.0</course>
  <speed>0.0</speed>
  <fix>3d</fix>
</trkpt>
<trkpt lat="-27.274439" lon="151.2900642">
  <ele>343.0</ele>
  <time>2026-08-27T18:32:09Z</time>
  <course>145.67</course>
  <speed>0.03</speed>
  <fix>3d</fix>
</trkpt>
<trkpt lat="-27.274439" lon="151.290064">
  <ele>343.0</ele>
  <time>2026-08-27T18:32:09Z</time>
  <course>0.0</course>
  <speed>0.0</speed>
  <fix>3d</fix>
</trkpt>
<trkpt lat="-27.274439" lon="151.2900642">
  <ele>343.01</ele>
  <time>2026-08-27T18:32:09Z</time>
  <course>145.66</course>
  <speed>0.02</speed>
  <fix>3d</fix>
</trkpt>
<trkpt lat="-27.274439" lon="151.290064">
  <ele>343.0</ele>
  <time>2026-08-27T18:32:09Z</time>
  <course>0.0</course>
  <speed>0.0</speed>
  <fix>3d</fix>
</trkpt>
<trkpt lat="-27.274439" lon="151.2900642">
  <ele>343.01</ele>
  <time>2026-08-27T18:32:09Z</time>
  <course>145.64</course>
  <speed>0.03</speed>
  <fix>3d</fix>
</trkpt>
<trkpt lat="-27.274439" lon="151.290064">
  <ele>343.0</ele>
  <time>2026-08-27T18:32:09Z</time>
  <course>0.0</course>
  <speed>0.0</speed>
  <fix>3d</fix>
</trkpt>
<trkpt lat="-27.274439" lon="151.2900642">
  <ele>343.0</ele>
  <time>2026-08-27T18:32:09Z</time>
  <course>145.62</course>
  <speed>0.03</speed>
  <fix>3d</fix>
</trkpt>
<trkpt lat="-27.274439" lon="151.290064">
  <ele>343.0</ele>
  <time>2026-08-27T18:32:09Z</time>
  <course>0.0</course>
  <speed>0.0</speed>
  <fix>3d</fix>
</trkpt>
<trkpt lat="-27.274439" lon="151.2900642">
  <ele>343.0</ele>
  <time>2026-08-27T18:32:10Z</time>
  <course>145.61</course>
  <speed>0.03</speed>
  <fix>3d</fix>
</trkpt>
<trkpt lat="-27.274439" lon="151.290064">
  <ele>343.0</ele>
  <time>2026-08-27T18:32:10Z</time>
  <course>0.0</course>
  <speed>0.0</speed>
  <fix>3d</fix>
</trkpt>
<trkpt lat="-27.274439" lon="151.2900642">
  <ele>342.99</ele>
  <time>2026-08-27T18:32:10Z</time>
  <course>145.6</course>
  <speed>0.03</speed>
  <fix>3d</fix>
</trkpt>
<trkpt lat="-27.274439" lon="151.290064">
  <ele>343.0</ele>
  <time>2026-08-27T18:32:10Z</time>
  <course>0.0</course>
  <speed>0.0</speed>
  <fix>3d</fix>
</trkpt>
<trkpt lat="-27.274439" lon="151.2900642">
  <ele>342.99</ele>
  <time>2026-08-27T18:32:10Z</time>
  <course>145.59</course>
  <speed>0.03</speed>
  <fix>3d</fix>
</trkpt>
<trkpt lat="-27.274439" lon="151.290064">
  <ele>343.0</ele>
  <time>2026-08-27T18:32:10Z</time>
  <course>0.0</course>
  <speed>0.0</speed>
  <fix>3d</fix>
</trkpt>
<trkpt lat="-27.274439" lon="151.2900642">
  <ele>343.02</ele>
  <time>2026-08-27T18:32:10Z</time>
  <course>145.57</course>
  <speed>0.03</speed>
  <fix>3d</fix>
</trkpt>
<trkpt lat="-27.274439" lon="151.290064">
  <ele>343.0</ele>
  <time>2026-08-27T18:32:10Z</time>
  <course>0.0</course>
  <speed>0.0</speed>
  <fix>3d</fix>
</trkpt>
<trkpt lat="-27.274439" lon="151.2900642">
  <ele>343.01</ele>
  <time>2026-08-27T18:32:10Z</time>
  <course>145.56</course>
  <speed>0.03</speed>
  <fix>3d</fix>
</trkpt>
<trkpt lat="-27.274439" lon="151.290064">
  <ele>343.0</ele>
  <time>2026-08-27T18:32:10Z</time>
  <course>0.0</course>
  <speed>0.0</speed>
  <fix>3d</fix>
</trkpt>
<trkpt lat="-27.274439" lon="151.2900642">
  <ele>342.99</ele>
  <time>2026-08-27T18:32:10Z</time>
  <course>145.54</course>
  <speed>0.03</speed>
  <fix>3d</fix>
</trkpt>
<trkpt lat="-27.274439" lon="151.290064">
  <ele>343.0</ele>
  <time>2026-08-27T18:32:10Z</time>
  <course>0.0</course>
  <speed>0.0</speed>
  <fix>3d</fix>
</trkpt>
<trkpt lat="-27.274439" lon="151.2900642">
  <ele>342.99</ele>
  <time>2026-08-27T18:32:10Z</time>
  <course>145.52</course>
  <speed>0.03</speed>
  <fix>3d</fix>
</trkpt>
<trkpt lat="-27.274439" lon="151.290064">
  <ele>343.0</ele>
  <time>2026-08-27T18:32:10Z</time>
  <course>0.0</course>
  <speed>0.0</speed>
  <fix>3d</fix>
</trkpt>
<trkpt lat="-27.274439" lon="151.2900642">
  <ele>343.0</ele>
  <time>2026-08-27T18:32:10Z</time>
  <course>145.51</course>
  <speed>0.03</speed>
  <fix>3d</fix>
</trkpt>
<trkpt lat="-27.274439" lon="151.290064">
  <ele>343.0</ele>
  <time>2026-08-27T18:32:10Z</time>
  <course>0.0</course>
  <speed>0.0</speed>
  <fix>3d</fix>
</trkpt>
<trkpt lat="-27.274439" lon="151.2900642">
  <ele>343.01</ele>
  <time>2026-08-27T18:32:10Z</time>
  <course>145.5</course>
  <speed>0.03</speed>
  <fix>3d</fix>
</trkpt>
<trkpt lat="-27.274439" lon="151.290064">
  <ele>343.0</ele>
  <time>2026-08-27T18:32:10Z</time>
  <course>0.0</course>
  <speed>0.0</speed>
  <fix>3d</fix>
</trkpt>
<trkpt lat="-27.274439" lon="151.2900642">
  <ele>343.01</ele>
  <time>2026-08-27T18:32:10Z</time>
  <course>145.49</course>
  <speed>0.03</speed>
  <fix>3d</fix>
</trkpt>
<trkpt lat="-27.274439" lon="151.290064">
  <ele>343.0</ele>
  <time>2026-08-27T18:32:10Z</time>
  <course>0.0</course>
  <speed>0.0</speed>
  <fix>3d</fix>
</trkpt>
<trkpt lat="-27.274439" lon="151.2900642">
  <ele>343.01</ele>
  <time>2026-08-27T18:32:10Z</time>
  <course>145.48</course>
  <speed>0.03</speed>
  <fix>3d</fix>
</trkpt>
<trkpt lat="-27.274439" lon="151.290064">
  <ele>343.0</ele>
  <time>2026-08-27T18:32:10Z</time>
  <course>0.0</course>
  <speed>0.0</speed>
  <fix>3d</fix>
</trkpt>
<trkpt lat="-27.274439" lon="151.2900642">
  <ele>343.02</ele>
  <time>2026-08-27T18:32:10Z</time>
  <course>145.47</course>
  <speed>0.03</speed>
  <fix>3d</fix>
</trkpt>
<trkpt lat="-27.274439" lon="151.290064">
  <ele>343.0</ele>
  <time>2026-08-27T18:32:10Z</time>
  <course>0.0</course>
  <speed>0.0</speed>
  <fix>3d</fix>
</trkpt>
<trkpt lat="-27.274439" lon="151.2900642">
  <ele>342.99</ele>
  <time>2026-08-27T18:32:10Z</time>
  <course>137.6</course>
  <speed>0.02</speed>
  <fix>3d</fix>
</trkpt>
<trkpt lat="-27.274439" lon="151.290064">
  <ele>343.0</ele>
  <time>2026-08-27T18:32:10Z</time>
  <course>0.0</course>
  <speed>0.0</speed>
  <fix>3d</fix>
</trkpt>
<trkpt lat="-27.274439" lon="151.2900642">
  <ele>342.97</ele>
  <time>2026-08-27T18:32:10Z</time>
  <course>128.49</course>
  <speed>0.01</speed>
  <fix>3d</fix>
</trkpt>
<trkpt lat="-27.274439" lon="151.290064">
  <ele>343.0</ele>
  <time>2026-08-27T18:32:10Z</time>
  <course>0.0</course>
  <speed>0.0</speed>
  <fix>3d</fix>
</trkpt>
<trkpt lat="-27.274439" lon="151.2900641">
  <ele>342.96</ele>
  <time>2026-08-27T18:32:10Z</time>
  <course>119.41</course>
  <speed>0.01</speed>
  <fix>3d</fix>
</trkpt>
<trkpt lat="-27.274439" lon="151.290064">
  <ele>343.0</ele>
  <time>2026-08-27T18:32:10Z</time>
  <course>0.0</course>
  <speed>0.0</speed>
  <fix>3d</fix>
</trkpt>
<trkpt lat="-27.274439" lon="151.290064">
  <ele>342.93</ele>
  <time>2026-08-27T18:32:10Z</time>
  <course>110.34</course>
  <speed>0.01</speed>
  <fix>3d</fix>
</trkpt>
<trkpt lat="-27.274439" lon="151.290064">
  <ele>343.0</ele>
  <time>2026-08-27T18:32:10Z</time>
  <course>0.0</course>
  <speed>0.0</speed>
  <fix>3d</fix>
</trkpt>
<trkpt lat="-27.2744391" lon="151.290064">
  <ele>342.95</ele>
  <time>2026-08-27T18:32:10Z</time>
  <course>101.31</course>
  <speed>0.01</speed>
  <fix>3d</fix>
</trkpt>
<trkpt lat="-27.274439" lon="151.290064">
  <ele>343.0</ele>
  <time>2026-08-27T18:32:10Z</time>
  <course>0.0</course>
  <speed>0.0</speed>
  <fix>3d</fix>
</trkpt>
<trkpt lat="-27.2744391" lon="151.290064">
  <ele>342.95</ele>
  <time>2026-08-27T18:32:10Z</time>
  <course>92.28</course>
  <speed>0.02</speed>
  <fix>3d</fix>
</trkpt>
<trkpt lat="-27.274439" lon="151.290064">
  <ele>343.0</ele>
  <time>2026-08-27T18:32:10Z</time>
  <course>0.0</course>
  <speed>0.0</speed>
  <fix>3d</fix>
</trkpt>
<trkpt lat="-27.2744391" lon="151.2900641">
  <ele>342.98</ele>
  <time>2026-08-27T18:32:10Z</time>
  <course>83.27</course>
  <speed>0.02</speed>
  <fix>3d</fix>
</trkpt>
<trkpt lat="-27.274439" lon="151.290064">
  <ele>343.0</ele>
  <time>2026-08-27T18:32:10Z</time>
  <course>0.0</course>
  <speed>0.0</speed>
  <fix>3d</fix>
</trkpt>
<trkpt lat="-27.274439" lon="151.290064">
  <ele>343.0</ele>
  <time>2026-08-27T18:32:10Z</time>
  <course>325.88</course>
  <speed>0.0</speed>
  <fix>3d</fix>
</trkpt>
<trkpt lat="-27.274439" lon="151.290064">
  <ele>343.0</ele>
  <time>2026-08-27T18:32:10Z</time>
  <course>324.43</course>
  <speed>0.0</speed>
  <fix>3d</fix>
</trkpt>
<trkpt lat="-27.274439" lon="151.290064">
  <ele>343.0</ele>
  <time>2026-08-27T18:32:10Z</time>
  <course>321.86</course>
  <speed>0.0</speed>
  <fix>3d</fix>
</trkpt>
<trkpt lat="-27.274439" lon="151.290064">
  <ele>343.0</ele>
  <time>2026-08-27T18:32:10Z</time>
  <course>295.0</course>
  <speed>0.0</speed>
  <fix>3d</fix>
</trkpt>
<trkpt lat="-27.274439" lon="151.290064">
  <ele>343.0</ele>
  <time>2026-08-27T18:32:10Z</time>
  <course>290.72</course>
  <speed>0.0</speed>
  <fix>3d</fix>
</trkpt>
<trkpt lat="-27.274439" lon="151.290064">
  <ele>343.0</ele>
  <time>2026-08-27T18:32:10Z</time>
  <course>284.84</course>
  <speed>0.0</speed>
  <fix>3d</fix>
</trkpt>
<trkpt lat="-27.274439" lon="151.290064">
  <ele>343.0</ele>
  <time>2026-08-27T18:32:10Z</time>
  <course>277.79</course>
  <speed>0.0</speed>
  <fix>3d</fix>
</trkpt>
<trkpt lat="-27.274439" lon="151.290064">
  <ele>343.0</ele>
  <time>2026-08-27T18:32:10Z</time>
  <course>269.55</course>
  <speed>0.0</speed>
  <fix>3d</fix>
</trkpt>
<trkpt lat="-27.274439" lon="151.290064">
  <ele>343.0</ele>
  <time>2026-08-27T18:32:10Z</time>
  <course>262.16</course>
  <speed>0.9176055797563569</speed>
  <fix>3d</fix>
</trkpt>
<trkpt lat="-27.274439" lon="151.290064">
  <ele>343.0</ele>
  <time>2026-08-27T18:32:10Z</time>
  <course>0.0</course>
  <speed>0.0</speed>
  <fix>3d</fix>
</trkpt>
<trkpt lat="-27.274439" lon="151.290064">
  <ele>343.0</ele>
  <time>2026-08-27T18:32:10Z</time>
  <course>256.4</course>
  <speed>0.9403190947758107</speed>
  <fix>3d</fix>
</trkpt>
<trkpt lat="-27.274439" lon="151.290064">
  <ele>343.0</ele>
  <time>2026-08-27T18:32:10Z</time>
  <course>0.0</course>
  <speed>0.0</speed>
  <fix>3d</fix>
</trkpt>
<trkpt lat="-27.274439" lon="151.290064">
  <ele>343.0</ele>
  <time>2026-08-27T18:32:10Z</time>
  <course>249.45</course>
  <speed>0.756042326857432</speed>
  <fix>3d</fix>
</trkpt>
<trkpt lat="-27.274439" lon="151.290064">
  <ele>343.0</ele>
  <time>2026-08-27T18:32:10Z</time>
  <course>0.0</course>
  <speed>0.0</speed>
  <fix>3d</fix>
</trkpt>
<trkpt lat="-27.274439" lon="151.290064">
  <ele>343.0</ele>
  <time>2026-08-27T18:32:10Z</time>
  <course>241.79</course>
  <speed>0.6596969000988256</speed>
  <fix>3d</fix>
</trkpt>
<trkpt lat="-27.274439" lon="151.290064">
  <ele>343.0</ele>
  <time>2026-08-27T18:32:10Z</time>
  <course>0.0</course>
  <speed>0.0</speed>
  <fix>3d</fix>
</trkpt>
<trkpt lat="-27.274439" lon="151.290064">
  <ele>343.0</ele>
  <time>2026-08-27T18:32:10Z</time>
  <course>233.59</course>
  <speed>0.6618912297349165</speed>
  <fix>3d</fix>
</trkpt>
<trkpt lat="-27.274439" lon="151.290064">
  <ele>343.0</ele>
  <time>2026-08-27T18:32:10Z</time>
  <course>0.0</course>
  <speed>0.0</speed>
  <fix>3d</fix>
</trkpt>
<trkpt lat="-27.274439" lon="151.290064">
  <ele>343.0</ele>
  <time>2026-08-27T18:32:10Z</time>
  <course>225.02</course>
  <speed>0.7034202158027589</speed>
  <fix>3d</fix>
</trkpt>
<trkpt lat="-27.274439" lon="151.290064">
  <ele>343.0</ele>
  <time>2026-08-27T18:32:10Z</time>
  <course>0.0</course>
  <speed>0.0</speed>
  <fix>3d</fix>
</trkpt>
<trkpt lat="-27.274439" lon="151.290064">
  <ele>343.0</ele>
  <time>2026-08-27T18:32:10Z</time>
  <course>216.17</course>
  <speed>0.7539230729988305</speed>
  <fix>3d</fix>
</trkpt>
<trkpt lat="-27.274439" lon="151.290064">
  <ele>343.0</ele>
  <time>2026-08-27T18:32:10Z</time>
  <course>0.0</course>
  <speed>0.0</speed>
  <fix>3d</fix>
</trkpt>
<trkpt lat="-27.274439" lon="151.290064">
  <ele>343.0</ele>
  <time>2026-08-27T18:32:10Z</time>
  <course>207.13</course>
  <speed>0.8052949770115296</speed>
  <fix>3d</fix>
</trkpt>
<trkpt lat="-27.274439" lon="151.290064">
  <ele>343.0</ele>
  <time>2026-08-27T18:32:10Z</time>
  <course>0.0</course>
  <speed>0.0</speed>
  <fix>3d</fix>
</trkpt>
<trkpt lat="-27.274439" lon="151.290064">
  <ele>343.0</ele>
  <time>2026-08-27T18:32:10Z</time>
  <course>197.95</course>
  <speed>0.8453401682163222</speed>
  <fix>3d</fix>
</trkpt>
<trkpt lat="-27.274439" lon="151.290064">
  <ele>343.0</ele>
  <time>2026-08-27T18:32:10Z</time>
  <course>0.0</course>
  <speed>0.0</speed>
  <fix>3d</fix>
</trkpt>
<trkpt lat="-27.274439" lon="151.290064">
  <ele>343.0</ele>
  <time>2026-08-27T18:32:10Z</time>
  <course>188.67</course>
  <speed>0.878179936004006</speed>
  <fix>3d</fix>
</trkpt>
<trkpt lat="-27.274439" lon="151.290064">
  <ele>343.0</ele>
  <time>2026-08-27T18:32:10Z</time>
  <course>0.0</course>
  <speed>0.0</speed>
  <fix>3d</fix>
</trkpt>
<trkpt lat="-27.274439" lon="151.290064">
  <ele>343.0</ele>
  <time>2026-08-27T18:32:10Z</time>
  <course>179.31</course>
  <speed>0.8848163651289458</speed>
  <fix>3d</fix>
</trkpt>
<trkpt lat="-27.274439" lon="151.290064">
  <ele>343.0</ele>
  <time>2026-08-27T18:32:10Z</time>
  <course>0.0</course>
  <speed>0.0</speed>
  <fix>3d</fix>
</trkpt>
<trkpt lat="-27.274439" lon="151.290064">
  <ele>343.0</ele>
  <time>2026-08-27T18:32:10Z</time>
  <course>169.93</course>
  <speed>0.9140021881811882</speed>
  <fix>3d</fix>
</trkpt>
<trkpt lat="-27.274439" lon="151.290064">
  <ele>343.0</ele>
  <time>2026-08-27T18:32:10Z</time>
  <course>0.0</course>
  <speed>0.0</speed>
  <fix>3d</fix>
</trkpt>
<trkpt lat="-27.274439" lon="151.290064">
  <ele>343.0</ele>
  <time>2026-08-27T18:32:10Z</time>
  <course>161.9</course>
  <speed>0.9219544457292888</speed>
  <fix>3d</fix>
</trkpt>
<trkpt lat="-27.274439" lon="151.290064">
  <ele>343.0</ele>
  <time>2026-08-27T18:32:10Z</time>
  <course>0.0</course>
  <speed>0.0</speed>
  <fix>3d</fix>
</trkpt>
<trkpt lat="-27.274439" lon="151.290064">
  <ele>343.0</ele>
  <time>2026-08-27T18:32:10Z</time>
  <course>158.55</course>
  <speed>0.9411163583744573</speed>
  <fix>3d</fix>
</trkpt>
<trkpt lat="-27.274439" lon="151.290064">
  <ele>343.0</ele>
  <time>2026-08-27T18:32:10Z</time>
  <course>0.0</course>
  <speed>0.0</speed>
  <fix>3d</fix>
</trkpt>
<trkpt lat="-27.274439" lon="151.290064">
  <ele>343.0</ele>
  <time>2026-08-27T18:32:10Z</time>
  <course>157.2</course>
  <speed>0.9546203433826455</speed>
  <fix>3d</fix>
</trkpt>
<trkpt lat="-27.274439" lon="151.290064">
  <ele>343.0</ele>
  <time>2026-08-27T18:32:10Z</time>
  <course>0.0</course>
  <speed>0.0</speed>
  <fix>3d</fix>
</trkpt>
<trkpt lat="-27.274439" lon="151.290064">
  <ele>343.0</ele>
  <time>2026-08-27T18:32:10Z</time>
  <course>156.57</course>
  <speed>0.9642613753542137</speed>
  <fix>3d</fix>
</trkpt>
<trkpt lat="-27.274439" lon="151.290064">
  <ele>343.0</ele>
  <time>2026-08-27T18:32:10Z</time>
  <course>0.0</course>
  <speed>0.0</speed>
  <fix>3d</fix>
</trkpt>
<trkpt lat="-27.274439" lon="151.290064">
  <ele>343.0</ele>
  <time>2026-08-27T18:32:10Z</time>
  <course>156.21</course>
  <speed>0.9602083107326242</speed>
  <fix>3d</fix>
</trkpt>
<trkpt lat="-27.274439" lon="151.290064">
  <ele>343.0</ele>
  <time>2026-08-27T18:32:10Z</time>
  <course>0.0</course>
  <speed>0.0</speed>
  <fix>3d</fix>
</trkpt>
<trkpt lat="-27.274439" lon="151.290064">
  <ele>343.0</ele>
  <time>2026-08-27T18:32:10Z</time>
  <course>155.95</course>
  <speed>0.9689685237405805</speed>
  <fix>3d</fix>
</trkpt>
<trkpt lat="-27.274439" lon="151.290064">
  <ele>343.0</ele>
  <time>2026-08-27T18:32:10Z</time>
  <course>0.0</course>
  <speed>0.0</speed>
  <fix>3d</fix>
</trkpt>
<trkpt lat="-27.274439" lon="151.290064">
  <ele>343.0</ele>
  <time>2026-08-27T18:32:10Z</time>
  <course>155.71</course>
  <speed>0.9800510190801294</speed>
  <fix>3d</fix>
</trkpt>
<trkpt lat="-27.274439" lon="151.290064">
  <ele>343.0</ele>
  <time>2026-08-27T18:32:10Z</time>
  <course>0.0</course>
  <speed>0.0</speed>
  <fix>3d</fix>
</trkpt>
<trkpt lat="-27.274439" lon="151.290064">
  <ele>343.0</ele>
  <time>2026-08-27T18:32:10Z</time>
  <course>155.49</course>
  <speed>0.9972963451251589</speed>
  <fix>3d</fix>
</trkpt>
<trkpt lat="-27.274439" lon="151.290064">
  <ele>343.0</ele>
  <time>2026-08-27T18:32:10Z</time>
  <course>0.0</course>
  <speed>0.0</speed>
  <fix>3d</fix>
</trkpt>
<trkpt lat="-27.274439" lon="151.290064">
  <ele>343.0</ele>
  <time>2026-08-27T18:32:10Z</time>
  <course>155.27</course>
  <speed>1.0113357503816425</speed>
  <fix>3d</fix>
</trkpt>
<trkpt lat="-27.274439" lon="151.290064">
  <ele>343.0</ele>
  <time>2026-08-27T18:32:10Z</time>
  <course>0.0</course>
  <speed>0.0</speed>
  <fix>3d</fix>
</trkpt>
<trkpt lat="-27.274439" lon="151.290064">
  <ele>343.0</ele>
  <time>2026-08-27T18:32:10Z</time>
  <course>155.07</course>
  <speed>1.010198000393982</speed>
  <fix>3d</fix>
</trkpt>
<trkpt lat="-27.274439" lon="151.290064">
  <ele>343.0</ele>
  <time>2026-08-27T18:32:10Z</time>
  <course>0.0</course>
  <speed>0.0</speed>
  <fix>3d</fix>
</trkpt>
<trkpt lat="-27.274439" lon="151.290064">
  <ele>343.0</ele>
  <time>2026-08-27T18:32:10Z</time>
  <course>154.88</course>
  <speed>0.9962429422585637</speed>
  <fix>3d</fix>
</trkpt>
<trkpt lat="-27.274439" lon="151.290064">
  <ele>343.0</ele>
  <time>2026-08-27T18:32:10Z</time>
  <course>0.0</course>
  <speed>0.0</speed>
  <fix>3d</fix>
</trkpt>
<trkpt lat="-27.274439" lon="151.290064">
  <ele>343.0</ele>
  <time>2026-08-27T18:32:10Z</time>
  <course>154.68</course>
  <speed>0.9751410154434076</speed>
  <fix>3d</fix>
</trkpt>
<trkpt lat="-27.274439" lon="151.290064">
  <ele>343.0</ele>
  <time>2026-08-27T18:32:10Z</time>
  <course>0.0</course>
  <speed>0.0</speed>
  <fix>3d</fix>
</trkpt>
<trkpt lat="-27.274439" lon="151.290064">
  <ele>343.0</ele>
  <time>2026-08-27T18:32:10Z</time>
  <course>154.49</course>
  <speed>0.951892851112981</speed>
  <fix>3d</fix>
</trkpt>
<trkpt lat="-27.274439" lon="151.290064">
  <ele>343.0</ele>
  <time>2026-08-27T18:32:10Z</time>
  <course>0.0</course>
  <speed>0.0</speed>
  <fix>3d</fix>
</trkpt>
<trkpt lat="-27.274439" lon="151.290064">
  <ele>343.0</ele>
  <time>2026-08-27T18:32:10Z</time>
  <course>154.29</course>
  <speed>0.9243916918709297</speed>
  <fix>3d</fix>
</trkpt>
<trkpt lat="-27.274439" lon="151.290064">
  <ele>343.0</ele>
  <time>2026-08-27T18:32:10Z</time>
  <course>0.0</course>
  <speed>0.0</speed>
  <fix>3d</fix>
</trkpt>
<trkpt lat="-27.274439" lon="151.290064">
  <ele>343.0</ele>
  <time>2026-08-27T18:32:10Z</time>
  <course>154.09</course>
  <speed>0.8900561780022652</speed>
  <fix>3d</fix>
</trkpt>
<trkpt lat="-27.274439" lon="151.290064">
  <ele>343.0</ele>
  <time>2026-08-27T18:32:10Z</time>
  <course>0.0</course>
  <speed>0.0</speed>
  <fix>3d</fix>
</trkpt>
<trkpt lat="-27.274439" lon="151.290064">
  <ele>343.0</ele>
  <time>2026-08-27T18:32:10Z</time>
  <course>153.88</course>
  <speed>0.8514693182963201</speed>
  <fix>3d</fix>
</trkpt>
<trkpt lat="-27.274439" lon="151.290064">
  <ele>343.0</ele>
  <time>2026-08-27T18:32:10Z</time>
  <course>0.0</course>
  <speed>0.0</speed>
  <fix>3d</fix>
</trkpt>
<trkpt lat="-27.274439" lon="151.290064">
  <ele>343.0</ele>
  <time>2026-08-27T18:32:10Z</time>
  <course>153.67</course>
  <speed>0.8174350127074322</speed>
  <fix>3d</fix>
</trkpt>
<trkpt lat="-27.274439" lon="151.290064">
  <ele>343.0</ele>
  <time>2026-08-27T18:32:10Z</time>
  <course>0.0</course>
  <speed>0.0</speed>
  <fix>3d</fix>
</trkpt>
<trkpt lat="-27.274439" lon="151.290064">
  <ele>343.0</ele>
  <time>2026-08-27T18:32:10Z</time>
  <course>153.46</course>
  <speed>0.7962411694957753</speed>
  <fix>3d</fix>
</trkpt>
<trkpt lat="-27.274439" lon="151.290064">
  <ele>343.0</ele>
  <time>2026-08-27T18:32:10Z</time>
  <course>0.0</course>
  <speed>0.0</speed>
  <fix>3d</fix>
</trkpt>
<trkpt lat="-27.274439" lon="151.290064">
  <ele>343.0</ele>
  <time>2026-08-27T18:32:11Z</time>
  <course>153.24</course>
  <speed>0.7569015788066504</speed>
  <fix>3d</fix>
</trkpt>
<trkpt lat="-27.274439" lon="151.290064">
  <ele>343.0</ele>
  <time>2026-08-27T18:32:11Z</time>
  <course>0.0</course>
  <speed>0.0</speed>
  <fix>3d</fix>
</trkpt>
<trkpt lat="-27.274439" lon="151.2900646">
  <ele>343.04</ele>
  <time>2026-08-27T18:32:11Z</time>
  <course>153.03</course>
  <speed>0.0</speed>
  <fix>3d</fix>
</trkpt>
<trkpt lat="-27.274439" lon="151.290064">
  <ele>343.0</ele>
  <time>2026-08-27T18:32:11Z</time>
  <course>0.0</course>
  <speed>0.0</speed>
  <fix>3d</fix>
</trkpt>
<trkpt lat="-27.2744392" lon="151.2900653">
  <ele>343.03</ele>
  <time>2026-08-27T18:32:11Z</time>
  <course>152.83</course>
  <speed>0.0848528137423857</speed>
  <fix>3d</fix>
</trkpt>
<trkpt lat="-27.274439" lon="151.290064">
  <ele>343.0</ele>
  <time>2026-08-27T18:32:11Z</time>
  <course>0.0</course>
  <speed>0.0</speed>
  <fix>3d</fix>
</trkpt>
<trkpt lat="-27.2744393" lon="151.2900645">
  <ele>343.02</ele>
  <time>2026-08-27T18:32:11Z</time>
  <course>152.57</course>
  <speed>0.08602325267042626</speed>
  <fix>3d</fix>
</trkpt>
<trkpt lat="-27.274439" lon="151.290064">
  <ele>343.0</ele>
  <time>2026-08-27T18:32:11Z</time>
  <course>0.0</course>
  <speed>0.0</speed>
  <fix>3d</fix>
</trkpt>
<trkpt lat="-27.2744392" lon="151.2900642">
  <ele>343.03</ele>
  <time>2026-08-27T18:32:11Z</time>
  <course>152.29</course>
  <speed>0.05830951894845301</speed>
  <fix>3d</fix>
</trkpt>
<trkpt lat="-27.274439" lon="151.290064">
  <ele>343.0</ele>
  <time>2026-08-27T18:32:11Z</time>
  <course>0.0</course>
  <speed>0.0</speed>
  <fix>3d</fix>
</trkpt>
<trkpt lat="-27.2744391" lon="151.2900641">
  <ele>343.06</ele>
  <time>2026-08-27T18:32:11Z</time>
  <course>152.03</course>
  <speed>0.02</speed>
  <fix>3d</fix>
</trkpt>
<trkpt lat="-27.274439" lon="151.290064">
  <ele>343.0</ele>
  <time>2026-08-27T18:32:11Z</time>
  <course>0.0</course>
  <speed>0.0</speed>
  <fix>3d</fix>
</trkpt>
<trkpt lat="-27.274439" lon="151.290064">
  <ele>343.05</ele>
  <time>2026-08-27T18:32:11Z</time>
  <course>151.79</course>
  <speed>0.01</speed>
  <fix>3d</fix>
</trkpt>
<trkpt lat="-27.274439" lon="151.290064">
  <ele>343.0</ele>
  <time>2026-08-27T18:32:11Z</time>
  <course>0.0</course>
  <speed>0.0</speed>
  <fix>3d</fix>
</trkpt>
<trkpt lat="-27.274439" lon="151.290064">
  <ele>343.04</ele>
  <time>2026-08-27T18:32:11Z</time>
  <course>151.57</course>
  <speed>0.01414213562373095</speed>
  <fix>3d</fix>
</trkpt>
<trkpt lat="-27.274439" lon="151.290064">
  <ele>343.0</ele>
  <time>2026-08-27T18:32:11Z</time>
  <course>0.0</course>
  <speed>0.0</speed>
  <fix>3d</fix>
</trkpt>
<trkpt lat="-27.2744389" lon="151.2900639">
  <ele>343.04</ele>
  <time>2026-08-27T18:32:11Z</time>
  <course>151.37</course>
  <speed>0.01414213562373095</speed>
  <fix>3d</fix>
</trkpt>
<trkpt lat="-27.274439" lon="151.290064">
  <ele>343.0</ele>
  <time>2026-08-27T18:32:11Z</time>
  <course>0.0</course>
  <speed>0.0</speed>
  <fix>3d</fix>
</trkpt>
<trkpt lat="-27.2744389" lon="151.2900638">
  <ele>343.05</ele>
  <time>2026-08-27T18:32:11Z</time>
  <course>151.18</course>
  <speed>0.0282842712474619</speed>
  <fix>3d</fix>
</trkpt>
<trkpt lat="-27.274439" lon="151.290064">
  <ele>343.0</ele>
  <time>2026-08-27T18:32:11Z</time>
  <course>0.0</course>
  <speed>0.0</speed>
  <fix>3d</fix>
</trkpt>
<trkpt lat="-27.2744389" lon="151.2900638">
  <ele>343.06</ele>
  <time>2026-08-27T18:32:11Z</time>
  <course>151.01</course>
  <speed>0.0282842712474619</speed>
  <fix>3d</fix>
</trkpt>
<trkpt lat="-27.274439" lon="151.290064">
  <ele>343.0</ele>
  <time>2026-08-27T18:32:11Z</time>
  <course>0.0</course>
  <speed>0.0</speed>
  <fix>3d</fix>
</trkpt>
<trkpt lat="-27.2744389" lon="151.2900638">
  <ele>343.03</ele>
  <time>2026-08-27T18:32:11Z</time>
  <course>150.84</course>
  <speed>0.0282842712474619</speed>
  <fix>3d</fix>
</trkpt>
<trkpt lat="-27.274439" lon="151.290064">
  <ele>343.0</ele>
  <time>2026-08-27T18:32:11Z</time>
  <course>0.0</course>
  <speed>0.0</speed>
  <fix>3d</fix>
</trkpt>
<trkpt lat="-27.2744389" lon="151.2900638">
  <ele>343.04</ele>
  <time>2026-08-27T18:32:11Z</time>
  <course>150.68</course>
  <speed>0.0282842712474619</speed>
  <fix>3d</fix>
</trkpt>
<trkpt lat="-27.274439" lon="151.290064">
  <ele>343.0</ele>
  <time>2026-08-27T18:32:11Z</time>
  <course>0.0</course>
  <speed>0.0</speed>
  <fix>3d</fix>
</trkpt>
<trkpt lat="-27.2744389" lon="151.2900638">
  <ele>343.03</ele>
  <time>2026-08-27T18:32:11Z</time>
  <course>150.52</course>
  <speed>0.022360679774997897</speed>
  <fix>3d</fix>
</trkpt>
<trkpt lat="-27.274439" lon="151.290064">
  <ele>343.0</ele>
  <time>2026-08-27T18:32:11Z</time>
  <course>0.0</course>
  <speed>0.0</speed>
  <fix>3d</fix>
</trkpt>
<trkpt lat="-27.2744389" lon="151.2900638">
  <ele>343.04</ele>
  <time>2026-08-27T18:32:11Z</time>
  <course>150.38</course>
  <speed>0.022360679774997897</speed>
  <fix>3d</fix>
</trkpt>
<trkpt lat="-27.274439" lon="151.290064">
  <ele>343.0</ele>
  <time>2026-08-27T18:32:11Z</time>
  <course>0.0</course>
  <speed>0.0</speed>
  <fix>3d</fix>
</trkpt>
<trkpt lat="-27.2744389" lon="151.2900638">
  <ele>343.03</ele>
  <time>2026-08-27T18:32:11Z</time>
  <course>150.24</course>
  <speed>0.022360679774997897</speed>
  <fix>3d</fix>
</trkpt>
<trkpt lat="-27.274439" lon="151.290064">
  <ele>343.0</ele>
  <time>2026-08-27T18:32:11Z</time>
  <course>0.0</course>
  <speed>0.0</speed>
  <fix>3d</fix>
</trkpt>
<trkpt lat="-27.2744389" lon="151.2900638">
  <ele>343.02</ele>
  <time>2026-08-27T18:32:11Z</time>
  <course>150.11</course>
  <speed>0.022360679774997897</speed>
  <fix>3d</fix>
</trkpt>
<trkpt lat="-27.274439" lon="151.290064">
  <ele>343.0</ele>
  <time>2026-08-27T18:32:11Z</time>
  <course>0.0</course>
  <speed>0.0</speed>
  <fix>3d</fix>
</trkpt>
<trkpt lat="-27.2744389" lon="151.2900638">
  <ele>343.0</ele>
  <time>2026-08-27T18:32:11Z</time>
  <course>149.98</course>
  <speed>0.022360679774997897</speed>
  <fix>3d</fix>
</trkpt>
<trkpt lat="-27.274439" lon="151.290064">
  <ele>343.0</ele>
  <time>2026-08-27T18:32:11Z</time>
  <course>0.0</course>
  <speed>0.0</speed>
  <fix>3d</fix>
</trkpt>
<trkpt lat="-27.2744389" lon="151.2900638">
  <ele>343.01</ele>
  <time>2026-08-27T18:32:11Z</time>
  <course>149.86</course>
  <speed>0.022360679774997897</speed>
  <fix>3d</fix>
</trkpt>
<trkpt lat="-27.274439" lon="151.290064">
  <ele>343.0</ele>
  <time>2026-08-27T18:32:11Z</time>
  <course>0.0</course>
  <speed>0.0</speed>
  <fix>3d</fix>
</trkpt>
<trkpt lat="-27.2744389" lon="151.2900638">
  <ele>343.04</ele>
  <time>2026-08-27T18:32:11Z</time>
  <course>149.75</course>
  <speed>0.022360679774997897</speed>
  <fix>3d</fix>
</trkpt>
<trkpt lat="-27.274439" lon="151.290064">
  <ele>343.0</ele>
  <time>2026-08-27T18:32:11Z</time>
  <course>0.0</course>
  <speed>0.0</speed>
  <fix>3d</fix>
</trkpt>
<trkpt lat="-27.2744389" lon="151.2900638">
  <ele>343.04</ele>
  <time>2026-08-27T18:32:11Z</time>
  <course>149.64</course>
  <speed>0.022360679774997897</speed>
  <fix>3d</fix>
</trkpt>
<trkpt lat="-27.274439" lon="151.290064">
  <ele>343.0</ele>
  <time>2026-08-27T18:32:11Z</time>
  <course>0.0</course>
  <speed>0.0</speed>
  <fix>3d</fix>
</trkpt>
<trkpt lat="-27.2744389" lon="151.2900638">
  <ele>343.04</ele>
  <time>2026-08-27T18:32:11Z</time>
  <course>149.53</course>
  <speed>0.022360679774997897</speed>
  <fix>3d</fix>
</trkpt>
<trkpt lat="-27.274439" lon="151.290064">
  <ele>343.0</ele>
  <time>2026-08-27T18:32:11Z</time>
  <course>0.0</course>
  <speed>0.0</speed>
  <fix>3d</fix>
</trkpt>
<trkpt lat="-27.2744389" lon="151.2900638">
  <ele>343.04</ele>
  <time>2026-08-27T18:32:11Z</time>
  <course>149.44</course>
  <speed>0.022360679774997897</speed>
  <fix>3d</fix>
</trkpt>
<trkpt lat="-27.274439" lon="151.290064">
  <ele>343.0</ele>
  <time>2026-08-27T18:32:11Z</time>
  <course>0.0</course>
  <speed>0.0</speed>
  <fix>3d</fix>
</trkpt>
<trkpt lat="-27.2744389" lon="151.2900638">
  <ele>343.03</ele>
  <time>2026-08-27T18:32:11Z</time>
  <course>149.34</course>
  <speed>0.022360679774997897</speed>
  <fix>3d</fix>
</trkpt>
<trkpt lat="-27.274439" lon="151.290064">
  <ele>343.0</ele>
  <time>2026-08-27T18:32:11Z</time>
  <course>0.0</course>
  <speed>0.0</speed>
  <fix>3d</fix>
</trkpt>
<trkpt lat="-27.2744389" lon="151.2900638">
  <ele>343.02</ele>
  <time>2026-08-27T18:32:11Z</time>
  <course>149.25</course>
  <speed>0.022360679774997897</speed>
  <fix>3d</fix>
</trkpt>
<trkpt lat="-27.274439" lon="151.290064">
  <ele>343.0</ele>
  <time>2026-08-27T18:32:11Z</time>
  <course>0.0</course>
  <speed>0.0</speed>
  <fix>3d</fix>
</trkpt>
<trkpt lat="-27.2744389" lon="151.2900638">
  <ele>343.05</ele>
  <time>2026-08-27T18:32:11Z</time>
  <course>149.17</course>
  <speed>0.022360679774997897</speed>
  <fix>3d</fix>
</trkpt>
<trkpt lat="-27.274439" lon="151.290064">
  <ele>343.0</ele>
  <time>2026-08-27T18:32:11Z</time>
  <course>0.0</course>
  <speed>0.0</speed>
  <fix>3d</fix>
</trkpt>
<trkpt lat="-27.2744389" lon="151.2900638">
  <ele>343.04</ele>
  <time>2026-08-27T18:32:11Z</time>
  <course>149.09</course>
  <speed>0.02</speed>
  <fix>3d</fix>
</trkpt>
<trkpt lat="-27.274439" lon="151.290064">
  <ele>343.0</ele>
  <time>2026-08-27T18:32:11Z</time>
  <course>0.0</course>
  <speed>0.0</speed>
  <fix>3d</fix>
</trkpt>
<trkpt lat="-27.2744389" lon="151.2900638">
  <ele>343.05</ele>
  <time>2026-08-27T18:32:11Z</time>
  <course>149.01</course>
  <speed>0.022360679774997897</speed>
  <fix>3d</fix>
</trkpt>
<trkpt lat="-27.274439" lon="151.290064">
  <ele>343.0</ele>
  <time>2026-08-27T18:32:11Z</time>
  <course>0.0</course>
  <speed>0.0</speed>
  <fix>3d</fix>
</trkpt>
<trkpt lat="-27.2744389" lon="151.2900638">
  <ele>343.03</ele>
  <time>2026-08-27T18:32:11Z</time>
  <course>148.94</course>
  <speed>0.02</speed>
  <fix>3d</fix>
</trkpt>
<trkpt lat="-27.274439" lon="151.290064">
  <ele>343.0</ele>
  <time>2026-08-27T18:32:11Z</time>
  <course>0.0</course>
  <speed>0.0</speed>
  <fix>3d</fix>
</trkpt>
<trkpt lat="-27.2744389" lon="151.2900638">
  <ele>343.02</ele>
  <time>2026-08-27T18:32:11Z</time>
  <course>148.87</course>
  <speed>0.022360679774997897</speed>
  <fix>3d</fix>
</trkpt>
<trkpt lat="-27.274439" lon="151.290064">
  <ele>343.0</ele>
  <time>2026-08-27T18:32:11Z</time>
  <course>0.0</course>
  <speed>0.0</speed>
  <fix>3d</fix>
</trkpt>
<trkpt lat="-27.2744389" lon="151.2900638">
  <ele>343.02</ele>
  <time>2026-08-27T18:32:11Z</time>
  <course>148.8</course>
  <speed>0.02</speed>
  <fix>3d</fix>
</trkpt>
<trkpt lat="-27.274439" lon="151.290064">
  <ele>343.0</ele>
  <time>2026-08-27T18:32:11Z</time>
  <course>0.0</course>
  <speed>0.0</speed>
  <fix>3d</fix>
</trkpt>
<trkpt lat="-27.2744389" lon="151.2900638">
  <ele>343.02</ele>
  <time>2026-08-27T18:32:11Z</time>
  <course>148.74</course>
  <speed>0.02</speed>
  <fix>3d</fix>
</trkpt>
<trkpt lat="-27.274439" lon="151.290064">
  <ele>343.0</ele>
  <time>2026-08-27T18:32:11Z</time>
  <course>0.0</course>
  <speed>0.0</speed>
  <fix>3d</fix>
</trkpt>
<trkpt lat="-27.2744389" lon="151.2900638">
  <ele>343.0</ele>
  <time>2026-08-27T18:32:11Z</time>
  <course>148.67</course>
  <speed>0.02</speed>
  <fix>3d</fix>
</trkpt>
<trkpt lat="-27.274439" lon="151.290064">
  <ele>343.0</ele>
  <time>2026-08-27T18:32:11Z</time>
  <course>0.0</course>
  <speed>0.0</speed>
  <fix>3d</fix>
</trkpt>
<trkpt lat="-27.2744389" lon="151.2900638">
  <ele>343.0</ele>
  <time>2026-08-27T18:32:11Z</time>
  <course>148.62</course>
  <speed>0.02</speed>
  <fix>3d</fix>
</trkpt>
<trkpt lat="-27.274439" lon="151.290064">
  <ele>343.0</ele>
  <time>2026-08-27T18:32:11Z</time>
  <course>0.0</course>
  <speed>0.0</speed>
  <fix>3d</fix>
</trkpt>
<trkpt lat="-27.2744389" lon="151.2900638">
  <ele>343.01</ele>
  <time>2026-08-27T18:32:11Z</time>
  <course>148.56</course>
  <speed>0.02</speed>
  <fix>3d</fix>
</trkpt>
<trkpt lat="-27.274439" lon="151.290064">
  <ele>343.0</ele>
  <time>2026-08-27T18:32:11Z</time>
  <course>0.0</course>
  <speed>0.0</speed>
  <fix>3d</fix>
</trkpt>
<trkpt lat="-27.2744389" lon="151.2900638">
  <ele>342.99</ele>
  <time>2026-08-27T18:32:11Z</time>
  <course>148.51</course>
  <speed>0.02</speed>
  <fix>3d</fix>
</trkpt>
<trkpt lat="-27.274439" lon="151.290064">
  <ele>343.0</ele>
  <time>2026-08-27T18:32:11Z</time>
  <course>0.0</course>
  <speed>0.0</speed>
  <fix>3d</fix>
</trkpt>
<trkpt lat="-27.2744389" lon="151.2900638">
  <ele>342.99</ele>
  <time>2026-08-27T18:32:11Z</time>
  <course>148.46</course>
  <speed>0.02</speed>
  <fix>3d</fix>
</trkpt>
<trkpt lat="-27.274439" lon="151.290064">
  <ele>343.0</ele>
  <time>2026-08-27T18:32:11Z</time>
  <course>0.0</course>
  <speed>0.0</speed>
  <fix>3d</fix>
</trkpt>
<trkpt lat="-27.2744389" lon="151.2900638">
  <ele>342.99</ele>
  <time>2026-08-27T18:32:11Z</time>
  <course>148.41</course>
  <speed>0.02</speed>
  <fix>3d</fix>
</trkpt>
<trkpt lat="-27.274439" lon="151.290064">
  <ele>343.0</ele>
  <time>2026-08-27T18:32:11Z</time>
  <course>0.0</course>
  <speed>0.0</speed>
  <fix>3d</fix>
</trkpt>
<trkpt lat="-27.2744389" lon="151.2900638">
  <ele>343.01</ele>
  <time>2026-08-27T18:32:11Z</time>
  <course>148.36</course>
  <speed>0.02</speed>
  <fix>3d</fix>
</trkpt>
<trkpt lat="-27.274439" lon="151.290064">
  <ele>343.0</ele>
  <time>2026-08-27T18:32:11Z</time>
  <course>0.0</course>
  <speed>0.0</speed>
  <fix>3d</fix>
</trkpt>
<trkpt lat="-27.2744389" lon="151.2900638">
  <ele>343.01</ele>
  <time>2026-08-27T18:32:11Z</time>
  <course>148.32</course>
  <speed>0.02</speed>
  <fix>3d</fix>
</trkpt>
<trkpt lat="-27.274439" lon="151.290064">
  <ele>343.0</ele>
  <time>2026-08-27T18:32:11Z</time>
  <course>0.0</course>
  <speed>0.0</speed>
  <fix>3d</fix>
</trkpt>
<trkpt lat="-27.2744389" lon="151.2900638">
  <ele>343.02</ele>
  <time>2026-08-27T18:32:11Z</time>
  <course>148.27</course>
  <speed>0.02</speed>
  <fix>3d</fix>
</trkpt>
<trkpt lat="-27.274439" lon="151.290064">
  <ele>343.0</ele>
  <time>2026-08-27T18:32:11Z</time>
  <course>0.0</course>
  <speed>0.0</speed>
  <fix>3d</fix>
</trkpt>
<trkpt lat="-27.2744389" lon="151.2900638">
  <ele>343.01</ele>
  <time>2026-08-27T18:32:11Z</time>
  <course>148.23</course>
  <speed>0.02</speed>
  <fix>3d</fix>
</trkpt>
<trkpt lat="-27.274439" lon="151.290064">
  <ele>343.0</ele>
  <time>2026-08-27T18:32:11Z</time>
  <course>0.0</course>
  <speed>0.0</speed>
  <fix>3d</fix>
</trkpt>
<trkpt lat="-27.2744389" lon="151.2900638">
  <ele>343.02</ele>
  <time>2026-08-27T18:32:11Z</time>
  <course>148.19</course>
  <speed>0.02</speed>
  <fix>3d</fix>
</trkpt>
<trkpt lat="-27.274439" lon="151.290064">
  <ele>343.0</ele>
  <time>2026-08-27T18:32:11Z</time>
  <course>0.0</course>
  <speed>0.0</speed>
  <fix>3d</fix>
</trkpt>
<trkpt lat="-27.2744389" lon="151.2900638">
  <ele>343.05</ele>
  <time>2026-08-27T18:32:11Z</time>
  <course>148.15</course>
  <speed>0.02</speed>
  <fix>3d</fix>
</trkpt>
<trkpt lat="-27.274439" lon="151.290064">
  <ele>343.0</ele>
  <time>2026-08-27T18:32:11Z</time>
  <course>0.0</course>
  <speed>0.0</speed>
  <fix>3d</fix>
</trkpt>
<trkpt lat="-27.2744389" lon="151.2900638">
  <ele>343.01</ele>
  <time>2026-08-27T18:32:11Z</time>
  <course>139.88</course>
  <speed>0.02</speed>
  <fix>3d</fix>
</trkpt>
<trkpt lat="-27.274439" lon="151.290064">
  <ele>343.0</ele>
  <time>2026-08-27T18:32:11Z</time>
  <course>0.0</course>
  <speed>0.0</speed>
  <fix>3d</fix>
</trkpt>
<trkpt lat="-27.2744389" lon="151.2900638">
  <ele>343.08</ele>
  <time>2026-08-27T18:32:11Z</time>
  <course>130.73</course>
  <speed>0.01</speed>
  <fix>3d</fix>
</trkpt>
<trkpt lat="-27.274439" lon="151.290064">
  <ele>343.0</ele>
  <time>2026-08-27T18:32:11Z</time>
  <course>0.0</course>
  <speed>0.0</speed>
  <fix>3d</fix>
</trkpt>
<trkpt lat="-27.274439" lon="151.2900638">
  <ele>343.12</ele>
  <time>2026-08-27T18:32:11Z</time>
  <course>121.62</course>
  <speed>0.01</speed>
  <fix>3d</fix>
</trkpt>
<trkpt lat="-27.274439" lon="151.290064">
  <ele>343.0</ele>
  <time>2026-08-27T18:32:11Z</time>
  <course>0.0</course>
  <speed>0.0</speed>
  <fix>3d</fix>
</trkpt>
<trkpt lat="-27.274439" lon="151.2900638">
  <ele>343.15</ele>
  <time>2026-08-27T18:32:11Z</time>
  <course>112.53</course>
  <speed>0.01414213562373095</speed>
  <fix>3d</fix>
</trkpt>
<trkpt lat="-27.274439" lon="151.290064">
  <ele>343.0</ele>
  <time>2026-08-27T18:32:11Z</time>
  <course>0.0</course>
  <speed>0.0</speed>
  <fix>3d</fix>
</trkpt>
<trkpt lat="-27.2744391" lon="151.2900638">
  <ele>343.18</ele>
  <time>2026-08-27T18:32:11Z</time>
  <course>103.47</course>
  <speed>0.0282842712474619</speed>
  <fix>3d</fix>
</trkpt>
<trkpt lat="-27.274439" lon="151.290064">
  <ele>343.0</ele>
  <time>2026-08-27T18:32:11Z</time>
  <course>0.0</course>
  <speed>0.0</speed>
  <fix>3d</fix>
</trkpt>
<trkpt lat="-27.2744391" lon="151.2900638">
  <ele>343.19</ele>
  <time>2026-08-27T18:32:11Z</time>
  <course>94.41</course>
  <speed>0.04242640687119285</speed>
  <fix>3d</fix>
</trkpt>
<trkpt lat="-27.274439" lon="151.290064">
  <ele>343.0</ele>
  <time>2026-08-27T18:32:11Z</time>
  <course>0.0</course>
  <speed>0.0</speed>
  <fix>3d</fix>
</trkpt>
<trkpt lat="-27.2744392" lon="151.2900637">
  <ele>343.22</ele>
  <time>2026-08-27T18:32:11Z</time>
  <course>85.39</course>
  <speed>0.05</speed>
  <fix>3d</fix>
</trkpt>
<trkpt lat="-27.274439" lon="151.290064">
  <ele>343.0</ele>
  <time>2026-08-27T18:32:11Z</time>
  <course>0.0</course>
  <speed>0.0</speed>
  <fix>3d</fix>
</trkpt>
<trkpt lat="-27.274439" lon="151.290064">
  <ele>343.0</ele>
  <time>2026-08-27T18:32:11Z</time>
  <course>325.88</course>
  <speed>0.0</speed>
  <fix>3d</fix>
</trkpt>
<trkpt lat="-27.274439" lon="151.290064">
  <ele>343.0</ele>
  <time>2026-08-27T18:32:11Z</time>
  <course>324.43</course>
  <speed>0.0</speed>
  <fix>3d</fix>
</trkpt>
<trkpt lat="-27.274439" lon="151.290064">
  <ele>343.0</ele>
  <time>2026-08-27T18:32:11Z</time>
  <course>321.86</course>
  <speed>0.0</speed>
  <fix>3d</fix>
</trkpt>
<trkpt lat="-27.274439" lon="151.290064">
  <ele>343.0</ele>
  <time>2026-08-27T18:32:11Z</time>
  <course>295.0</course>
  <speed>0.0</speed>
  <fix>3d</fix>
</trkpt>
<trkpt lat="-27.274439" lon="151.290064">
  <ele>343.0</ele>
  <time>2026-08-27T18:32:11Z</time>
  <course>290.72</course>
  <speed>0.0</speed>
  <fix>3d</fix>
</trkpt>
<trkpt lat="-27.274439" lon="151.290064">
  <ele>343.0</ele>
  <time>2026-08-27T18:32:11Z</time>
  <course>284.84</course>
  <speed>0.0</speed>
  <fix>3d</fix>
</trkpt>
<trkpt lat="-27.274439" lon="151.290064">
  <ele>343.0</ele>
  <time>2026-08-27T18:32:11Z</time>
  <course>277.79</course>
  <speed>0.0</speed>
  <fix>3d</fix>
</trkpt>
<trkpt lat="-27.274439" lon="151.290064">
  <ele>343.0</ele>
  <time>2026-08-27T18:32:11Z</time>
  <course>269.55</course>
  <speed>0.0</speed>
  <fix>3d</fix>
</trkpt>
<trkpt lat="-27.274439" lon="151.290064">
  <ele>343.0</ele>
  <time>2026-08-27T18:32:11Z</time>
  <course>262.69</course>
  <speed>0.1708800749063506</speed>
  <fix>3d</fix>
</trkpt>
<trkpt lat="-27.274439" lon="151.290064">
  <ele>343.0</ele>
  <time>2026-08-27T18:32:11Z</time>
  <course>0.0</course>
  <speed>0.0</speed>
  <fix>3d</fix>
</trkpt>
<trkpt lat="-27.274439" lon="151.290064">
  <ele>343.0</ele>
  <time>2026-08-27T18:32:11Z</time>
  <course>257.7</course>
  <speed>0.10295630140987001</speed>
  <fix>3d</fix>
</trkpt>
<trkpt lat="-27.274439" lon="151.290064">
  <ele>343.0</ele>
  <time>2026-08-27T18:32:11Z</time>
  <course>0.0</course>
  <speed>0.0</speed>
  <fix>3d</fix>
</trkpt>
<trkpt lat="-27.274439" lon="151.290064">
  <ele>343.0</ele>
  <time>2026-08-27T18:32:11Z</time>
  <course>250.87</course>
  <speed>0.0824621125123532</speed>
  <fix>3d</fix>
</trkpt>
<trkpt lat="-27.274439" lon="151.290064">
  <ele>343.0</ele>
  <time>2026-08-27T18:32:11Z</time>
  <course>0.0</course>
  <speed>0.0</speed>
  <fix>3d</fix>
</trkpt>
<trkpt lat="-27.274439" lon="151.290064">
  <ele>343.0</ele>
  <time>2026-08-27T18:32:11Z</time>
  <course>242.84</course>
  <speed>0.05</speed>
  <fix>3d</fix>
</trkpt>
<trkpt lat="-27.274439" lon="151.290064">
  <ele>343.0</ele>
  <time>2026-08-27T18:32:11Z</time>
  <course>0.0</course>
  <speed>0.0</speed>
  <fix>3d</fix>
</trkpt>
<trkpt lat="-27.274439" lon="151.290064">
  <ele>343.0</ele>
  <time>2026-08-27T18:32:12Z</time>
  <course>325.88</course>
  <speed>0.0</speed>
  <fix>3d</fix>
</trkpt>
<trkpt lat="-27.274439" lon="151.290064">
  <ele>343.0</ele>
  <time>2026-08-27T18:32:12Z</time>
  <course>324.43</course>
  <speed>0.0</speed>
  <fix>3d</fix>
</trkpt>
<trkpt lat="-27.274439" lon="151.290064">
  <ele>343.0</ele>
  <time>2026-08-27T18:32:12Z</time>
  <course>321.86</course>
  <speed>0.0</speed>
  <fix>3d</fix>
</trkpt>
<trkpt lat="-27.274439" lon="151.290064">
  <ele>343.0</ele>
  <time>2026-08-27T18:32:12Z</time>
  <course>295.0</course>
  <speed>0.0</speed>
  <fix>3d</fix>
</trkpt>
<trkpt lat="-27.274439" lon="151.290064">
  <ele>343.0</ele>
  <time>2026-08-27T18:32:12Z</time>
  <course>290.72</course>
  <speed>0.0</speed>
  <fix>3d</fix>
</trkpt>
<trkpt lat="-27.274439" lon="151.290064">
  <ele>343.0</ele>
  <time>2026-08-27T18:32:12Z</time>
  <course>284.84</course>
  <speed>0.0</speed>
  <fix>3d</fix>
</trkpt>
<trkpt lat="-27.274439" lon="151.290064">
  <ele>343.0</ele>
  <time>2026-08-27T18:32:12Z</time>
  <course>277.79</course>
  <speed>0.0</speed>
  <fix>3d</fix>
</trkpt>
<trkpt lat="-27.274439" lon="151.290064">
  <ele>343.0</ele>
  <time>2026-08-27T18:32:12Z</time>
  <course>269.55</course>
  <speed>0.0</speed>
  <fix>3d</fix>
</trkpt>
<trkpt lat="-27.274439" lon="151.290064">
  <ele>343.0</ele>
  <time>2026-08-27T18:32:12Z</time>
  <course>256.4</course>
  <speed>0.9403190947758107</speed>
  <fix>3d</fix>
</trkpt>
<trkpt lat="-27.274439" lon="151.290064">
  <ele>343.0</ele>
  <time>2026-08-27T18:32:12Z</time>
  <course>0.0</course>
  <speed>0.0</speed>
  <fix>3d</fix>
</trkpt>
<trkpt lat="-27.274439" lon="151.290064">
  <ele>343.0</ele>
  <time>2026-08-27T18:32:12Z</time>
  <course>249.45</course>
  <speed>0.756042326857432</speed>
  <fix>3d</fix>
</trkpt>
<trkpt lat="-27.274439" lon="151.290064">
  <ele>343.0</ele>
  <time>2026-08-27T18:32:12Z</time>
  <course>0.0</course>
  <speed>0.0</speed>
  <fix>3d</fix>
</trkpt>
<trkpt lat="-27.274439" lon="151.290064">
  <ele>343.0</ele>
  <time>2026-08-27T18:32:12Z</time>
  <course>241.79</course>
  <speed>0.6596969000988256</speed>
  <fix>3d</fix>
</trkpt>
<trkpt lat="-27.274439" lon="151.290064">
  <ele>343.0</ele>
  <time>2026-08-27T18:32:12Z</time>
  <course>0.0</course>
  <speed>0.0</speed>
  <fix>3d</fix>
</trkpt>
<trkpt lat="-27.274439" lon="151.290064">
  <ele>343.0</ele>
  <time>2026-08-27T18:32:12Z</time>
  <course>233.59</course>
  <speed>0.6618912297349165</speed>
  <fix>3d</fix>
</trkpt>
<trkpt lat="-27.274439" lon="151.290064">
  <ele>343.0</ele>
  <time>2026-08-27T18:32:12Z</time>
  <course>0.0</course>
  <speed>0.0</speed>
  <fix>3d</fix>
</trkpt>
<trkpt lat="-27.274439" lon="151.290064">
  <ele>343.0</ele>
  <time>2026-08-27T18:32:12Z</time>
  <course>225.02</course>
  <speed>0.7034202158027589</speed>
  <fix>3d</fix>
</trkpt>
<trkpt lat="-27.274439" lon="151.290064">
  <ele>343.0</ele>
  <time>2026-08-27T18:32:12Z</time>
  <course>0.0</course>
  <speed>0.0</speed>
  <fix>3d</fix>
</trkpt>
<trkpt lat="-27.274439" lon="151.290064">
  <ele>343.0</ele>
  <time>2026-08-27T18:32:12Z</time>
  <course>216.17</course>
  <speed>0.7539230729988305</speed>
  <fix>3d</fix>
</trkpt>
<trkpt lat="-27.274439" lon="151.290064">
  <ele>343.0</ele>
  <time>2026-08-27T18:32:12Z</time>
  <course>0.0</course>
  <speed>0.0</speed>
  <fix>3d</fix>
</trkpt>
<trkpt lat="-27.274439" lon="151.290064">
  <ele>343.0</ele>
  <time>2026-08-27T18:32:12Z</time>
  <course>207.13</course>
  <speed>0.8052949770115296</speed>
  <fix>3d</fix>
</trkpt>
<trkpt lat="-27.274439" lon="151.290064">
  <ele>343.0</ele>
  <time>2026-08-27T18:32:12Z</time>
  <course>0.0</course>
  <speed>0.0</speed>
  <fix>3d</fix>
</trkpt>
<trkpt lat="-27.274439" lon="151.290064">
  <ele>343.0</ele>
  <time>2026-08-27T18:32:12Z</time>
  <course>197.95</course>
  <speed>0.8453401682163222</speed>
  <fix>3d</fix>
</trkpt>
<trkpt lat="-27.274439" lon="151.290064">
  <ele>343.0</ele>
  <time>2026-08-27T18:32:12Z</time>
  <course>0.0</course>
  <speed>0.0</speed>
  <fix>3d</fix>
</trkpt>
<trkpt lat="-27.274439" lon="151.290064">
  <ele>343.0</ele>
  <time>2026-08-27T18:32:12Z</time>
  <course>188.67</course>
  <speed>0.878179936004006</speed>
  <fix>3d</fix>
</trkpt>
<trkpt lat="-27.274439" lon="151.290064">
  <ele>343.0</ele>
  <time>2026-08-27T18:32:12Z</time>
  <course>0.0</course>
  <speed>0.0</speed>
  <fix>3d</fix>
</trkpt>
<trkpt lat="-27.274439" lon="151.290064">
  <ele>343.0</ele>
  <time>2026-08-27T18:32:12Z</time>
  <course>179.31</course>
  <speed>0.8848163651289458</speed>
  <fix>3d</fix>
</trkpt>
<trkpt lat="-27.274439" lon="151.290064">
  <ele>343.0</ele>
  <time>2026-08-27T18:32:12Z</time>
  <course>0.0</course>
  <speed>0.0</speed>
  <fix>3d</fix>
</trkpt>
<trkpt lat="-27.274439" lon="151.290064">
  <ele>343.0</ele>
  <time>2026-08-27T18:32:12Z</time>
  <course>169.93</course>
  <speed>0.9140021881811882</speed>
  <fix>3d</fix>
</trkpt>
<trkpt lat="-27.274439" lon="151.290064">
  <ele>343.0</ele>
  <time>2026-08-27T18:32:12Z</time>
  <course>0.0</course>
  <speed>0.0</speed>
  <fix>3d</fix>
</trkpt>
<trkpt lat="-27.274439" lon="151.290064">
  <ele>343.0</ele>
  <time>2026-08-27T18:32:12Z</time>
  <course>161.9</course>
  <speed>0.9219544457292888</speed>
  <fix>3d</fix>
</trkpt>
<trkpt lat="-27.274439" lon="151.290064">
  <ele>343.0</ele>
  <time>2026-08-27T18:32:12Z</time>
  <course>0.0</course>
  <speed>0.0</speed>
  <fix>3d</fix>
</trkpt>
<trkpt lat="-27.274439" lon="151.290064">
  <ele>343.0</ele>
  <time>2026-08-27T18:32:12Z</time>
  <course>158.55</course>
  <speed>0.9411163583744573</speed>
  <fix>3d</fix>
</trkpt>
<trkpt lat="-27.274439" lon="151.290064">
  <ele>343.0</ele>
  <time>2026-08-27T18:32:12Z</time>
  <course>0.0</course>
  <speed>0.0</speed>
  <fix>3d</fix>
</trkpt>
<trkpt lat="-27.274439" lon="151.290064">
  <ele>343.0</ele>
  <time>2026-08-27T18:32:12Z</time>
  <course>150.19</course>
  <speed>0.5091168824543142</speed>
  <fix>3d</fix>
</trkpt>
<trkpt lat="-27.274439" lon="151.290064">
  <ele>343.0</ele>
  <time>2026-08-27T18:32:12Z</time>
  <course>0.0</course>
  <speed>0.0</speed>
  <fix>3d</fix>
</trkpt>
<trkpt lat="-27.274439" lon="151.290064">
  <ele>343.0</ele>
  <time>2026-08-27T18:32:12Z</time>
  <course>140.63</course>
  <speed>0.2</speed>
  <fix>3d</fix>
</trkpt>
<trkpt lat="-27.274439" lon="151.290064">
  <ele>343.0</ele>
  <time>2026-08-27T18:32:12Z</time>
  <course>0.0</course>
  <speed>0.0</speed>
  <fix>3d</fix>
</trkpt>
<trkpt lat="-27.274439" lon="151.290064">
  <ele>343.0</ele>
  <time>2026-08-27T18:32:12Z</time>
  <course>131.15</course>
  <speed>0.10770329614269007</speed>
  <fix>3d</fix>
</trkpt>
<trkpt lat="-27.274439" lon="151.290064">
  <ele>343.0</ele>
  <time>2026-08-27T18:32:12Z</time>
  <course>0.0</course>
  <speed>0.0</speed>
  <fix>3d</fix>
</trkpt>
<trkpt lat="-27.274439" lon="151.290064">
  <ele>343.0</ele>
  <time>2026-08-27T18:32:12Z</time>
  <course>121.69</course>
  <speed>0.1044030650891055</speed>
  <fix>3d</fix>
</trkpt>
<trkpt lat="-27.274439" lon="151.290064">
  <ele>343.0</ele>
  <time>2026-08-27T18:32:12Z</time>
  <course>0.0</course>
  <speed>0.0</speed>
  <fix>3d</fix>
</trkpt>
<trkpt lat="-27.274439" lon="151.290064">
  <ele>343.0</ele>
  <time>2026-08-27T18:32:12Z</time>
  <course>112.27</course>
  <speed>0.11401754250991379</speed>
  <fix>3d</fix>
</trkpt>
<trkpt lat="-27.274439" lon="151.290064">
  <ele>343.0</ele>
  <time>2026-08-27T18:32:12Z</time>
  <course>0.0</course>
  <speed>0.0</speed>
  <fix>3d</fix>
</trkpt>
<trkpt lat="-27.274439" lon="151.290064">
  <ele>343.0</ele>
  <time>2026-08-27T18:32:12Z</time>
  <course>102.85</course>
  <speed>0.1044030650891055</speed>
  <fix>3d</fix>
</trkpt>
<trkpt lat="-27.274439" lon="151.290064">
  <ele>343.0</ele>
  <time>2026-08-27T18:32:12Z</time>
  <course>0.0</course>
  <speed>0.0</speed>
  <fix>3d</fix>
</trkpt>
<trkpt lat="-27.274439" lon="151.290064">
  <ele>343.0</ele>
  <time>2026-08-27T18:32:12Z</time>
  <course>93.46</course>
  <speed>0.10770329614269007</speed>
  <fix>3d</fix>
</trkpt>
<trkpt lat="-27.274439" lon="151.290064">
  <ele>343.0</ele>
  <time>2026-08-27T18:32:12Z</time>
  <course>0.0</course>
  <speed>0.0</speed>
  <fix>3d</fix>
</trkpt>
<trkpt lat="-27.274439" lon="151.290064">
  <ele>343.0</ele>
  <time>2026-08-27T18:32:13Z</time>
  <course>325.88</course>
  <speed>0.0</speed>
  <fix>3d</fix>
</trkpt>
<trkpt lat="-27.274439" lon="151.290064">
  <ele>343.0</ele>
  <time>2026-08-27T18:32:13Z</time>
  <course>324.43</course>
  <speed>0.0</speed>
  <fix>3d</fix>
</trkpt>
<trkpt lat="-27.274439" lon="151.290064">
  <ele>343.0</ele>
  <time>2026-08-27T18:32:13Z</time>
  <course>321.86</course>
  <speed>0.0</speed>
  <fix>3d</fix>
</trkpt>
<trkpt lat="-27.274439" lon="151.290064">
  <ele>343.0</ele>
  <time>2026-08-27T18:32:13Z</time>
  <course>295.0</course>
  <speed>0.0</speed>
  <fix>3d</fix>
</trkpt>
<trkpt lat="-27.274439" lon="151.290064">
  <ele>343.0</ele>
  <time>2026-08-27T18:32:13Z</time>
  <course>290.72</course>
  <speed>0.0</speed>
  <fix>3d</fix>
</trkpt>
<trkpt lat="-27.274439" lon="151.290064">
  <ele>343.0</ele>
  <time>2026-08-27T18:32:13Z</time>
  <course>284.84</course>
  <speed>0.0</speed>
  <fix>3d</fix>
</trkpt>
<trkpt lat="-27.274439" lon="151.290064">
  <ele>343.0</ele>
  <time>2026-08-27T18:32:13Z</time>
  <course>277.79</course>
  <speed>0.0</speed>
  <fix>3d</fix>
</trkpt>
<trkpt lat="-27.274439" lon="151.290064">
  <ele>343.0</ele>
  <time>2026-08-27T18:32:13Z</time>
  <course>269.55</course>
  <speed>0.0</speed>
  <fix>3d</fix>
</trkpt>
<trkpt lat="-27.274439" lon="151.290064">
  <ele>343.0</ele>
  <time>2026-08-27T18:32:13Z</time>
  <course>262.16</course>
  <speed>0.9176055797563569</speed>
  <fix>3d</fix>
</trkpt>
<trkpt lat="-27.274439" lon="151.290064">
  <ele>343.0</ele>
  <time>2026-08-27T18:32:13Z</time>
  <course>0.0</course>
  <speed>0.0</speed>
  <fix>3d</fix>
</trkpt>
<trkpt lat="-27.274439" lon="151.290064">
  <ele>343.0</ele>
  <time>2026-08-27T18:32:13Z</time>
  <course>256.4</course>
  <speed>0.9403190947758107</speed>
  <fix>3d</fix>
</trkpt>
<trkpt lat="-27.274439" lon="151.290064">
  <ele>343.0</ele>
  <time>2026-08-27T18:32:13Z</time>
  <course>0.0</course>
  <speed>0.0</speed>
  <fix>3d</fix>
</trkpt>
<trkpt lat="-27.274439" lon="151.290064">
  <ele>343.0</ele>
  <time>2026-08-27T18:32:13Z</time>
  <course>249.45</course>
  <speed>0.756042326857432</speed>
  <fix>3d</fix>
</trkpt>
<trkpt lat="-27.274439" lon="151.290064">
  <ele>343.0</ele>
  <time>2026-08-27T18:32:13Z</time>
  <course>0.0</course>
  <speed>0.0</speed>
  <fix>3d</fix>
</trkpt>
<trkpt lat="-27.274439" lon="151.290064">
  <ele>343.0</ele>
  <time>2026-08-27T18:32:13Z</time>
  <course>241.79</course>
  <speed>0.6596969000988256</speed>
  <fix>3d</fix>
</trkpt>
<trkpt lat="-27.274439" lon="151.290064">
  <ele>343.0</ele>
  <time>2026-08-27T18:32:13Z</time>
  <course>0.0</course>
  <speed>0.0</speed>
  <fix>3d</fix>
</trkpt>
<trkpt lat="-27.274439" lon="151.290064">
  <ele>343.0</ele>
  <time>2026-08-27T18:32:13Z</time>
  <course>233.51</course>
  <speed>0.32249030993194194</speed>
  <fix>3d</fix>
</trkpt>
<trkpt lat="-27.274439" lon="151.290064">
  <ele>343.0</ele>
  <time>2026-08-27T18:32:13Z</time>
  <course>0.0</course>
  <speed>0.0</speed>
  <fix>3d</fix>
</trkpt>
<trkpt lat="-27.274439" lon="151.290064">
  <ele>343.0</ele>
  <time>2026-08-27T18:32:13Z</time>
  <course>224.68</course>
  <speed>0.1131370849898476</speed>
  <fix>3d</fix>
</trkpt>
<trkpt lat="-27.274439" lon="151.290064">
  <ele>343.0</ele>
  <time>2026-08-27T18:32:13Z</time>
  <course>0.0</course>
  <speed>0.0</speed>
  <fix>3d</fix>
</trkpt>
<trkpt lat="-27.274439" lon="151.290064">
  <ele>343.0</ele>
  <time>2026-08-27T18:32:13Z</time>
  <course>215.56</course>
  <speed>0.08062257748298549</speed>
  <fix>3d</fix>
</trkpt>
<trkpt lat="-27.274439" lon="151.290064">
  <ele>343.0</ele>
  <time>2026-08-27T18:32:13Z</time>
  <course>0.0</course>
  <speed>0.0</speed>
  <fix>3d</fix>
</trkpt>
<trkpt lat="-27.274439" lon="151.290064">
  <ele>343.0</ele>
  <time>2026-08-27T18:32:13Z</time>
  <course>206.31</course>
  <speed>0.0824621125123532</speed>
  <fix>3d</fix>
</trkpt>
<trkpt lat="-27.274439" lon="151.290064">
  <ele>343.0</ele>
  <time>2026-08-27T18:32:13Z</time>
  <course>0.0</course>
  <speed>0.0</speed>
  <fix>3d</fix>
</trkpt>
<trkpt lat="-27.274439" lon="151.290064">
  <ele>343.0</ele>
  <time>2026-08-27T18:32:13Z</time>
  <course>325.88</course>
  <speed>0.0</speed>
  <fix>3d</fix>
</trkpt>
<trkpt lat="-27.274439" lon="151.290064">
  <ele>343.0</ele>
  <time>2026-08-27T18:32:13Z</time>
  <course>324.43</course>
  <speed>0.0</speed>
  <fix>3d</fix>
</trkpt>
<trkpt lat="-27.274439" lon="151.290064">
  <ele>343.0</ele>
  <time>2026-08-27T18:32:13Z</time>
  <course>321.86</course>
  <speed>0.0</speed>
  <fix>3d</fix>
</trkpt>
<trkpt lat="-27.274439" lon="151.290064">
  <ele>343.0</ele>
  <time>2026-08-27T18:32:13Z</time>
  <course>295.0</course>
  <speed>0.0</speed>
  <fix>3d</fix>
</trkpt>
<trkpt lat="-27.274439" lon="151.290064">
  <ele>343.0</ele>
  <time>2026-08-27T18:32:13Z</time>
  <course>290.72</course>
  <speed>0.0</speed>
  <fix>3d</fix>
</trkpt>
<trkpt lat="-27.274439" lon="151.290064">
  <ele>343.0</ele>
  <time>2026-08-27T18:32:13Z</time>
  <course>284.84</course>
  <speed>0.0</speed>
  <fix>3d</fix>
</trkpt>
<trkpt lat="-27.274439" lon="151.290064">
  <ele>343.0</ele>
  <time>2026-08-27T18:32:13Z</time>
  <course>277.79</course>
  <speed>0.0</speed>
  <fix>3d</fix>
</trkpt>
<trkpt lat="-27.274439" lon="151.290064">
  <ele>343.0</ele>
  <time>2026-08-27T18:32:13Z</time>
  <course>269.55</course>
  <speed>0.0</speed>
  <fix>3d</fix>
</trkpt>
<trkpt lat="-27.274439" lon="151.290064">
  <ele>343.0</ele>
  <time>2026-08-27T18:32:13Z</time>
  <course>256.4</course>
  <speed>0.9403190947758107</speed>
  <fix>3d</fix>
</trkpt>
<trkpt lat="-27.274439" lon="151.290064">
  <ele>343.0</ele>
  <time>2026-08-27T18:32:13Z</time>
  <course>0.0</course>
  <speed>0.0</speed>
  <fix>3d</fix>
</trkpt>
<trkpt lat="-27.274439" lon="151.290064">
  <ele>343.0</ele>
  <time>2026-08-27T18:32:13Z</time>
  <course>249.45</course>
  <speed>0.756042326857432</speed>
  <fix>3d</fix>
</trkpt>
<trkpt lat="-27.274439" lon="151.290064">
  <ele>343.0</ele>
  <time>2026-08-27T18:32:13Z</time>
  <course>0.0</course>
  <speed>0.0</speed>
  <fix>3d</fix>
</trkpt>
<trkpt lat="-27.274439" lon="151.290064">
  <ele>343.0</ele>
  <time>2026-08-27T18:32:13Z</time>
  <course>241.79</course>
  <speed>0.6596969000988256</speed>
  <fix>3d</fix>
</trkpt>
<trkpt lat="-27.274439" lon="151.290064">
  <ele>343.0</ele>
  <time>2026-08-27T18:32:13Z</time>
  <course>0.0</course>
  <speed>0.0</speed>
  <fix>3d</fix>
</trkpt>
<trkpt lat="-27.274439" lon="151.290064">
  <ele>343.0</ele>
  <time>2026-08-27T18:32:13Z</time>
  <course>233.59</course>
  <speed>0.6618912297349165</speed>
  <fix>3d</fix>
</trkpt>
<trkpt lat="-27.274439" lon="151.290064">
  <ele>343.0</ele>
  <time>2026-08-27T18:32:13Z</time>
  <course>0.0</course>
  <speed>0.0</speed>
  <fix>3d</fix>
</trkpt>
<trkpt lat="-27.274439" lon="151.290064">
  <ele>343.0</ele>
  <time>2026-08-27T18:32:13Z</time>
  <course>225.02</course>
  <speed>0.7034202158027589</speed>
  <fix>3d</fix>
</trkpt>
<trkpt lat="-27.274439" lon="151.290064">
  <ele>343.0</ele>
  <time>2026-08-27T18:32:13Z</time>
  <course>0.0</course>
  <speed>0.0</speed>
  <fix>3d</fix>
</trkpt>
<trkpt lat="-27.274439" lon="151.290064">
  <ele>343.0</ele>
  <time>2026-08-27T18:32:13Z</time>
  <course>216.17</course>
  <speed>0.7539230729988305</speed>
  <fix>3d</fix>
</trkpt>
<trkpt lat="-27.274439" lon="151.290064">
  <ele>343.0</ele>
  <time>2026-08-27T18:32:13Z</time>
  <course>0.0</course>
  <speed>0.0</speed>
  <fix>3d</fix>
</trkpt>
<trkpt lat="-27.274439" lon="151.290064">
  <ele>343.0</ele>
  <time>2026-08-27T18:32:14Z</time>
  <course>207.13</course>
  <speed>0.8052949770115296</speed>
  <fix>3d</fix>
</trkpt>
<trkpt lat="-27.274439" lon="151.290064">
  <ele>343.0</ele>
  <time>2026-08-27T18:32:14Z</time>
  <course>0.0</course>
  <speed>0.0</speed>
  <fix>3d</fix>
</trkpt>
<trkpt lat="-27.274439" lon="151.290064">
  <ele>343.0</ele>
  <time>2026-08-27T18:32:14Z</time>
  <course>197.95</course>
  <speed>0.8453401682163222</speed>
  <fix>3d</fix>
</trkpt>
<trkpt lat="-27.274439" lon="151.290064">
  <ele>343.0</ele>
  <time>2026-08-27T18:32:14Z</time>
  <course>0.0</course>
  <speed>0.0</speed>
  <fix>3d</fix>
</trkpt>
<trkpt lat="-27.274439" lon="151.290064">
  <ele>343.0</ele>
  <time>2026-08-27T18:32:14Z</time>
  <course>188.67</course>
  <speed>0.878179936004006</speed>
  <fix>3d</fix>
</trkpt>
<trkpt lat="-27.274439" lon="151.290064">
  <ele>343.0</ele>
  <time>2026-08-27T18:32:14Z</time>
  <course>0.0</course>
  <speed>0.0</speed>
  <fix>3d</fix>
</trkpt>
<trkpt lat="-27.274439" lon="151.290064">
  <ele>343.0</ele>
  <time>2026-08-27T18:32:14Z</time>
  <course>179.31</course>
  <speed>0.8848163651289458</speed>
  <fix>3d</fix>
</trkpt>
<trkpt lat="-27.274439" lon="151.290064">
  <ele>343.0</ele>
  <time>2026-08-27T18:32:14Z</time>
  <course>0.0</course>
  <speed>0.0</speed>
  <fix>3d</fix>
</trkpt>
<trkpt lat="-27.274439" lon="151.290064">
  <ele>343.0</ele>
  <time>2026-08-27T18:32:14Z</time>
  <course>169.93</course>
  <speed>0.9140021881811882</speed>
  <fix>3d</fix>
</trkpt>
<trkpt lat="-27.274439" lon="151.290064">
  <ele>343.0</ele>
  <time>2026-08-27T18:32:14Z</time>
  <course>0.0</course>
  <speed>0.0</speed>
  <fix>3d</fix>
</trkpt>
<trkpt lat="-27.274439" lon="151.290064">
  <ele>343.0</ele>
  <time>2026-08-27T18:32:14Z</time>
  <course>161.9</course>
  <speed>0.9219544457292888</speed>
  <fix>3d</fix>
</trkpt>
<trkpt lat="-27.274439" lon="151.290064">
  <ele>343.0</ele>
  <time>2026-08-27T18:32:14Z</time>
  <course>0.0</course>
  <speed>0.0</speed>
  <fix>3d</fix>
</trkpt>
<trkpt lat="-27.274439" lon="151.290064">
  <ele>343.0</ele>
  <time>2026-08-27T18:32:14Z</time>
  <course>158.55</course>
  <speed>0.9411163583744573</speed>
  <fix>3d</fix>
</trkpt>
<trkpt lat="-27.274439" lon="151.290064">
  <ele>343.0</ele>
  <time>2026-08-27T18:32:14Z</time>
  <course>0.0</course>
  <speed>0.0</speed>
  <fix>3d</fix>
</trkpt>
<trkpt lat="-27.274439" lon="151.290064">
  <ele>343.0</ele>
  <time>2026-08-27T18:32:14Z</time>
  <course>157.2</course>
  <speed>0.9546203433826455</speed>
  <fix>3d</fix>
</trkpt>
<trkpt lat="-27.274439" lon="151.290064">
  <ele>343.0</ele>
  <time>2026-08-27T18:32:14Z</time>
  <course>0.0</course>
  <speed>0.0</speed>
  <fix>3d</fix>
</trkpt>
<trkpt lat="-27.274439" lon="151.290064">
  <ele>343.0</ele>
  <time>2026-08-27T18:32:14Z</time>
  <course>156.57</course>
  <speed>0.9642613753542137</speed>
  <fix>3d</fix>
</trkpt>
<trkpt lat="-27.274439" lon="151.290064">
  <ele>343.0</ele>
  <time>2026-08-27T18:32:14Z</time>
  <course>0.0</course>
  <speed>0.0</speed>
  <fix>3d</fix>
</trkpt>
<trkpt lat="-27.274439" lon="151.290064">
  <ele>343.0</ele>
  <time>2026-08-27T18:32:14Z</time>
  <course>156.21</course>
  <speed>0.9602083107326242</speed>
  <fix>3d</fix>
</trkpt>
<trkpt lat="-27.274439" lon="151.290064">
  <ele>343.0</ele>
  <time>2026-08-27T18:32:14Z</time>
  <course>0.0</course>
  <speed>0.0</speed>
  <fix>3d</fix>
</trkpt>
<trkpt lat="-27.274439" lon="151.290064">
  <ele>343.0</ele>
  <time>2026-08-27T18:32:14Z</time>
  <course>155.95</course>
  <speed>0.9689685237405805</speed>
  <fix>3d</fix>
</trkpt>
<trkpt lat="-27.274439" lon="151.290064">
  <ele>343.0</ele>
  <time>2026-08-27T18:32:14Z</time>
  <course>0.0</course>
  <speed>0.0</speed>
  <fix>3d</fix>
</trkpt>
<trkpt lat="-27.274439" lon="151.290064">
  <ele>343.0</ele>
  <time>2026-08-27T18:32:14Z</time>
  <course>155.71</course>
  <speed>0.9800510190801294</speed>
  <fix>3d</fix>
</trkpt>
<trkpt lat="-27.274439" lon="151.290064">
  <ele>343.0</ele>
  <time>2026-08-27T18:32:14Z</time>
  <course>0.0</course>
  <speed>0.0</speed>
  <fix>3d</fix>
</trkpt>
<trkpt lat="-27.274439" lon="151.290064">
  <ele>343.0</ele>
  <time>2026-08-27T18:32:14Z</time>
  <course>155.49</course>
  <speed>0.9972963451251589</speed>
  <fix>3d</fix>
</trkpt>
<trkpt lat="-27.274439" lon="151.290064">
  <ele>343.0</ele>
  <time>2026-08-27T18:32:14Z</time>
  <course>0.0</course>
  <speed>0.0</speed>
  <fix>3d</fix>
</trkpt>
<trkpt lat="-27.274439" lon="151.290064">
  <ele>343.0</ele>
  <time>2026-08-27T18:32:14Z</time>
  <course>155.27</course>
  <speed>1.0113357503816425</speed>
  <fix>3d</fix>
</trkpt>
<trkpt lat="-27.274439" lon="151.290064">
  <ele>343.0</ele>
  <time>2026-08-27T18:32:14Z</time>
  <course>0.0</course>
  <speed>0.0</speed>
  <fix>3d</fix>
</trkpt>
<trkpt lat="-27.274439" lon="151.290064">
  <ele>343.0</ele>
  <time>2026-08-27T18:32:14Z</time>
  <course>155.07</course>
  <speed>1.010198000393982</speed>
  <fix>3d</fix>
</trkpt>
<trkpt lat="-27.274439" lon="151.290064">
  <ele>343.0</ele>
  <time>2026-08-27T18:32:14Z</time>
  <course>0.0</course>
  <speed>0.0</speed>
  <fix>3d</fix>
</trkpt>
<trkpt lat="-27.274439" lon="151.290064">
  <ele>343.0</ele>
  <time>2026-08-27T18:32:14Z</time>
  <course>154.88</course>
  <speed>0.9962429422585637</speed>
  <fix>3d</fix>
</trkpt>
<trkpt lat="-27.274439" lon="151.290064">
  <ele>343.0</ele>
  <time>2026-08-27T18:32:14Z</time>
  <course>0.0</course>
  <speed>0.0</speed>
  <fix>3d</fix>
</trkpt>
<trkpt lat="-27.274439" lon="151.290064">
  <ele>343.0</ele>
  <time>2026-08-27T18:32:14Z</time>
  <course>154.68</course>
  <speed>0.9751410154434076</speed>
  <fix>3d</fix>
</trkpt>
<trkpt lat="-27.274439" lon="151.290064">
  <ele>343.0</ele>
  <time>2026-08-27T18:32:14Z</time>
  <course>0.0</course>
  <speed>0.0</speed>
  <fix>3d</fix>
</trkpt>
<trkpt lat="-27.274439" lon="151.290064">
  <ele>343.0</ele>
  <time>2026-08-27T18:32:14Z</time>
  <course>154.49</course>
  <speed>0.951892851112981</speed>
  <fix>3d</fix>
</trkpt>
<trkpt lat="-27.274439" lon="151.290064">
  <ele>343.0</ele>
  <time>2026-08-27T18:32:14Z</time>
  <course>0.0</course>
  <speed>0.0</speed>
  <fix>3d</fix>
</trkpt>
<trkpt lat="-27.274439" lon="151.290064">
  <ele>343.0</ele>
  <time>2026-08-27T18:32:14Z</time>
  <course>154.29</course>
  <speed>0.9243916918709297</speed>
  <fix>3d</fix>
</trkpt>
<trkpt lat="-27.274439" lon="151.290064">
  <ele>343.0</ele>
  <time>2026-08-27T18:32:14Z</time>
  <course>0.0</course>
  <speed>0.0</speed>
  <fix>3d</fix>
</trkpt>
<trkpt lat="-27.274439" lon="151.290064">
  <ele>343.0</ele>
  <time>2026-08-27T18:32:14Z</time>
  <course>154.09</course>
  <speed>0.8900561780022652</speed>
  <fix>3d</fix>
</trkpt>
<trkpt lat="-27.274439" lon="151.290064">
  <ele>343.0</ele>
  <time>2026-08-27T18:32:14Z</time>
  <course>0.0</course>
  <speed>0.0</speed>
  <fix>3d</fix>
</trkpt>
<trkpt lat="-27.274439" lon="151.290064">
  <ele>343.0</ele>
  <time>2026-08-27T18:32:14Z</time>
  <course>153.88</course>
  <speed>0.8514693182963201</speed>
  <fix>3d</fix>
</trkpt>
<trkpt lat="-27.274439" lon="151.290064">
  <ele>343.0</ele>
  <time>2026-08-27T18:32:14Z</time>
  <course>0.0</course>
  <speed>0.0</speed>
  <fix>3d</fix>
</trkpt>
<trkpt lat="-27.274439" lon="151.290064">
  <ele>343.0</ele>
  <time>2026-08-27T18:32:14Z</time>
  <course>153.67</course>
  <speed>0.8174350127074322</speed>
  <fix>3d</fix>
</trkpt>
<trkpt lat="-27.274439" lon="151.290064">
  <ele>343.0</ele>
  <time>2026-08-27T18:32:14Z</time>
  <course>0.0</course>
  <speed>0.0</speed>
  <fix>3d</fix>
</trkpt>
<trkpt lat="-27.274439" lon="151.290064">
  <ele>343.0</ele>
  <time>2026-08-27T18:32:14Z</time>
  <course>153.46</course>
  <speed>0.7962411694957753</speed>
  <fix>3d</fix>
</trkpt>
<trkpt lat="-27.274439" lon="151.290064">
  <ele>343.0</ele>
  <time>2026-08-27T18:32:14Z</time>
  <course>0.0</course>
  <speed>0.0</speed>
  <fix>3d</fix>
</trkpt>
<trkpt lat="-27.274439" lon="151.290064">
  <ele>343.0</ele>
  <time>2026-08-27T18:32:14Z</time>
  <course>153.24</course>
  <speed>0.7569015788066504</speed>
  <fix>3d</fix>
</trkpt>
<trkpt lat="-27.274439" lon="151.290064">
  <ele>343.0</ele>
  <time>2026-08-27T18:32:14Z</time>
  <course>0.0</course>
  <speed>0.0</speed>
  <fix>3d</fix>
</trkpt>
<trkpt lat="-27.274439" lon="151.2900646">
  <ele>343.04</ele>
  <time>2026-08-27T18:32:14Z</time>
  <course>153.03</course>
  <speed>0.0</speed>
  <fix>3d</fix>
</trkpt>
<trkpt lat="-27.274439" lon="151.290064">
  <ele>343.0</ele>
  <time>2026-08-27T18:32:14Z</time>
  <course>0.0</course>
  <speed>0.0</speed>
  <fix>3d</fix>
</trkpt>
<trkpt lat="-27.2744392" lon="151.2900653">
  <ele>343.03</ele>
  <time>2026-08-27T18:32:14Z</time>
  <course>152.83</course>
  <speed>0.0848528137423857</speed>
  <fix>3d</fix>
</trkpt>
<trkpt lat="-27.274439" lon="151.290064">
  <ele>343.0</ele>
  <time>2026-08-27T18:32:14Z</time>
  <course>0.0</course>
  <speed>0.0</speed>
  <fix>3d</fix>
</trkpt>
<trkpt lat="-27.2744393" lon="151.2900645">
  <ele>343.02</ele>
  <time>2026-08-27T18:32:14Z</time>
  <course>152.57</course>
  <speed>0.08602325267042626</speed>
  <fix>3d</fix>
</trkpt>
<trkpt lat="-27.274439" lon="151.290064">
  <ele>343.0</ele>
  <time>2026-08-27T18:32:14Z</time>
  <course>0.0</course>
  <speed>0.0</speed>
  <fix>3d</fix>
</trkpt>
<trkpt lat="-27.2744392" lon="151.2900642">
  <ele>343.03</ele>
  <time>2026-08-27T18:32:14Z</time>
  <course>152.29</course>
  <speed>0.05830951894845301</speed>
  <fix>3d</fix>
</trkpt>
<trkpt lat="-27.274439" lon="151.290064">
  <ele>343.0</ele>
  <time>2026-08-27T18:32:14Z</time>
  <course>0.0</course>
  <speed>0.0</speed>
  <fix>3d</fix>
</trkpt>
<trkpt lat="-27.2744391" lon="151.2900641">
  <ele>343.06</ele>
  <time>2026-08-27T18:32:14Z</time>
  <course>152.03</course>
  <speed>0.02</speed>
  <fix>3d</fix>
</trkpt>
<trkpt lat="-27.274439" lon="151.290064">
  <ele>343.0</ele>
  <time>2026-08-27T18:32:14Z</time>
  <course>0.0</course>
  <speed>0.0</speed>
  <fix>3d</fix>
</trkpt>
<trkpt lat="-27.274439" lon="151.290064">
  <ele>343.05</ele>
  <time>2026-08-27T18:32:14Z</time>
  <course>151.79</course>
  <speed>0.01</speed>
  <fix>3d</fix>
</trkpt>
<trkpt lat="-27.274439" lon="151.290064">
  <ele>343.0</ele>
  <time>2026-08-27T18:32:14Z</time>
  <course>0.0</course>
  <speed>0.0</speed>
  <fix>3d</fix>
</trkpt>
<trkpt lat="-27.274439" lon="151.290064">
  <ele>343.04</ele>
  <time>2026-08-27T18:32:14Z</time>
  <course>151.57</course>
  <speed>0.01414213562373095</speed>
  <fix>3d</fix>
</trkpt>
<trkpt lat="-27.274439" lon="151.290064">
  <ele>343.0</ele>
  <time>2026-08-27T18:32:14Z</time>
  <course>0.0</course>
  <speed>0.0</speed>
  <fix>3d</fix>
</trkpt>
<trkpt lat="-27.2744389" lon="151.2900639">
  <ele>343.04</ele>
  <time>2026-08-27T18:32:14Z</time>
  <course>151.37</course>
  <speed>0.01414213562373095</speed>
  <fix>3d</fix>
</trkpt>
<trkpt lat="-27.274439" lon="151.290064">
  <ele>343.0</ele>
  <time>2026-08-27T18:32:14Z</time>
  <course>0.0</course>
  <speed>0.0</speed>
  <fix>3d</fix>
</trkpt>
<trkpt lat="-27.2744389" lon="151.2900638">
  <ele>343.05</ele>
  <time>2026-08-27T18:32:14Z</time>
  <course>151.18</course>
  <speed>0.0282842712474619</speed>
  <fix>3d</fix>
</trkpt>
<trkpt lat="-27.274439" lon="151.290064">
  <ele>343.0</ele>
  <time>2026-08-27T18:32:14Z</time>
  <course>0.0</course>
  <speed>0.0</speed>
  <fix>3d</fix>
</trkpt>
<trkpt lat="-27.2744389" lon="151.2900638">
  <ele>343.06</ele>
  <time>2026-08-27T18:32:14Z</time>
  <course>151.01</course>
  <speed>0.0282842712474619</speed>
  <fix>3d</fix>
</trkpt>
<trkpt lat="-27.274439" lon="151.290064">
  <ele>343.0</ele>
  <time>2026-08-27T18:32:14Z</time>
  <course>0.0</course>
  <speed>0.0</speed>
  <fix>3d</fix>
</trkpt>
<trkpt lat="-27.2744389" lon="151.2900638">
  <ele>343.03</ele>
  <time>2026-08-27T18:32:14Z</time>
  <course>150.84</course>
  <speed>0.0282842712474619</speed>
  <fix>3d</fix>
</trkpt>
<trkpt lat="-27.274439" lon="151.290064">
  <ele>343.0</ele>
  <time>2026-08-27T18:32:14Z</time>
  <course>0.0</course>
  <speed>0.0</speed>
  <fix>3d</fix>
</trkpt>
<trkpt lat="-27.2744389" lon="151.2900638">
  <ele>343.04</ele>
  <time>2026-08-27T18:32:14Z</time>
  <course>150.68</course>
  <speed>0.0282842712474619</speed>
  <fix>3d</fix>
</trkpt>
<trkpt lat="-27.274439" lon="151.290064">
  <ele>343.0</ele>
  <time>2026-08-27T18:32:14Z</time>
  <course>0.0</course>
  <speed>0.0</speed>
  <fix>3d</fix>
</trkpt>
<trkpt lat="-27.2744389" lon="151.2900638">
  <ele>343.03</ele>
  <time>2026-08-27T18:32:14Z</time>
  <course>150.52</course>
  <speed>0.022360679774997897</speed>
  <fix>3d</fix>
</trkpt>
<trkpt lat="-27.274439" lon="151.290064">
  <ele>343.0</ele>
  <time>2026-08-27T18:32:14Z</time>
  <course>0.0</course>
  <speed>0.0</speed>
  <fix>3d</fix>
</trkpt>
<trkpt lat="-27.2744389" lon="151.2900638">
  <ele>343.04</ele>
  <time>2026-08-27T18:32:14Z</time>
  <course>150.38</course>
  <speed>0.022360679774997897</speed>
  <fix>3d</fix>
</trkpt>
<trkpt lat="-27.274439" lon="151.290064">
  <ele>343.0</ele>
  <time>2026-08-27T18:32:14Z</time>
  <course>0.0</course>
  <speed>0.0</speed>
  <fix>3d</fix>
</trkpt>
<trkpt lat="-27.2744389" lon="151.2900638">
  <ele>343.03</ele>
  <time>2026-08-27T18:32:14Z</time>
  <course>150.24</course>
  <speed>0.022360679774997897</speed>
  <fix>3d</fix>
</trkpt>
<trkpt lat="-27.274439" lon="151.290064">
  <ele>343.0</ele>
  <time>2026-08-27T18:32:14Z</time>
  <course>0.0</course>
  <speed>0.0</speed>
  <fix>3d</fix>
</trkpt>
<trkpt lat="-27.2744389" lon="151.2900638">
  <ele>343.02</ele>
  <time>2026-08-27T18:32:14Z</time>
  <course>150.11</course>
  <speed>0.022360679774997897</speed>
  <fix>3d</fix>
</trkpt>
<trkpt lat="-27.274439" lon="151.290064">
  <ele>343.0</ele>
  <time>2026-08-27T18:32:14Z</time>
  <course>0.0</course>
  <speed>0.0</speed>
  <fix>3d</fix>
</trkpt>
<trkpt lat="-27.2744389" lon="151.2900638">
  <ele>343.0</ele>
  <time>2026-08-27T18:32:14Z</time>
  <course>149.98</course>
  <speed>0.022360679774997897</speed>
  <fix>3d</fix>
</trkpt>
<trkpt lat="-27.274439" lon="151.290064">
  <ele>343.0</ele>
  <time>2026-08-27T18:32:14Z</time>
  <course>0.0</course>
  <speed>0.0</speed>
  <fix>3d</fix>
</trkpt>
<trkpt lat="-27.2744389" lon="151.2900638">
  <ele>343.01</ele>
  <time>2026-08-27T18:32:14Z</time>
  <course>149.86</course>
  <speed>0.022360679774997897</speed>
  <fix>3d</fix>
</trkpt>
<trkpt lat="-27.274439" lon="151.290064">
  <ele>343.0</ele>
  <time>2026-08-27T18:32:14Z</time>
  <course>0.0</course>
  <speed>0.0</speed>
  <fix>3d</fix>
</trkpt>
<trkpt lat="-27.2744389" lon="151.2900638">
  <ele>343.04</ele>
  <time>2026-08-27T18:32:14Z</time>
  <course>149.75</course>
  <speed>0.022360679774997897</speed>
  <fix>3d</fix>
</trkpt>
<trkpt lat="-27.274439" lon="151.290064">
  <ele>343.0</ele>
  <time>2026-08-27T18:32:14Z</time>
  <course>0.0</course>
  <speed>0.0</speed>
  <fix>3d</fix>
</trkpt>
<trkpt lat="-27.2744389" lon="151.2900638">
  <ele>343.04</ele>
  <time>2026-08-27T18:32:14Z</time>
  <course>149.64</course>
  <speed>0.022360679774997897</speed>
  <fix>3d</fix>
</trkpt>
<trkpt lat="-27.274439" lon="151.290064">
  <ele>343.0</ele>
  <time>2026-08-27T18:32:14Z</time>
  <course>0.0</course>
  <speed>0.0</speed>
  <fix>3d</fix>
</trkpt>
<trkpt lat="-27.2744389" lon="151.2900638">
  <ele>343.04</ele>
  <time>2026-08-27T18:32:14Z</time>
  <course>149.53</course>
  <speed>0.022360679774997897</speed>
  <fix>3d</fix>
</trkpt>
<trkpt lat="-27.274439" lon="151.290064">
  <ele>343.0</ele>
  <time>2026-08-27T18:32:14Z</time>
  <course>0.0</course>
  <speed>0.0</speed>
  <fix>3d</fix>
</trkpt>
<trkpt lat="-27.2744389" lon="151.2900638">
  <ele>343.04</ele>
  <time>2026-08-27T18:32:14Z</time>
  <course>149.44</course>
  <speed>0.022360679774997897</speed>
  <fix>3d</fix>
</trkpt>
<trkpt lat="-27.274439" lon="151.290064">
  <ele>343.0</ele>
  <time>2026-08-27T18:32:14Z</time>
  <course>0.0</course>
  <speed>0.0</speed>
  <fix>3d</fix>
</trkpt>
<trkpt lat="-27.2744389" lon="151.2900638">
  <ele>343.03</ele>
  <time>2026-08-27T18:32:14Z</time>
  <course>149.34</course>
  <speed>0.022360679774997897</speed>
  <fix>3d</fix>
</trkpt>
<trkpt lat="-27.274439" lon="151.290064">
  <ele>343.0</ele>
  <time>2026-08-27T18:32:14Z</time>
  <course>0.0</course>
  <speed>0.0</speed>
  <fix>3d</fix>
</trkpt>
<trkpt lat="-27.2744389" lon="151.2900638">
  <ele>343.02</ele>
  <time>2026-08-27T18:32:15Z</time>
  <course>149.25</course>
  <speed>0.022360679774997897</speed>
  <fix>3d</fix>
</trkpt>
<trkpt lat="-27.274439" lon="151.290064">
  <ele>343.0</ele>
  <time>2026-08-27T18:32:15Z</time>
  <course>0.0</course>
  <speed>0.0</speed>
  <fix>3d</fix>
</trkpt>
<trkpt lat="-27.2744389" lon="151.2900638">
  <ele>343.05</ele>
  <time>2026-08-27T18:32:15Z</time>
  <course>149.17</course>
  <speed>0.022360679774997897</speed>
  <fix>3d</fix>
</trkpt>
<trkpt lat="-27.274439" lon="151.290064">
  <ele>343.0</ele>
  <time>2026-08-27T18:32:15Z</time>
  <course>0.0</course>
  <speed>0.0</speed>
  <fix>3d</fix>
</trkpt>
<trkpt lat="-27.2744389" lon="151.2900638">
  <ele>343.04</ele>
  <time>2026-08-27T18:32:15Z</time>
  <course>149.09</course>
  <speed>0.02</speed>
  <fix>3d</fix>
</trkpt>
<trkpt lat="-27.274439" lon="151.290064">
  <ele>343.0</ele>
  <time>2026-08-27T18:32:15Z</time>
  <course>0.0</course>
  <speed>0.0</speed>
  <fix>3d</fix>
</trkpt>
<trkpt lat="-27.2744389" lon="151.2900638">
  <ele>343.05</ele>
  <time>2026-08-27T18:32:15Z</time>
  <course>149.01</course>
  <speed>0.022360679774997897</speed>
  <fix>3d</fix>
</trkpt>
<trkpt lat="-27.274439" lon="151.290064">
  <ele>343.0</ele>
  <time>2026-08-27T18:32:15Z</time>
  <course>0.0</course>
  <speed>0.0</speed>
  <fix>3d</fix>
</trkpt>
<trkpt lat="-27.2744389" lon="151.2900638">
  <ele>343.03</ele>
  <time>2026-08-27T18:32:15Z</time>
  <course>148.94</course>
  <speed>0.02</speed>
  <fix>3d</fix>
</trkpt>
<trkpt lat="-27.274439" lon="151.290064">
  <ele>343.0</ele>
  <time>2026-08-27T18:32:15Z</time>
  <course>0.0</course>
  <speed>0.0</speed>
  <fix>3d</fix>
</trkpt>
<trkpt lat="-27.2744389" lon="151.2900638">
  <ele>343.02</ele>
  <time>2026-08-27T18:32:15Z</time>
  <course>148.87</course>
  <speed>0.022360679774997897</speed>
  <fix>3d</fix>
</trkpt>
<trkpt lat="-27.274439" lon="151.290064">
  <ele>343.0</ele>
  <time>2026-08-27T18:32:15Z</time>
  <course>0.0</course>
  <speed>0.0</speed>
  <fix>3d</fix>
</trkpt>
<trkpt lat="-27.2744389" lon="151.2900638">
  <ele>343.02</ele>
  <time>2026-08-27T18:32:15Z</time>
  <course>148.8</course>
  <speed>0.02</speed>
  <fix>3d</fix>
</trkpt>
<trkpt lat="-27.274439" lon="151.290064">
  <ele>343.0</ele>
  <time>2026-08-27T18:32:15Z</time>
  <course>0.0</course>
  <speed>0.0</speed>
  <fix>3d</fix>
</trkpt>
<trkpt lat="-27.2744389" lon="151.2900638">
  <ele>343.02</ele>
  <time>2026-08-27T18:32:15Z</time>
  <course>148.74</course>
  <speed>0.02</speed>
  <fix>3d</fix>
</trkpt>
<trkpt lat="-27.274439" lon="151.290064">
  <ele>343.0</ele>
  <time>2026-08-27T18:32:15Z</time>
  <course>0.0</course>
  <speed>0.0</speed>
  <fix>3d</fix>
</trkpt>
<trkpt lat="-27.2744389" lon="151.2900638">
  <ele>343.0</ele>
  <time>2026-08-27T18:32:15Z</time>
  <course>148.67</course>
  <speed>0.02</speed>
  <fix>3d</fix>
</trkpt>
<trkpt lat="-27.274439" lon="151.290064">
  <ele>343.0</ele>
  <time>2026-08-27T18:32:15Z</time>
  <course>0.0</course>
  <speed>0.0</speed>
  <fix>3d</fix>
</trkpt>
<trkpt lat="-27.274439" lon="151.290064">
  <ele>343.0</ele>
  <time>2026-08-27T18:32:15Z</time>
  <course>325.88</course>
  <speed>0.0</speed>
  <fix>3d</fix>
</trkpt>
<trkpt lat="-27.274439" lon="151.290064">
  <ele>343.0</ele>
  <time>2026-08-27T18:32:15Z</time>
  <course>324.43</course>
  <speed>0.0</speed>
  <fix>3d</fix>
</trkpt>
<trkpt lat="-27.274439" lon="151.290064">
  <ele>343.0</ele>
  <time>2026-08-27T18:32:15Z</time>
  <course>321.86</course>
  <speed>0.0</speed>
  <fix>3d</fix>
</trkpt>
<trkpt lat="-27.274439" lon="151.290064">
  <ele>343.0</ele>
  <time>2026-08-27T18:32:15Z</time>
  <course>295.0</course>
  <speed>0.0</speed>
  <fix>3d</fix>
</trkpt>
<trkpt lat="-27.274439" lon="151.290064">
  <ele>343.0</ele>
  <time>2026-08-27T18:32:16Z</time>
  <course>261.98</course>
  <speed>1.283627671873741</speed>
  <fix>3d</fix>
</trkpt>
<trkpt lat="-27.274439" lon="151.290064">
  <ele>343.0</ele>
  <time>2026-08-27T18:32:16Z</time>
  <course>0.0</course>
  <speed>0.0</speed>
  <fix>3d</fix>
</trkpt>
<trkpt lat="-27.274439" lon="151.290064">
  <ele>343.0</ele>
  <time>2026-08-27T18:32:16Z</time>
  <course>255.57</course>
  <speed>1.5463828762631846</speed>
  <fix>3d</fix>
</trkpt>
<trkpt lat="-27.274439" lon="151.290064">
  <ele>343.0</ele>
  <time>2026-08-27T18:32:16Z</time>
  <course>0.0</course>
  <speed>0.0</speed>
  <fix>3d</fix>
</trkpt>
<trkpt lat="-27.274439" lon="151.290064">
  <ele>343.0</ele>
  <time>2026-08-27T18:32:16Z</time>
  <course>247.73</course>
  <speed>1.486371420607918</speed>
  <fix>3d</fix>
</trkpt>
<trkpt lat="-27.274439" lon="151.290064">
  <ele>343.0</ele>
  <time>2026-08-27T18:32:16Z</time>
  <course>0.0</course>
  <speed>0.0</speed>
  <fix>3d</fix>
</trkpt>
<trkpt lat="-27.274439" lon="151.290064">
  <ele>343.0</ele>
  <time>2026-08-27T18:32:16Z</time>
  <course>239.18</course>
  <speed>1.3601470508735443</speed>
  <fix>3d</fix>
</trkpt>
<trkpt lat="-27.274439" lon="151.290064">
  <ele>343.0</ele>
  <time>2026-08-27T18:32:16Z</time>
  <course>0.0</course>
  <speed>0.0</speed>
  <fix>3d</fix>
</trkpt>
<trkpt lat="-27.274439" lon="151.290064">
  <ele>343.0</ele>
  <time>2026-08-27T18:32:16Z</time>
  <course>230.14</course>
  <speed>1.2220065466273085</speed>
  <fix>3d</fix>
</trkpt>
<trkpt lat="-27.274439" lon="151.290064">
  <ele>343.0</ele>
  <time>2026-08-27T18:32:16Z</time>
  <course>0.0</course>
  <speed>0.0</speed>
  <fix>3d</fix>
</trkpt>
<trkpt lat="-27.274439" lon="151.290064">
  <ele>343.0</ele>
  <time>2026-08-27T18:32:16Z</time>
  <course>220.8</course>
  <speed>1.115437134042076</speed>
  <fix>3d</fix>
</trkpt>
<trkpt lat="-27.274439" lon="151.290064">
  <ele>343.0</ele>
  <time>2026-08-27T18:32:16Z</time>
  <course>0.0</course>
  <speed>0.0</speed>
  <fix>3d</fix>
</trkpt>
<trkpt lat="-27.274439" lon="151.290064">
  <ele>343.0</ele>
  <time>2026-08-27T18:32:16Z</time>
  <course>211.27</course>
  <speed>1.035857133006285</speed>
  <fix>3d</fix>
</trkpt>
<trkpt lat="-27.274439" lon="151.290064">
  <ele>343.0</ele>
  <time>2026-08-27T18:32:16Z</time>
  <course>0.0</course>
  <speed>0.0</speed>
  <fix>3d</fix>
</trkpt>
<trkpt lat="-27.274439" lon="151.290064">
  <ele>343.0</ele>
  <time>2026-08-27T18:32:16Z</time>
  <course>201.62</course>
  <speed>0.9832598842625484</speed>
  <fix>3d</fix>
</trkpt>
<trkpt lat="-27.274439" lon="151.290064">
  <ele>343.0</ele>
  <time>2026-08-27T18:32:16Z</time>
  <course>0.0</course>
  <speed>0.0</speed>
  <fix>3d</fix>
</trkpt>
<trkpt lat="-27.274439" lon="151.290064">
  <ele>343.0</ele>
  <time>2026-08-27T18:32:16Z</time>
  <course>191.86</course>
  <speed>0.9504735661763561</speed>
  <fix>3d</fix>
</trkpt>
<trkpt lat="-27.274439" lon="151.290064">
  <ele>343.0</ele>
  <time>2026-08-27T18:32:16Z</time>
  <course>0.0</course>
  <speed>0.0</speed>
  <fix>3d</fix>
</trkpt>
<trkpt lat="-27.274439" lon="151.290064">
  <ele>343.0</ele>
  <time>2026-08-27T18:32:16Z</time>
  <course>182.03</course>
  <speed>0.9000555538409837</speed>
  <fix>3d</fix>
</trkpt>
<trkpt lat="-27.274439" lon="151.290064">
  <ele>343.0</ele>
  <time>2026-08-27T18:32:16Z</time>
  <course>0.0</course>
  <speed>0.0</speed>
  <fix>3d</fix>
</trkpt>
<trkpt lat="-27.274439" lon="151.290064">
  <ele>343.0</ele>
  <time>2026-08-27T18:32:16Z</time>
  <course>172.16</course>
  <speed>0.8209750300709517</speed>
  <fix>3d</fix>
</trkpt>
<trkpt lat="-27.274439" lon="151.290064">
  <ele>343.0</ele>
  <time>2026-08-27T18:32:16Z</time>
  <course>0.0</course>
  <speed>0.0</speed>
  <fix>3d</fix>
</trkpt>
<trkpt lat="-27.274439" lon="151.290064">
  <ele>343.0</ele>
  <time>2026-08-27T18:32:16Z</time>
  <course>162.31</course>
  <speed>0.7752418977325722</speed>
  <fix>3d</fix>
</trkpt>
<trkpt lat="-27.274439" lon="151.290064">
  <ele>343.0</ele>
  <time>2026-08-27T18:32:16Z</time>
  <course>0.0</course>
  <speed>0.0</speed>
  <fix>3d</fix>
</trkpt>
<trkpt lat="-27.274439" lon="151.290064">
  <ele>343.0</ele>
  <time>2026-08-27T18:32:16Z</time>
  <course>152.45</course>
  <speed>0.71386273190299</speed>
  <fix>3d</fix>
</trkpt>
<trkpt lat="-27.274439" lon="151.290064">
  <ele>343.0</ele>
  <time>2026-08-27T18:32:16Z</time>
  <course>0.0</course>
  <speed>0.0</speed>
  <fix>3d</fix>
</trkpt>
<trkpt lat="-27.274439" lon="151.290064">
  <ele>343.0</ele>
  <time>2026-08-27T18:32:16Z</time>
  <course>142.58</course>
  <speed>0.648459713474939</speed>
  <fix>3d</fix>
</trkpt>
<trkpt lat="-27.274439" lon="151.290064">
  <ele>343.0</ele>
  <time>2026-08-27T18:32:16Z</time>
  <course>0.0</course>
  <speed>0.0</speed>
  <fix>3d</fix>
</trkpt>
<trkpt lat="-27.274439" lon="151.290064">
  <ele>343.0</ele>
  <time>2026-08-27T18:32:16Z</time>
  <course>132.72</course>
  <speed>0.5869412236331676</speed>
  <fix>3d</fix>
</trkpt>
<trkpt lat="-27.274439" lon="151.290064">
  <ele>343.0</ele>
  <time>2026-08-27T18:32:16Z</time>
  <course>0.0</course>
  <speed>0.0</speed>
  <fix>3d</fix>
</trkpt>
<trkpt lat="-27.274439" lon="151.290064">
  <ele>343.0</ele>
  <time>2026-08-27T18:32:16Z</time>
  <course>122.94</course>
  <speed>0.24758836806279894</speed>
  <fix>3d</fix>
</trkpt>
<trkpt lat="-27.274439" lon="151.290064">
  <ele>343.0</ele>
  <time>2026-08-27T18:32:16Z</time>
  <course>0.0</course>
  <speed>0.0</speed>
  <fix>3d</fix>
</trkpt>
<trkpt lat="-27.274439" lon="151.290064">
  <ele>343.0</ele>
  <time>2026-08-27T18:32:16Z</time>
  <course>113.26</course>
  <speed>0.12041594578792296</speed>
  <fix>3d</fix>
</trkpt>
<trkpt lat="-27.274439" lon="151.290064">
  <ele>343.0</ele>
  <time>2026-08-27T18:32:16Z</time>
  <course>0.0</course>
  <speed>0.0</speed>
  <fix>3d</fix>
</trkpt>
<trkpt lat="-27.274439" lon="151.290064">
  <ele>343.0</ele>
  <time>2026-08-27T18:32:16Z</time>
  <course>103.53</course>
  <speed>0.13601470508735444</speed>
  <fix>3d</fix>
</trkpt>
<trkpt lat="-27.274439" lon="151.290064">
  <ele>343.0</ele>
  <time>2026-08-27T18:32:16Z</time>
  <course>0.0</course>
  <speed>0.0</speed>
  <fix>3d</fix>
</trkpt>
<trkpt lat="-27.274439" lon="151.290064">
  <ele>343.0</ele>
  <time>2026-08-27T18:32:16Z</time>
  <course>93.73</course>
  <speed>0.16552945357246848</speed>
  <fix>3d</fix>
</trkpt>
<trkpt lat="-27.274439" lon="151.290064">
  <ele>343.0</ele>
  <time>2026-08-27T18:32:16Z</time>
  <course>0.0</course>
  <speed>0.0</speed>
  <fix>3d</fix>
</trkpt>
<trkpt lat="-27.274439" lon="151.290064">
  <ele>343.0</ele>
  <time>2026-08-27T18:32:16Z</time>
  <course>325.88</course>
  <speed>0.0</speed>
  <fix>3d</fix>
</trkpt>
<trkpt lat="-27.274439" lon="151.290064">
  <ele>343.0</ele>
  <time>2026-08-27T18:32:16Z</time>
  <course>324.43</course>
  <speed>0.0</speed>
  <fix>3d</fix>
</trkpt>
<trkpt lat="-27.274439" lon="151.290064">
  <ele>343.0</ele>
  <time>2026-08-27T18:32:16Z</time>
  <course>321.86</course>
  <speed>0.0</speed>
  <fix>3d</fix>
</trkpt>
<trkpt lat="-27.274439" lon="151.290064">
  <ele>343.0</ele>
  <time>2026-08-27T18:32:16Z</time>
  <course>295.0</course>
  <speed>0.0</speed>
  <fix>3d</fix>
</trkpt>
<trkpt lat="-27.274439" lon="151.290064">
  <ele>343.0</ele>
  <time>2026-08-27T18:32:16Z</time>
  <course>290.72</course>
  <speed>0.0</speed>
  <fix>3d</fix>
</trkpt>
<trkpt lat="-27.274439" lon="151.290064">
  <ele>343.0</ele>
  <time>2026-08-27T18:32:16Z</time>
  <course>284.84</course>
  <speed>0.0</speed>
  <fix>3d</fix>
</trkpt>
<trkpt lat="-27.274439" lon="151.290064">
  <ele>343.0</ele>
  <time>2026-08-27T18:32:16Z</time>
  <course>277.79</course>
  <speed>0.0</speed>
  <fix>3d</fix>
</trkpt>
<trkpt lat="-27.274439" lon="151.290064">
  <ele>343.0</ele>
  <time>2026-08-27T18:32:17Z</time>
  <course>261.98</course>
  <speed>1.283627671873741</speed>
  <fix>3d</fix>
</trkpt>
<trkpt lat="-27.274439" lon="151.290064">
  <ele>343.0</ele>
  <time>2026-08-27T18:32:17Z</time>
  <course>0.0</course>
  <speed>0.0</speed>
  <fix>3d</fix>
</trkpt>
<trkpt lat="-27.274439" lon="151.290064">
  <ele>343.0</ele>
  <time>2026-08-27T18:32:17Z</time>
  <course>255.57</course>
  <speed>1.5463828762631846</speed>
  <fix>3d</fix>
</trkpt>
<trkpt lat="-27.274439" lon="151.290064">
  <ele>343.0</ele>
  <time>2026-08-27T18:32:17Z</time>
  <course>0.0</course>
  <speed>0.0</speed>
  <fix>3d</fix>
</trkpt>
<trkpt lat="-27.274439" lon="151.290064">
  <ele>343.0</ele>
  <time>2026-08-27T18:32:17Z</time>
  <course>247.73</course>
  <speed>1.486371420607918</speed>
  <fix>3d</fix>
</trkpt>
<trkpt lat="-27.274439" lon="151.290064">
  <ele>343.0</ele>
  <time>2026-08-27T18:32:17Z</time>
  <course>0.0</course>
  <speed>0.0</speed>
  <fix>3d</fix>
</trkpt>
<trkpt lat="-27.274439" lon="151.290064">
  <ele>343.0</ele>
  <time>2026-08-27T18:32:17Z</time>
  <course>239.18</course>
  <speed>1.3601470508735443</speed>
  <fix>3d</fix>
</trkpt>
<trkpt lat="-27.274439" lon="151.290064">
  <ele>343.0</ele>
  <time>2026-08-27T18:32:17Z</time>
  <course>0.0</course>
  <speed>0.0</speed>
  <fix>3d</fix>
</trkpt>
<trkpt lat="-27.274439" lon="151.290064">
  <ele>343.0</ele>
  <time>2026-08-27T18:32:17Z</time>
  <course>230.14</course>
  <speed>1.2220065466273085</speed>
  <fix>3d</fix>
</trkpt>
<trkpt lat="-27.274439" lon="151.290064">
  <ele>343.0</ele>
  <time>2026-08-27T18:32:17Z</time>
  <course>0.0</course>
  <speed>0.0</speed>
  <fix>3d</fix>
</trkpt>
<trkpt lat="-27.274439" lon="151.290064">
  <ele>343.0</ele>
  <time>2026-08-27T18:32:17Z</time>
  <course>220.8</course>
  <speed>1.115437134042076</speed>
  <fix>3d</fix>
</trkpt>
<trkpt lat="-27.274439" lon="151.290064">
  <ele>343.0</ele>
  <time>2026-08-27T18:32:17Z</time>
  <course>0.0</course>
  <speed>0.0</speed>
  <fix>3d</fix>
</trkpt>
<trkpt lat="-27.274439" lon="151.290064">
  <ele>343.0</ele>
  <time>2026-08-27T18:32:17Z</time>
  <course>211.27</course>
  <speed>1.035857133006285</speed>
  <fix>3d</fix>
</trkpt>
<trkpt lat="-27.274439" lon="151.290064">
  <ele>343.0</ele>
  <time>2026-08-27T18:32:17Z</time>
  <course>0.0</course>
  <speed>0.0</speed>
  <fix>3d</fix>
</trkpt>
<trkpt lat="-27.274439" lon="151.290064">
  <ele>343.0</ele>
  <time>2026-08-27T18:32:17Z</time>
  <course>201.62</course>
  <speed>0.9832598842625484</speed>
  <fix>3d</fix>
</trkpt>
<trkpt lat="-27.274439" lon="151.290064">
  <ele>343.0</ele>
  <time>2026-08-27T18:32:17Z</time>
  <course>0.0</course>
  <speed>0.0</speed>
  <fix>3d</fix>
</trkpt>
<trkpt lat="-27.274439" lon="151.290064">
  <ele>343.0</ele>
  <time>2026-08-27T18:32:17Z</time>
  <course>182.03</course>
  <speed>0.9000555538409837</speed>
  <fix>3d</fix>
</trkpt>
<trkpt lat="-27.274439" lon="151.290064">
  <ele>343.0</ele>
  <time>2026-08-27T18:32:17Z</time>
  <course>0.0</course>
  <speed>0.0</speed>
  <fix>3d</fix>
</trkpt>
<trkpt lat="-27.274439" lon="151.290064">
  <ele>343.0</ele>
  <time>2026-08-27T18:32:17Z</time>
  <course>172.16</course>
  <speed>0.8209750300709517</speed>
  <fix>3d</fix>
</trkpt>
<trkpt lat="-27.274439" lon="151.290064">
  <ele>343.0</ele>
  <time>2026-08-27T18:32:17Z</time>
  <course>0.0</course>
  <speed>0.0</speed>
  <fix>3d</fix>
</trkpt>
<trkpt lat="-27.274439" lon="151.290064">
  <ele>343.0</ele>
  <time>2026-08-27T18:32:17Z</time>
  <course>162.31</course>
  <speed>0.7752418977325722</speed>
  <fix>3d</fix>
</trkpt>
<trkpt lat="-27.274439" lon="151.290064">
  <ele>343.0</ele>
  <time>2026-08-27T18:32:17Z</time>
  <course>0.0</course>
  <speed>0.0</speed>
  <fix>3d</fix>
</trkpt>
<trkpt lat="-27.274439" lon="151.290064">
  <ele>343.0</ele>
  <time>2026-08-27T18:32:17Z</time>
  <course>152.45</course>
  <speed>0.71386273190299</speed>
  <fix>3d</fix>
</trkpt>
<trkpt lat="-27.274439" lon="151.290064">
  <ele>343.0</ele>
  <time>2026-08-27T18:32:17Z</time>
  <course>0.0</course>
  <speed>0.0</speed>
  <fix>3d</fix>
</trkpt>
<trkpt lat="-27.274439" lon="151.290064">
  <ele>343.0</ele>
  <time>2026-08-27T18:32:17Z</time>
  <course>142.58</course>
  <speed>0.648459713474939</speed>
  <fix>3d</fix>
</trkpt>
<trkpt lat="-27.274439" lon="151.290064">
  <ele>343.0</ele>
  <time>2026-08-27T18:32:17Z</time>
  <course>0.0</course>
  <speed>0.0</speed>
  <fix>3d</fix>
</trkpt>
<trkpt lat="-27.274439" lon="151.290064">
  <ele>343.0</ele>
  <time>2026-08-27T18:32:17Z</time>
  <course>132.72</course>
  <speed>0.5869412236331676</speed>
  <fix>3d</fix>
</trkpt>
<trkpt lat="-27.274439" lon="151.290064">
  <ele>343.0</ele>
  <time>2026-08-27T18:32:17Z</time>
  <course>0.0</course>
  <speed>0.0</speed>
  <fix>3d</fix>
</trkpt>
<trkpt lat="-27.274439" lon="151.290064">
  <ele>343.0</ele>
  <time>2026-08-27T18:32:17Z</time>
  <course>122.87</course>
  <speed>0.4939635614091387</speed>
  <fix>3d</fix>
</trkpt>
<trkpt lat="-27.274439" lon="151.290064">
  <ele>343.0</ele>
  <time>2026-08-27T18:32:17Z</time>
  <course>0.0</course>
  <speed>0.0</speed>
  <fix>3d</fix>
</trkpt>
<trkpt lat="-27.274439" lon="151.290064">
  <ele>343.0</ele>
  <time>2026-08-27T18:32:17Z</time>
  <course>113.08</course>
  <speed>0.223606797749979</speed>
  <fix>3d</fix>
</trkpt>
<trkpt lat="-27.274439" lon="151.290064">
  <ele>343.0</ele>
  <time>2026-08-27T18:32:17Z</time>
  <course>0.0</course>
  <speed>0.0</speed>
  <fix>3d</fix>
</trkpt>
<trkpt lat="-27.274439" lon="151.290064">
  <ele>343.0</ele>
  <time>2026-08-27T18:32:17Z</time>
  <course>103.27</course>
  <speed>0.11401754250991379</speed>
  <fix>3d</fix>
</trkpt>
<trkpt lat="-27.274439" lon="151.290064">
  <ele>343.0</ele>
  <time>2026-08-27T18:32:17Z</time>
  <course>0.0</course>
  <speed>0.0</speed>
  <fix>3d</fix>
</trkpt>
<trkpt lat="-27.274439" lon="151.290064">
  <ele>343.0</ele>
  <time>2026-08-27T18:32:17Z</time>
  <course>93.52</course>
  <speed>0.13</speed>
  <fix>3d</fix>
</trkpt>
<trkpt lat="-27.274439" lon="151.290064">
  <ele>343.0</ele>
  <time>2026-08-27T18:32:17Z</time>
  <course>0.0</course>
  <speed>0.0</speed>
  <fix>3d</fix>
</trkpt>
<trkpt lat="-27.274439" lon="151.290064">
  <ele>343.0</ele>
  <time>2026-08-27T18:32:17Z</time>
  <course>83.72</course>
  <speed>0.17262676501632068</speed>
  <fix>3d</fix>
</trkpt>
<trkpt lat="-27.274439" lon="151.290064">
  <ele>343.0</ele>
  <time>2026-08-27T18:32:17Z</time>
  <course>0.0</course>
  <speed>0.0</speed>
  <fix>3d</fix>
</trkpt>
<trkpt lat="-27.274439" lon="151.290064">
  <ele>343.0</ele>
  <time>2026-08-27T18:32:17Z</time>
  <course>325.88</course>
  <speed>0.0</speed>
  <fix>3d</fix>
</trkpt>
<trkpt lat="-27.274439" lon="151.290064">
  <ele>343.0</ele>
  <time>2026-08-27T18:32:17Z</time>
  <course>324.43</course>
  <speed>0.0</speed>
  <fix>3d</fix>
</trkpt>
<trkpt lat="-27.274439" lon="151.290064">
  <ele>343.0</ele>
  <time>2026-08-27T18:32:17Z</time>
  <course>321.86</course>
  <speed>0.0</speed>
  <fix>3d</fix>
</trkpt>
<trkpt lat="-27.274439" lon="151.290064">
  <ele>343.0</ele>
  <time>2026-08-27T18:32:17Z</time>
  <course>295.0</course>
  <speed>0.0</speed>
  <fix>3d</fix>
</trkpt>
<trkpt lat="-27.274439" lon="151.290064">
  <ele>343.0</ele>
  <time>2026-08-27T18:32:17Z</time>
  <course>290.72</course>
  <speed>0.0</speed>
  <fix>3d</fix>
</trkpt>
<trkpt lat="-27.274439" lon="151.290064">
  <ele>343.0</ele>
  <time>2026-08-27T18:32:17Z</time>
  <course>284.84</course>
  <speed>0.0</speed>
  <fix>3d</fix>
</trkpt>
<trkpt lat="-27.274439" lon="151.290064">
  <ele>343.0</ele>
  <time>2026-08-27T18:32:17Z</time>
  <course>277.79</course>
  <speed>0.0</speed>
  <fix>3d</fix>
</trkpt>
<trkpt lat="-27.274439" lon="151.290064">
  <ele>343.0</ele>
  <time>2026-08-27T18:32:17Z</time>
  <course>269.55</course>
  <speed>0.0</speed>
  <fix>3d</fix>
</trkpt>
<trkpt lat="-27.274439" lon="151.290064">
  <ele>343.0</ele>
  <time>2026-08-27T18:32:17Z</time>
  <course>262.16</course>
  <speed>0.9176055797563569</speed>
  <fix>3d</fix>
</trkpt>
<trkpt lat="-27.274439" lon="151.290064">
  <ele>343.0</ele>
  <time>2026-08-27T18:32:17Z</time>
  <course>0.0</course>
  <speed>0.0</speed>
  <fix>3d</fix>
</trkpt>
<trkpt lat="-27.274439" lon="151.290064">
  <ele>343.0</ele>
  <time>2026-08-27T18:32:17Z</time>
  <course>256.87</course>
  <speed>0.17029386365926402</speed>
  <fix>3d</fix>
</trkpt>
<trkpt lat="-27.274439" lon="151.290064">
  <ele>343.0</ele>
  <time>2026-08-27T18:32:17Z</time>
  <course>0.0</course>
  <speed>0.0</speed>
  <fix>3d</fix>
</trkpt>
<trkpt lat="-27.274439" lon="151.290064">
  <ele>343.0</ele>
  <time>2026-08-27T18:32:17Z</time>
  <course>250.25</course>
  <speed>0.1118033988749895</speed>
  <fix>3d</fix>
</trkpt>
<trkpt lat="-27.274439" lon="151.290064">
  <ele>343.0</ele>
  <time>2026-08-27T18:32:17Z</time>
  <course>0.0</course>
  <speed>0.0</speed>
  <fix>3d</fix>
</trkpt>
<trkpt lat="-27.274439" lon="151.290064">
  <ele>343.0</ele>
  <time>2026-08-27T18:32:18Z</time>
  <course>242.42</course>
  <speed>0.0854400374531753</speed>
  <fix>3d</fix>
</trkpt>
<trkpt lat="-27.274439" lon="151.290064">
  <ele>343.0</ele>
  <time>2026-08-27T18:32:18Z</time>
  <course>0.0</course>
  <speed>0.0</speed>
  <fix>3d</fix>
</trkpt>
<trkpt lat="-27.274439" lon="151.290064">
  <ele>343.0</ele>
  <time>2026-08-27T18:32:18Z</time>
  <course>233.82</course>
  <speed>0.044721359549995794</speed>
  <fix>3d</fix>
</trkpt>
<trkpt lat="-27.274439" lon="151.290064">
  <ele>343.0</ele>
  <time>2026-08-27T18:32:18Z</time>
  <course>0.0</course>
  <speed>0.0</speed>
  <fix>3d</fix>
</trkpt>
<trkpt lat="-27.274439" lon="151.290064">
  <ele>343.0</ele>
  <time>2026-08-27T18:32:18Z</time>
  <course>325.88</course>
  <speed>0.0</speed>
  <fix>3d</fix>
</trkpt>
<trkpt lat="-27.274439" lon="151.290064">
  <ele>343.0</ele>
  <time>2026-08-27T18:32:18Z</time>
  <course>324.43</course>
  <speed>0.0</speed>
  <fix>3d</fix>
</trkpt>
<trkpt lat="-27.274439" lon="151.290064">
  <ele>343.0</ele>
  <time>2026-08-27T18:32:18Z</time>
  <course>321.86</course>
  <speed>0.0</speed>
  <fix>3d</fix>
</trkpt>
<trkpt lat="-27.274439" lon="151.290064">
  <ele>343.0</ele>
  <time>2026-08-27T18:32:18Z</time>
  <course>295.0</course>
  <speed>0.0</speed>
  <fix>3d</fix>
</trkpt>
<trkpt lat="-27.274439" lon="151.290064">
  <ele>343.0</ele>
  <time>2026-08-27T18:32:18Z</time>
  <course>290.72</course>
  <speed>0.0</speed>
  <fix>3d</fix>
</trkpt>
<trkpt lat="-27.274439" lon="151.290064">
  <ele>343.0</ele>
  <time>2026-08-27T18:32:18Z</time>
  <course>284.84</course>
  <speed>0.0</speed>
  <fix>3d</fix>
</trkpt>
<trkpt lat="-27.274439" lon="151.290064">
  <ele>343.0</ele>
  <time>2026-08-27T18:32:18Z</time>
  <course>277.79</course>
  <speed>0.0</speed>
  <fix>3d</fix>
</trkpt>
<trkpt lat="-27.274439" lon="151.290064">
  <ele>343.0</ele>
  <time>2026-08-27T18:32:18Z</time>
  <course>269.55</course>
  <speed>0.0</speed>
  <fix>3d</fix>
</trkpt>
<trkpt lat="-27.274439" lon="151.290064">
  <ele>343.0</ele>
  <time>2026-08-27T18:32:18Z</time>
  <course>256.4</course>
  <speed>0.9403190947758107</speed>
  <fix>3d</fix>
</trkpt>
<trkpt lat="-27.274439" lon="151.290064">
  <ele>343.0</ele>
  <time>2026-08-27T18:32:18Z</time>
  <course>0.0</course>
  <speed>0.0</speed>
  <fix>3d</fix>
</trkpt>
<trkpt lat="-27.274439" lon="151.290064">
  <ele>343.0</ele>
  <time>2026-08-27T18:32:18Z</time>
  <course>249.45</course>
  <speed>0.756042326857432</speed>
  <fix>3d</fix>
</trkpt>
<trkpt lat="-27.274439" lon="151.290064">
  <ele>343.0</ele>
  <time>2026-08-27T18:32:18Z</time>
  <course>0.0</course>
  <speed>0.0</speed>
  <fix>3d</fix>
</trkpt>
<trkpt lat="-27.274439" lon="151.290064">
  <ele>343.0</ele>
  <time>2026-08-27T18:32:18Z</time>
  <course>241.79</course>
  <speed>0.6596969000988256</speed>
  <fix>3d</fix>
</trkpt>
<trkpt lat="-27.274439" lon="151.290064">
  <ele>343.0</ele>
  <time>2026-08-27T18:32:18Z</time>
  <course>0.0</course>
  <speed>0.0</speed>
  <fix>3d</fix>
</trkpt>
<trkpt lat="-27.274439" lon="151.290064">
  <ele>343.0</ele>
  <time>2026-08-27T18:32:18Z</time>
  <course>233.59</course>
  <speed>0.6618912297349165</speed>
  <fix>3d</fix>
</trkpt>
<trkpt lat="-27.274439" lon="151.290064">
  <ele>343.0</ele>
  <time>2026-08-27T18:32:18Z</time>
  <course>0.0</course>
  <speed>0.0</speed>
  <fix>3d</fix>
</trkpt>
<trkpt lat="-27.274439" lon="151.290064">
  <ele>343.0</ele>
  <time>2026-08-27T18:32:18Z</time>
  <course>225.02</course>
  <speed>0.7034202158027589</speed>
  <fix>3d</fix>
</trkpt>
<trkpt lat="-27.274439" lon="151.290064">
  <ele>343.0</ele>
  <time>2026-08-27T18:32:18Z</time>
  <course>0.0</course>
  <speed>0.0</speed>
  <fix>3d</fix>
</trkpt>
<trkpt lat="-27.274439" lon="151.290064">
  <ele>343.0</ele>
  <time>2026-08-27T18:32:18Z</time>
  <course>216.17</course>
  <speed>0.7539230729988305</speed>
  <fix>3d</fix>
</trkpt>
<trkpt lat="-27.274439" lon="151.290064">
  <ele>343.0</ele>
  <time>2026-08-27T18:32:18Z</time>
  <course>0.0</course>
  <speed>0.0</speed>
  <fix>3d</fix>
</trkpt>
<trkpt lat="-27.274439" lon="151.290064">
  <ele>343.0</ele>
  <time>2026-08-27T18:32:23Z</time>
  <course>207.13</course>
  <speed>0.8052949770115296</speed>
  <fix>3d</fix>
</trkpt>
<trkpt lat="-27.274439" lon="151.290064">
  <ele>343.0</ele>
  <time>2026-08-27T18:32:23Z</time>
  <course>0.0</course>
  <speed>0.0</speed>
  <fix>3d</fix>
</trkpt>
<trkpt lat="-27.274439" lon="151.290064">
  <ele>343.0</ele>
  <time>2026-08-27T18:32:23Z</time>
  <course>197.95</course>
  <speed>0.8453401682163222</speed>
  <fix>3d</fix>
</trkpt>
<trkpt lat="-27.274439" lon="151.290064">
  <ele>343.0</ele>
  <time>2026-08-27T18:32:23Z</time>
  <course>0.0</course>
  <speed>0.0</speed>
  <fix>3d</fix>
</trkpt>
<trkpt lat="-27.274439" lon="151.290064">
  <ele>343.0</ele>
  <time>2026-08-27T18:32:23Z</time>
  <course>188.67</course>
  <speed>0.878179936004006</speed>
  <fix>3d</fix>
</trkpt>
<trkpt lat="-27.274439" lon="151.290064">
  <ele>343.0</ele>
  <time>2026-08-27T18:32:23Z</time>
  <course>0.0</course>
  <speed>0.0</speed>
  <fix>3d</fix>
</trkpt>
<trkpt lat="-27.274439" lon="151.290064">
  <ele>343.0</ele>
  <time>2026-08-27T18:32:23Z</time>
  <course>179.31</course>
  <speed>0.8848163651289458</speed>
  <fix>3d</fix>
</trkpt>
<trkpt lat="-27.274439" lon="151.290064">
  <ele>343.0</ele>
  <time>2026-08-27T18:32:23Z</time>
  <course>0.0</course>
  <speed>0.0</speed>
  <fix>3d</fix>
</trkpt>
<trkpt lat="-27.274439" lon="151.290064">
  <ele>343.0</ele>
  <time>2026-08-27T18:32:23Z</time>
  <course>169.93</course>
  <speed>0.9140021881811882</speed>
  <fix>3d</fix>
</trkpt>
<trkpt lat="-27.274439" lon="151.290064">
  <ele>343.0</ele>
  <time>2026-08-27T18:32:23Z</time>
  <course>0.0</course>
  <speed>0.0</speed>
  <fix>3d</fix>
</trkpt>
<trkpt lat="-27.274439" lon="151.290064">
  <ele>343.0</ele>
  <time>2026-08-27T18:32:23Z</time>
  <course>161.9</course>
  <speed>0.9219544457292888</speed>
  <fix>3d</fix>
</trkpt>
<trkpt lat="-27.274439" lon="151.290064">
  <ele>343.0</ele>
  <time>2026-08-27T18:32:23Z</time>
  <course>0.0</course>
  <speed>0.0</speed>
  <fix>3d</fix>
</trkpt>
<trkpt lat="-27.274439" lon="151.290064">
  <ele>343.0</ele>
  <time>2026-08-27T18:32:23Z</time>
  <course>158.55</course>
  <speed>0.9411163583744573</speed>
  <fix>3d</fix>
</trkpt>
<trkpt lat="-27.274439" lon="151.290064">
  <ele>343.0</ele>
  <time>2026-08-27T18:32:23Z</time>
  <course>0.0</course>
  <speed>0.0</speed>
  <fix>3d</fix>
</trkpt>
<trkpt lat="-27.274439" lon="151.290064">
  <ele>343.0</ele>
  <time>2026-08-27T18:32:23Z</time>
  <course>157.2</course>
  <speed>0.9546203433826455</speed>
  <fix>3d</fix>
</trkpt>
<trkpt lat="-27.274439" lon="151.290064">
  <ele>343.0</ele>
  <time>2026-08-27T18:32:23Z</time>
  <course>0.0</course>
  <speed>0.0</speed>
  <fix>3d</fix>
</trkpt>
<trkpt lat="-27.274439" lon="151.290064">
  <ele>343.0</ele>
  <time>2026-08-27T18:32:23Z</time>
  <course>156.57</course>
  <speed>0.9642613753542137</speed>
  <fix>3d</fix>
</trkpt>
<trkpt lat="-27.274439" lon="151.290064">
  <ele>343.0</ele>
  <time>2026-08-27T18:32:23Z</time>
  <course>0.0</course>
  <speed>0.0</speed>
  <fix>3d</fix>
</trkpt>
<trkpt lat="-27.274439" lon="151.290064">
  <ele>343.0</ele>
  <time>2026-08-27T18:32:23Z</time>
  <course>156.21</course>
  <speed>0.9602083107326242</speed>
  <fix>3d</fix>
</trkpt>
<trkpt lat="-27.274439" lon="151.290064">
  <ele>343.0</ele>
  <time>2026-08-27T18:32:23Z</time>
  <course>0.0</course>
  <speed>0.0</speed>
  <fix>3d</fix>
</trkpt>
<trkpt lat="-27.274439" lon="151.290064">
  <ele>343.0</ele>
  <time>2026-08-27T18:32:23Z</time>
  <course>155.95</course>
  <speed>0.9689685237405805</speed>
  <fix>3d</fix>
</trkpt>
<trkpt lat="-27.274439" lon="151.290064">
  <ele>343.0</ele>
  <time>2026-08-27T18:32:23Z</time>
  <course>0.0</course>
  <speed>0.0</speed>
  <fix>3d</fix>
</trkpt>
<trkpt lat="-27.274439" lon="151.290064">
  <ele>343.0</ele>
  <time>2026-08-27T18:32:23Z</time>
  <course>155.71</course>
  <speed>0.9800510190801294</speed>
  <fix>3d</fix>
</trkpt>
<trkpt lat="-27.274439" lon="151.290064">
  <ele>343.0</ele>
  <time>2026-08-27T18:32:23Z</time>
  <course>0.0</course>
  <speed>0.0</speed>
  <fix>3d</fix>
</trkpt>
<trkpt lat="-27.274439" lon="151.290064">
  <ele>343.0</ele>
  <time>2026-08-27T18:32:23Z</time>
  <course>155.49</course>
  <speed>0.9972963451251589</speed>
  <fix>3d</fix>
</trkpt>
<trkpt lat="-27.274439" lon="151.290064">
  <ele>343.0</ele>
  <time>2026-08-27T18:32:23Z</time>
  <course>0.0</course>
  <speed>0.0</speed>
  <fix>3d</fix>
</trkpt>
<trkpt lat="-27.274439" lon="151.290064">
  <ele>343.0</ele>
  <time>2026-08-27T18:32:23Z</time>
  <course>155.27</course>
  <speed>1.0113357503816425</speed>
  <fix>3d</fix>
</trkpt>
<trkpt lat="-27.274439" lon="151.290064">
  <ele>343.0</ele>
  <time>2026-08-27T18:32:23Z</time>
  <course>0.0</course>
  <speed>0.0</speed>
  <fix>3d</fix>
</trkpt>
<trkpt lat="-27.274439" lon="151.290064">
  <ele>343.0</ele>
  <time>2026-08-27T18:32:23Z</time>
  <course>155.07</course>
  <speed>1.010198000393982</speed>
  <fix>3d</fix>
</trkpt>
<trkpt lat="-27.274439" lon="151.290064">
  <ele>343.0</ele>
  <time>2026-08-27T18:32:23Z</time>
  <course>0.0</course>
  <speed>0.0</speed>
  <fix>3d</fix>
</trkpt>
<trkpt lat="-27.274439" lon="151.290064">
  <ele>343.0</ele>
  <time>2026-08-27T18:32:23Z</time>
  <course>154.88</course>
  <speed>0.9962429422585637</speed>
  <fix>3d</fix>
</trkpt>
<trkpt lat="-27.274439" lon="151.290064">
  <ele>343.0</ele>
  <time>2026-08-27T18:32:23Z</time>
  <course>0.0</course>
  <speed>0.0</speed>
  <fix>3d</fix>
</trkpt>
<trkpt lat="-27.274439" lon="151.290064">
  <ele>343.0</ele>
  <time>2026-08-27T18:32:23Z</time>
  <course>154.68</course>
  <speed>0.9751410154434076</speed>
  <fix>3d</fix>
</trkpt>
<trkpt lat="-27.274439" lon="151.290064">
  <ele>343.0</ele>
  <time>2026-08-27T18:32:23Z</time>
  <course>0.0</course>
  <speed>0.0</speed>
  <fix>3d</fix>
</trkpt>
<trkpt lat="-27.274439" lon="151.290064">
  <ele>343.0</ele>
  <time>2026-08-27T18:32:23Z</time>
  <course>154.49</course>
  <speed>0.951892851112981</speed>
  <fix>3d</fix>
</trkpt>
<trkpt lat="-27.274439" lon="151.290064">
  <ele>343.0</ele>
  <time>2026-08-27T18:32:23Z</time>
  <course>0.0</course>
  <speed>0.0</speed>
  <fix>3d</fix>
</trkpt>
<trkpt lat="-27.274439" lon="151.290064">
  <ele>343.0</ele>
  <time>2026-08-27T18:32:23Z</time>
  <course>154.29</course>
  <speed>0.9243916918709297</speed>
  <fix>3d</fix>
</trkpt>
<trkpt lat="-27.274439" lon="151.290064">
  <ele>343.0</ele>
  <time>2026-08-27T18:32:23Z</time>
  <course>0.0</course>
  <speed>0.0</speed>
  <fix>3d</fix>
</trkpt>
<trkpt lat="-27.274439" lon="151.290064">
  <ele>343.0</ele>
  <time>2026-08-27T18:32:23Z</time>
  <course>154.09</course>
  <speed>0.8900561780022652</speed>
  <fix>3d</fix>
</trkpt>
<trkpt lat="-27.274439" lon="151.290064">
  <ele>343.0</ele>
  <time>2026-08-27T18:32:23Z</time>
  <course>0.0</course>
  <speed>0.0</speed>
  <fix>3d</fix>
</trkpt>
<trkpt lat="-27.274439" lon="151.290064">
  <ele>343.0</ele>
  <time>2026-08-27T18:32:23Z</time>
  <course>153.88</course>
  <speed>0.8514693182963201</speed>
  <fix>3d</fix>
</trkpt>
<trkpt lat="-27.274439" lon="151.290064">
  <ele>343.0</ele>
  <time>2026-08-27T18:32:23Z</time>
  <course>0.0</course>
  <speed>0.0</speed>
  <fix>3d</fix>
</trkpt>
<trkpt lat="-27.274439" lon="151.290064">
  <ele>343.0</ele>
  <time>2026-08-27T18:32:23Z</time>
  <course>153.67</course>
  <speed>0.8174350127074322</speed>
  <fix>3d</fix>
</trkpt>
<trkpt lat="-27.274439" lon="151.290064">
  <ele>343.0</ele>
  <time>2026-08-27T18:32:23Z</time>
  <course>0.0</course>
  <speed>0.0</speed>
  <fix>3d</fix>
</trkpt>
<trkpt lat="-27.274439" lon="151.290064">
  <ele>343.0</ele>
  <time>2026-08-27T18:32:23Z</time>
  <course>153.46</course>
  <speed>0.7962411694957753</speed>
  <fix>3d</fix>
</trkpt>
<trkpt lat="-27.274439" lon="151.290064">
  <ele>343.0</ele>
  <time>2026-08-27T18:32:23Z</time>
  <course>0.0</course>
  <speed>0.0</speed>
  <fix>3d</fix>
</trkpt>
<trkpt lat="-27.274439" lon="151.290064">
  <ele>343.0</ele>
  <time>2026-08-27T18:32:23Z</time>
  <course>153.24</course>
  <speed>0.7569015788066504</speed>
  <fix>3d</fix>
</trkpt>
<trkpt lat="-27.274439" lon="151.290064">
  <ele>343.0</ele>
  <time>2026-08-27T18:32:23Z</time>
  <course>0.0</course>
  <speed>0.0</speed>
  <fix>3d</fix>
</trkpt>
<trkpt lat="-27.274439" lon="151.2900646">
  <ele>343.04</ele>
  <time>2026-08-27T18:32:23Z</time>
  <course>153.03</course>
  <speed>0.0</speed>
  <fix>3d</fix>
</trkpt>
<trkpt lat="-27.274439" lon="151.290064">
  <ele>343.0</ele>
  <time>2026-08-27T18:32:23Z</time>
  <course>0.0</course>
  <speed>0.0</speed>
  <fix>3d</fix>
</trkpt>
<trkpt lat="-27.2744392" lon="151.2900653">
  <ele>343.03</ele>
  <time>2026-08-27T18:32:23Z</time>
  <course>152.83</course>
  <speed>0.0848528137423857</speed>
  <fix>3d</fix>
</trkpt>
<trkpt lat="-27.274439" lon="151.290064">
  <ele>343.0</ele>
  <time>2026-08-27T18:32:23Z</time>
  <course>0.0</course>
  <speed>0.0</speed>
  <fix>3d</fix>
</trkpt>
<trkpt lat="-27.2744393" lon="151.2900645">
  <ele>343.02</ele>
  <time>2026-08-27T18:32:23Z</time>
  <course>152.57</course>
  <speed>0.08602325267042626</speed>
  <fix>3d</fix>
</trkpt>
<trkpt lat="-27.274439" lon="151.290064">
  <ele>343.0</ele>
  <time>2026-08-27T18:32:23Z</time>
  <course>0.0</course>
  <speed>0.0</speed>
  <fix>3d</fix>
</trkpt>
<trkpt lat="-27.2744392" lon="151.2900642">
  <ele>343.03</ele>
  <time>2026-08-27T18:32:23Z</time>
  <course>152.29</course>
  <speed>0.05830951894845301</speed>
  <fix>3d</fix>
</trkpt>
<trkpt lat="-27.274439" lon="151.290064">
  <ele>343.0</ele>
  <time>2026-08-27T18:32:23Z</time>
  <course>0.0</course>
  <speed>0.0</speed>
  <fix>3d</fix>
</trkpt>
<trkpt lat="-27.2744391" lon="151.2900641">
  <ele>343.06</ele>
  <time>2026-08-27T18:32:23Z</time>
  <course>152.03</course>
  <speed>0.02</speed>
  <fix>3d</fix>
</trkpt>
<trkpt lat="-27.274439" lon="151.290064">
  <ele>343.0</ele>
  <time>2026-08-27T18:32:23Z</time>
  <course>0.0</course>
  <speed>0.0</speed>
  <fix>3d</fix>
</trkpt>
<trkpt lat="-27.274439" lon="151.290064">
  <ele>343.05</ele>
  <time>2026-08-27T18:32:23Z</time>
  <course>151.79</course>
  <speed>0.01</speed>
  <fix>3d</fix>
</trkpt>
<trkpt lat="-27.274439" lon="151.290064">
  <ele>343.0</ele>
  <time>2026-08-27T18:32:23Z</time>
  <course>0.0</course>
  <speed>0.0</speed>
  <fix>3d</fix>
</trkpt>
<trkpt lat="-27.274439" lon="151.290064">
  <ele>343.04</ele>
  <time>2026-08-27T18:32:23Z</time>
  <course>151.57</course>
  <speed>0.01414213562373095</speed>
  <fix>3d</fix>
</trkpt>
<trkpt lat="-27.274439" lon="151.290064">
  <ele>343.0</ele>
  <time>2026-08-27T18:32:23Z</time>
  <course>0.0</course>
  <speed>0.0</speed>
  <fix>3d</fix>
</trkpt>
<trkpt lat="-27.2744389" lon="151.2900639">
  <ele>343.04</ele>
  <time>2026-08-27T18:32:23Z</time>
  <course>151.37</course>
  <speed>0.01414213562373095</speed>
  <fix>3d</fix>
</trkpt>
<trkpt lat="-27.274439" lon="151.290064">
  <ele>343.0</ele>
  <time>2026-08-27T18:32:23Z</time>
  <course>0.0</course>
  <speed>0.0</speed>
  <fix>3d</fix>
</trkpt>
<trkpt lat="-27.2744389" lon="151.2900638">
  <ele>343.05</ele>
  <time>2026-08-27T18:32:23Z</time>
  <course>151.18</course>
  <speed>0.0282842712474619</speed>
  <fix>3d</fix>
</trkpt>
<trkpt lat="-27.274439" lon="151.290064">
  <ele>343.0</ele>
  <time>2026-08-27T18:32:23Z</time>
  <course>0.0</course>
  <speed>0.0</speed>
  <fix>3d</fix>
</trkpt>
<trkpt lat="-27.2744389" lon="151.2900638">
  <ele>343.06</ele>
  <time>2026-08-27T18:32:23Z</time>
  <course>151.01</course>
  <speed>0.0282842712474619</speed>
  <fix>3d</fix>
</trkpt>
<trkpt lat="-27.274439" lon="151.290064">
  <ele>343.0</ele>
  <time>2026-08-27T18:32:23Z</time>
  <course>0.0</course>
  <speed>0.0</speed>
  <fix>3d</fix>
</trkpt>
<trkpt lat="-27.2744389" lon="151.2900638">
  <ele>343.03</ele>
  <time>2026-08-27T18:32:23Z</time>
  <course>150.84</course>
  <speed>0.0282842712474619</speed>
  <fix>3d</fix>
</trkpt>
<trkpt lat="-27.274439" lon="151.290064">
  <ele>343.0</ele>
  <time>2026-08-27T18:32:23Z</time>
  <course>0.0</course>
  <speed>0.0</speed>
  <fix>3d</fix>
</trkpt>
<trkpt lat="-27.2744389" lon="151.2900638">
  <ele>343.04</ele>
  <time>2026-08-27T18:32:23Z</time>
  <course>150.68</course>
  <speed>0.0282842712474619</speed>
  <fix>3d</fix>
</trkpt>
<trkpt lat="-27.274439" lon="151.290064">
  <ele>343.0</ele>
  <time>2026-08-27T18:32:23Z</time>
  <course>0.0</course>
  <speed>0.0</speed>
  <fix>3d</fix>
</trkpt>
<trkpt lat="-27.2744389" lon="151.2900638">
  <ele>343.03</ele>
  <time>2026-08-27T18:32:23Z</time>
  <course>150.52</course>
  <speed>0.022360679774997897</speed>
  <fix>3d</fix>
</trkpt>
<trkpt lat="-27.274439" lon="151.290064">
  <ele>343.0</ele>
  <time>2026-08-27T18:32:23Z</time>
  <course>0.0</course>
  <speed>0.0</speed>
  <fix>3d</fix>
</trkpt>
<trkpt lat="-27.2744389" lon="151.2900638">
  <ele>343.04</ele>
  <time>2026-08-27T18:32:23Z</time>
  <course>150.38</course>
  <speed>0.022360679774997897</speed>
  <fix>3d</fix>
</trkpt>
<trkpt lat="-27.274439" lon="151.290064">
  <ele>343.0</ele>
  <time>2026-08-27T18:32:23Z</time>
  <course>0.0</course>
  <speed>0.0</speed>
  <fix>3d</fix>
</trkpt>
<trkpt lat="-27.2744389" lon="151.2900638">
  <ele>343.03</ele>
  <time>2026-08-27T18:32:23Z</time>
  <course>150.24</course>
  <speed>0.022360679774997897</speed>
  <fix>3d</fix>
</trkpt>
<trkpt lat="-27.274439" lon="151.290064">
  <ele>343.0</ele>
  <time>2026-08-27T18:32:23Z</time>
  <course>0.0</course>
  <speed>0.0</speed>
  <fix>3d</fix>
</trkpt>
<trkpt lat="-27.2744389" lon="151.2900638">
  <ele>343.02</ele>
  <time>2026-08-27T18:32:23Z</time>
  <course>150.11</course>
  <speed>0.022360679774997897</speed>
  <fix>3d</fix>
</trkpt>
<trkpt lat="-27.274439" lon="151.290064">
  <ele>343.0</ele>
  <time>2026-08-27T18:32:23Z</time>
  <course>0.0</course>
  <speed>0.0</speed>
  <fix>3d</fix>
</trkpt>
<trkpt lat="-27.2744389" lon="151.2900638">
  <ele>343.0</ele>
  <time>2026-08-27T18:32:23Z</time>
  <course>149.98</course>
  <speed>0.022360679774997897</speed>
  <fix>3d</fix>
</trkpt>
<trkpt lat="-27.274439" lon="151.290064">
  <ele>343.0</ele>
  <time>2026-08-27T18:32:23Z</time>
  <course>0.0</course>
  <speed>0.0</speed>
  <fix>3d</fix>
</trkpt>
<trkpt lat="-27.2744389" lon="151.2900638">
  <ele>343.01</ele>
  <time>2026-08-27T18:32:23Z</time>
  <course>149.86</course>
  <speed>0.022360679774997897</speed>
  <fix>3d</fix>
</trkpt>
<trkpt lat="-27.274439" lon="151.290064">
  <ele>343.0</ele>
  <time>2026-08-27T18:32:23Z</time>
  <course>0.0</course>
  <speed>0.0</speed>
  <fix>3d</fix>
</trkpt>
<trkpt lat="-27.2744389" lon="151.2900638">
  <ele>343.04</ele>
  <time>2026-08-27T18:32:23Z</time>
  <course>149.75</course>
  <speed>0.022360679774997897</speed>
  <fix>3d</fix>
</trkpt>
<trkpt lat="-27.274439" lon="151.290064">
  <ele>343.0</ele>
  <time>2026-08-27T18:32:23Z</time>
  <course>0.0</course>
  <speed>0.0</speed>
  <fix>3d</fix>
</trkpt>
<trkpt lat="-27.2744389" lon="151.2900638">
  <ele>343.04</ele>
  <time>2026-08-27T18:32:23Z</time>
  <course>149.64</course>
  <speed>0.022360679774997897</speed>
  <fix>3d</fix>
</trkpt>
<trkpt lat="-27.274439" lon="151.290064">
  <ele>343.0</ele>
  <time>2026-08-27T18:32:23Z</time>
  <course>0.0</course>
  <speed>0.0</speed>
  <fix>3d</fix>
</trkpt>
<trkpt lat="-27.2744389" lon="151.2900638">
  <ele>343.04</ele>
  <time>2026-08-27T18:32:23Z</time>
  <course>149.53</course>
  <speed>0.022360679774997897</speed>
  <fix>3d</fix>
</trkpt>
<trkpt lat="-27.274439" lon="151.290064">
  <ele>343.0</ele>
  <time>2026-08-27T18:32:23Z</time>
  <course>0.0</course>
  <speed>0.0</speed>
  <fix>3d</fix>
</trkpt>
<trkpt lat="-27.2744389" lon="151.2900638">
  <ele>343.04</ele>
  <time>2026-08-27T18:32:23Z</time>
  <course>149.44</course>
  <speed>0.022360679774997897</speed>
  <fix>3d</fix>
</trkpt>
<trkpt lat="-27.274439" lon="151.290064">
  <ele>343.0</ele>
  <time>2026-08-27T18:32:23Z</time>
  <course>0.0</course>
  <speed>0.0</speed>
  <fix>3d</fix>
</trkpt>
<trkpt lat="-27.2744389" lon="151.2900638">
  <ele>343.03</ele>
  <time>2026-08-27T18:32:23Z</time>
  <course>149.34</course>
  <speed>0.022360679774997897</speed>
  <fix>3d</fix>
</trkpt>
<trkpt lat="-27.274439" lon="151.290064">
  <ele>343.0</ele>
  <time>2026-08-27T18:32:23Z</time>
  <course>0.0</course>
  <speed>0.0</speed>
  <fix>3d</fix>
</trkpt>
<trkpt lat="-27.2744389" lon="151.2900638">
  <ele>343.02</ele>
  <time>2026-08-27T18:32:23Z</time>
  <course>149.25</course>
  <speed>0.022360679774997897</speed>
  <fix>3d</fix>
</trkpt>
<trkpt lat="-27.274439" lon="151.290064">
  <ele>343.0</ele>
  <time>2026-08-27T18:32:23Z</time>
  <course>0.0</course>
  <speed>0.0</speed>
  <fix>3d</fix>
</trkpt>
<trkpt lat="-27.2744389" lon="151.2900638">
  <ele>343.05</ele>
  <time>2026-08-27T18:32:23Z</time>
  <course>149.17</course>
  <speed>0.022360679774997897</speed>
  <fix>3d</fix>
</trkpt>
<trkpt lat="-27.274439" lon="151.290064">
  <ele>343.0</ele>
  <time>2026-08-27T18:32:23Z</time>
  <course>0.0</course>
  <speed>0.0</speed>
  <fix>3d</fix>
</trkpt>
<trkpt lat="-27.2744389" lon="151.2900638">
  <ele>343.04</ele>
  <time>2026-08-27T18:32:23Z</time>
  <course>149.09</course>
  <speed>0.02</speed>
  <fix>3d</fix>
</trkpt>
<trkpt lat="-27.274439" lon="151.290064">
  <ele>343.0</ele>
  <time>2026-08-27T18:32:23Z</time>
  <course>0.0</course>
  <speed>0.0</speed>
  <fix>3d</fix>
</trkpt>
<trkpt lat="-27.2744389" lon="151.2900638">
  <ele>343.05</ele>
  <time>2026-08-27T18:32:23Z</time>
  <course>149.01</course>
  <speed>0.022360679774997897</speed>
  <fix>3d</fix>
</trkpt>
<trkpt lat="-27.274439" lon="151.290064">
  <ele>343.0</ele>
  <time>2026-08-27T18:32:23Z</time>
  <course>0.0</course>
  <speed>0.0</speed>
  <fix>3d</fix>
</trkpt>
<trkpt lat="-27.2744389" lon="151.2900638">
  <ele>343.03</ele>
  <time>2026-08-27T18:32:23Z</time>
  <course>148.94</course>
  <speed>0.02</speed>
  <fix>3d</fix>
</trkpt>
<trkpt lat="-27.274439" lon="151.290064">
  <ele>343.0</ele>
  <time>2026-08-27T18:32:23Z</time>
  <course>0.0</course>
  <speed>0.0</speed>
  <fix>3d</fix>
</trkpt>
<trkpt lat="-27.2744389" lon="151.2900638">
  <ele>343.02</ele>
  <time>2026-08-27T18:32:23Z</time>
  <course>148.87</course>
  <speed>0.022360679774997897</speed>
  <fix>3d</fix>
</trkpt>
<trkpt lat="-27.274439" lon="151.290064">
  <ele>343.0</ele>
  <time>2026-08-27T18:32:23Z</time>
  <course>0.0</course>
  <speed>0.0</speed>
  <fix>3d</fix>
</trkpt>
<trkpt lat="-27.2744389" lon="151.2900638">
  <ele>343.02</ele>
  <time>2026-08-27T18:32:23Z</time>
  <course>148.8</course>
  <speed>0.02</speed>
  <fix>3d</fix>
</trkpt>
<trkpt lat="-27.274439" lon="151.290064">
  <ele>343.0</ele>
  <time>2026-08-27T18:32:23Z</time>
  <course>0.0</course>
  <speed>0.0</speed>
  <fix>3d</fix>
</trkpt>
<trkpt lat="-27.2744389" lon="151.2900638">
  <ele>343.02</ele>
  <time>2026-08-27T18:32:23Z</time>
  <course>148.74</course>
  <speed>0.02</speed>
  <fix>3d</fix>
</trkpt>
<trkpt lat="-27.274439" lon="151.290064">
  <ele>343.0</ele>
  <time>2026-08-27T18:32:23Z</time>
  <course>0.0</course>
  <speed>0.0</speed>
  <fix>3d</fix>
</trkpt>
<trkpt lat="-27.2744389" lon="151.2900638">
  <ele>343.0</ele>
  <time>2026-08-27T18:32:23Z</time>
  <course>148.67</course>
  <speed>0.02</speed>
  <fix>3d</fix>
</trkpt>
<trkpt lat="-27.274439" lon="151.290064">
  <ele>343.0</ele>
  <time>2026-08-27T18:32:23Z</time>
  <course>0.0</course>
  <speed>0.0</speed>
  <fix>3d</fix>
</trkpt>
<trkpt lat="-27.2744389" lon="151.2900638">
  <ele>343.0</ele>
  <time>2026-08-27T18:32:23Z</time>
  <course>148.62</course>
  <speed>0.02</speed>
  <fix>3d</fix>
</trkpt>
<trkpt lat="-27.274439" lon="151.290064">
  <ele>343.0</ele>
  <time>2026-08-27T18:32:23Z</time>
  <course>0.0</course>
  <speed>0.0</speed>
  <fix>3d</fix>
</trkpt>
<trkpt lat="-27.2744389" lon="151.2900638">
  <ele>343.01</ele>
  <time>2026-08-27T18:32:23Z</time>
  <course>148.56</course>
  <speed>0.02</speed>
  <fix>3d</fix>
</trkpt>
<trkpt lat="-27.274439" lon="151.290064">
  <ele>343.0</ele>
  <time>2026-08-27T18:32:23Z</time>
  <course>0.0</course>
  <speed>0.0</speed>
  <fix>3d</fix>
</trkpt>
<trkpt lat="-27.2744389" lon="151.2900638">
  <ele>342.99</ele>
  <time>2026-08-27T18:32:23Z</time>
  <course>148.51</course>
  <speed>0.02</speed>
  <fix>3d</fix>
</trkpt>
<trkpt lat="-27.274439" lon="151.290064">
  <ele>343.0</ele>
  <time>2026-08-27T18:32:23Z</time>
  <course>0.0</course>
  <speed>0.0</speed>
  <fix>3d</fix>
</trkpt>
<trkpt lat="-27.2744389" lon="151.2900638">
  <ele>342.99</ele>
  <time>2026-08-27T18:32:23Z</time>
  <course>148.46</course>
  <speed>0.02</speed>
  <fix>3d</fix>
</trkpt>
<trkpt lat="-27.274439" lon="151.290064">
  <ele>343.0</ele>
  <time>2026-08-27T18:32:23Z</time>
  <course>0.0</course>
  <speed>0.0</speed>
  <fix>3d</fix>
</trkpt>
<trkpt lat="-27.2744389" lon="151.2900638">
  <ele>342.99</ele>
  <time>2026-08-27T18:32:23Z</time>
  <course>148.41</course>
  <speed>0.02</speed>
  <fix>3d</fix>
</trkpt>
<trkpt lat="-27.274439" lon="151.290064">
  <ele>343.0</ele>
  <time>2026-08-27T18:32:23Z</time>
  <course>0.0</course>
  <speed>0.0</speed>
  <fix>3d</fix>
</trkpt>
<trkpt lat="-27.2744389" lon="151.2900638">
  <ele>343.01</ele>
  <time>2026-08-27T18:32:23Z</time>
  <course>148.36</course>
  <speed>0.02</speed>
  <fix>3d</fix>
</trkpt>
<trkpt lat="-27.274439" lon="151.290064">
  <ele>343.0</ele>
  <time>2026-08-27T18:32:23Z</time>
  <course>0.0</course>
  <speed>0.0</speed>
  <fix>3d</fix>
</trkpt>
<trkpt lat="-27.2744389" lon="151.2900638">
  <ele>343.01</ele>
  <time>2026-08-27T18:32:23Z</time>
  <course>148.32</course>
  <speed>0.02</speed>
  <fix>3d</fix>
</trkpt>
<trkpt lat="-27.274439" lon="151.290064">
  <ele>343.0</ele>
  <time>2026-08-27T18:32:23Z</time>
  <course>0.0</course>
  <speed>0.0</speed>
  <fix>3d</fix>
</trkpt>
<trkpt lat="-27.2744389" lon="151.2900638">
  <ele>343.02</ele>
  <time>2026-08-27T18:32:23Z</time>
  <course>148.27</course>
  <speed>0.02</speed>
  <fix>3d</fix>
</trkpt>
<trkpt lat="-27.274439" lon="151.290064">
  <ele>343.0</ele>
  <time>2026-08-27T18:32:23Z</time>
  <course>0.0</course>
  <speed>0.0</speed>
  <fix>3d</fix>
</trkpt>
<trkpt lat="-27.2744389" lon="151.2900638">
  <ele>343.01</ele>
  <time>2026-08-27T18:32:23Z</time>
  <course>148.23</course>
  <speed>0.02</speed>
  <fix>3d</fix>
</trkpt>
<trkpt lat="-27.274439" lon="151.290064">
  <ele>343.0</ele>
  <time>2026-08-27T18:32:23Z</time>
  <course>0.0</course>
  <speed>0.0</speed>
  <fix>3d</fix>
</trkpt>
<trkpt lat="-27.2744389" lon="151.2900638">
  <ele>343.02</ele>
  <time>2026-08-27T18:32:23Z</time>
  <course>148.19</course>
  <speed>0.02</speed>
  <fix>3d</fix>
</trkpt>
<trkpt lat="-27.274439" lon="151.290064">
  <ele>343.0</ele>
  <time>2026-08-27T18:32:23Z</time>
  <course>0.0</course>
  <speed>0.0</speed>
  <fix>3d</fix>
</trkpt>
<trkpt lat="-27.2744389" lon="151.2900638">
  <ele>343.05</ele>
  <time>2026-08-27T18:32:23Z</time>
  <course>148.15</course>
  <speed>0.02</speed>
  <fix>3d</fix>
</trkpt>
<trkpt lat="-27.274439" lon="151.290064">
  <ele>343.0</ele>
  <time>2026-08-27T18:32:23Z</time>
  <course>0.0</course>
  <speed>0.0</speed>
  <fix>3d</fix>
</trkpt>
<trkpt lat="-27.2744389" lon="151.2900638">
  <ele>343.03</ele>
  <time>2026-08-27T18:32:23Z</time>
  <course>148.12</course>
  <speed>0.02</speed>
  <fix>3d</fix>
</trkpt>
<trkpt lat="-27.274439" lon="151.290064">
  <ele>343.0</ele>
  <time>2026-08-27T18:32:23Z</time>
  <course>0.0</course>
  <speed>0.0</speed>
  <fix>3d</fix>
</trkpt>
<trkpt lat="-27.2744389" lon="151.2900638">
  <ele>343.04</ele>
  <time>2026-08-27T18:32:23Z</time>
  <course>148.08</course>
  <speed>0.02</speed>
  <fix>3d</fix>
</trkpt>
<trkpt lat="-27.274439" lon="151.290064">
  <ele>343.0</ele>
  <time>2026-08-27T18:32:23Z</time>
  <course>0.0</course>
  <speed>0.0</speed>
  <fix>3d</fix>
</trkpt>
<trkpt lat="-27.2744389" lon="151.2900638">
  <ele>343.03</ele>
  <time>2026-08-27T18:32:23Z</time>
  <course>148.05</course>
  <speed>0.02</speed>
  <fix>3d</fix>
</trkpt>
<trkpt lat="-27.274439" lon="151.290064">
  <ele>343.0</ele>
  <time>2026-08-27T18:32:23Z</time>
  <course>0.0</course>
  <speed>0.0</speed>
  <fix>3d</fix>
</trkpt>
<trkpt lat="-27.2744389" lon="151.2900638">
  <ele>343.03</ele>
  <time>2026-08-27T18:32:23Z</time>
  <course>148.02</course>
  <speed>0.02</speed>
  <fix>3d</fix>
</trkpt>
<trkpt lat="-27.274439" lon="151.290064">
  <ele>343.0</ele>
  <time>2026-08-27T18:32:23Z</time>
  <course>0.0</course>
  <speed>0.0</speed>
  <fix>3d</fix>
</trkpt>
<trkpt lat="-27.2744389" lon="151.2900638">
  <ele>343.03</ele>
  <time>2026-08-27T18:32:23Z</time>
  <course>147.98</course>
  <speed>0.02</speed>
  <fix>3d</fix>
</trkpt>
<trkpt lat="-27.274439" lon="151.290064">
  <ele>343.0</ele>
  <time>2026-08-27T18:32:23Z</time>
  <course>0.0</course>
  <speed>0.0</speed>
  <fix>3d</fix>
</trkpt>
<trkpt lat="-27.2744389" lon="151.2900638">
  <ele>343.02</ele>
  <time>2026-08-27T18:32:23Z</time>
  <course>147.95</course>
  <speed>0.02</speed>
  <fix>3d</fix>
</trkpt>
<trkpt lat="-27.274439" lon="151.290064">
  <ele>343.0</ele>
  <time>2026-08-27T18:32:23Z</time>
  <course>0.0</course>
  <speed>0.0</speed>
  <fix>3d</fix>
</trkpt>
<trkpt lat="-27.2744389" lon="151.2900638">
  <ele>343.03</ele>
  <time>2026-08-27T18:32:23Z</time>
  <course>147.93</course>
  <speed>0.02</speed>
  <fix>3d</fix>
</trkpt>
<trkpt lat="-27.274439" lon="151.290064">
  <ele>343.0</ele>
  <time>2026-08-27T18:32:23Z</time>
  <course>0.0</course>
  <speed>0.0</speed>
  <fix>3d</fix>
</trkpt>
<trkpt lat="-27.2744389" lon="151.2900638">
  <ele>343.03</ele>
  <time>2026-08-27T18:32:23Z</time>
  <course>147.89</course>
  <speed>0.02</speed>
  <fix>3d</fix>
</trkpt>
<trkpt lat="-27.274439" lon="151.290064">
  <ele>343.0</ele>
  <time>2026-08-27T18:32:23Z</time>
  <course>0.0</course>
  <speed>0.0</speed>
  <fix>3d</fix>
</trkpt>
<trkpt lat="-27.2744389" lon="151.2900638">
  <ele>343.02</ele>
  <time>2026-08-27T18:32:23Z</time>
  <course>147.87</course>
  <speed>0.02</speed>
  <fix>3d</fix>
</trkpt>
<trkpt lat="-27.274439" lon="151.290064">
  <ele>343.0</ele>
  <time>2026-08-27T18:32:23Z</time>
  <course>0.0</course>
  <speed>0.0</speed>
  <fix>3d</fix>
</trkpt>
<trkpt lat="-27.2744389" lon="151.2900638">
  <ele>343.05</ele>
  <time>2026-08-27T18:32:23Z</time>
  <course>147.84</course>
  <speed>0.02</speed>
  <fix>3d</fix>
</trkpt>
<trkpt lat="-27.274439" lon="151.290064">
  <ele>343.0</ele>
  <time>2026-08-27T18:32:23Z</time>
  <course>0.0</course>
  <speed>0.0</speed>
  <fix>3d</fix>
</trkpt>
<trkpt lat="-27.2744389" lon="151.2900638">
  <ele>343.03</ele>
  <time>2026-08-27T18:32:23Z</time>
  <course>147.82</course>
  <speed>0.02</speed>
  <fix>3d</fix>
</trkpt>
<trkpt lat="-27.274439" lon="151.290064">
  <ele>343.0</ele>
  <time>2026-08-27T18:32:23Z</time>
  <course>0.0</course>
  <speed>0.0</speed>
  <fix>3d</fix>
</trkpt>
<trkpt lat="-27.2744389" lon="151.2900638">
  <ele>343.02</ele>
  <time>2026-08-27T18:32:23Z</time>
  <course>147.79</course>
  <speed>0.02</speed>
  <fix>3d</fix>
</trkpt>
<trkpt lat="-27.274439" lon="151.290064">
  <ele>343.0</ele>
  <time>2026-08-27T18:32:23Z</time>
  <course>0.0</course>
  <speed>0.0</speed>
  <fix>3d</fix>
</trkpt>
<trkpt lat="-27.2744389" lon="151.2900638">
  <ele>343.01</ele>
  <time>2026-08-27T18:32:23Z</time>
  <course>147.77</course>
  <speed>0.02</speed>
  <fix>3d</fix>
</trkpt>
<trkpt lat="-27.274439" lon="151.290064">
  <ele>343.0</ele>
  <time>2026-08-27T18:32:23Z</time>
  <course>0.0</course>
  <speed>0.0</speed>
  <fix>3d</fix>
</trkpt>
<trkpt lat="-27.2744389" lon="151.2900638">
  <ele>343.0</ele>
  <time>2026-08-27T18:32:23Z</time>
  <course>147.74</course>
  <speed>0.02</speed>
  <fix>3d</fix>
</trkpt>
<trkpt lat="-27.274439" lon="151.290064">
  <ele>343.0</ele>
  <time>2026-08-27T18:32:23Z</time>
  <course>0.0</course>
  <speed>0.0</speed>
  <fix>3d</fix>
</trkpt>
<trkpt lat="-27.2744389" lon="151.2900638">
  <ele>343.01</ele>
  <time>2026-08-27T18:32:23Z</time>
  <course>147.73</course>
  <speed>0.02</speed>
  <fix>3d</fix>
</trkpt>
<trkpt lat="-27.274439" lon="151.290064">
  <ele>343.0</ele>
  <time>2026-08-27T18:32:23Z</time>
  <course>0.0</course>
  <speed>0.0</speed>
  <fix>3d</fix>
</trkpt>
<trkpt lat="-27.2744389" lon="151.2900638">
  <ele>343.0</ele>
  <time>2026-08-27T18:32:23Z</time>
  <course>147.7</course>
  <speed>0.02</speed>
  <fix>3d</fix>
</trkpt>
<trkpt lat="-27.274439" lon="151.290064">
  <ele>343.0</ele>
  <time>2026-08-27T18:32:23Z</time>
  <course>0.0</course>
  <speed>0.0</speed>
  <fix>3d</fix>
</trkpt>
<trkpt lat="-27.2744389" lon="151.2900638">
  <ele>342.99</ele>
  <time>2026-08-27T18:32:23Z</time>
  <course>147.69</course>
  <speed>0.02</speed>
  <fix>3d</fix>
</trkpt>
<trkpt lat="-27.274439" lon="151.290064">
  <ele>343.0</ele>
  <time>2026-08-27T18:32:23Z</time>
  <course>0.0</course>
  <speed>0.0</speed>
  <fix>3d</fix>
</trkpt>
<trkpt lat="-27.2744389" lon="151.2900638">
  <ele>342.99</ele>
  <time>2026-08-27T18:32:23Z</time>
  <course>147.66</course>
  <speed>0.02</speed>
  <fix>3d</fix>
</trkpt>
<trkpt lat="-27.274439" lon="151.290064">
  <ele>343.0</ele>
  <time>2026-08-27T18:32:23Z</time>
  <course>0.0</course>
  <speed>0.0</speed>
  <fix>3d</fix>
</trkpt>
<trkpt lat="-27.2744389" lon="151.2900638">
  <ele>343.0</ele>
  <time>2026-08-27T18:32:23Z</time>
  <course>147.65</course>
  <speed>0.02</speed>
  <fix>3d</fix>
</trkpt>
<trkpt lat="-27.274439" lon="151.290064">
  <ele>343.0</ele>
  <time>2026-08-27T18:32:23Z</time>
  <course>0.0</course>
  <speed>0.0</speed>
  <fix>3d</fix>
</trkpt>
<trkpt lat="-27.2744389" lon="151.2900638">
  <ele>343.01</ele>
  <time>2026-08-27T18:32:23Z</time>
  <course>147.63</course>
  <speed>0.02</speed>
  <fix>3d</fix>
</trkpt>
<trkpt lat="-27.274439" lon="151.290064">
  <ele>343.0</ele>
  <time>2026-08-27T18:32:23Z</time>
  <course>0.0</course>
  <speed>0.0</speed>
  <fix>3d</fix>
</trkpt>
<trkpt lat="-27.2744389" lon="151.2900638">
  <ele>343.0</ele>
  <time>2026-08-27T18:32:23Z</time>
  <course>147.61</course>
  <speed>0.02</speed>
  <fix>3d</fix>
</trkpt>
<trkpt lat="-27.274439" lon="151.290064">
  <ele>343.0</ele>
  <time>2026-08-27T18:32:23Z</time>
  <course>0.0</course>
  <speed>0.0</speed>
  <fix>3d</fix>
</trkpt>
<trkpt lat="-27.2744389" lon="151.2900638">
  <ele>342.99</ele>
  <time>2026-08-27T18:32:23Z</time>
  <course>147.6</course>
  <speed>0.02</speed>
  <fix>3d</fix>
</trkpt>
<trkpt lat="-27.274439" lon="151.290064">
  <ele>343.0</ele>
  <time>2026-08-27T18:32:23Z</time>
  <course>0.0</course>
  <speed>0.0</speed>
  <fix>3d</fix>
</trkpt>
<trkpt lat="-27.2744389" lon="151.2900638">
  <ele>342.99</ele>
  <time>2026-08-27T18:32:23Z</time>
  <course>147.58</course>
  <speed>0.02</speed>
  <fix>3d</fix>
</trkpt>
<trkpt lat="-27.274439" lon="151.290064">
  <ele>343.0</ele>
  <time>2026-08-27T18:32:23Z</time>
  <course>0.0</course>
  <speed>0.0</speed>
  <fix>3d</fix>
</trkpt>
<trkpt lat="-27.2744389" lon="151.2900638">
  <ele>343.0</ele>
  <time>2026-08-27T18:32:23Z</time>
  <course>147.56</course>
  <speed>0.02</speed>
  <fix>3d</fix>
</trkpt>
<trkpt lat="-27.274439" lon="151.290064">
  <ele>343.0</ele>
  <time>2026-08-27T18:32:23Z</time>
  <course>0.0</course>
  <speed>0.0</speed>
  <fix>3d</fix>
</trkpt>
<trkpt lat="-27.2744389" lon="151.2900638">
  <ele>343.02</ele>
  <time>2026-08-27T18:32:23Z</time>
  <course>147.55</course>
  <speed>0.02</speed>
  <fix>3d</fix>
</trkpt>
<trkpt lat="-27.274439" lon="151.290064">
  <ele>343.0</ele>
  <time>2026-08-27T18:32:23Z</time>
  <course>0.0</course>
  <speed>0.0</speed>
  <fix>3d</fix>
</trkpt>
<trkpt lat="-27.2744389" lon="151.2900638">
  <ele>343.01</ele>
  <time>2026-08-27T18:32:23Z</time>
  <course>147.53</course>
  <speed>0.02</speed>
  <fix>3d</fix>
</trkpt>
<trkpt lat="-27.274439" lon="151.290064">
  <ele>343.0</ele>
  <time>2026-08-27T18:32:23Z</time>
  <course>0.0</course>
  <speed>0.0</speed>
  <fix>3d</fix>
</trkpt>
<trkpt lat="-27.2744389" lon="151.2900638">
  <ele>343.01</ele>
  <time>2026-08-27T18:32:23Z</time>
  <course>147.52</course>
  <speed>0.02</speed>
  <fix>3d</fix>
</trkpt>
<trkpt lat="-27.274439" lon="151.290064">
  <ele>343.0</ele>
  <time>2026-08-27T18:32:23Z</time>
  <course>0.0</course>
  <speed>0.0</speed>
  <fix>3d</fix>
</trkpt>
<trkpt lat="-27.2744389" lon="151.2900638">
  <ele>343.02</ele>
  <time>2026-08-27T18:32:23Z</time>
  <course>147.51</course>
  <speed>0.02</speed>
  <fix>3d</fix>
</trkpt>
<trkpt lat="-27.274439" lon="151.290064">
  <ele>343.0</ele>
  <time>2026-08-27T18:32:23Z</time>
  <course>0.0</course>
  <speed>0.0</speed>
  <fix>3d</fix>
</trkpt>
<trkpt lat="-27.2744389" lon="151.2900638">
  <ele>343.01</ele>
  <time>2026-08-27T18:32:23Z</time>
  <course>147.49</course>
  <speed>0.02</speed>
  <fix>3d</fix>
</trkpt>
<trkpt lat="-27.274439" lon="151.290064">
  <ele>343.0</ele>
  <time>2026-08-27T18:32:23Z</time>
  <course>0.0</course>
  <speed>0.0</speed>
  <fix>3d</fix>
</trkpt>
<trkpt lat="-27.2744389" lon="151.2900638">
  <ele>343.0</ele>
  <time>2026-08-27T18:32:23Z</time>
  <course>147.48</course>
  <speed>0.02</speed>
  <fix>3d</fix>
</trkpt>
<trkpt lat="-27.274439" lon="151.290064">
  <ele>343.0</ele>
  <time>2026-08-27T18:32:23Z</time>
  <course>0.0</course>
  <speed>0.0</speed>
  <fix>3d</fix>
</trkpt>
<trkpt lat="-27.2744389" lon="151.2900638">
  <ele>343.04</ele>
  <time>2026-08-27T18:32:23Z</time>
  <course>147.47</course>
  <speed>0.02</speed>
  <fix>3d</fix>
</trkpt>
<trkpt lat="-27.274439" lon="151.290064">
  <ele>343.0</ele>
  <time>2026-08-27T18:32:23Z</time>
  <course>0.0</course>
  <speed>0.0</speed>
  <fix>3d</fix>
</trkpt>
<trkpt lat="-27.2744389" lon="151.2900638">
  <ele>343.04</ele>
  <time>2026-08-27T18:32:23Z</time>
  <course>147.46</course>
  <speed>0.02</speed>
  <fix>3d</fix>
</trkpt>
<trkpt lat="-27.274439" lon="151.290064">
  <ele>343.0</ele>
  <time>2026-08-27T18:32:23Z</time>
  <course>0.0</course>
  <speed>0.0</speed>
  <fix>3d</fix>
</trkpt>
<trkpt lat="-27.2744389" lon="151.2900638">
  <ele>343.01</ele>
  <time>2026-08-27T18:32:23Z</time>
  <course>147.44</course>
  <speed>0.02</speed>
  <fix>3d</fix>
</trkpt>
<trkpt lat="-27.274439" lon="151.290064">
  <ele>343.0</ele>
  <time>2026-08-27T18:32:23Z</time>
  <course>0.0</course>
  <speed>0.0</speed>
  <fix>3d</fix>
</trkpt>
<trkpt lat="-27.2744389" lon="151.2900638">
  <ele>343.01</ele>
  <time>2026-08-27T18:32:23Z</time>
  <course>147.43</course>
  <speed>0.02</speed>
  <fix>3d</fix>
</trkpt>
<trkpt lat="-27.274439" lon="151.290064">
  <ele>343.0</ele>
  <time>2026-08-27T18:32:23Z</time>
  <course>0.0</course>
  <speed>0.0</speed>
  <fix>3d</fix>
</trkpt>
<trkpt lat="-27.2744389" lon="151.2900638">
  <ele>343.02</ele>
  <time>2026-08-27T18:32:23Z</time>
  <course>147.42</course>
  <speed>0.02</speed>
  <fix>3d</fix>
</trkpt>
<trkpt lat="-27.274439" lon="151.290064">
  <ele>343.0</ele>
  <time>2026-08-27T18:32:23Z</time>
  <course>0.0</course>
  <speed>0.0</speed>
  <fix>3d</fix>
</trkpt>
<trkpt lat="-27.2744389" lon="151.2900638">
  <ele>343.04</ele>
  <time>2026-08-27T18:32:23Z</time>
  <course>147.41</course>
  <speed>0.02</speed>
  <fix>3d</fix>
</trkpt>
<trkpt lat="-27.274439" lon="151.290064">
  <ele>343.0</ele>
  <time>2026-08-27T18:32:23Z</time>
  <course>0.0</course>
  <speed>0.0</speed>
  <fix>3d</fix>
</trkpt>
<trkpt lat="-27.2744389" lon="151.2900638">
  <ele>343.03</ele>
  <time>2026-08-27T18:32:23Z</time>
  <course>147.4</course>
  <speed>0.02</speed>
  <fix>3d</fix>
</trkpt>
<trkpt lat="-27.274439" lon="151.290064">
  <ele>343.0</ele>
  <time>2026-08-27T18:32:23Z</time>
  <course>0.0</course>
  <speed>0.0</speed>
  <fix>3d</fix>
</trkpt>
<trkpt lat="-27.2744389" lon="151.2900638">
  <ele>343.01</ele>
  <time>2026-08-27T18:32:23Z</time>
  <course>147.39</course>
  <speed>0.02</speed>
  <fix>3d</fix>
</trkpt>
<trkpt lat="-27.274439" lon="151.290064">
  <ele>343.0</ele>
  <time>2026-08-27T18:32:23Z</time>
  <course>0.0</course>
  <speed>0.0</speed>
  <fix>3d</fix>
</trkpt>
<trkpt lat="-27.2744389" lon="151.2900638">
  <ele>343.02</ele>
  <time>2026-08-27T18:32:23Z</time>
  <course>147.38</course>
  <speed>0.02</speed>
  <fix>3d</fix>
</trkpt>
<trkpt lat="-27.274439" lon="151.290064">
  <ele>343.0</ele>
  <time>2026-08-27T18:32:23Z</time>
  <course>0.0</course>
  <speed>0.0</speed>
  <fix>3d</fix>
</trkpt>
<trkpt lat="-27.2744389" lon="151.2900638">
  <ele>343.01</ele>
  <time>2026-08-27T18:32:23Z</time>
  <course>147.38</course>
  <speed>0.02</speed>
  <fix>3d</fix>
</trkpt>
<trkpt lat="-27.274439" lon="151.290064">
  <ele>343.0</ele>
  <time>2026-08-27T18:32:23Z</time>
  <course>0.0</course>
  <speed>0.0</speed>
  <fix>3d</fix>
</trkpt>
<trkpt lat="-27.2744389" lon="151.2900638">
  <ele>343.01</ele>
  <time>2026-08-27T18:32:23Z</time>
  <course>147.36</course>
  <speed>0.02</speed>
  <fix>3d</fix>
</trkpt>
<trkpt lat="-27.274439" lon="151.290064">
  <ele>343.0</ele>
  <time>2026-08-27T18:32:23Z</time>
  <course>0.0</course>
  <speed>0.0</speed>
  <fix>3d</fix>
</trkpt>
<trkpt lat="-27.2744389" lon="151.2900638">
  <ele>343.01</ele>
  <time>2026-08-27T18:32:23Z</time>
  <course>147.36</course>
  <speed>0.02</speed>
  <fix>3d</fix>
</trkpt>
<trkpt lat="-27.274439" lon="151.290064">
  <ele>343.0</ele>
  <time>2026-08-27T18:32:23Z</time>
  <course>0.0</course>
  <speed>0.0</speed>
  <fix>3d</fix>
</trkpt>
<trkpt lat="-27.2744389" lon="151.2900638">
  <ele>343.01</ele>
  <time>2026-08-27T18:32:23Z</time>
  <course>147.35</course>
  <speed>0.02</speed>
  <fix>3d</fix>
</trkpt>
<trkpt lat="-27.274439" lon="151.290064">
  <ele>343.0</ele>
  <time>2026-08-27T18:32:23Z</time>
  <course>0.0</course>
  <speed>0.0</speed>
  <fix>3d</fix>
</trkpt>
<trkpt lat="-27.2744389" lon="151.2900638">
  <ele>343.03</ele>
  <time>2026-08-27T18:32:23Z</time>
  <course>147.34</course>
  <speed>0.02</speed>
  <fix>3d</fix>
</trkpt>
<trkpt lat="-27.274439" lon="151.290064">
  <ele>343.0</ele>
  <time>2026-08-27T18:32:23Z</time>
  <course>0.0</course>
  <speed>0.0</speed>
  <fix>3d</fix>
</trkpt>
<trkpt lat="-27.2744389" lon="151.2900638">
  <ele>343.03</ele>
  <time>2026-08-27T18:32:23Z</time>
  <course>147.33</course>
  <speed>0.02</speed>
  <fix>3d</fix>
</trkpt>
<trkpt lat="-27.274439" lon="151.290064">
  <ele>343.0</ele>
  <time>2026-08-27T18:32:23Z</time>
  <course>0.0</course>
  <speed>0.0</speed>
  <fix>3d</fix>
</trkpt>
<trkpt lat="-27.2744389" lon="151.2900638">
  <ele>343.04</ele>
  <time>2026-08-27T18:32:23Z</time>
  <course>147.32</course>
  <speed>0.02</speed>
  <fix>3d</fix>
</trkpt>
<trkpt lat="-27.274439" lon="151.290064">
  <ele>343.0</ele>
  <time>2026-08-27T18:32:23Z</time>
  <course>0.0</course>
  <speed>0.0</speed>
  <fix>3d</fix>
</trkpt>
<trkpt lat="-27.2744389" lon="151.2900638">
  <ele>343.03</ele>
  <time>2026-08-27T18:32:23Z</time>
  <course>147.32</course>
  <speed>0.02</speed>
  <fix>3d</fix>
</trkpt>
<trkpt lat="-27.274439" lon="151.290064">
  <ele>343.0</ele>
  <time>2026-08-27T18:32:23Z</time>
  <course>0.0</course>
  <speed>0.0</speed>
  <fix>3d</fix>
</trkpt>
<trkpt lat="-27.2744389" lon="151.2900638">
  <ele>343.01</ele>
  <time>2026-08-27T18:32:23Z</time>
  <course>147.31</course>
  <speed>0.02</speed>
  <fix>3d</fix>
</trkpt>
<trkpt lat="-27.274439" lon="151.290064">
  <ele>343.0</ele>
  <time>2026-08-27T18:32:23Z</time>
  <course>0.0</course>
  <speed>0.0</speed>
  <fix>3d</fix>
</trkpt>
<trkpt lat="-27.2744389" lon="151.2900638">
  <ele>343.01</ele>
  <time>2026-08-27T18:32:23Z</time>
  <course>147.3</course>
  <speed>0.02</speed>
  <fix>3d</fix>
</trkpt>
<trkpt lat="-27.274439" lon="151.290064">
  <ele>343.0</ele>
  <time>2026-08-27T18:32:23Z</time>
  <course>0.0</course>
  <speed>0.0</speed>
  <fix>3d</fix>
</trkpt>
<trkpt lat="-27.2744389" lon="151.2900638">
  <ele>343.03</ele>
  <time>2026-08-27T18:32:23Z</time>
  <course>147.3</course>
  <speed>0.02</speed>
  <fix>3d</fix>
</trkpt>
<trkpt lat="-27.274439" lon="151.290064">
  <ele>343.0</ele>
  <time>2026-08-27T18:32:23Z</time>
  <course>0.0</course>
  <speed>0.0</speed>
  <fix>3d</fix>
</trkpt>
<trkpt lat="-27.2744389" lon="151.2900638">
  <ele>343.02</ele>
  <time>2026-08-27T18:32:23Z</time>
  <course>147.29</course>
  <speed>0.02</speed>
  <fix>3d</fix>
</trkpt>
<trkpt lat="-27.274439" lon="151.290064">
  <ele>343.0</ele>
  <time>2026-08-27T18:32:23Z</time>
  <course>0.0</course>
  <speed>0.0</speed>
  <fix>3d</fix>
</trkpt>
<trkpt lat="-27.2744389" lon="151.2900638">
  <ele>343.02</ele>
  <time>2026-08-27T18:32:23Z</time>
  <course>147.28</course>
  <speed>0.02</speed>
  <fix>3d</fix>
</trkpt>
<trkpt lat="-27.274439" lon="151.290064">
  <ele>343.0</ele>
  <time>2026-08-27T18:32:23Z</time>
  <course>0.0</course>
  <speed>0.0</speed>
  <fix>3d</fix>
</trkpt>
<trkpt lat="-27.2744389" lon="151.2900638">
  <ele>343.01</ele>
  <time>2026-08-27T18:32:23Z</time>
  <course>147.28</course>
  <speed>0.02</speed>
  <fix>3d</fix>
</trkpt>
<trkpt lat="-27.274439" lon="151.290064">
  <ele>343.0</ele>
  <time>2026-08-27T18:32:23Z</time>
  <course>0.0</course>
  <speed>0.0</speed>
  <fix>3d</fix>
</trkpt>
<trkpt lat="-27.2744389" lon="151.2900638">
  <ele>343.02</ele>
  <time>2026-08-27T18:32:23Z</time>
  <course>147.27</course>
  <speed>0.02</speed>
  <fix>3d</fix>
</trkpt>
<trkpt lat="-27.274439" lon="151.290064">
  <ele>343.0</ele>
  <time>2026-08-27T18:32:23Z</time>
  <course>0.0</course>
  <speed>0.0</speed>
  <fix>3d</fix>
</trkpt>
<trkpt lat="-27.2744389" lon="151.2900638">
  <ele>343.02</ele>
  <time>2026-08-27T18:32:23Z</time>
  <course>147.27</course>
  <speed>0.02</speed>
  <fix>3d</fix>
</trkpt>
<trkpt lat="-27.274439" lon="151.290064">
  <ele>343.0</ele>
  <time>2026-08-27T18:32:23Z</time>
  <course>0.0</course>
  <speed>0.0</speed>
  <fix>3d</fix>
</trkpt>
<trkpt lat="-27.2744389" lon="151.2900638">
  <ele>343.04</ele>
  <time>2026-08-27T18:32:23Z</time>
  <course>147.26</course>
  <speed>0.02</speed>
  <fix>3d</fix>
</trkpt>
<trkpt lat="-27.274439" lon="151.290064">
  <ele>343.0</ele>
  <time>2026-08-27T18:32:23Z</time>
  <course>0.0</course>
  <speed>0.0</speed>
  <fix>3d</fix>
</trkpt>
<trkpt lat="-27.2744389" lon="151.2900638">
  <ele>343.04</ele>
  <time>2026-08-27T18:32:23Z</time>
  <course>147.25</course>
  <speed>0.02</speed>
  <fix>3d</fix>
</trkpt>
<trkpt lat="-27.274439" lon="151.290064">
  <ele>343.0</ele>
  <time>2026-08-27T18:32:23Z</time>
  <course>0.0</course>
  <speed>0.0</speed>
  <fix>3d</fix>
</trkpt>
<trkpt lat="-27.2744389" lon="151.2900638">
  <ele>343.01</ele>
  <time>2026-08-27T18:32:23Z</time>
  <course>147.25</course>
  <speed>0.02</speed>
  <fix>3d</fix>
</trkpt>
<trkpt lat="-27.274439" lon="151.290064">
  <ele>343.0</ele>
  <time>2026-08-27T18:32:23Z</time>
  <course>0.0</course>
  <speed>0.0</speed>
  <fix>3d</fix>
</trkpt>
<trkpt lat="-27.2744389" lon="151.2900638">
  <ele>343.01</ele>
  <time>2026-08-27T18:32:23Z</time>
  <course>147.24</course>
  <speed>0.02</speed>
  <fix>3d</fix>
</trkpt>
<trkpt lat="-27.274439" lon="151.290064">
  <ele>343.0</ele>
  <time>2026-08-27T18:32:23Z</time>
  <course>0.0</course>
  <speed>0.0</speed>
  <fix>3d</fix>
</trkpt>
<trkpt lat="-27.2744389" lon="151.2900638">
  <ele>343.04</ele>
  <time>2026-08-27T18:32:23Z</time>
  <course>147.24</course>
  <speed>0.02</speed>
  <fix>3d</fix>
</trkpt>
<trkpt lat="-27.274439" lon="151.290064">
  <ele>343.0</ele>
  <time>2026-08-27T18:32:23Z</time>
  <course>0.0</course>
  <speed>0.0</speed>
  <fix>3d</fix>
</trkpt>
<trkpt lat="-27.2744389" lon="151.2900638">
  <ele>343.03</ele>
  <time>2026-08-27T18:32:23Z</time>
  <course>147.24</course>
  <speed>0.02</speed>
  <fix>3d</fix>
</trkpt>
<trkpt lat="-27.274439" lon="151.290064">
  <ele>343.0</ele>
  <time>2026-08-27T18:32:23Z</time>
  <course>0.0</course>
  <speed>0.0</speed>
  <fix>3d</fix>
</trkpt>
<trkpt lat="-27.2744389" lon="151.2900638">
  <ele>343.02</ele>
  <time>2026-08-27T18:32:23Z</time>
  <course>147.23</course>
  <speed>0.02</speed>
  <fix>3d</fix>
</trkpt>
<trkpt lat="-27.274439" lon="151.290064">
  <ele>343.0</ele>
  <time>2026-08-27T18:32:23Z</time>
  <course>0.0</course>
  <speed>0.0</speed>
  <fix>3d</fix>
</trkpt>
<trkpt lat="-27.2744389" lon="151.2900638">
  <ele>343.02</ele>
  <time>2026-08-27T18:32:23Z</time>
  <course>147.23</course>
  <speed>0.02</speed>
  <fix>3d</fix>
</trkpt>
<trkpt lat="-27.274439" lon="151.290064">
  <ele>343.0</ele>
  <time>2026-08-27T18:32:23Z</time>
  <course>0.0</course>
  <speed>0.0</speed>
  <fix>3d</fix>
</trkpt>
<trkpt lat="-27.2744389" lon="151.2900638">
  <ele>343.02</ele>
  <time>2026-08-27T18:32:23Z</time>
  <course>147.22</course>
  <speed>0.02</speed>
  <fix>3d</fix>
</trkpt>
<trkpt lat="-27.274439" lon="151.290064">
  <ele>343.0</ele>
  <time>2026-08-27T18:32:23Z</time>
  <course>0.0</course>
  <speed>0.0</speed>
  <fix>3d</fix>
</trkpt>
<trkpt lat="-27.2744389" lon="151.2900638">
  <ele>343.03</ele>
  <time>2026-08-27T18:32:23Z</time>
  <course>147.22</course>
  <speed>0.02</speed>
  <fix>3d</fix>
</trkpt>
<trkpt lat="-27.274439" lon="151.290064">
  <ele>343.0</ele>
  <time>2026-08-27T18:32:23Z</time>
  <course>0.0</course>
  <speed>0.0</speed>
  <fix>3d</fix>
</trkpt>
<trkpt lat="-27.2744389" lon="151.2900638">
  <ele>343.03</ele>
  <time>2026-08-27T18:32:23Z</time>
  <course>147.21</course>
  <speed>0.02</speed>
  <fix>3d</fix>
</trkpt>
<trkpt lat="-27.274439" lon="151.290064">
  <ele>343.0</ele>
  <time>2026-08-27T18:32:23Z</time>
  <course>0.0</course>
  <speed>0.0</speed>
  <fix>3d</fix>
</trkpt>
<trkpt lat="-27.2744389" lon="151.2900638">
  <ele>343.05</ele>
  <time>2026-08-27T18:32:23Z</time>
  <course>147.21</course>
  <speed>0.02</speed>
  <fix>3d</fix>
</trkpt>
<trkpt lat="-27.274439" lon="151.290064">
  <ele>343.0</ele>
  <time>2026-08-27T18:32:23Z</time>
  <course>0.0</course>
  <speed>0.0</speed>
  <fix>3d</fix>
</trkpt>
<trkpt lat="-27.2744389" lon="151.2900638">
  <ele>343.06</ele>
  <time>2026-08-27T18:32:23Z</time>
  <course>147.21</course>
  <speed>0.02</speed>
  <fix>3d</fix>
</trkpt>
<trkpt lat="-27.274439" lon="151.290064">
  <ele>343.0</ele>
  <time>2026-08-27T18:32:23Z</time>
  <course>0.0</course>
  <speed>0.0</speed>
  <fix>3d</fix>
</trkpt>
<trkpt lat="-27.2744389" lon="151.2900638">
  <ele>343.04</ele>
  <time>2026-08-27T18:32:23Z</time>
  <course>147.2</course>
  <speed>0.02</speed>
  <fix>3d</fix>
</trkpt>
<trkpt lat="-27.274439" lon="151.290064">
  <ele>343.0</ele>
  <time>2026-08-27T18:32:23Z</time>
  <course>0.0</course>
  <speed>0.0</speed>
  <fix>3d</fix>
</trkpt>
<trkpt lat="-27.2744389" lon="151.2900638">
  <ele>343.03</ele>
  <time>2026-08-27T18:32:23Z</time>
  <course>147.2</course>
  <speed>0.02</speed>
  <fix>3d</fix>
</trkpt>
<trkpt lat="-27.274439" lon="151.290064">
  <ele>343.0</ele>
  <time>2026-08-27T18:32:23Z</time>
  <course>0.0</course>
  <speed>0.0</speed>
  <fix>3d</fix>
</trkpt>
<trkpt lat="-27.2744389" lon="151.2900638">
  <ele>343.02</ele>
  <time>2026-08-27T18:32:23Z</time>
  <course>147.2</course>
  <speed>0.02</speed>
  <fix>3d</fix>
</trkpt>
<trkpt lat="-27.274439" lon="151.290064">
  <ele>343.0</ele>
  <time>2026-08-27T18:32:23Z</time>
  <course>0.0</course>
  <speed>0.0</speed>
  <fix>3d</fix>
</trkpt>
<trkpt lat="-27.2744389" lon="151.2900638">
  <ele>343.01</ele>
  <time>2026-08-27T18:32:23Z</time>
  <course>147.19</course>
  <speed>0.02</speed>
  <fix>3d</fix>
</trkpt>
<trkpt lat="-27.274439" lon="151.290064">
  <ele>343.0</ele>
  <time>2026-08-27T18:32:23Z</time>
  <course>0.0</course>
  <speed>0.0</speed>
  <fix>3d</fix>
</trkpt>
<trkpt lat="-27.2744389" lon="151.2900638">
  <ele>342.99</ele>
  <time>2026-08-27T18:32:23Z</time>
  <course>147.19</course>
  <speed>0.02</speed>
  <fix>3d</fix>
</trkpt>
<trkpt lat="-27.274439" lon="151.290064">
  <ele>343.0</ele>
  <time>2026-08-27T18:32:23Z</time>
  <course>0.0</course>
  <speed>0.0</speed>
  <fix>3d</fix>
</trkpt>
<trkpt lat="-27.2744389" lon="151.2900638">
  <ele>342.98</ele>
  <time>2026-08-27T18:32:23Z</time>
  <course>147.19</course>
  <speed>0.02</speed>
  <fix>3d</fix>
</trkpt>
<trkpt lat="-27.274439" lon="151.290064">
  <ele>343.0</ele>
  <time>2026-08-27T18:32:23Z</time>
  <course>0.0</course>
  <speed>0.0</speed>
  <fix>3d</fix>
</trkpt>
<trkpt lat="-27.2744389" lon="151.2900638">
  <ele>342.99</ele>
  <time>2026-08-27T18:32:23Z</time>
  <course>147.19</course>
  <speed>0.02</speed>
  <fix>3d</fix>
</trkpt>
<trkpt lat="-27.274439" lon="151.290064">
  <ele>343.0</ele>
  <time>2026-08-27T18:32:23Z</time>
  <course>0.0</course>
  <speed>0.0</speed>
  <fix>3d</fix>
</trkpt>
<trkpt lat="-27.2744389" lon="151.2900638">
  <ele>343.0</ele>
  <time>2026-08-27T18:32:23Z</time>
  <course>147.18</course>
  <speed>0.02</speed>
  <fix>3d</fix>
</trkpt>
<trkpt lat="-27.274439" lon="151.290064">
  <ele>343.0</ele>
  <time>2026-08-27T18:32:23Z</time>
  <course>0.0</course>
  <speed>0.0</speed>
  <fix>3d</fix>
</trkpt>
<trkpt lat="-27.2744389" lon="151.2900638">
  <ele>343.01</ele>
  <time>2026-08-27T18:32:23Z</time>
  <course>147.18</course>
  <speed>0.02</speed>
  <fix>3d</fix>
</trkpt>
<trkpt lat="-27.274439" lon="151.290064">
  <ele>343.0</ele>
  <time>2026-08-27T18:32:23Z</time>
  <course>0.0</course>
  <speed>0.0</speed>
  <fix>3d</fix>
</trkpt>
<trkpt lat="-27.2744389" lon="151.2900638">
  <ele>343.03</ele>
  <time>2026-08-27T18:32:23Z</time>
  <course>147.18</course>
  <speed>0.02</speed>
  <fix>3d</fix>
</trkpt>
<trkpt lat="-27.274439" lon="151.290064">
  <ele>343.0</ele>
  <time>2026-08-27T18:32:23Z</time>
  <course>0.0</course>
  <speed>0.0</speed>
  <fix>3d</fix>
</trkpt>
<trkpt lat="-27.2744389" lon="151.2900638">
  <ele>343.02</ele>
  <time>2026-08-27T18:32:23Z</time>
  <course>147.17</course>
  <speed>0.02</speed>
  <fix>3d</fix>
</trkpt>
<trkpt lat="-27.274439" lon="151.290064">
  <ele>343.0</ele>
  <time>2026-08-27T18:32:23Z</time>
  <course>0.0</course>
  <speed>0.0</speed>
  <fix>3d</fix>
</trkpt>
<trkpt lat="-27.2744389" lon="151.2900638">
  <ele>343.02</ele>
  <time>2026-08-27T18:32:23Z</time>
  <course>147.17</course>
  <speed>0.02</speed>
  <fix>3d</fix>
</trkpt>
<trkpt lat="-27.274439" lon="151.290064">
  <ele>343.0</ele>
  <time>2026-08-27T18:32:23Z</time>
  <course>0.0</course>
  <speed>0.0</speed>
  <fix>3d</fix>
</trkpt>
<trkpt lat="-27.2744389" lon="151.2900638">
  <ele>343.0</ele>
  <time>2026-08-27T18:32:23Z</time>
  <course>147.17</course>
  <speed>0.02</speed>
  <fix>3d</fix>
</trkpt>
<trkpt lat="-27.274439" lon="151.290064">
  <ele>343.0</ele>
  <time>2026-08-27T18:32:23Z</time>
  <course>0.0</course>
  <speed>0.0</speed>
  <fix>3d</fix>
</trkpt>
<trkpt lat="-27.2744389" lon="151.2900638">
  <ele>343.01</ele>
  <time>2026-08-27T18:32:23Z</time>
  <course>147.16</course>
  <speed>0.02</speed>
  <fix>3d</fix>
</trkpt>
<trkpt lat="-27.274439" lon="151.290064">
  <ele>343.0</ele>
  <time>2026-08-27T18:32:23Z</time>
  <course>0.0</course>
  <speed>0.0</speed>
  <fix>3d</fix>
</trkpt>
<trkpt lat="-27.2744389" lon="151.2900638">
  <ele>343.01</ele>
  <time>2026-08-27T18:32:23Z</time>
  <course>147.16</course>
  <speed>0.02</speed>
  <fix>3d</fix>
</trkpt>
<trkpt lat="-27.274439" lon="151.290064">
  <ele>343.0</ele>
  <time>2026-08-27T18:32:23Z</time>
  <course>0.0</course>
  <speed>0.0</speed>
  <fix>3d</fix>
</trkpt>
<trkpt lat="-27.2744389" lon="151.2900638">
  <ele>343.03</ele>
  <time>2026-08-27T18:32:23Z</time>
  <course>147.16</course>
  <speed>0.02</speed>
  <fix>3d</fix>
</trkpt>
<trkpt lat="-27.274439" lon="151.290064">
  <ele>343.0</ele>
  <time>2026-08-27T18:32:23Z</time>
  <course>0.0</course>
  <speed>0.0</speed>
  <fix>3d</fix>
</trkpt>
<trkpt lat="-27.2744389" lon="151.2900638">
  <ele>343.05</ele>
  <time>2026-08-27T18:32:23Z</time>
  <course>147.16</course>
  <speed>0.02</speed>
  <fix>3d</fix>
</trkpt>
<trkpt lat="-27.274439" lon="151.290064">
  <ele>343.0</ele>
  <time>2026-08-27T18:32:23Z</time>
  <course>0.0</course>
  <speed>0.0</speed>
  <fix>3d</fix>
</trkpt>
<trkpt lat="-27.2744389" lon="151.2900638">
  <ele>343.05</ele>
  <time>2026-08-27T18:32:23Z</time>
  <course>147.16</course>
  <speed>0.02</speed>
  <fix>3d</fix>
</trkpt>
<trkpt lat="-27.274439" lon="151.290064">
  <ele>343.0</ele>
  <time>2026-08-27T18:32:23Z</time>
  <course>0.0</course>
  <speed>0.0</speed>
  <fix>3d</fix>
</trkpt>
<trkpt lat="-27.2744389" lon="151.2900638">
  <ele>343.04</ele>
  <time>2026-08-27T18:32:23Z</time>
  <course>147.16</course>
  <speed>0.02</speed>
  <fix>3d</fix>
</trkpt>
<trkpt lat="-27.274439" lon="151.290064">
  <ele>343.0</ele>
  <time>2026-08-27T18:32:23Z</time>
  <course>0.0</course>
  <speed>0.0</speed>
  <fix>3d</fix>
</trkpt>
<trkpt lat="-27.2744389" lon="151.2900638">
  <ele>343.02</ele>
  <time>2026-08-27T18:32:24Z</time>
  <course>147.15</course>
  <speed>0.02</speed>
  <fix>3d</fix>
</trkpt>
<trkpt lat="-27.274439" lon="151.290064">
  <ele>343.0</ele>
  <time>2026-08-27T18:32:24Z</time>
  <course>0.0</course>
  <speed>0.0</speed>
  <fix>3d</fix>
</trkpt>
<trkpt lat="-27.2744389" lon="151.2900638">
  <ele>343.0</ele>
  <time>2026-08-27T18:32:24Z</time>
  <course>147.15</course>
  <speed>0.02</speed>
  <fix>3d</fix>
</trkpt>
<trkpt lat="-27.274439" lon="151.290064">
  <ele>343.0</ele>
  <time>2026-08-27T18:32:24Z</time>
  <course>0.0</course>
  <speed>0.0</speed>
  <fix>3d</fix>
</trkpt>
<trkpt lat="-27.2744389" lon="151.2900638">
  <ele>342.99</ele>
  <time>2026-08-27T18:32:24Z</time>
  <course>147.15</course>
  <speed>0.02</speed>
  <fix>3d</fix>
</trkpt>
<trkpt lat="-27.274439" lon="151.290064">
  <ele>343.0</ele>
  <time>2026-08-27T18:32:24Z</time>
  <course>0.0</course>
  <speed>0.0</speed>
  <fix>3d</fix>
</trkpt>
<trkpt lat="-27.2744389" lon="151.2900638">
  <ele>343.0</ele>
  <time>2026-08-27T18:32:24Z</time>
  <course>147.15</course>
  <speed>0.02</speed>
  <fix>3d</fix>
</trkpt>
<trkpt lat="-27.274439" lon="151.290064">
  <ele>343.0</ele>
  <time>2026-08-27T18:32:24Z</time>
  <course>0.0</course>
  <speed>0.0</speed>
  <fix>3d</fix>
</trkpt>
<trkpt lat="-27.2744389" lon="151.2900638">
  <ele>343.03</ele>
  <time>2026-08-27T18:32:24Z</time>
  <course>147.15</course>
  <speed>0.02</speed>
  <fix>3d</fix>
</trkpt>
<trkpt lat="-27.274439" lon="151.290064">
  <ele>343.0</ele>
  <time>2026-08-27T18:32:24Z</time>
  <course>0.0</course>
  <speed>0.0</speed>
  <fix>3d</fix>
</trkpt>
<trkpt lat="-27.2744389" lon="151.2900638">
  <ele>343.01</ele>
  <time>2026-08-27T18:32:24Z</time>
  <course>147.14</course>
  <speed>0.02</speed>
  <fix>3d</fix>
</trkpt>
<trkpt lat="-27.274439" lon="151.290064">
  <ele>343.0</ele>
  <time>2026-08-27T18:32:24Z</time>
  <course>0.0</course>
  <speed>0.0</speed>
  <fix>3d</fix>
</trkpt>
<trkpt lat="-27.2744389" lon="151.2900638">
  <ele>343.02</ele>
  <time>2026-08-27T18:32:24Z</time>
  <course>147.14</course>
  <speed>0.02</speed>
  <fix>3d</fix>
</trkpt>
<trkpt lat="-27.274439" lon="151.290064">
  <ele>343.0</ele>
  <time>2026-08-27T18:32:24Z</time>
  <course>0.0</course>
  <speed>0.0</speed>
  <fix>3d</fix>
</trkpt>
<trkpt lat="-27.2744389" lon="151.2900638">
  <ele>343.02</ele>
  <time>2026-08-27T18:32:24Z</time>
  <course>147.14</course>
  <speed>0.02</speed>
  <fix>3d</fix>
</trkpt>
<trkpt lat="-27.274439" lon="151.290064">
  <ele>343.0</ele>
  <time>2026-08-27T18:32:24Z</time>
  <course>0.0</course>
  <speed>0.0</speed>
  <fix>3d</fix>
</trkpt>
<trkpt lat="-27.2744389" lon="151.2900638">
  <ele>343.03</ele>
  <time>2026-08-27T18:32:24Z</time>
  <course>147.14</course>
  <speed>0.02</speed>
  <fix>3d</fix>
</trkpt>
<trkpt lat="-27.274439" lon="151.290064">
  <ele>343.0</ele>
  <time>2026-08-27T18:32:24Z</time>
  <course>0.0</course>
  <speed>0.0</speed>
  <fix>3d</fix>
</trkpt>
<trkpt lat="-27.2744389" lon="151.2900638">
  <ele>343.02</ele>
  <time>2026-08-27T18:32:24Z</time>
  <course>147.14</course>
  <speed>0.02</speed>
  <fix>3d</fix>
</trkpt>
<trkpt lat="-27.274439" lon="151.290064">
  <ele>343.0</ele>
  <time>2026-08-27T18:32:24Z</time>
  <course>0.0</course>
  <speed>0.0</speed>
  <fix>3d</fix>
</trkpt>
<trkpt lat="-27.2744389" lon="151.2900638">
  <ele>343.04</ele>
  <time>2026-08-27T18:32:24Z</time>
  <course>147.14</course>
  <speed>0.02</speed>
  <fix>3d</fix>
</trkpt>
<trkpt lat="-27.274439" lon="151.290064">
  <ele>343.0</ele>
  <time>2026-08-27T18:32:24Z</time>
  <course>0.0</course>
  <speed>0.0</speed>
  <fix>3d</fix>
</trkpt>
<trkpt lat="-27.2744389" lon="151.2900638">
  <ele>343.02</ele>
  <time>2026-08-27T18:32:24Z</time>
  <course>147.14</course>
  <speed>0.02</speed>
  <fix>3d</fix>
</trkpt>
<trkpt lat="-27.274439" lon="151.290064">
  <ele>343.0</ele>
  <time>2026-08-27T18:32:24Z</time>
  <course>0.0</course>
  <speed>0.0</speed>
  <fix>3d</fix>
</trkpt>
<trkpt lat="-27.2744389" lon="151.2900638">
  <ele>343.01</ele>
  <time>2026-08-27T18:32:24Z</time>
  <course>147.14</course>
  <speed>0.02</speed>
  <fix>3d</fix>
</trkpt>
<trkpt lat="-27.274439" lon="151.290064">
  <ele>343.0</ele>
  <time>2026-08-27T18:32:24Z</time>
  <course>0.0</course>
  <speed>0.0</speed>
  <fix>3d</fix>
</trkpt>
<trkpt lat="-27.2744389" lon="151.2900638">
  <ele>343.01</ele>
  <time>2026-08-27T18:32:24Z</time>
  <course>147.13</course>
  <speed>0.02</speed>
  <fix>3d</fix>
</trkpt>
<trkpt lat="-27.274439" lon="151.290064">
  <ele>343.0</ele>
  <time>2026-08-27T18:32:24Z</time>
  <course>0.0</course>
  <speed>0.0</speed>
  <fix>3d</fix>
</trkpt>
<trkpt lat="-27.2744389" lon="151.2900638">
  <ele>343.02</ele>
  <time>2026-08-27T18:32:24Z</time>
  <course>147.13</course>
  <speed>0.02</speed>
  <fix>3d</fix>
</trkpt>
<trkpt lat="-27.274439" lon="151.290064">
  <ele>343.0</ele>
  <time>2026-08-27T18:32:24Z</time>
  <course>0.0</course>
  <speed>0.0</speed>
  <fix>3d</fix>
</trkpt>
<trkpt lat="-27.2744389" lon="151.2900638">
  <ele>343.03</ele>
  <time>2026-08-27T18:32:24Z</time>
  <course>147.13</course>
  <speed>0.02</speed>
  <fix>3d</fix>
</trkpt>
<trkpt lat="-27.274439" lon="151.290064">
  <ele>343.0</ele>
  <time>2026-08-27T18:32:24Z</time>
  <course>0.0</course>
  <speed>0.0</speed>
  <fix>3d</fix>
</trkpt>
<trkpt lat="-27.2744389" lon="151.2900638">
  <ele>343.04</ele>
  <time>2026-08-27T18:32:24Z</time>
  <course>147.13</course>
  <speed>0.02</speed>
  <fix>3d</fix>
</trkpt>
<trkpt lat="-27.274439" lon="151.290064">
  <ele>343.0</ele>
  <time>2026-08-27T18:32:24Z</time>
  <course>0.0</course>
  <speed>0.0</speed>
  <fix>3d</fix>
</trkpt>
<trkpt lat="-27.2744389" lon="151.2900638">
  <ele>343.06</ele>
  <time>2026-08-27T18:32:24Z</time>
  <course>147.13</course>
  <speed>0.02</speed>
  <fix>3d</fix>
</trkpt>
<trkpt lat="-27.274439" lon="151.290064">
  <ele>343.0</ele>
  <time>2026-08-27T18:32:24Z</time>
  <course>0.0</course>
  <speed>0.0</speed>
  <fix>3d</fix>
</trkpt>
<trkpt lat="-27.2744389" lon="151.2900638">
  <ele>343.06</ele>
  <time>2026-08-27T18:32:24Z</time>
  <course>147.13</course>
  <speed>0.02</speed>
  <fix>3d</fix>
</trkpt>
<trkpt lat="-27.274439" lon="151.290064">
  <ele>343.0</ele>
  <time>2026-08-27T18:32:24Z</time>
  <course>0.0</course>
  <speed>0.0</speed>
  <fix>3d</fix>
</trkpt>
<trkpt lat="-27.2744389" lon="151.2900638">
  <ele>343.06</ele>
  <time>2026-08-27T18:32:24Z</time>
  <course>147.13</course>
  <speed>0.02</speed>
  <fix>3d</fix>
</trkpt>
<trkpt lat="-27.274439" lon="151.290064">
  <ele>343.0</ele>
  <time>2026-08-27T18:32:24Z</time>
  <course>0.0</course>
  <speed>0.0</speed>
  <fix>3d</fix>
</trkpt>
<trkpt lat="-27.2744389" lon="151.2900638">
  <ele>343.04</ele>
  <time>2026-08-27T18:32:24Z</time>
  <course>147.13</course>
  <speed>0.02</speed>
  <fix>3d</fix>
</trkpt>
<trkpt lat="-27.274439" lon="151.290064">
  <ele>343.0</ele>
  <time>2026-08-27T18:32:24Z</time>
  <course>0.0</course>
  <speed>0.0</speed>
  <fix>3d</fix>
</trkpt>
<trkpt lat="-27.2744389" lon="151.2900638">
  <ele>343.03</ele>
  <time>2026-08-27T18:32:24Z</time>
  <course>147.13</course>
  <speed>0.02</speed>
  <fix>3d</fix>
</trkpt>
<trkpt lat="-27.274439" lon="151.290064">
  <ele>343.0</ele>
  <time>2026-08-27T18:32:24Z</time>
  <course>0.0</course>
  <speed>0.0</speed>
  <fix>3d</fix>
</trkpt>
<trkpt lat="-27.2744389" lon="151.2900638">
  <ele>342.99</ele>
  <time>2026-08-27T18:32:24Z</time>
  <course>139.26</course>
  <speed>0.02</speed>
  <fix>3d</fix>
</trkpt>
<trkpt lat="-27.274439" lon="151.290064">
  <ele>343.0</ele>
  <time>2026-08-27T18:32:24Z</time>
  <course>0.0</course>
  <speed>0.0</speed>
  <fix>3d</fix>
</trkpt>
<trkpt lat="-27.2744389" lon="151.2900638">
  <ele>342.98</ele>
  <time>2026-08-27T18:32:24Z</time>
  <course>130.13</course>
  <speed>0.02</speed>
  <fix>3d</fix>
</trkpt>
<trkpt lat="-27.274439" lon="151.290064">
  <ele>343.0</ele>
  <time>2026-08-27T18:32:24Z</time>
  <course>0.0</course>
  <speed>0.0</speed>
  <fix>3d</fix>
</trkpt>
<trkpt lat="-27.274439" lon="151.2900638">
  <ele>342.95</ele>
  <time>2026-08-27T18:32:24Z</time>
  <course>121.06</course>
  <speed>0.01</speed>
  <fix>3d</fix>
</trkpt>
<trkpt lat="-27.274439" lon="151.290064">
  <ele>343.0</ele>
  <time>2026-08-27T18:32:24Z</time>
  <course>0.0</course>
  <speed>0.0</speed>
  <fix>3d</fix>
</trkpt>
<trkpt lat="-27.274439" lon="151.2900638">
  <ele>342.94</ele>
  <time>2026-08-27T18:32:24Z</time>
  <course>112.01</course>
  <speed>0.01414213562373095</speed>
  <fix>3d</fix>
</trkpt>
<trkpt lat="-27.274439" lon="151.290064">
  <ele>343.0</ele>
  <time>2026-08-27T18:32:24Z</time>
  <course>0.0</course>
  <speed>0.0</speed>
  <fix>3d</fix>
</trkpt>
<trkpt lat="-27.274439" lon="151.290064">
  <ele>343.0</ele>
  <time>2026-08-27T18:32:24Z</time>
  <course>324.52</course>
  <speed>0.0</speed>
  <fix>3d</fix>
</trkpt>
<trkpt lat="-27.274439" lon="151.290064">
  <ele>343.0</ele>
  <time>2026-08-27T18:32:24Z</time>
  <course>318.17</course>
  <speed>0.0</speed>
  <fix>3d</fix>
</trkpt>
<trkpt lat="-27.274439" lon="151.290064">
  <ele>343.0</ele>
  <time>2026-08-27T18:32:24Z</time>
  <course>309.71</course>
  <speed>0.0</speed>
  <fix>3d</fix>
</trkpt>
<trkpt lat="-27.274439" lon="151.290064">
  <ele>343.0</ele>
  <time>2026-08-27T18:32:24Z</time>
  <course>295.7</course>
  <speed>0.0</speed>
  <fix>3d</fix>
</trkpt>
<trkpt lat="-27.274439" lon="151.290064">
  <ele>343.0</ele>
  <time>2026-08-27T18:32:24Z</time>
  <course>291.22</course>
  <speed>0.0</speed>
  <fix>3d</fix>
</trkpt>
<trkpt lat="-27.274439" lon="151.290064">
  <ele>343.0</ele>
  <time>2026-08-27T18:32:24Z</time>
  <course>286.26</course>
  <speed>0.0</speed>
  <fix>3d</fix>
</trkpt>
<trkpt lat="-27.274439" lon="151.290064">
  <ele>343.0</ele>
  <time>2026-08-27T18:32:24Z</time>
  <course>280.5</course>
  <speed>0.0</speed>
  <fix>3d</fix>
</trkpt>
<trkpt lat="-27.274439" lon="151.290064">
  <ele>343.0</ele>
  <time>2026-08-27T18:32:24Z</time>
  <course>272.98</course>
  <speed>0.0</speed>
  <fix>3d</fix>
</trkpt>
<trkpt lat="-27.274439" lon="151.290064">
  <ele>343.0</ele>
  <time>2026-08-27T18:32:24Z</time>
  <course>265.49</course>
  <speed>0.13892443989449804</speed>
  <fix>3d</fix>
</trkpt>
<trkpt lat="-27.274439" lon="151.290064">
  <ele>343.0</ele>
  <time>2026-08-27T18:32:24Z</time>
  <course>0.0</course>
  <speed>0.0</speed>
  <fix>3d</fix>
</trkpt>
<trkpt lat="-27.274439" lon="151.290064">
  <ele>343.0</ele>
  <time>2026-08-27T18:32:24Z</time>
  <course>259.13</course>
  <speed>0.16552945357246848</speed>
  <fix>3d</fix>
</trkpt>
<trkpt lat="-27.274439" lon="151.290064">
  <ele>343.0</ele>
  <time>2026-08-27T18:32:24Z</time>
  <course>0.0</course>
  <speed>0.0</speed>
  <fix>3d</fix>
</trkpt>
<trkpt lat="-27.274439" lon="151.290064">
  <ele>343.0</ele>
  <time>2026-08-27T18:32:24Z</time>
  <course>251.09</course>
  <speed>0.1615549442140351</speed>
  <fix>3d</fix>
</trkpt>
<trkpt lat="-27.274439" lon="151.290064">
  <ele>343.0</ele>
  <time>2026-08-27T18:32:24Z</time>
  <course>0.0</course>
  <speed>0.0</speed>
  <fix>3d</fix>
</trkpt>
<trkpt lat="-27.274439" lon="151.290064">
  <ele>343.0</ele>
  <time>2026-08-27T18:32:24Z</time>
  <course>242.09</course>
  <speed>0.1649242250247064</speed>
  <fix>3d</fix>
</trkpt>
<trkpt lat="-27.274439" lon="151.290064">
  <ele>343.0</ele>
  <time>2026-08-27T18:32:24Z</time>
  <course>0.0</course>
  <speed>0.0</speed>
  <fix>3d</fix>
</trkpt>
<trkpt lat="-27.274439" lon="151.290064">
  <ele>343.0</ele>
  <time>2026-08-27T18:32:24Z</time>
  <course>232.53</course>
  <speed>0.18110770276274835</speed>
  <fix>3d</fix>
</trkpt>
<trkpt lat="-27.274439" lon="151.290064">
  <ele>343.0</ele>
  <time>2026-08-27T18:32:24Z</time>
  <course>0.0</course>
  <speed>0.0</speed>
  <fix>3d</fix>
</trkpt>
<trkpt lat="-27.274439" lon="151.290064">
  <ele>343.0</ele>
  <time>2026-08-27T18:32:24Z</time>
  <course>222.68</course>
  <speed>0.22</speed>
  <fix>3d</fix>
</trkpt>
<trkpt lat="-27.274439" lon="151.290064">
  <ele>343.0</ele>
  <time>2026-08-27T18:32:24Z</time>
  <course>0.0</course>
  <speed>0.0</speed>
  <fix>3d</fix>
</trkpt>
<trkpt lat="-27.274439" lon="151.290064">
  <ele>343.0</ele>
  <time>2026-08-27T18:32:24Z</time>
  <course>212.65</course>
  <speed>0.2308679276123039</speed>
  <fix>3d</fix>
</trkpt>
<trkpt lat="-27.274439" lon="151.290064">
  <ele>343.0</ele>
  <time>2026-08-27T18:32:24Z</time>
  <course>0.0</course>
  <speed>0.0</speed>
  <fix>3d</fix>
</trkpt>
<trkpt lat="-27.274439" lon="151.290064">
  <ele>343.0</ele>
  <time>2026-08-27T18:32:24Z</time>
  <course>202.55</course>
  <speed>0.21377558326431947</speed>
  <fix>3d</fix>
</trkpt>
<trkpt lat="-27.274439" lon="151.290064">
  <ele>343.0</ele>
  <time>2026-08-27T18:32:24Z</time>
  <course>0.0</course>
  <speed>0.0</speed>
  <fix>3d</fix>
</trkpt>
<trkpt lat="-27.274439" lon="151.290064">
  <ele>343.0</ele>
  <time>2026-08-27T18:32:24Z</time>
  <course>192.44</course>
  <speed>0.19313207915827968</speed>
  <fix>3d</fix>
</trkpt>
<trkpt lat="-27.274439" lon="151.290064">
  <ele>343.0</ele>
  <time>2026-08-27T18:32:24Z</time>
  <course>0.0</course>
  <speed>0.0</speed>
  <fix>3d</fix>
</trkpt>
<trkpt lat="-27.274439" lon="151.290064">
  <ele>343.0</ele>
  <time>2026-08-27T18:32:24Z</time>
  <course>182.34</course>
  <speed>0.18867962264113206</speed>
  <fix>3d</fix>
</trkpt>
<trkpt lat="-27.274439" lon="151.290064">
  <ele>343.0</ele>
  <time>2026-08-27T18:32:24Z</time>
  <course>0.0</course>
  <speed>0.0</speed>
  <fix>3d</fix>
</trkpt>
<trkpt lat="-27.274439" lon="151.290064">
  <ele>343.0</ele>
  <time>2026-08-27T18:32:24Z</time>
  <course>325.88</course>
  <speed>0.0</speed>
  <fix>3d</fix>
</trkpt>
<trkpt lat="-27.274439" lon="151.290064">
  <ele>343.0</ele>
  <time>2026-08-27T18:32:24Z</time>
  <course>324.43</course>
  <speed>0.0</speed>
  <fix>3d</fix>
</trkpt>
<trkpt lat="-27.274439" lon="151.290064">
  <ele>343.0</ele>
  <time>2026-08-27T18:32:25Z</time>
  <course>321.86</course>
  <speed>0.0</speed>
  <fix>3d</fix>
</trkpt>
<trkpt lat="-27.274439" lon="151.290064">
  <ele>343.0</ele>
  <time>2026-08-27T18:32:25Z</time>
  <course>295.0</course>
  <speed>0.0</speed>
  <fix>3d</fix>
</trkpt>
<trkpt lat="-27.274439" lon="151.290064">
  <ele>343.0</ele>
  <time>2026-08-27T18:32:25Z</time>
  <course>290.72</course>
  <speed>0.0</speed>
  <fix>3d</fix>
</trkpt>
<trkpt lat="-27.274439" lon="151.290064">
  <ele>343.0</ele>
  <time>2026-08-27T18:32:25Z</time>
  <course>284.84</course>
  <speed>0.0</speed>
  <fix>3d</fix>
</trkpt>
<trkpt lat="-27.274439" lon="151.290064">
  <ele>343.0</ele>
  <time>2026-08-27T18:32:25Z</time>
  <course>277.79</course>
  <speed>0.0</speed>
  <fix>3d</fix>
</trkpt>
<trkpt lat="-27.274439" lon="151.290064">
  <ele>343.0</ele>
  <time>2026-08-27T18:32:25Z</time>
  <course>269.55</course>
  <speed>0.0</speed>
  <fix>3d</fix>
</trkpt>
<trkpt lat="-27.274439" lon="151.290064">
  <ele>343.0</ele>
  <time>2026-08-27T18:32:25Z</time>
  <course>262.69</course>
  <speed>0.1708800749063506</speed>
  <fix>3d</fix>
</trkpt>
<trkpt lat="-27.274439" lon="151.290064">
  <ele>343.0</ele>
  <time>2026-08-27T18:32:25Z</time>
  <course>0.0</course>
  <speed>0.0</speed>
  <fix>3d</fix>
</trkpt>
<trkpt lat="-27.274439" lon="151.290064">
  <ele>343.0</ele>
  <time>2026-08-27T18:32:25Z</time>
  <course>257.7</course>
  <speed>0.10295630140987001</speed>
  <fix>3d</fix>
</trkpt>
<trkpt lat="-27.274439" lon="151.290064">
  <ele>343.0</ele>
  <time>2026-08-27T18:32:25Z</time>
  <course>0.0</course>
  <speed>0.0</speed>
  <fix>3d</fix>
</trkpt>
<trkpt lat="-27.274439" lon="151.290064">
  <ele>343.0</ele>
  <time>2026-08-27T18:32:25Z</time>
  <course>250.87</course>
  <speed>0.0824621125123532</speed>
  <fix>3d</fix>
</trkpt>
<trkpt lat="-27.274439" lon="151.290064">
  <ele>343.0</ele>
  <time>2026-08-27T18:32:25Z</time>
  <course>0.0</course>
  <speed>0.0</speed>
  <fix>3d</fix>
</trkpt>
<trkpt lat="-27.274439" lon="151.290064">
  <ele>343.0</ele>
  <time>2026-08-27T18:32:25Z</time>
  <course>242.84</course>
  <speed>0.05</speed>
  <fix>3d</fix>
</trkpt>
<trkpt lat="-27.274439" lon="151.290064">
  <ele>343.0</ele>
  <time>2026-08-27T18:32:25Z</time>
  <course>0.0</course>
  <speed>0.0</speed>
  <fix>3d</fix>
</trkpt>
<trkpt lat="-27.274439" lon="151.290064">
  <ele>343.0</ele>
  <time>2026-08-27T18:32:25Z</time>
  <course>325.88</course>
  <speed>0.0</speed>
  <fix>3d</fix>
</trkpt>
<trkpt lat="-27.274439" lon="151.290064">
  <ele>343.0</ele>
  <time>2026-08-27T18:32:25Z</time>
  <course>324.43</course>
  <speed>0.0</speed>
  <fix>3d</fix>
</trkpt>
<trkpt lat="-27.274439" lon="151.290064">
  <ele>343.0</ele>
  <time>2026-08-27T18:32:25Z</time>
  <course>321.86</course>
  <speed>0.0</speed>
  <fix>3d</fix>
</trkpt>
<trkpt lat="-27.274439" lon="151.290064">
  <ele>343.0</ele>
  <time>2026-08-27T18:32:25Z</time>
  <course>295.0</course>
  <speed>0.0</speed>
  <fix>3d</fix>
</trkpt>
<trkpt lat="-27.274439" lon="151.290064">
  <ele>343.0</ele>
  <time>2026-08-27T18:32:25Z</time>
  <course>290.72</course>
  <speed>0.0</speed>
  <fix>3d</fix>
</trkpt>
<trkpt lat="-27.274439" lon="151.290064">
  <ele>343.0</ele>
  <time>2026-08-27T18:32:25Z</time>
  <course>284.84</course>
  <speed>0.0</speed>
  <fix>3d</fix>
</trkpt>
<trkpt lat="-27.274439" lon="151.290064">
  <ele>343.0</ele>
  <time>2026-08-27T18:32:25Z</time>
  <course>277.79</course>
  <speed>0.0</speed>
  <fix>3d</fix>
</trkpt>
<trkpt lat="-27.274439" lon="151.290064">
  <ele>343.0</ele>
  <time>2026-08-27T18:32:25Z</time>
  <course>269.55</course>
  <speed>0.0</speed>
  <fix>3d</fix>
</trkpt>
<trkpt lat="-27.274439" lon="151.290064">
  <ele>343.0</ele>
  <time>2026-08-27T18:32:25Z</time>
  <course>262.16</course>
  <speed>0.9176055797563569</speed>
  <fix>3d</fix>
</trkpt>
<trkpt lat="-27.274439" lon="151.290064">
  <ele>343.0</ele>
  <time>2026-08-27T18:32:25Z</time>
  <course>0.0</course>
  <speed>0.0</speed>
  <fix>3d</fix>
</trkpt>
<trkpt lat="-27.274439" lon="151.290064">
  <ele>343.0</ele>
  <time>2026-08-27T18:32:25Z</time>
  <course>256.87</course>
  <speed>0.17029386365926402</speed>
  <fix>3d</fix>
</trkpt>
<trkpt lat="-27.274439" lon="151.290064">
  <ele>343.0</ele>
  <time>2026-08-27T18:32:25Z</time>
  <course>0.0</course>
  <speed>0.0</speed>
  <fix>3d</fix>
</trkpt>
<trkpt lat="-27.274439" lon="151.290064">
  <ele>343.0</ele>
  <time>2026-08-27T18:32:25Z</time>
  <course>250.25</course>
  <speed>0.1118033988749895</speed>
  <fix>3d</fix>
</trkpt>
<trkpt lat="-27.274439" lon="151.290064">
  <ele>343.0</ele>
  <time>2026-08-27T18:32:25Z</time>
  <course>0.0</course>
  <speed>0.0</speed>
  <fix>3d</fix>
</trkpt>
<trkpt lat="-27.274439" lon="151.290064">
  <ele>343.0</ele>
  <time>2026-08-27T18:32:25Z</time>
  <course>242.42</course>
  <speed>0.0854400374531753</speed>
  <fix>3d</fix>
</trkpt>
<trkpt lat="-27.274439" lon="151.290064">
  <ele>343.0</ele>
  <time>2026-08-27T18:32:25Z</time>
  <course>0.0</course>
  <speed>0.0</speed>
  <fix>3d</fix>
</trkpt>
<trkpt lat="-27.274439" lon="151.290064">
  <ele>343.0</ele>
  <time>2026-08-27T18:32:25Z</time>
  <course>233.82</course>
  <speed>0.044721359549995794</speed>
  <fix>3d</fix>
</trkpt>
<trkpt lat="-27.274439" lon="151.290064">
  <ele>343.0</ele>
  <time>2026-08-27T18:32:25Z</time>
  <course>0.0</course>
  <speed>0.0</speed>
  <fix>3d</fix>
</trkpt>
<trkpt lat="-27.274439" lon="151.290064">
  <ele>343.0</ele>
  <time>2026-08-27T18:32:25Z</time>
  <course>325.88</course>
  <speed>0.0</speed>
  <fix>3d</fix>
</trkpt>
<trkpt lat="-27.274439" lon="151.290064">
  <ele>343.0</ele>
  <time>2026-08-27T18:32:25Z</time>
  <course>324.43</course>
  <speed>0.0</speed>
  <fix>3d</fix>
</trkpt>
<trkpt lat="-27.274439" lon="151.290064">
  <ele>343.0</ele>
  <time>2026-08-27T18:32:25Z</time>
  <course>321.86</course>
  <speed>0.0</speed>
  <fix>3d</fix>
</trkpt>
<trkpt lat="-27.274439" lon="151.290064">
  <ele>343.0</ele>
  <time>2026-08-27T18:32:25Z</time>
  <course>295.0</course>
  <speed>0.0</speed>
  <fix>3d</fix>
</trkpt>
<trkpt lat="-27.274439" lon="151.290064">
  <ele>343.0</ele>
  <time>2026-08-27T18:32:25Z</time>
  <course>290.72</course>
  <speed>0.0</speed>
  <fix>3d</fix>
</trkpt>
<trkpt lat="-27.274439" lon="151.290064">
  <ele>343.0</ele>
  <time>2026-08-27T18:32:25Z</time>
  <course>284.84</course>
  <speed>0.0</speed>
  <fix>3d</fix>
</trkpt>
<trkpt lat="-27.274439" lon="151.290064">
  <ele>343.0</ele>
  <time>2026-08-27T18:32:25Z</time>
  <course>277.79</course>
  <speed>0.0</speed>
  <fix>3d</fix>
</trkpt>
<trkpt lat="-27.274439" lon="151.290064">
  <ele>343.0</ele>
  <time>2026-08-27T18:32:25Z</time>
  <course>269.55</course>
  <speed>0.0</speed>
  <fix>3d</fix>
</trkpt>
<trkpt lat="-27.274439" lon="151.290064">
  <ele>343.0</ele>
  <time>2026-08-27T18:32:25Z</time>
  <course>256.4</course>
  <speed>0.9403190947758107</speed>
  <fix>3d</fix>
</trkpt>
<trkpt lat="-27.274439" lon="151.290064">
  <ele>343.0</ele>
  <time>2026-08-27T18:32:25Z</time>
  <course>0.0</course>
  <speed>0.0</speed>
  <fix>3d</fix>
</trkpt>
<trkpt lat="-27.274439" lon="151.290064">
  <ele>343.0</ele>
  <time>2026-08-27T18:32:25Z</time>
  <course>249.45</course>
  <speed>0.756042326857432</speed>
  <fix>3d</fix>
</trkpt>
<trkpt lat="-27.274439" lon="151.290064">
  <ele>343.0</ele>
  <time>2026-08-27T18:32:25Z</time>
  <course>0.0</course>
  <speed>0.0</speed>
  <fix>3d</fix>
</trkpt>
<trkpt lat="-27.274439" lon="151.290064">
  <ele>343.0</ele>
  <time>2026-08-27T18:32:25Z</time>
  <course>241.79</course>
  <speed>0.6596969000988256</speed>
  <fix>3d</fix>
</trkpt>
<trkpt lat="-27.274439" lon="151.290064">
  <ele>343.0</ele>
  <time>2026-08-27T18:32:25Z</time>
  <course>0.0</course>
  <speed>0.0</speed>
  <fix>3d</fix>
</trkpt>
<trkpt lat="-27.274439" lon="151.290064">
  <ele>343.0</ele>
  <time>2026-08-27T18:32:25Z</time>
  <course>233.59</course>
  <speed>0.6618912297349165</speed>
  <fix>3d</fix>
</trkpt>
<trkpt lat="-27.274439" lon="151.290064">
  <ele>343.0</ele>
  <time>2026-08-27T18:32:25Z</time>
  <course>0.0</course>
  <speed>0.0</speed>
  <fix>3d</fix>
</trkpt>
<trkpt lat="-27.274439" lon="151.290064">
  <ele>343.0</ele>
  <time>2026-08-27T18:32:25Z</time>
  <course>225.02</course>
  <speed>0.7034202158027589</speed>
  <fix>3d</fix>
</trkpt>
<trkpt lat="-27.274439" lon="151.290064">
  <ele>343.0</ele>
  <time>2026-08-27T18:32:25Z</time>
  <course>0.0</course>
  <speed>0.0</speed>
  <fix>3d</fix>
</trkpt>
<trkpt lat="-27.274439" lon="151.290064">
  <ele>343.0</ele>
  <time>2026-08-27T18:32:25Z</time>
  <course>216.17</course>
  <speed>0.7539230729988305</speed>
  <fix>3d</fix>
</trkpt>
<trkpt lat="-27.274439" lon="151.290064">
  <ele>343.0</ele>
  <time>2026-08-27T18:32:25Z</time>
  <course>0.0</course>
  <speed>0.0</speed>
  <fix>3d</fix>
</trkpt>
<trkpt lat="-27.274439" lon="151.290064">
  <ele>343.0</ele>
  <time>2026-08-27T18:32:25Z</time>
  <course>207.13</course>
  <speed>0.8052949770115296</speed>
  <fix>3d</fix>
</trkpt>
<trkpt lat="-27.274439" lon="151.290064">
  <ele>343.0</ele>
  <time>2026-08-27T18:32:25Z</time>
  <course>0.0</course>
  <speed>0.0</speed>
  <fix>3d</fix>
</trkpt>
<trkpt lat="-27.274439" lon="151.290064">
  <ele>343.0</ele>
  <time>2026-08-27T18:32:25Z</time>
  <course>197.74</course>
  <speed>0.39824615503479754</speed>
  <fix>3d</fix>
</trkpt>
<trkpt lat="-27.274439" lon="151.290064">
  <ele>343.0</ele>
  <time>2026-08-27T18:32:25Z</time>
  <course>0.0</course>
  <speed>0.0</speed>
  <fix>3d</fix>
</trkpt>
<trkpt lat="-27.274439" lon="151.290064">
  <ele>343.0</ele>
  <time>2026-08-27T18:32:25Z</time>
  <course>188.23</course>
  <speed>0.12529964086141668</speed>
  <fix>3d</fix>
</trkpt>
<trkpt lat="-27.274439" lon="151.290064">
  <ele>343.0</ele>
  <time>2026-08-27T18:32:25Z</time>
  <course>0.0</course>
  <speed>0.0</speed>
  <fix>3d</fix>
</trkpt>
<trkpt lat="-27.274439" lon="151.290064">
  <ele>343.0</ele>
  <time>2026-08-27T18:32:25Z</time>
  <course>178.75</course>
  <speed>0.1118033988749895</speed>
  <fix>3d</fix>
</trkpt>
<trkpt lat="-27.274439" lon="151.290064">
  <ele>343.0</ele>
  <time>2026-08-27T18:32:25Z</time>
  <course>0.0</course>
  <speed>0.0</speed>
  <fix>3d</fix>
</trkpt>
<trkpt lat="-27.274439" lon="151.290064">
  <ele>343.0</ele>
  <time>2026-08-27T18:32:25Z</time>
  <course>169.32</course>
  <speed>0.12529964086141668</speed>
  <fix>3d</fix>
</trkpt>
<trkpt lat="-27.274439" lon="151.290064">
  <ele>343.0</ele>
  <time>2026-08-27T18:32:25Z</time>
  <course>0.0</course>
  <speed>0.0</speed>
  <fix>3d</fix>
</trkpt>
<trkpt lat="-27.274439" lon="151.290064">
  <ele>343.0</ele>
  <time>2026-08-27T18:32:26Z</time>
  <course>325.88</course>
  <speed>0.0</speed>
  <fix>3d</fix>
</trkpt>
<trkpt lat="-27.274439" lon="151.290064">
  <ele>343.0</ele>
  <time>2026-08-27T18:32:26Z</time>
  <course>324.43</course>
  <speed>0.0</speed>
  <fix>3d</fix>
</trkpt>
<trkpt lat="-27.274439" lon="151.290064">
  <ele>343.0</ele>
  <time>2026-08-27T18:32:26Z</time>
  <course>321.86</course>
  <speed>0.0</speed>
  <fix>3d</fix>
</trkpt>
<trkpt lat="-27.274439" lon="151.290064">
  <ele>343.0</ele>
  <time>2026-08-27T18:32:26Z</time>
  <course>295.0</course>
  <speed>0.0</speed>
  <fix>3d</fix>
</trkpt>
<trkpt lat="-27.274439" lon="151.290064">
  <ele>343.0</ele>
  <time>2026-08-27T18:32:26Z</time>
  <course>290.72</course>
  <speed>0.0</speed>
  <fix>3d</fix>
</trkpt>
<trkpt lat="-27.274439" lon="151.290064">
  <ele>343.0</ele>
  <time>2026-08-27T18:32:26Z</time>
  <course>284.84</course>
  <speed>0.0</speed>
  <fix>3d</fix>
</trkpt>
<trkpt lat="-27.274439" lon="151.290064">
  <ele>343.0</ele>
  <time>2026-08-27T18:32:26Z</time>
  <course>277.79</course>
  <speed>0.0</speed>
  <fix>3d</fix>
</trkpt>
<trkpt lat="-27.274439" lon="151.290064">
  <ele>343.0</ele>
  <time>2026-08-27T18:32:26Z</time>
  <course>269.55</course>
  <speed>0.0</speed>
  <fix>3d</fix>
</trkpt>
<trkpt lat="-27.274439" lon="151.290064">
  <ele>343.0</ele>
  <time>2026-08-27T18:32:26Z</time>
  <course>277.99</course>
  <speed>0.914166286842826</speed>
  <fix>3d</fix>
</trkpt>
<trkpt lat="-27.274439" lon="151.290064">
  <ele>343.0</ele>
  <time>2026-08-27T18:32:26Z</time>
  <course>0.0</course>
  <speed>0.0</speed>
  <fix>3d</fix>
</trkpt>
<trkpt lat="-27.274439" lon="151.290064">
  <ele>343.0</ele>
  <time>2026-08-27T18:32:26Z</time>
  <course>290.07</course>
  <speed>0.9402127418834527</speed>
  <fix>3d</fix>
</trkpt>
<trkpt lat="-27.274439" lon="151.290064">
  <ele>343.0</ele>
  <time>2026-08-27T18:32:26Z</time>
  <course>0.0</course>
  <speed>0.0</speed>
  <fix>3d</fix>
</trkpt>
<trkpt lat="-27.274439" lon="151.290064">
  <ele>343.0</ele>
  <time>2026-08-27T18:32:26Z</time>
  <course>300.9</course>
  <speed>0.6952697318307479</speed>
  <fix>3d</fix>
</trkpt>
<trkpt lat="-27.274439" lon="151.290064">
  <ele>343.0</ele>
  <time>2026-08-27T18:32:26Z</time>
  <course>0.0</course>
  <speed>0.0</speed>
  <fix>3d</fix>
</trkpt>
<trkpt lat="-27.274439" lon="151.290064">
  <ele>343.0</ele>
  <time>2026-08-27T18:32:26Z</time>
  <course>310.95</course>
  <speed>0.4687216658103186</speed>
  <fix>3d</fix>
</trkpt>
<trkpt lat="-27.274439" lon="151.290064">
  <ele>343.0</ele>
  <time>2026-08-27T18:32:26Z</time>
  <course>0.0</course>
  <speed>0.0</speed>
  <fix>3d</fix>
</trkpt>
<trkpt lat="-27.274439" lon="151.290064">
  <ele>343.0</ele>
  <time>2026-08-27T18:32:26Z</time>
  <course>320.49</course>
  <speed>0.3478505426185217</speed>
  <fix>3d</fix>
</trkpt>
<trkpt lat="-27.274439" lon="151.290064">
  <ele>343.0</ele>
  <time>2026-08-27T18:32:26Z</time>
  <course>0.0</course>
  <speed>0.0</speed>
  <fix>3d</fix>
</trkpt>
<trkpt lat="-27.274439" lon="151.290064">
  <ele>343.0</ele>
  <time>2026-08-27T18:32:26Z</time>
  <course>329.65</course>
  <speed>0.3178049716414141</speed>
  <fix>3d</fix>
</trkpt>
<trkpt lat="-27.274439" lon="151.290064">
  <ele>343.0</ele>
  <time>2026-08-27T18:32:26Z</time>
  <course>0.0</course>
  <speed>0.0</speed>
  <fix>3d</fix>
</trkpt>
<trkpt lat="-27.274439" lon="151.290064">
  <ele>343.0</ele>
  <time>2026-08-27T18:32:26Z</time>
  <course>338.58</course>
  <speed>0.33241540277189324</speed>
  <fix>3d</fix>
</trkpt>
<trkpt lat="-27.274439" lon="151.290064">
  <ele>343.0</ele>
  <time>2026-08-27T18:32:26Z</time>
  <course>0.0</course>
  <speed>0.0</speed>
  <fix>3d</fix>
</trkpt>
<trkpt lat="-27.274439" lon="151.290064">
  <ele>343.0</ele>
  <time>2026-08-27T18:32:26Z</time>
  <course>347.34</course>
  <speed>0.3624913792078372</speed>
  <fix>3d</fix>
</trkpt>
<trkpt lat="-27.274439" lon="151.290064">
  <ele>343.0</ele>
  <time>2026-08-27T18:32:26Z</time>
  <course>0.0</course>
  <speed>0.0</speed>
  <fix>3d</fix>
</trkpt>
<trkpt lat="-27.274439" lon="151.290064">
  <ele>343.0</ele>
  <time>2026-08-27T18:32:26Z</time>
  <course>356.02</course>
  <speed>0.4243819034784589</speed>
  <fix>3d</fix>
</trkpt>
<trkpt lat="-27.274439" lon="151.290064">
  <ele>343.0</ele>
  <time>2026-08-27T18:32:26Z</time>
  <course>0.0</course>
  <speed>0.0</speed>
  <fix>3d</fix>
</trkpt>
<trkpt lat="-27.274439" lon="151.290064">
  <ele>343.0</ele>
  <time>2026-08-27T18:32:26Z</time>
  <course>4.64</course>
  <speed>0.48166378315169184</speed>
  <fix>3d</fix>
</trkpt>
<trkpt lat="-27.274439" lon="151.290064">
  <ele>343.0</ele>
  <time>2026-08-27T18:32:26Z</time>
  <course>0.0</course>
  <speed>0.0</speed>
  <fix>3d</fix>
</trkpt>
<trkpt lat="-27.274439" lon="151.290064">
  <ele>343.0</ele>
  <time>2026-08-27T18:32:26Z</time>
  <course>13.28</course>
  <speed>0.5091168824543142</speed>
  <fix>3d</fix>
</trkpt>
<trkpt lat="-27.274439" lon="151.290064">
  <ele>343.0</ele>
  <time>2026-08-27T18:32:26Z</time>
  <course>0.0</course>
  <speed>0.0</speed>
  <fix>3d</fix>
</trkpt>
<trkpt lat="-27.274439" lon="151.290064">
  <ele>343.0</ele>
  <time>2026-08-27T18:32:26Z</time>
  <course>21.94</course>
  <speed>0.5608029957123981</speed>
  <fix>3d</fix>
</trkpt>
<trkpt lat="-27.274439" lon="151.290064">
  <ele>343.0</ele>
  <time>2026-08-27T18:32:26Z</time>
  <course>0.0</course>
  <speed>0.0</speed>
  <fix>3d</fix>
</trkpt>
<trkpt lat="-27.274439" lon="151.290064">
  <ele>343.0</ele>
  <time>2026-08-27T18:32:26Z</time>
  <course>27.78</course>
  <speed>0.5882176467941097</speed>
  <fix>3d</fix>
</trkpt>
<trkpt lat="-27.274439" lon="151.290064">
  <ele>343.0</ele>
  <time>2026-08-27T18:32:26Z</time>
  <course>0.0</course>
  <speed>0.0</speed>
  <fix>3d</fix>
</trkpt>
<trkpt lat="-27.274439" lon="151.290064">
  <ele>343.0</ele>
  <time>2026-08-27T18:32:26Z</time>
  <course>18.68</course>
  <speed>0.6226556030423239</speed>
  <fix>3d</fix>
</trkpt>
<trkpt lat="-27.274439" lon="151.290064">
  <ele>343.0</ele>
  <time>2026-08-27T18:32:26Z</time>
  <course>0.0</course>
  <speed>0.0</speed>
  <fix>3d</fix>
</trkpt>
<trkpt lat="-27.274439" lon="151.290064">
  <ele>343.0</ele>
  <time>2026-08-27T18:32:26Z</time>
  <course>9.33</course>
  <speed>0.6711929677819934</speed>
  <fix>3d</fix>
</trkpt>
<trkpt lat="-27.274439" lon="151.290064">
  <ele>343.0</ele>
  <time>2026-08-27T18:32:26Z</time>
  <course>0.0</course>
  <speed>0.0</speed>
  <fix>3d</fix>
</trkpt>
<trkpt lat="-27.274439" lon="151.290064">
  <ele>343.0</ele>
  <time>2026-08-27T18:32:26Z</time>
  <course>5.85</course>
  <speed>0.709365914038728</speed>
  <fix>3d</fix>
</trkpt>
<trkpt lat="-27.274439" lon="151.290064">
  <ele>343.0</ele>
  <time>2026-08-27T18:32:26Z</time>
  <course>0.0</course>
  <speed>0.0</speed>
  <fix>3d</fix>
</trkpt>
<trkpt lat="-27.274439" lon="151.290064">
  <ele>343.0</ele>
  <time>2026-08-27T18:32:26Z</time>
  <course>6.03</course>
  <speed>0.7211102550927978</speed>
  <fix>3d</fix>
</trkpt>
<trkpt lat="-27.274439" lon="151.290064">
  <ele>343.0</ele>
  <time>2026-08-27T18:32:26Z</time>
  <course>0.0</course>
  <speed>0.0</speed>
  <fix>3d</fix>
</trkpt>
<trkpt lat="-27.274439" lon="151.290064">
  <ele>343.0</ele>
  <time>2026-08-27T18:32:26Z</time>
  <course>7.01</course>
  <speed>0.7337574531137656</speed>
  <fix>3d</fix>
</trkpt>
<trkpt lat="-27.274439" lon="151.290064">
  <ele>343.0</ele>
  <time>2026-08-27T18:32:26Z</time>
  <course>0.0</course>
  <speed>0.0</speed>
  <fix>3d</fix>
</trkpt>
<trkpt lat="-27.274439" lon="151.290064">
  <ele>343.0</ele>
  <time>2026-08-27T18:32:26Z</time>
  <course>7.94</course>
  <speed>0.78587530817554</speed>
  <fix>3d</fix>
</trkpt>
<trkpt lat="-27.274439" lon="151.290064">
  <ele>343.0</ele>
  <time>2026-08-27T18:32:26Z</time>
  <course>0.0</course>
  <speed>0.0</speed>
  <fix>3d</fix>
</trkpt>
<trkpt lat="-27.274439" lon="151.290064">
  <ele>343.0</ele>
  <time>2026-08-27T18:32:26Z</time>
  <course>8.58</course>
  <speed>0.8472307831990054</speed>
  <fix>3d</fix>
</trkpt>
<trkpt lat="-27.274439" lon="151.290064">
  <ele>343.0</ele>
  <time>2026-08-27T18:32:26Z</time>
  <course>0.0</course>
  <speed>0.0</speed>
  <fix>3d</fix>
</trkpt>
<trkpt lat="-27.274439" lon="151.290064">
  <ele>343.0</ele>
  <time>2026-08-27T18:32:26Z</time>
  <course>8.93</course>
  <speed>0.8994442728707542</speed>
  <fix>3d</fix>
</trkpt>
<trkpt lat="-27.274439" lon="151.290064">
  <ele>343.0</ele>
  <time>2026-08-27T18:32:26Z</time>
  <course>0.0</course>
  <speed>0.0</speed>
  <fix>3d</fix>
</trkpt>
<trkpt lat="-27.274439" lon="151.290064">
  <ele>343.0</ele>
  <time>2026-08-27T18:32:26Z</time>
  <course>9.12</course>
  <speed>0.9144397191723465</speed>
  <fix>3d</fix>
</trkpt>
<trkpt lat="-27.274439" lon="151.290064">
  <ele>343.0</ele>
  <time>2026-08-27T18:32:26Z</time>
  <course>0.0</course>
  <speed>0.0</speed>
  <fix>3d</fix>
</trkpt>
<trkpt lat="-27.274439" lon="151.290064">
  <ele>343.0</ele>
  <time>2026-08-27T18:32:26Z</time>
  <course>9.21</course>
  <speed>0.9113725912051558</speed>
  <fix>3d</fix>
</trkpt>
<trkpt lat="-27.274439" lon="151.290064">
  <ele>343.0</ele>
  <time>2026-08-27T18:32:26Z</time>
  <course>0.0</course>
  <speed>0.0</speed>
  <fix>3d</fix>
</trkpt>
<trkpt lat="-27.274439" lon="151.290064">
  <ele>343.0</ele>
  <time>2026-08-27T18:32:26Z</time>
  <course>9.22</course>
  <speed>0.91</speed>
  <fix>3d</fix>
</trkpt>
<trkpt lat="-27.274439" lon="151.290064">
  <ele>343.0</ele>
  <time>2026-08-27T18:32:26Z</time>
  <course>0.0</course>
  <speed>0.0</speed>
  <fix>3d</fix>
</trkpt>
<trkpt lat="-27.274439" lon="151.290064">
  <ele>343.0</ele>
  <time>2026-08-27T18:32:26Z</time>
  <course>9.32</course>
  <speed>0.9213576938409967</speed>
  <fix>3d</fix>
</trkpt>
<trkpt lat="-27.274439" lon="151.290064">
  <ele>343.0</ele>
  <time>2026-08-27T18:32:26Z</time>
  <course>0.0</course>
  <speed>0.0</speed>
  <fix>3d</fix>
</trkpt>
<trkpt lat="-27.274439" lon="151.290064">
  <ele>343.0</ele>
  <time>2026-08-27T18:32:26Z</time>
  <course>9.38</course>
  <speed>0.9442986815621421</speed>
  <fix>3d</fix>
</trkpt>
<trkpt lat="-27.274439" lon="151.290064">
  <ele>343.0</ele>
  <time>2026-08-27T18:32:26Z</time>
  <course>0.0</course>
  <speed>0.0</speed>
  <fix>3d</fix>
</trkpt>
<trkpt lat="-27.274439" lon="151.290064">
  <ele>343.0</ele>
  <time>2026-08-27T18:32:26Z</time>
  <course>9.39</course>
  <speed>0.9305912099305473</speed>
  <fix>3d</fix>
</trkpt>
<trkpt lat="-27.274439" lon="151.290064">
  <ele>343.0</ele>
  <time>2026-08-27T18:32:26Z</time>
  <course>0.0</course>
  <speed>0.0</speed>
  <fix>3d</fix>
</trkpt>
<trkpt lat="-27.274439" lon="151.290064">
  <ele>343.0</ele>
  <time>2026-08-27T18:32:26Z</time>
  <course>9.49</course>
  <speed>0.9394147114027968</speed>
  <fix>3d</fix>
</trkpt>
<trkpt lat="-27.274439" lon="151.290064">
  <ele>343.0</ele>
  <time>2026-08-27T18:32:26Z</time>
  <course>0.0</course>
  <speed>0.0</speed>
  <fix>3d</fix>
</trkpt>
<trkpt lat="-27.274439" lon="151.290064">
  <ele>343.0</ele>
  <time>2026-08-27T18:32:26Z</time>
  <course>9.47</course>
  <speed>0.9386160024205852</speed>
  <fix>3d</fix>
</trkpt>
<trkpt lat="-27.274439" lon="151.290064">
  <ele>343.0</ele>
  <time>2026-08-27T18:32:26Z</time>
  <course>0.0</course>
  <speed>0.0</speed>
  <fix>3d</fix>
</trkpt>
<trkpt lat="-27.274439" lon="151.290064">
  <ele>343.0</ele>
  <time>2026-08-27T18:32:26Z</time>
  <course>9.61</course>
  <speed>0.9368030742904295</speed>
  <fix>3d</fix>
</trkpt>
<trkpt lat="-27.274439" lon="151.290064">
  <ele>343.0</ele>
  <time>2026-08-27T18:32:26Z</time>
  <course>0.0</course>
  <speed>0.0</speed>
  <fix>3d</fix>
</trkpt>
<trkpt lat="-27.274439" lon="151.290064">
  <ele>343.0</ele>
  <time>2026-08-27T18:32:26Z</time>
  <course>9.6</course>
  <speed>0.9265527507918802</speed>
  <fix>3d</fix>
</trkpt>
<trkpt lat="-27.274439" lon="151.290064">
  <ele>343.0</ele>
  <time>2026-08-27T18:32:26Z</time>
  <course>0.0</course>
  <speed>0.0</speed>
  <fix>3d</fix>
</trkpt>
<trkpt lat="-27.274439" lon="151.290064">
  <ele>343.0</ele>
  <time>2026-08-27T18:32:26Z</time>
  <course>9.74</course>
  <speed>0.8988882021697693</speed>
  <fix>3d</fix>
</trkpt>
<trkpt lat="-27.274439" lon="151.290064">
  <ele>343.0</ele>
  <time>2026-08-27T18:32:26Z</time>
  <course>0.0</course>
  <speed>0.0</speed>
  <fix>3d</fix>
</trkpt>
<trkpt lat="-27.274439" lon="151.2900625">
  <ele>343.04</ele>
  <time>2026-08-27T18:32:26Z</time>
  <course>9.83</course>
  <speed>0.09899494936611665</speed>
  <fix>3d</fix>
</trkpt>
<trkpt lat="-27.274439" lon="151.290064">
  <ele>343.0</ele>
  <time>2026-08-27T18:32:26Z</time>
  <course>0.0</course>
  <speed>0.0</speed>
  <fix>3d</fix>
</trkpt>
<trkpt lat="-27.2744392" lon="151.2900635">
  <ele>343.01</ele>
  <time>2026-08-27T18:32:26Z</time>
  <course>9.65</course>
  <speed>0.14212670403551894</speed>
  <fix>3d</fix>
</trkpt>
<trkpt lat="-27.274439" lon="151.290064">
  <ele>343.0</ele>
  <time>2026-08-27T18:32:26Z</time>
  <course>0.0</course>
  <speed>0.0</speed>
  <fix>3d</fix>
</trkpt>
<trkpt lat="-27.2744393" lon="151.290064">
  <ele>343.02</ele>
  <time>2026-08-27T18:32:26Z</time>
  <course>9.65</course>
  <speed>0.12041594578792296</speed>
  <fix>3d</fix>
</trkpt>
<trkpt lat="-27.274439" lon="151.290064">
  <ele>343.0</ele>
  <time>2026-08-27T18:32:26Z</time>
  <course>0.0</course>
  <speed>0.0</speed>
  <fix>3d</fix>
</trkpt>
<trkpt lat="-27.2744392" lon="151.290064">
  <ele>343.05</ele>
  <time>2026-08-27T18:32:26Z</time>
  <course>7.7</course>
  <speed>0.06403124237432849</speed>
  <fix>3d</fix>
</trkpt>
<trkpt lat="-27.274439" lon="151.290064">
  <ele>343.0</ele>
  <time>2026-08-27T18:32:26Z</time>
  <course>0.0</course>
  <speed>0.0</speed>
  <fix>3d</fix>
</trkpt>
<trkpt lat="-27.2744392" lon="151.2900641">
  <ele>343.05</ele>
  <time>2026-08-27T18:32:26Z</time>
  <course>4.96</course>
  <speed>0.044721359549995794</speed>
  <fix>3d</fix>
</trkpt>
<trkpt lat="-27.274439" lon="151.290064">
  <ele>343.0</ele>
  <time>2026-08-27T18:32:26Z</time>
  <course>0.0</course>
  <speed>0.0</speed>
  <fix>3d</fix>
</trkpt>
<trkpt lat="-27.2744392" lon="151.2900642">
  <ele>343.04</ele>
  <time>2026-08-27T18:32:26Z</time>
  <course>2.7</course>
  <speed>0.0412310562561766</speed>
  <fix>3d</fix>
</trkpt>
<trkpt lat="-27.274439" lon="151.290064">
  <ele>343.0</ele>
  <time>2026-08-27T18:32:26Z</time>
  <course>0.0</course>
  <speed>0.0</speed>
  <fix>3d</fix>
</trkpt>
<trkpt lat="-27.2744392" lon="151.2900643">
  <ele>343.05</ele>
  <time>2026-08-27T18:32:26Z</time>
  <course>1.22</course>
  <speed>0.0412310562561766</speed>
  <fix>3d</fix>
</trkpt>
<trkpt lat="-27.274439" lon="151.290064">
  <ele>343.0</ele>
  <time>2026-08-27T18:32:26Z</time>
  <course>0.0</course>
  <speed>0.0</speed>
  <fix>3d</fix>
</trkpt>
<trkpt lat="-27.2744392" lon="151.2900643">
  <ele>343.07</ele>
  <time>2026-08-27T18:32:26Z</time>
  <course>0.39</course>
  <speed>0.0412310562561766</speed>
  <fix>3d</fix>
</trkpt>
<trkpt lat="-27.274439" lon="151.290064">
  <ele>343.0</ele>
  <time>2026-08-27T18:32:26Z</time>
  <course>0.0</course>
  <speed>0.0</speed>
  <fix>3d</fix>
</trkpt>
<trkpt lat="-27.2744392" lon="151.2900643">
  <ele>343.08</ele>
  <time>2026-08-27T18:32:26Z</time>
  <course>359.9</course>
  <speed>0.0412310562561766</speed>
  <fix>3d</fix>
</trkpt>
<trkpt lat="-27.274439" lon="151.290064">
  <ele>343.0</ele>
  <time>2026-08-27T18:32:26Z</time>
  <course>0.0</course>
  <speed>0.0</speed>
  <fix>3d</fix>
</trkpt>
<trkpt lat="-27.2744392" lon="151.2900643">
  <ele>343.06</ele>
  <time>2026-08-27T18:32:26Z</time>
  <course>359.87</course>
  <speed>0.0412310562561766</speed>
  <fix>3d</fix>
</trkpt>
<trkpt lat="-27.274439" lon="151.290064">
  <ele>343.0</ele>
  <time>2026-08-27T18:32:26Z</time>
  <course>0.0</course>
  <speed>0.0</speed>
  <fix>3d</fix>
</trkpt>
<trkpt lat="-27.2744392" lon="151.2900643">
  <ele>343.07</ele>
  <time>2026-08-27T18:32:26Z</time>
  <course>359.93</course>
  <speed>0.0412310562561766</speed>
  <fix>3d</fix>
</trkpt>
<trkpt lat="-27.274439" lon="151.290064">
  <ele>343.0</ele>
  <time>2026-08-27T18:32:26Z</time>
  <course>0.0</course>
  <speed>0.0</speed>
  <fix>3d</fix>
</trkpt>
<trkpt lat="-27.2744392" lon="151.2900643">
  <ele>343.06</ele>
  <time>2026-08-27T18:32:26Z</time>
  <course>359.96</course>
  <speed>0.0316227766016838</speed>
  <fix>3d</fix>
</trkpt>
<trkpt lat="-27.274439" lon="151.290064">
  <ele>343.0</ele>
  <time>2026-08-27T18:32:26Z</time>
  <course>0.0</course>
  <speed>0.0</speed>
  <fix>3d</fix>
</trkpt>
<trkpt lat="-27.2744392" lon="151.2900643">
  <ele>343.08</ele>
  <time>2026-08-27T18:32:26Z</time>
  <course>0.0</course>
  <speed>0.0316227766016838</speed>
  <fix>3d</fix>
</trkpt>
<trkpt lat="-27.274439" lon="151.290064">
  <ele>343.0</ele>
  <time>2026-08-27T18:32:26Z</time>
  <course>0.0</course>
  <speed>0.0</speed>
  <fix>3d</fix>
</trkpt>
<trkpt lat="-27.2744392" lon="151.2900643">
  <ele>343.07</ele>
  <time>2026-08-27T18:32:26Z</time>
  <course>0.04</course>
  <speed>0.022360679774997897</speed>
  <fix>3d</fix>
</trkpt>
<trkpt lat="-27.274439" lon="151.290064">
  <ele>343.0</ele>
  <time>2026-08-27T18:32:26Z</time>
  <course>0.0</course>
  <speed>0.0</speed>
  <fix>3d</fix>
</trkpt>
<trkpt lat="-27.2744392" lon="151.2900643">
  <ele>343.06</ele>
  <time>2026-08-27T18:32:26Z</time>
  <course>0.01</course>
  <speed>0.01414213562373095</speed>
  <fix>3d</fix>
</trkpt>
<trkpt lat="-27.274439" lon="151.290064">
  <ele>343.0</ele>
  <time>2026-08-27T18:32:26Z</time>
  <course>0.0</course>
  <speed>0.0</speed>
  <fix>3d</fix>
</trkpt>
<trkpt lat="-27.2744391" lon="151.2900642">
  <ele>343.04</ele>
  <time>2026-08-27T18:32:26Z</time>
  <course>359.92</course>
  <speed>0.01</speed>
  <fix>3d</fix>
</trkpt>
<trkpt lat="-27.274439" lon="151.290064">
  <ele>343.0</ele>
  <time>2026-08-27T18:32:26Z</time>
  <course>0.0</course>
  <speed>0.0</speed>
  <fix>3d</fix>
</trkpt>
<trkpt lat="-27.2744391" lon="151.2900642">
  <ele>343.05</ele>
  <time>2026-08-27T18:32:26Z</time>
  <course>359.94</course>
  <speed>0.01</speed>
  <fix>3d</fix>
</trkpt>
<trkpt lat="-27.274439" lon="151.290064">
  <ele>343.0</ele>
  <time>2026-08-27T18:32:26Z</time>
  <course>0.0</course>
  <speed>0.0</speed>
  <fix>3d</fix>
</trkpt>
<trkpt lat="-27.2744391" lon="151.2900642">
  <ele>343.07</ele>
  <time>2026-08-27T18:32:26Z</time>
  <course>359.99</course>
  <speed>0.0</speed>
  <fix>3d</fix>
</trkpt>
<trkpt lat="-27.274439" lon="151.290064">
  <ele>343.0</ele>
  <time>2026-08-27T18:32:26Z</time>
  <course>0.0</course>
  <speed>0.0</speed>
  <fix>3d</fix>
</trkpt>
<trkpt lat="-27.2744391" lon="151.2900641">
  <ele>343.06</ele>
  <time>2026-08-27T18:32:26Z</time>
  <course>0.05</course>
  <speed>0.0</speed>
  <fix>3d</fix>
</trkpt>
<trkpt lat="-27.274439" lon="151.290064">
  <ele>343.0</ele>
  <time>2026-08-27T18:32:26Z</time>
  <course>0.0</course>
  <speed>0.0</speed>
  <fix>3d</fix>
</trkpt>
<trkpt lat="-27.2744391" lon="151.2900641">
  <ele>343.06</ele>
  <time>2026-08-27T18:32:26Z</time>
  <course>0.11</course>
  <speed>0.0</speed>
  <fix>3d</fix>
</trkpt>
<trkpt lat="-27.274439" lon="151.290064">
  <ele>343.0</ele>
  <time>2026-08-27T18:32:26Z</time>
  <course>0.0</course>
  <speed>0.0</speed>
  <fix>3d</fix>
</trkpt>
<trkpt lat="-27.2744391" lon="151.2900641">
  <ele>343.06</ele>
  <time>2026-08-27T18:32:26Z</time>
  <course>0.17</course>
  <speed>0.0</speed>
  <fix>3d</fix>
</trkpt>
<trkpt lat="-27.274439" lon="151.290064">
  <ele>343.0</ele>
  <time>2026-08-27T18:32:26Z</time>
  <course>0.0</course>
  <speed>0.0</speed>
  <fix>3d</fix>
</trkpt>
<trkpt lat="-27.2744391" lon="151.2900641">
  <ele>343.05</ele>
  <time>2026-08-27T18:32:26Z</time>
  <course>0.04</course>
  <speed>0.0</speed>
  <fix>3d</fix>
</trkpt>
<trkpt lat="-27.274439" lon="151.290064">
  <ele>343.0</ele>
  <time>2026-08-27T18:32:26Z</time>
  <course>0.0</course>
  <speed>0.0</speed>
  <fix>3d</fix>
</trkpt>
<trkpt lat="-27.2744391" lon="151.290064">
  <ele>343.03</ele>
  <time>2026-08-27T18:32:26Z</time>
  <course>0.0</course>
  <speed>0.0</speed>
  <fix>3d</fix>
</trkpt>
<trkpt lat="-27.274439" lon="151.290064">
  <ele>343.0</ele>
  <time>2026-08-27T18:32:26Z</time>
  <course>0.0</course>
  <speed>0.0</speed>
  <fix>3d</fix>
</trkpt>
<trkpt lat="-27.2744391" lon="151.290064">
  <ele>343.05</ele>
  <time>2026-08-27T18:32:26Z</time>
  <course>0.02</course>
  <speed>0.0</speed>
  <fix>3d</fix>
</trkpt>
<trkpt lat="-27.274439" lon="151.290064">
  <ele>343.0</ele>
  <time>2026-08-27T18:32:26Z</time>
  <course>0.0</course>
  <speed>0.0</speed>
  <fix>3d</fix>
</trkpt>
<trkpt lat="-27.2744391" lon="151.290064">
  <ele>343.04</ele>
  <time>2026-08-27T18:32:26Z</time>
  <course>0.05</course>
  <speed>0.0</speed>
  <fix>3d</fix>
</trkpt>
<trkpt lat="-27.274439" lon="151.290064">
  <ele>343.0</ele>
  <time>2026-08-27T18:32:26Z</time>
  <course>0.0</course>
  <speed>0.0</speed>
  <fix>3d</fix>
</trkpt>
<trkpt lat="-27.2744391" lon="151.290064">
  <ele>343.04</ele>
  <time>2026-08-27T18:32:26Z</time>
  <course>0.09</course>
  <speed>0.01</speed>
  <fix>3d</fix>
</trkpt>
<trkpt lat="-27.274439" lon="151.290064">
  <ele>343.0</ele>
  <time>2026-08-27T18:32:26Z</time>
  <course>0.0</course>
  <speed>0.0</speed>
  <fix>3d</fix>
</trkpt>
<trkpt lat="-27.2744391" lon="151.290064">
  <ele>343.02</ele>
  <time>2026-08-27T18:32:26Z</time>
  <course>0.07</course>
  <speed>0.01</speed>
  <fix>3d</fix>
</trkpt>
<trkpt lat="-27.274439" lon="151.290064">
  <ele>343.0</ele>
  <time>2026-08-27T18:32:26Z</time>
  <course>0.0</course>
  <speed>0.0</speed>
  <fix>3d</fix>
</trkpt>
<trkpt lat="-27.2744391" lon="151.290064">
  <ele>343.01</ele>
  <time>2026-08-27T18:32:27Z</time>
  <course>359.93</course>
  <speed>0.01414213562373095</speed>
  <fix>3d</fix>
</trkpt>
<trkpt lat="-27.274439" lon="151.290064">
  <ele>343.0</ele>
  <time>2026-08-27T18:32:27Z</time>
  <course>0.0</course>
  <speed>0.0</speed>
  <fix>3d</fix>
</trkpt>
<trkpt lat="-27.2744391" lon="151.290064">
  <ele>343.01</ele>
  <time>2026-08-27T18:32:27Z</time>
  <course>359.96</course>
  <speed>0.01414213562373095</speed>
  <fix>3d</fix>
</trkpt>
<trkpt lat="-27.274439" lon="151.290064">
  <ele>343.0</ele>
  <time>2026-08-27T18:32:27Z</time>
  <course>0.0</course>
  <speed>0.0</speed>
  <fix>3d</fix>
</trkpt>
<trkpt lat="-27.2744391" lon="151.290064">
  <ele>343.01</ele>
  <time>2026-08-27T18:32:27Z</time>
  <course>359.97</course>
  <speed>0.01414213562373095</speed>
  <fix>3d</fix>
</trkpt>
<trkpt lat="-27.274439" lon="151.290064">
  <ele>343.0</ele>
  <time>2026-08-27T18:32:27Z</time>
  <course>0.0</course>
  <speed>0.0</speed>
  <fix>3d</fix>
</trkpt>
<trkpt lat="-27.2744391" lon="151.2900639">
  <ele>342.99</ele>
  <time>2026-08-27T18:32:27Z</time>
  <course>359.98</course>
  <speed>0.01414213562373095</speed>
  <fix>3d</fix>
</trkpt>
<trkpt lat="-27.274439" lon="151.290064">
  <ele>343.0</ele>
  <time>2026-08-27T18:32:27Z</time>
  <course>0.0</course>
  <speed>0.0</speed>
  <fix>3d</fix>
</trkpt>
<trkpt lat="-27.2744391" lon="151.2900639">
  <ele>342.98</ele>
  <time>2026-08-27T18:32:27Z</time>
  <course>359.98</course>
  <speed>0.01414213562373095</speed>
  <fix>3d</fix>
</trkpt>
<trkpt lat="-27.274439" lon="151.290064">
  <ele>343.0</ele>
  <time>2026-08-27T18:32:27Z</time>
  <course>0.0</course>
  <speed>0.0</speed>
  <fix>3d</fix>
</trkpt>
<trkpt lat="-27.2744391" lon="151.2900639">
  <ele>343.0</ele>
  <time>2026-08-27T18:32:27Z</time>
  <course>359.99</course>
  <speed>0.01414213562373095</speed>
  <fix>3d</fix>
</trkpt>
<trkpt lat="-27.274439" lon="151.290064">
  <ele>343.0</ele>
  <time>2026-08-27T18:32:27Z</time>
  <course>0.0</course>
  <speed>0.0</speed>
  <fix>3d</fix>
</trkpt>
<trkpt lat="-27.2744391" lon="151.2900639">
  <ele>342.97</ele>
  <time>2026-08-27T18:32:27Z</time>
  <course>359.99</course>
  <speed>0.01414213562373095</speed>
  <fix>3d</fix>
</trkpt>
<trkpt lat="-27.274439" lon="151.290064">
  <ele>343.0</ele>
  <time>2026-08-27T18:32:27Z</time>
  <course>0.0</course>
  <speed>0.0</speed>
  <fix>3d</fix>
</trkpt>
<trkpt lat="-27.2744391" lon="151.2900639">
  <ele>342.97</ele>
  <time>2026-08-27T18:32:27Z</time>
  <course>359.99</course>
  <speed>0.01414213562373095</speed>
  <fix>3d</fix>
</trkpt>
<trkpt lat="-27.274439" lon="151.290064">
  <ele>343.0</ele>
  <time>2026-08-27T18:32:27Z</time>
  <course>0.0</course>
  <speed>0.0</speed>
  <fix>3d</fix>
</trkpt>
<trkpt lat="-27.2744391" lon="151.2900639">
  <ele>342.97</ele>
  <time>2026-08-27T18:32:27Z</time>
  <course>0.0</course>
  <speed>0.01414213562373095</speed>
  <fix>3d</fix>
</trkpt>
<trkpt lat="-27.274439" lon="151.290064">
  <ele>343.0</ele>
  <time>2026-08-27T18:32:27Z</time>
  <course>0.0</course>
  <speed>0.0</speed>
  <fix>3d</fix>
</trkpt>
<trkpt lat="-27.2744391" lon="151.2900639">
  <ele>342.99</ele>
  <time>2026-08-27T18:32:27Z</time>
  <course>0.0</course>
  <speed>0.01414213562373095</speed>
  <fix>3d</fix>
</trkpt>
<trkpt lat="-27.274439" lon="151.290064">
  <ele>343.0</ele>
  <time>2026-08-27T18:32:27Z</time>
  <course>0.0</course>
  <speed>0.0</speed>
  <fix>3d</fix>
</trkpt>
<trkpt lat="-27.2744391" lon="151.2900639">
  <ele>342.99</ele>
  <time>2026-08-27T18:32:27Z</time>
  <course>0.0</course>
  <speed>0.01414213562373095</speed>
  <fix>3d</fix>
</trkpt>
<trkpt lat="-27.274439" lon="151.290064">
  <ele>343.0</ele>
  <time>2026-08-27T18:32:27Z</time>
  <course>0.0</course>
  <speed>0.0</speed>
  <fix>3d</fix>
</trkpt>
<trkpt lat="-27.2744391" lon="151.2900639">
  <ele>343.0</ele>
  <time>2026-08-27T18:32:27Z</time>
  <course>0.01</course>
  <speed>0.01414213562373095</speed>
  <fix>3d</fix>
</trkpt>
<trkpt lat="-27.274439" lon="151.290064">
  <ele>343.0</ele>
  <time>2026-08-27T18:32:27Z</time>
  <course>0.0</course>
  <speed>0.0</speed>
  <fix>3d</fix>
</trkpt>
<trkpt lat="-27.2744391" lon="151.2900639">
  <ele>342.99</ele>
  <time>2026-08-27T18:32:27Z</time>
  <course>0.01</course>
  <speed>0.01414213562373095</speed>
  <fix>3d</fix>
</trkpt>
<trkpt lat="-27.274439" lon="151.290064">
  <ele>343.0</ele>
  <time>2026-08-27T18:32:27Z</time>
  <course>0.0</course>
  <speed>0.0</speed>
  <fix>3d</fix>
</trkpt>
<trkpt lat="-27.2744391" lon="151.2900639">
  <ele>343.0</ele>
  <time>2026-08-27T18:32:27Z</time>
  <course>7.92</course>
  <speed>0.01414213562373095</speed>
  <fix>3d</fix>
</trkpt>
<trkpt lat="-27.274439" lon="151.290064">
  <ele>343.0</ele>
  <time>2026-08-27T18:32:27Z</time>
  <course>0.0</course>
  <speed>0.0</speed>
  <fix>3d</fix>
</trkpt>
<trkpt lat="-27.2744391" lon="151.2900639">
  <ele>343.03</ele>
  <time>2026-08-27T18:32:27Z</time>
  <course>16.91</course>
  <speed>0.022360679774997897</speed>
  <fix>3d</fix>
</trkpt>
<trkpt lat="-27.274439" lon="151.290064">
  <ele>343.0</ele>
  <time>2026-08-27T18:32:27Z</time>
  <course>0.0</course>
  <speed>0.0</speed>
  <fix>3d</fix>
</trkpt>
<trkpt lat="-27.2744392" lon="151.2900639">
  <ele>343.0</ele>
  <time>2026-08-27T18:32:27Z</time>
  <course>25.9</course>
  <speed>0.02</speed>
  <fix>3d</fix>
</trkpt>
<trkpt lat="-27.274439" lon="151.290064">
  <ele>343.0</ele>
  <time>2026-08-27T18:32:27Z</time>
  <course>0.0</course>
  <speed>0.0</speed>
  <fix>3d</fix>
</trkpt>
<trkpt lat="-27.2744391" lon="151.2900639">
  <ele>343.02</ele>
  <time>2026-08-27T18:32:27Z</time>
  <course>34.9</course>
  <speed>0.02</speed>
  <fix>3d</fix>
</trkpt>
<trkpt lat="-27.274439" lon="151.290064">
  <ele>343.0</ele>
  <time>2026-08-27T18:32:27Z</time>
  <course>0.0</course>
  <speed>0.0</speed>
  <fix>3d</fix>
</trkpt>
<trkpt lat="-27.2744391" lon="151.2900639">
  <ele>343.02</ele>
  <time>2026-08-27T18:32:27Z</time>
  <course>42.88</course>
  <speed>0.02</speed>
  <fix>3d</fix>
</trkpt>
<trkpt lat="-27.274439" lon="151.290064">
  <ele>343.0</ele>
  <time>2026-08-27T18:32:27Z</time>
  <course>0.0</course>
  <speed>0.0</speed>
  <fix>3d</fix>
</trkpt>
<trkpt lat="-27.2744391" lon="151.290064">
  <ele>343.02</ele>
  <time>2026-08-27T18:32:27Z</time>
  <course>46.05</course>
  <speed>0.01</speed>
  <fix>3d</fix>
</trkpt>
<trkpt lat="-27.274439" lon="151.290064">
  <ele>343.0</ele>
  <time>2026-08-27T18:32:27Z</time>
  <course>0.0</course>
  <speed>0.0</speed>
  <fix>3d</fix>
</trkpt>
<trkpt lat="-27.2744391" lon="151.290064">
  <ele>343.02</ele>
  <time>2026-08-27T18:32:27Z</time>
  <course>46.69</course>
  <speed>0.01</speed>
  <fix>3d</fix>
</trkpt>
<trkpt lat="-27.274439" lon="151.290064">
  <ele>343.0</ele>
  <time>2026-08-27T18:32:27Z</time>
  <course>0.0</course>
  <speed>0.0</speed>
  <fix>3d</fix>
</trkpt>
<trkpt lat="-27.2744391" lon="151.290064">
  <ele>343.01</ele>
  <time>2026-08-27T18:32:27Z</time>
  <course>46.38</course>
  <speed>0.01</speed>
  <fix>3d</fix>
</trkpt>
<trkpt lat="-27.274439" lon="151.290064">
  <ele>343.0</ele>
  <time>2026-08-27T18:32:27Z</time>
  <course>0.0</course>
  <speed>0.0</speed>
  <fix>3d</fix>
</trkpt>
<trkpt lat="-27.2744391" lon="151.290064">
  <ele>343.03</ele>
  <time>2026-08-27T18:32:27Z</time>
  <course>45.89</course>
  <speed>0.02</speed>
  <fix>3d</fix>
</trkpt>
<trkpt lat="-27.274439" lon="151.290064">
  <ele>343.0</ele>
  <time>2026-08-27T18:32:27Z</time>
  <course>0.0</course>
  <speed>0.0</speed>
  <fix>3d</fix>
</trkpt>
<trkpt lat="-27.2744391" lon="151.290064">
  <ele>343.02</ele>
  <time>2026-08-27T18:32:27Z</time>
  <course>45.45</course>
  <speed>0.02</speed>
  <fix>3d</fix>
</trkpt>
<trkpt lat="-27.274439" lon="151.290064">
  <ele>343.0</ele>
  <time>2026-08-27T18:32:27Z</time>
  <course>0.0</course>
  <speed>0.0</speed>
  <fix>3d</fix>
</trkpt>
<trkpt lat="-27.2744392" lon="151.290064">
  <ele>343.02</ele>
  <time>2026-08-27T18:32:27Z</time>
  <course>45.13</course>
  <speed>0.02</speed>
  <fix>3d</fix>
</trkpt>
<trkpt lat="-27.274439" lon="151.290064">
  <ele>343.0</ele>
  <time>2026-08-27T18:32:27Z</time>
  <course>0.0</course>
  <speed>0.0</speed>
  <fix>3d</fix>
</trkpt>
<trkpt lat="-27.2744392" lon="151.290064">
  <ele>343.05</ele>
  <time>2026-08-27T18:32:27Z</time>
  <course>44.94</course>
  <speed>0.02</speed>
  <fix>3d</fix>
</trkpt>
<trkpt lat="-27.274439" lon="151.290064">
  <ele>343.0</ele>
  <time>2026-08-27T18:32:27Z</time>
  <course>0.0</course>
  <speed>0.0</speed>
  <fix>3d</fix>
</trkpt>
<trkpt lat="-27.2744392" lon="151.290064">
  <ele>343.04</ele>
  <time>2026-08-27T18:32:27Z</time>
  <course>44.94</course>
  <speed>0.03</speed>
  <fix>3d</fix>
</trkpt>
<trkpt lat="-27.274439" lon="151.290064">
  <ele>343.0</ele>
  <time>2026-08-27T18:32:27Z</time>
  <course>0.0</course>
  <speed>0.0</speed>
  <fix>3d</fix>
</trkpt>
<trkpt lat="-27.2744392" lon="151.290064">
  <ele>343.02</ele>
  <time>2026-08-27T18:32:27Z</time>
  <course>45.0</course>
  <speed>0.03</speed>
  <fix>3d</fix>
</trkpt>
<trkpt lat="-27.274439" lon="151.290064">
  <ele>343.0</ele>
  <time>2026-08-27T18:32:27Z</time>
  <course>0.0</course>
  <speed>0.0</speed>
  <fix>3d</fix>
</trkpt>
<trkpt lat="-27.2744392" lon="151.290064">
  <ele>343.02</ele>
  <time>2026-08-27T18:32:27Z</time>
  <course>45.0</course>
  <speed>0.03</speed>
  <fix>3d</fix>
</trkpt>
<trkpt lat="-27.274439" lon="151.290064">
  <ele>343.0</ele>
  <time>2026-08-27T18:32:27Z</time>
  <course>0.0</course>
  <speed>0.0</speed>
  <fix>3d</fix>
</trkpt>
<trkpt lat="-27.2744392" lon="151.290064">
  <ele>343.01</ele>
  <time>2026-08-27T18:32:27Z</time>
  <course>36.92</course>
  <speed>0.03</speed>
  <fix>3d</fix>
</trkpt>
<trkpt lat="-27.274439" lon="151.290064">
  <ele>343.0</ele>
  <time>2026-08-27T18:32:27Z</time>
  <course>0.0</course>
  <speed>0.0</speed>
  <fix>3d</fix>
</trkpt>
<trkpt lat="-27.2744392" lon="151.290064">
  <ele>343.08</ele>
  <time>2026-08-27T18:32:27Z</time>
  <course>27.76</course>
  <speed>0.02</speed>
  <fix>3d</fix>
</trkpt>
<trkpt lat="-27.274439" lon="151.290064">
  <ele>343.0</ele>
  <time>2026-08-27T18:32:27Z</time>
  <course>0.0</course>
  <speed>0.0</speed>
  <fix>3d</fix>
</trkpt>
<trkpt lat="-27.2744392" lon="151.290064">
  <ele>343.11</ele>
  <time>2026-08-27T18:32:27Z</time>
  <course>18.66</course>
  <speed>0.01</speed>
  <fix>3d</fix>
</trkpt>
<trkpt lat="-27.274439" lon="151.290064">
  <ele>343.0</ele>
  <time>2026-08-27T18:32:27Z</time>
  <course>0.0</course>
  <speed>0.0</speed>
  <fix>3d</fix>
</trkpt>
<trkpt lat="-27.2744392" lon="151.290064">
  <ele>343.13</ele>
  <time>2026-08-27T18:32:27Z</time>
  <course>9.57</course>
  <speed>0.01</speed>
  <fix>3d</fix>
</trkpt>
<trkpt lat="-27.274439" lon="151.290064">
  <ele>343.0</ele>
  <time>2026-08-27T18:32:27Z</time>
  <course>0.0</course>
  <speed>0.0</speed>
  <fix>3d</fix>
</trkpt>
<trkpt lat="-27.274439" lon="151.290064">
  <ele>343.0</ele>
  <time>2026-08-27T18:32:27Z</time>
  <course>325.88</course>
  <speed>0.0</speed>
  <fix>3d</fix>
</trkpt>
<trkpt lat="-27.274439" lon="151.290064">
  <ele>343.0</ele>
  <time>2026-08-27T18:32:27Z</time>
  <course>324.43</course>
  <speed>0.0</speed>
  <fix>3d</fix>
</trkpt>
<trkpt lat="-27.274439" lon="151.290064">
  <ele>343.0</ele>
  <time>2026-08-27T18:32:27Z</time>
  <course>321.86</course>
  <speed>0.0</speed>
  <fix>3d</fix>
</trkpt>
<trkpt lat="-27.274439" lon="151.290064">
  <ele>343.0</ele>
  <time>2026-08-27T18:32:27Z</time>
  <course>295.0</course>
  <speed>0.0</speed>
  <fix>3d</fix>
</trkpt>
<trkpt lat="-27.274439" lon="151.290064">
  <ele>343.0</ele>
  <time>2026-08-27T18:32:27Z</time>
  <course>290.72</course>
  <speed>0.0</speed>
  <fix>3d</fix>
</trkpt>
<trkpt lat="-27.274439" lon="151.290064">
  <ele>343.0</ele>
  <time>2026-08-27T18:32:27Z</time>
  <course>284.84</course>
  <speed>0.0</speed>
  <fix>3d</fix>
</trkpt>
<trkpt lat="-27.274439" lon="151.290064">
  <ele>343.0</ele>
  <time>2026-08-27T18:32:27Z</time>
  <course>269.55</course>
  <speed>0.0</speed>
  <fix>3d</fix>
</trkpt>
<trkpt lat="-27.274439" lon="151.290064">
  <ele>343.0</ele>
  <time>2026-08-27T18:32:27Z</time>
  <course>262.16</course>
  <speed>0.9176055797563569</speed>
  <fix>3d</fix>
</trkpt>
<trkpt lat="-27.274439" lon="151.290064">
  <ele>343.0</ele>
  <time>2026-08-27T18:32:27Z</time>
  <course>0.0</course>
  <speed>0.0</speed>
  <fix>3d</fix>
</trkpt>
<trkpt lat="-27.274439" lon="151.290064">
  <ele>343.0</ele>
  <time>2026-08-27T18:32:27Z</time>
  <course>256.4</course>
  <speed>0.9403190947758107</speed>
  <fix>3d</fix>
</trkpt>
<trkpt lat="-27.274439" lon="151.290064">
  <ele>343.0</ele>
  <time>2026-08-27T18:32:27Z</time>
  <course>0.0</course>
  <speed>0.0</speed>
  <fix>3d</fix>
</trkpt>
<trkpt lat="-27.274439" lon="151.290064">
  <ele>343.0</ele>
  <time>2026-08-27T18:32:27Z</time>
  <course>249.45</course>
  <speed>0.756042326857432</speed>
  <fix>3d</fix>
</trkpt>
<trkpt lat="-27.274439" lon="151.290064">
  <ele>343.0</ele>
  <time>2026-08-27T18:32:27Z</time>
  <course>0.0</course>
  <speed>0.0</speed>
  <fix>3d</fix>
</trkpt>
<trkpt lat="-27.274439" lon="151.290064">
  <ele>343.0</ele>
  <time>2026-08-27T18:32:27Z</time>
  <course>241.79</course>
  <speed>0.6596969000988256</speed>
  <fix>3d</fix>
</trkpt>
<trkpt lat="-27.274439" lon="151.290064">
  <ele>343.0</ele>
  <time>2026-08-27T18:32:27Z</time>
  <course>0.0</course>
  <speed>0.0</speed>
  <fix>3d</fix>
</trkpt>
<trkpt lat="-27.274439" lon="151.290064">
  <ele>343.0</ele>
  <time>2026-08-27T18:32:27Z</time>
  <course>233.59</course>
  <speed>0.6618912297349165</speed>
  <fix>3d</fix>
</trkpt>
<trkpt lat="-27.274439" lon="151.290064">
  <ele>343.0</ele>
  <time>2026-08-27T18:32:27Z</time>
  <course>0.0</course>
  <speed>0.0</speed>
  <fix>3d</fix>
</trkpt>
<trkpt lat="-27.274439" lon="151.290064">
  <ele>343.0</ele>
  <time>2026-08-27T18:32:27Z</time>
  <course>225.02</course>
  <speed>0.7034202158027589</speed>
  <fix>3d</fix>
</trkpt>
<trkpt lat="-27.274439" lon="151.290064">
  <ele>343.0</ele>
  <time>2026-08-27T18:32:27Z</time>
  <course>0.0</course>
  <speed>0.0</speed>
  <fix>3d</fix>
</trkpt>
<trkpt lat="-27.274439" lon="151.290064">
  <ele>343.0</ele>
  <time>2026-08-27T18:32:27Z</time>
  <course>216.53</course>
  <speed>0.7539230729988305</speed>
  <fix>3d</fix>
</trkpt>
<trkpt lat="-27.274439" lon="151.290064">
  <ele>343.0</ele>
  <time>2026-08-27T18:32:27Z</time>
  <course>0.0</course>
  <speed>0.0</speed>
  <fix>3d</fix>
</trkpt>
<trkpt lat="-27.274439" lon="151.290064">
  <ele>343.0</ele>
  <time>2026-08-27T18:32:27Z</time>
  <course>207.49</course>
  <speed>0.8052949770115296</speed>
  <fix>3d</fix>
</trkpt>
<trkpt lat="-27.274439" lon="151.290064">
  <ele>343.0</ele>
  <time>2026-08-27T18:32:27Z</time>
  <course>0.0</course>
  <speed>0.0</speed>
  <fix>3d</fix>
</trkpt>
<trkpt lat="-27.274439" lon="151.290064">
  <ele>343.0</ele>
  <time>2026-08-27T18:32:27Z</time>
  <course>198.32</course>
  <speed>0.8453401682163222</speed>
  <fix>3d</fix>
</trkpt>
<trkpt lat="-27.274439" lon="151.290064">
  <ele>343.0</ele>
  <time>2026-08-27T18:32:27Z</time>
  <course>0.0</course>
  <speed>0.0</speed>
  <fix>3d</fix>
</trkpt>
<trkpt lat="-27.274439" lon="151.290064">
  <ele>343.0</ele>
  <time>2026-08-27T18:32:27Z</time>
  <course>189.07</course>
  <speed>0.8645229898620395</speed>
  <fix>3d</fix>
</trkpt>
<trkpt lat="-27.274439" lon="151.290064">
  <ele>343.0</ele>
  <time>2026-08-27T18:32:27Z</time>
  <course>0.0</course>
  <speed>0.0</speed>
  <fix>3d</fix>
</trkpt>
<trkpt lat="-27.274439" lon="151.290064">
  <ele>343.0</ele>
  <time>2026-08-27T18:32:27Z</time>
  <course>196.22</course>
  <speed>0.8736704184073076</speed>
  <fix>3d</fix>
</trkpt>
<trkpt lat="-27.274439" lon="151.290064">
  <ele>343.0</ele>
  <time>2026-08-27T18:32:27Z</time>
  <course>0.0</course>
  <speed>0.0</speed>
  <fix>3d</fix>
</trkpt>
<trkpt lat="-27.274439" lon="151.290064">
  <ele>343.0</ele>
  <time>2026-08-27T18:32:27Z</time>
  <course>205.13</course>
  <speed>0.8930845424706443</speed>
  <fix>3d</fix>
</trkpt>
<trkpt lat="-27.274439" lon="151.290064">
  <ele>343.0</ele>
  <time>2026-08-27T18:32:27Z</time>
  <course>0.0</course>
  <speed>0.0</speed>
  <fix>3d</fix>
</trkpt>
<trkpt lat="-27.274439" lon="151.290064">
  <ele>343.0</ele>
  <time>2026-08-27T18:32:28Z</time>
  <course>213.98</course>
  <speed>0.904433524367601</speed>
  <fix>3d</fix>
</trkpt>
<trkpt lat="-27.274439" lon="151.290064">
  <ele>343.0</ele>
  <time>2026-08-27T18:32:28Z</time>
  <course>0.0</course>
  <speed>0.0</speed>
  <fix>3d</fix>
</trkpt>
<trkpt lat="-27.274439" lon="151.290064">
  <ele>343.0</ele>
  <time>2026-08-27T18:32:28Z</time>
  <course>222.84</course>
  <speed>0.912633551870629</speed>
  <fix>3d</fix>
</trkpt>
<trkpt lat="-27.274439" lon="151.290064">
  <ele>343.0</ele>
  <time>2026-08-27T18:32:28Z</time>
  <course>0.0</course>
  <speed>0.0</speed>
  <fix>3d</fix>
</trkpt>
<trkpt lat="-27.274439" lon="151.290064">
  <ele>343.0</ele>
  <time>2026-08-27T18:32:28Z</time>
  <course>229.93</course>
  <speed>0.9235799911215054</speed>
  <fix>3d</fix>
</trkpt>
<trkpt lat="-27.274439" lon="151.290064">
  <ele>343.0</ele>
  <time>2026-08-27T18:32:28Z</time>
  <course>0.0</course>
  <speed>0.0</speed>
  <fix>3d</fix>
</trkpt>
<trkpt lat="-27.274439" lon="151.290064">
  <ele>343.0</ele>
  <time>2026-08-27T18:32:28Z</time>
  <course>232.51</course>
  <speed>0.9180958555619343</speed>
  <fix>3d</fix>
</trkpt>
<trkpt lat="-27.274439" lon="151.290064">
  <ele>343.0</ele>
  <time>2026-08-27T18:32:28Z</time>
  <course>0.0</course>
  <speed>0.0</speed>
  <fix>3d</fix>
</trkpt>
<trkpt lat="-27.274439" lon="151.290064">
  <ele>343.0</ele>
  <time>2026-08-27T18:32:28Z</time>
  <course>233.24</course>
  <speed>0.8848163651289458</speed>
  <fix>3d</fix>
</trkpt>
<trkpt lat="-27.274439" lon="151.290064">
  <ele>343.0</ele>
  <time>2026-08-27T18:32:28Z</time>
  <course>0.0</course>
  <speed>0.0</speed>
  <fix>3d</fix>
</trkpt>
<trkpt lat="-27.274439" lon="151.290064">
  <ele>343.0</ele>
  <time>2026-08-27T18:32:28Z</time>
  <course>233.31</course>
  <speed>0.8462860036654276</speed>
  <fix>3d</fix>
</trkpt>
<trkpt lat="-27.274439" lon="151.290064">
  <ele>343.0</ele>
  <time>2026-08-27T18:32:28Z</time>
  <course>0.0</course>
  <speed>0.0</speed>
  <fix>3d</fix>
</trkpt>
<trkpt lat="-27.274439" lon="151.290064">
  <ele>343.0</ele>
  <time>2026-08-27T18:32:28Z</time>
  <course>233.11</course>
  <speed>0.8154140052758475</speed>
  <fix>3d</fix>
</trkpt>
<trkpt lat="-27.274439" lon="151.290064">
  <ele>343.0</ele>
  <time>2026-08-27T18:32:28Z</time>
  <course>0.0</course>
  <speed>0.0</speed>
  <fix>3d</fix>
</trkpt>
<trkpt lat="-27.274439" lon="151.290064">
  <ele>343.0</ele>
  <time>2026-08-27T18:32:28Z</time>
  <course>232.83</course>
  <speed>0.7889233169326408</speed>
  <fix>3d</fix>
</trkpt>
<trkpt lat="-27.274439" lon="151.290064">
  <ele>343.0</ele>
  <time>2026-08-27T18:32:28Z</time>
  <course>0.0</course>
  <speed>0.0</speed>
  <fix>3d</fix>
</trkpt>
<trkpt lat="-27.274439" lon="151.290064">
  <ele>343.0</ele>
  <time>2026-08-27T18:32:28Z</time>
  <course>232.52</course>
  <speed>0.7517978451685</speed>
  <fix>3d</fix>
</trkpt>
<trkpt lat="-27.274439" lon="151.290064">
  <ele>343.0</ele>
  <time>2026-08-27T18:32:28Z</time>
  <course>0.0</course>
  <speed>0.0</speed>
  <fix>3d</fix>
</trkpt>
<trkpt lat="-27.274439" lon="151.290064">
  <ele>343.0</ele>
  <time>2026-08-27T18:32:28Z</time>
  <course>232.23</course>
  <speed>0.6935416353759881</speed>
  <fix>3d</fix>
</trkpt>
<trkpt lat="-27.274439" lon="151.290064">
  <ele>343.0</ele>
  <time>2026-08-27T18:32:28Z</time>
  <course>0.0</course>
  <speed>0.0</speed>
  <fix>3d</fix>
</trkpt>
<trkpt lat="-27.274439" lon="151.290064">
  <ele>343.0</ele>
  <time>2026-08-27T18:32:28Z</time>
  <course>231.96</course>
  <speed>0.6352952069707436</speed>
  <fix>3d</fix>
</trkpt>
<trkpt lat="-27.274439" lon="151.290064">
  <ele>343.0</ele>
  <time>2026-08-27T18:32:28Z</time>
  <course>0.0</course>
  <speed>0.0</speed>
  <fix>3d</fix>
</trkpt>
<trkpt lat="-27.274439" lon="151.290064">
  <ele>343.0</ele>
  <time>2026-08-27T18:32:28Z</time>
  <course>231.71</course>
  <speed>0.5770615218501404</speed>
  <fix>3d</fix>
</trkpt>
<trkpt lat="-27.274439" lon="151.290064">
  <ele>343.0</ele>
  <time>2026-08-27T18:32:28Z</time>
  <course>0.0</course>
  <speed>0.0</speed>
  <fix>3d</fix>
</trkpt>
<trkpt lat="-27.274439" lon="151.290064">
  <ele>343.0</ele>
  <time>2026-08-27T18:32:28Z</time>
  <course>231.46</course>
  <speed>0.5458937625582473</speed>
  <fix>3d</fix>
</trkpt>
<trkpt lat="-27.274439" lon="151.290064">
  <ele>343.0</ele>
  <time>2026-08-27T18:32:28Z</time>
  <course>0.0</course>
  <speed>0.0</speed>
  <fix>3d</fix>
</trkpt>
<trkpt lat="-27.274439" lon="151.290064">
  <ele>343.0</ele>
  <time>2026-08-27T18:32:28Z</time>
  <course>231.24</course>
  <speed>0.5371219600798314</speed>
  <fix>3d</fix>
</trkpt>
<trkpt lat="-27.274439" lon="151.290064">
  <ele>343.0</ele>
  <time>2026-08-27T18:32:28Z</time>
  <course>0.0</course>
  <speed>0.0</speed>
  <fix>3d</fix>
</trkpt>
<trkpt lat="-27.274439" lon="151.290064">
  <ele>343.0</ele>
  <time>2026-08-27T18:32:28Z</time>
  <course>231.02</course>
  <speed>0.5060632371551997</speed>
  <fix>3d</fix>
</trkpt>
<trkpt lat="-27.274439" lon="151.290064">
  <ele>343.0</ele>
  <time>2026-08-27T18:32:28Z</time>
  <course>0.0</course>
  <speed>0.0</speed>
  <fix>3d</fix>
</trkpt>
<trkpt lat="-27.274439" lon="151.290064">
  <ele>343.0</ele>
  <time>2026-08-27T18:32:28Z</time>
  <course>230.8</course>
  <speed>0.5024937810560445</speed>
  <fix>3d</fix>
</trkpt>
<trkpt lat="-27.274439" lon="151.290064">
  <ele>343.0</ele>
  <time>2026-08-27T18:32:28Z</time>
  <course>0.0</course>
  <speed>0.0</speed>
  <fix>3d</fix>
</trkpt>
<trkpt lat="-27.274439" lon="151.290064">
  <ele>343.0</ele>
  <time>2026-08-27T18:32:28Z</time>
  <course>230.61</course>
  <speed>0.49929950931279715</speed>
  <fix>3d</fix>
</trkpt>
<trkpt lat="-27.274439" lon="151.290064">
  <ele>343.0</ele>
  <time>2026-08-27T18:32:28Z</time>
  <course>0.0</course>
  <speed>0.0</speed>
  <fix>3d</fix>
</trkpt>
<trkpt lat="-27.274439" lon="151.290064">
  <ele>343.0</ele>
  <time>2026-08-27T18:32:28Z</time>
  <course>230.42</course>
  <speed>0.5047771785649585</speed>
  <fix>3d</fix>
</trkpt>
<trkpt lat="-27.274439" lon="151.290064">
  <ele>343.0</ele>
  <time>2026-08-27T18:32:28Z</time>
  <course>0.0</course>
  <speed>0.0</speed>
  <fix>3d</fix>
</trkpt>
<trkpt lat="-27.274439" lon="151.290064">
  <ele>343.0</ele>
  <time>2026-08-27T18:32:28Z</time>
  <course>230.24</course>
  <speed>0.49648766349225637</speed>
  <fix>3d</fix>
</trkpt>
<trkpt lat="-27.274439" lon="151.290064">
  <ele>343.0</ele>
  <time>2026-08-27T18:32:28Z</time>
  <course>0.0</course>
  <speed>0.0</speed>
  <fix>3d</fix>
</trkpt>
<trkpt lat="-27.2744397" lon="151.2900645">
  <ele>343.04</ele>
  <time>2026-08-27T18:32:28Z</time>
  <course>230.07</course>
  <speed>0.022360679774997897</speed>
  <fix>3d</fix>
</trkpt>
<trkpt lat="-27.274439" lon="151.290064">
  <ele>343.0</ele>
  <time>2026-08-27T18:32:28Z</time>
  <course>0.0</course>
  <speed>0.0</speed>
  <fix>3d</fix>
</trkpt>
<trkpt lat="-27.2744391" lon="151.2900639">
  <ele>343.01</ele>
  <time>2026-08-27T18:32:28Z</time>
  <course>229.72</course>
  <speed>0.05</speed>
  <fix>3d</fix>
</trkpt>
<trkpt lat="-27.274439" lon="151.290064">
  <ele>343.0</ele>
  <time>2026-08-27T18:32:28Z</time>
  <course>0.0</course>
  <speed>0.0</speed>
  <fix>3d</fix>
</trkpt>
<trkpt lat="-27.274439" lon="151.2900639">
  <ele>343.02</ele>
  <time>2026-08-27T18:32:28Z</time>
  <course>229.55</course>
  <speed>0.0316227766016838</speed>
  <fix>3d</fix>
</trkpt>
<trkpt lat="-27.274439" lon="151.290064">
  <ele>343.0</ele>
  <time>2026-08-27T18:32:28Z</time>
  <course>0.0</course>
  <speed>0.0</speed>
  <fix>3d</fix>
</trkpt>
<trkpt lat="-27.274439" lon="151.290064">
  <ele>343.04</ele>
  <time>2026-08-27T18:32:28Z</time>
  <course>237.66</course>
  <speed>0.02</speed>
  <fix>3d</fix>
</trkpt>
<trkpt lat="-27.274439" lon="151.290064">
  <ele>343.0</ele>
  <time>2026-08-27T18:32:28Z</time>
  <course>0.0</course>
  <speed>0.0</speed>
  <fix>3d</fix>
</trkpt>
<trkpt lat="-27.2744389" lon="151.290064">
  <ele>343.04</ele>
  <time>2026-08-27T18:32:28Z</time>
  <course>246.5</course>
  <speed>0.01414213562373095</speed>
  <fix>3d</fix>
</trkpt>
<trkpt lat="-27.274439" lon="151.290064">
  <ele>343.0</ele>
  <time>2026-08-27T18:32:28Z</time>
  <course>0.0</course>
  <speed>0.0</speed>
  <fix>3d</fix>
</trkpt>
<trkpt lat="-27.2744389" lon="151.2900641">
  <ele>343.03</ele>
  <time>2026-08-27T18:32:28Z</time>
  <course>255.35</course>
  <speed>0.01414213562373095</speed>
  <fix>3d</fix>
</trkpt>
<trkpt lat="-27.274439" lon="151.290064">
  <ele>343.0</ele>
  <time>2026-08-27T18:32:28Z</time>
  <course>0.0</course>
  <speed>0.0</speed>
  <fix>3d</fix>
</trkpt>
<trkpt lat="-27.2744389" lon="151.2900641">
  <ele>343.03</ele>
  <time>2026-08-27T18:32:28Z</time>
  <course>264.25</course>
  <speed>0.01414213562373095</speed>
  <fix>3d</fix>
</trkpt>
<trkpt lat="-27.274439" lon="151.290064">
  <ele>343.0</ele>
  <time>2026-08-27T18:32:28Z</time>
  <course>0.0</course>
  <speed>0.0</speed>
  <fix>3d</fix>
</trkpt>
<trkpt lat="-27.2744389" lon="151.290064">
  <ele>343.04</ele>
  <time>2026-08-27T18:32:28Z</time>
  <course>270.36</course>
  <speed>0.0</speed>
  <fix>3d</fix>
</trkpt>
<trkpt lat="-27.274439" lon="151.290064">
  <ele>343.0</ele>
  <time>2026-08-27T18:32:28Z</time>
  <course>0.0</course>
  <speed>0.0</speed>
  <fix>3d</fix>
</trkpt>
<trkpt lat="-27.2744389" lon="151.290064">
  <ele>343.05</ele>
  <time>2026-08-27T18:32:28Z</time>
  <course>278.75</course>
  <speed>0.0</speed>
  <fix>3d</fix>
</trkpt>
<trkpt lat="-27.274439" lon="151.290064">
  <ele>343.0</ele>
  <time>2026-08-27T18:32:28Z</time>
  <course>0.0</course>
  <speed>0.0</speed>
  <fix>3d</fix>
</trkpt>
<trkpt lat="-27.2744389" lon="151.290064">
  <ele>343.03</ele>
  <time>2026-08-27T18:32:28Z</time>
  <course>287.7</course>
  <speed>0.0</speed>
  <fix>3d</fix>
</trkpt>
<trkpt lat="-27.274439" lon="151.290064">
  <ele>343.0</ele>
  <time>2026-08-27T18:32:28Z</time>
  <course>0.0</course>
  <speed>0.0</speed>
  <fix>3d</fix>
</trkpt>
<trkpt lat="-27.2744389" lon="151.290064">
  <ele>343.04</ele>
  <time>2026-08-27T18:32:28Z</time>
  <course>296.7</course>
  <speed>0.0</speed>
  <fix>3d</fix>
</trkpt>
<trkpt lat="-27.274439" lon="151.290064">
  <ele>343.0</ele>
  <time>2026-08-27T18:32:28Z</time>
  <course>0.0</course>
  <speed>0.0</speed>
  <fix>3d</fix>
</trkpt>
<trkpt lat="-27.2744389" lon="151.290064">
  <ele>343.03</ele>
  <time>2026-08-27T18:32:28Z</time>
  <course>289.69</course>
  <speed>0.0</speed>
  <fix>3d</fix>
</trkpt>
<trkpt lat="-27.274439" lon="151.290064">
  <ele>343.0</ele>
  <time>2026-08-27T18:32:28Z</time>
  <course>0.0</course>
  <speed>0.0</speed>
  <fix>3d</fix>
</trkpt>
<trkpt lat="-27.2744389" lon="151.290064">
  <ele>343.04</ele>
  <time>2026-08-27T18:32:28Z</time>
  <course>280.47</course>
  <speed>0.01414213562373095</speed>
  <fix>3d</fix>
</trkpt>
<trkpt lat="-27.274439" lon="151.290064">
  <ele>343.0</ele>
  <time>2026-08-27T18:32:28Z</time>
  <course>0.0</course>
  <speed>0.0</speed>
  <fix>3d</fix>
</trkpt>
<trkpt lat="-27.2744389" lon="151.2900642">
  <ele>343.03</ele>
  <time>2026-08-27T18:32:28Z</time>
  <course>271.25</course>
  <speed>0.03605551275463989</speed>
  <fix>3d</fix>
</trkpt>
<trkpt lat="-27.274439" lon="151.290064">
  <ele>343.0</ele>
  <time>2026-08-27T18:32:28Z</time>
  <course>0.0</course>
  <speed>0.0</speed>
  <fix>3d</fix>
</trkpt>
<trkpt lat="-27.2744389" lon="151.2900643">
  <ele>343.02</ele>
  <time>2026-08-27T18:32:28Z</time>
  <course>262.06</course>
  <speed>0.05830951894845301</speed>
  <fix>3d</fix>
</trkpt>
<trkpt lat="-27.274439" lon="151.290064">
  <ele>343.0</ele>
  <time>2026-08-27T18:32:28Z</time>
  <course>0.0</course>
  <speed>0.0</speed>
  <fix>3d</fix>
</trkpt>
<trkpt lat="-27.2744387" lon="151.2900644">
  <ele>342.99</ele>
  <time>2026-08-27T18:32:28Z</time>
  <course>252.91</course>
  <speed>0.06403124237432849</speed>
  <fix>3d</fix>
</trkpt>
<trkpt lat="-27.274439" lon="151.290064">
  <ele>343.0</ele>
  <time>2026-08-27T18:32:28Z</time>
  <course>0.0</course>
  <speed>0.0</speed>
  <fix>3d</fix>
</trkpt>
<trkpt lat="-27.2744387" lon="151.2900644">
  <ele>343.0</ele>
  <time>2026-08-27T18:32:28Z</time>
  <course>243.77</course>
  <speed>0.06403124237432849</speed>
  <fix>3d</fix>
</trkpt>
<trkpt lat="-27.274439" lon="151.290064">
  <ele>343.0</ele>
  <time>2026-08-27T18:32:28Z</time>
  <course>0.0</course>
  <speed>0.0</speed>
  <fix>3d</fix>
</trkpt>
<trkpt lat="-27.2744387" lon="151.2900644">
  <ele>343.03</ele>
  <time>2026-08-27T18:32:28Z</time>
  <course>234.62</course>
  <speed>0.0565685424949238</speed>
  <fix>3d</fix>
</trkpt>
<trkpt lat="-27.274439" lon="151.290064">
  <ele>343.0</ele>
  <time>2026-08-27T18:32:28Z</time>
  <course>0.0</course>
  <speed>0.0</speed>
  <fix>3d</fix>
</trkpt>
<trkpt lat="-27.2744388" lon="151.2900643">
  <ele>343.03</ele>
  <time>2026-08-27T18:32:28Z</time>
  <course>225.44</course>
  <speed>0.044721359549995794</speed>
  <fix>3d</fix>
</trkpt>
<trkpt lat="-27.274439" lon="151.290064">
  <ele>343.0</ele>
  <time>2026-08-27T18:32:28Z</time>
  <course>0.0</course>
  <speed>0.0</speed>
  <fix>3d</fix>
</trkpt>
<trkpt lat="-27.2744388" lon="151.2900642">
  <ele>343.03</ele>
  <time>2026-08-27T18:32:28Z</time>
  <course>216.26</course>
  <speed>0.0316227766016838</speed>
  <fix>3d</fix>
</trkpt>
<trkpt lat="-27.274439" lon="151.290064">
  <ele>343.0</ele>
  <time>2026-08-27T18:32:28Z</time>
  <course>0.0</course>
  <speed>0.0</speed>
  <fix>3d</fix>
</trkpt>
<trkpt lat="-27.2744388" lon="151.2900641">
  <ele>343.04</ele>
  <time>2026-08-27T18:32:28Z</time>
  <course>223.09</course>
  <speed>0.03</speed>
  <fix>3d</fix>
</trkpt>
<trkpt lat="-27.274439" lon="151.290064">
  <ele>343.0</ele>
  <time>2026-08-27T18:32:28Z</time>
  <course>0.0</course>
  <speed>0.0</speed>
  <fix>3d</fix>
</trkpt>
<trkpt lat="-27.2744388" lon="151.2900641">
  <ele>343.03</ele>
  <time>2026-08-27T18:32:28Z</time>
  <course>232.17</course>
  <speed>0.03</speed>
  <fix>3d</fix>
</trkpt>
<trkpt lat="-27.274439" lon="151.290064">
  <ele>343.0</ele>
  <time>2026-08-27T18:32:28Z</time>
  <course>0.0</course>
  <speed>0.0</speed>
  <fix>3d</fix>
</trkpt>
<trkpt lat="-27.2744388" lon="151.290064">
  <ele>343.02</ele>
  <time>2026-08-27T18:32:28Z</time>
  <course>241.29</course>
  <speed>0.03</speed>
  <fix>3d</fix>
</trkpt>
<trkpt lat="-27.274439" lon="151.290064">
  <ele>343.0</ele>
  <time>2026-08-27T18:32:28Z</time>
  <course>0.0</course>
  <speed>0.0</speed>
  <fix>3d</fix>
</trkpt>
<trkpt lat="-27.2744388" lon="151.290064">
  <ele>343.04</ele>
  <time>2026-08-27T18:32:28Z</time>
  <course>233.89</course>
  <speed>0.03</speed>
  <fix>3d</fix>
</trkpt>
<trkpt lat="-27.274439" lon="151.290064">
  <ele>343.0</ele>
  <time>2026-08-27T18:32:28Z</time>
  <course>0.0</course>
  <speed>0.0</speed>
  <fix>3d</fix>
</trkpt>
<trkpt lat="-27.2744388" lon="151.290064">
  <ele>343.04</ele>
  <time>2026-08-27T18:32:28Z</time>
  <course>224.58</course>
  <speed>0.03</speed>
  <fix>3d</fix>
</trkpt>
<trkpt lat="-27.274439" lon="151.290064">
  <ele>343.0</ele>
  <time>2026-08-27T18:32:28Z</time>
  <course>0.0</course>
  <speed>0.0</speed>
  <fix>3d</fix>
</trkpt>
<trkpt lat="-27.2744387" lon="151.290064">
  <ele>343.04</ele>
  <time>2026-08-27T18:32:28Z</time>
  <course>215.25</course>
  <speed>0.03</speed>
  <fix>3d</fix>
</trkpt>
<trkpt lat="-27.274439" lon="151.290064">
  <ele>343.0</ele>
  <time>2026-08-27T18:32:28Z</time>
  <course>0.0</course>
  <speed>0.0</speed>
  <fix>3d</fix>
</trkpt>
<trkpt lat="-27.2744388" lon="151.290064">
  <ele>343.03</ele>
  <time>2026-08-27T18:32:28Z</time>
  <course>205.98</course>
  <speed>0.03</speed>
  <fix>3d</fix>
</trkpt>
<trkpt lat="-27.274439" lon="151.290064">
  <ele>343.0</ele>
  <time>2026-08-27T18:32:28Z</time>
  <course>0.0</course>
  <speed>0.0</speed>
  <fix>3d</fix>
</trkpt>
<trkpt lat="-27.2744387" lon="151.290064">
  <ele>343.01</ele>
  <time>2026-08-27T18:32:28Z</time>
  <course>196.77</course>
  <speed>0.0316227766016838</speed>
  <fix>3d</fix>
</trkpt>
<trkpt lat="-27.274439" lon="151.290064">
  <ele>343.0</ele>
  <time>2026-08-27T18:32:28Z</time>
  <course>0.0</course>
  <speed>0.0</speed>
  <fix>3d</fix>
</trkpt>
<trkpt lat="-27.2744388" lon="151.2900639">
  <ele>343.02</ele>
  <time>2026-08-27T18:32:28Z</time>
  <course>187.59</course>
  <speed>0.0316227766016838</speed>
  <fix>3d</fix>
</trkpt>
<trkpt lat="-27.274439" lon="151.290064">
  <ele>343.0</ele>
  <time>2026-08-27T18:32:28Z</time>
  <course>0.0</course>
  <speed>0.0</speed>
  <fix>3d</fix>
</trkpt>
<trkpt lat="-27.2744388" lon="151.2900639">
  <ele>343.02</ele>
  <time>2026-08-27T18:32:28Z</time>
  <course>178.41</course>
  <speed>0.0316227766016838</speed>
  <fix>3d</fix>
</trkpt>
<trkpt lat="-27.274439" lon="151.290064">
  <ele>343.0</ele>
  <time>2026-08-27T18:32:28Z</time>
  <course>0.0</course>
  <speed>0.0</speed>
  <fix>3d</fix>
</trkpt>
<trkpt lat="-27.2744388" lon="151.2900639">
  <ele>343.0</ele>
  <time>2026-08-27T18:32:28Z</time>
  <course>173.12</course>
  <speed>0.022360679774997897</speed>
  <fix>3d</fix>
</trkpt>
<trkpt lat="-27.274439" lon="151.290064">
  <ele>343.0</ele>
  <time>2026-08-27T18:32:28Z</time>
  <course>0.0</course>
  <speed>0.0</speed>
  <fix>3d</fix>
</trkpt>
<trkpt lat="-27.2744388" lon="151.2900639">
  <ele>343.0</ele>
  <time>2026-08-27T18:32:28Z</time>
  <course>171.19</course>
  <speed>0.0282842712474619</speed>
  <fix>3d</fix>
</trkpt>
<trkpt lat="-27.274439" lon="151.290064">
  <ele>343.0</ele>
  <time>2026-08-27T18:32:28Z</time>
  <course>0.0</course>
  <speed>0.0</speed>
  <fix>3d</fix>
</trkpt>
<trkpt lat="-27.2744388" lon="151.2900638">
  <ele>343.01</ele>
  <time>2026-08-27T18:32:28Z</time>
  <course>170.47</course>
  <speed>0.0282842712474619</speed>
  <fix>3d</fix>
</trkpt>
<trkpt lat="-27.274439" lon="151.290064">
  <ele>343.0</ele>
  <time>2026-08-27T18:32:28Z</time>
  <course>0.0</course>
  <speed>0.0</speed>
  <fix>3d</fix>
</trkpt>
<trkpt lat="-27.2744388" lon="151.2900638">
  <ele>342.99</ele>
  <time>2026-08-27T18:32:28Z</time>
  <course>170.08</course>
  <speed>0.03605551275463989</speed>
  <fix>3d</fix>
</trkpt>
<trkpt lat="-27.274439" lon="151.290064">
  <ele>343.0</ele>
  <time>2026-08-27T18:32:28Z</time>
  <course>0.0</course>
  <speed>0.0</speed>
  <fix>3d</fix>
</trkpt>
<trkpt lat="-27.2744388" lon="151.2900637">
  <ele>342.99</ele>
  <time>2026-08-27T18:32:28Z</time>
  <course>170.02</course>
  <speed>0.03605551275463989</speed>
  <fix>3d</fix>
</trkpt>
<trkpt lat="-27.274439" lon="151.290064">
  <ele>343.0</ele>
  <time>2026-08-27T18:32:28Z</time>
  <course>0.0</course>
  <speed>0.0</speed>
  <fix>3d</fix>
</trkpt>
<trkpt lat="-27.2744388" lon="151.2900637">
  <ele>343.01</ele>
  <time>2026-08-27T18:32:28Z</time>
  <course>169.98</course>
  <speed>0.03605551275463989</speed>
  <fix>3d</fix>
</trkpt>
<trkpt lat="-27.274439" lon="151.290064">
  <ele>343.0</ele>
  <time>2026-08-27T18:32:28Z</time>
  <course>0.0</course>
  <speed>0.0</speed>
  <fix>3d</fix>
</trkpt>
<trkpt lat="-27.2744388" lon="151.2900637">
  <ele>343.01</ele>
  <time>2026-08-27T18:32:28Z</time>
  <course>169.95</course>
  <speed>0.044721359549995794</speed>
  <fix>3d</fix>
</trkpt>
<trkpt lat="-27.274439" lon="151.290064">
  <ele>343.0</ele>
  <time>2026-08-27T18:32:28Z</time>
  <course>0.0</course>
  <speed>0.0</speed>
  <fix>3d</fix>
</trkpt>
<trkpt lat="-27.2744388" lon="151.2900637">
  <ele>343.02</ele>
  <time>2026-08-27T18:32:28Z</time>
  <course>169.91</course>
  <speed>0.044721359549995794</speed>
  <fix>3d</fix>
</trkpt>
<trkpt lat="-27.274439" lon="151.290064">
  <ele>343.0</ele>
  <time>2026-08-27T18:32:28Z</time>
  <course>0.0</course>
  <speed>0.0</speed>
  <fix>3d</fix>
</trkpt>
<trkpt lat="-27.2744388" lon="151.2900637">
  <ele>343.02</ele>
  <time>2026-08-27T18:32:29Z</time>
  <course>169.87</course>
  <speed>0.044721359549995794</speed>
  <fix>3d</fix>
</trkpt>
<trkpt lat="-27.274439" lon="151.290064">
  <ele>343.0</ele>
  <time>2026-08-27T18:32:29Z</time>
  <course>0.0</course>
  <speed>0.0</speed>
  <fix>3d</fix>
</trkpt>
<trkpt lat="-27.2744388" lon="151.2900636">
  <ele>343.03</ele>
  <time>2026-08-27T18:32:29Z</time>
  <course>178.05</course>
  <speed>0.0412310562561766</speed>
  <fix>3d</fix>
</trkpt>
<trkpt lat="-27.274439" lon="151.290064">
  <ele>343.0</ele>
  <time>2026-08-27T18:32:29Z</time>
  <course>0.0</course>
  <speed>0.0</speed>
  <fix>3d</fix>
</trkpt>
<trkpt lat="-27.2744388" lon="151.2900637">
  <ele>343.05</ele>
  <time>2026-08-27T18:32:29Z</time>
  <course>187.49</course>
  <speed>0.0412310562561766</speed>
  <fix>3d</fix>
</trkpt>
<trkpt lat="-27.274439" lon="151.290064">
  <ele>343.0</ele>
  <time>2026-08-27T18:32:29Z</time>
  <course>0.0</course>
  <speed>0.0</speed>
  <fix>3d</fix>
</trkpt>
<trkpt lat="-27.2744388" lon="151.2900637">
  <ele>343.02</ele>
  <time>2026-08-27T18:32:29Z</time>
  <course>196.81</course>
  <speed>0.0316227766016838</speed>
  <fix>3d</fix>
</trkpt>
<trkpt lat="-27.274439" lon="151.290064">
  <ele>343.0</ele>
  <time>2026-08-27T18:32:29Z</time>
  <course>0.0</course>
  <speed>0.0</speed>
  <fix>3d</fix>
</trkpt>
<trkpt lat="-27.2744388" lon="151.2900637">
  <ele>343.03</ele>
  <time>2026-08-27T18:32:29Z</time>
  <course>206.08</course>
  <speed>0.03605551275463989</speed>
  <fix>3d</fix>
</trkpt>
<trkpt lat="-27.274439" lon="151.290064">
  <ele>343.0</ele>
  <time>2026-08-27T18:32:29Z</time>
  <course>0.0</course>
  <speed>0.0</speed>
  <fix>3d</fix>
</trkpt>
<trkpt lat="-27.2744388" lon="151.2900637">
  <ele>343.03</ele>
  <time>2026-08-27T18:32:29Z</time>
  <course>215.28</course>
  <speed>0.0282842712474619</speed>
  <fix>3d</fix>
</trkpt>
<trkpt lat="-27.274439" lon="151.290064">
  <ele>343.0</ele>
  <time>2026-08-27T18:32:29Z</time>
  <course>0.0</course>
  <speed>0.0</speed>
  <fix>3d</fix>
</trkpt>
<trkpt lat="-27.2744388" lon="151.2900638">
  <ele>343.02</ele>
  <time>2026-08-27T18:32:29Z</time>
  <course>224.44</course>
  <speed>0.022360679774997897</speed>
  <fix>3d</fix>
</trkpt>
<trkpt lat="-27.274439" lon="151.290064">
  <ele>343.0</ele>
  <time>2026-08-27T18:32:29Z</time>
  <course>0.0</course>
  <speed>0.0</speed>
  <fix>3d</fix>
</trkpt>
<trkpt lat="-27.2744388" lon="151.2900638">
  <ele>343.02</ele>
  <time>2026-08-27T18:32:29Z</time>
  <course>233.56</course>
  <speed>0.02</speed>
  <fix>3d</fix>
</trkpt>
<trkpt lat="-27.274439" lon="151.290064">
  <ele>343.0</ele>
  <time>2026-08-27T18:32:29Z</time>
  <course>0.0</course>
  <speed>0.0</speed>
  <fix>3d</fix>
</trkpt>
<trkpt lat="-27.2744388" lon="151.2900639">
  <ele>343.01</ele>
  <time>2026-08-27T18:32:29Z</time>
  <course>242.66</course>
  <speed>0.01</speed>
  <fix>3d</fix>
</trkpt>
<trkpt lat="-27.274439" lon="151.290064">
  <ele>343.0</ele>
  <time>2026-08-27T18:32:29Z</time>
  <course>0.0</course>
  <speed>0.0</speed>
  <fix>3d</fix>
</trkpt>
<trkpt lat="-27.2744388" lon="151.290064">
  <ele>343.03</ele>
  <time>2026-08-27T18:32:29Z</time>
  <course>251.77</course>
  <speed>0.01</speed>
  <fix>3d</fix>
</trkpt>
<trkpt lat="-27.274439" lon="151.290064">
  <ele>343.0</ele>
  <time>2026-08-27T18:32:29Z</time>
  <course>0.0</course>
  <speed>0.0</speed>
  <fix>3d</fix>
</trkpt>
<trkpt lat="-27.2744388" lon="151.2900641">
  <ele>343.02</ele>
  <time>2026-08-27T18:32:29Z</time>
  <course>267.58</course>
  <speed>0.01414213562373095</speed>
  <fix>3d</fix>
</trkpt>
<trkpt lat="-27.274439" lon="151.290064">
  <ele>343.0</ele>
  <time>2026-08-27T18:32:29Z</time>
  <course>0.0</course>
  <speed>0.0</speed>
  <fix>3d</fix>
</trkpt>
<trkpt lat="-27.2744388" lon="151.2900641">
  <ele>343.05</ele>
  <time>2026-08-27T18:32:29Z</time>
  <course>270.05</course>
  <speed>0.01414213562373095</speed>
  <fix>3d</fix>
</trkpt>
<trkpt lat="-27.274439" lon="151.290064">
  <ele>343.0</ele>
  <time>2026-08-27T18:32:29Z</time>
  <course>0.0</course>
  <speed>0.0</speed>
  <fix>3d</fix>
</trkpt>
<trkpt lat="-27.2744389" lon="151.2900641">
  <ele>343.04</ele>
  <time>2026-08-27T18:32:29Z</time>
  <course>270.94</course>
  <speed>0.01414213562373095</speed>
  <fix>3d</fix>
</trkpt>
<trkpt lat="-27.274439" lon="151.290064">
  <ele>343.0</ele>
  <time>2026-08-27T18:32:29Z</time>
  <course>0.0</course>
  <speed>0.0</speed>
  <fix>3d</fix>
</trkpt>
<trkpt lat="-27.2744389" lon="151.2900641">
  <ele>343.02</ele>
  <time>2026-08-27T18:32:29Z</time>
  <course>271.25</course>
  <speed>0.01414213562373095</speed>
  <fix>3d</fix>
</trkpt>
<trkpt lat="-27.274439" lon="151.290064">
  <ele>343.0</ele>
  <time>2026-08-27T18:32:29Z</time>
  <course>0.0</course>
  <speed>0.0</speed>
  <fix>3d</fix>
</trkpt>
<trkpt lat="-27.2744389" lon="151.2900641">
  <ele>343.02</ele>
  <time>2026-08-27T18:32:29Z</time>
  <course>271.36</course>
  <speed>0.022360679774997897</speed>
  <fix>3d</fix>
</trkpt>
<trkpt lat="-27.274439" lon="151.290064">
  <ele>343.0</ele>
  <time>2026-08-27T18:32:29Z</time>
  <course>0.0</course>
  <speed>0.0</speed>
  <fix>3d</fix>
</trkpt>
<trkpt lat="-27.2744389" lon="151.2900641">
  <ele>343.0</ele>
  <time>2026-08-27T18:32:29Z</time>
  <course>271.39</course>
  <speed>0.022360679774997897</speed>
  <fix>3d</fix>
</trkpt>
<trkpt lat="-27.274439" lon="151.290064">
  <ele>343.0</ele>
  <time>2026-08-27T18:32:29Z</time>
  <course>0.0</course>
  <speed>0.0</speed>
  <fix>3d</fix>
</trkpt>
<trkpt lat="-27.2744389" lon="151.2900641">
  <ele>343.02</ele>
  <time>2026-08-27T18:32:29Z</time>
  <course>271.4</course>
  <speed>0.022360679774997897</speed>
  <fix>3d</fix>
</trkpt>
<trkpt lat="-27.274439" lon="151.290064">
  <ele>343.0</ele>
  <time>2026-08-27T18:32:29Z</time>
  <course>0.0</course>
  <speed>0.0</speed>
  <fix>3d</fix>
</trkpt>
<trkpt lat="-27.2744389" lon="151.2900641">
  <ele>343.0</ele>
  <time>2026-08-27T18:32:29Z</time>
  <course>271.39</course>
  <speed>0.022360679774997897</speed>
  <fix>3d</fix>
</trkpt>
<trkpt lat="-27.274439" lon="151.290064">
  <ele>343.0</ele>
  <time>2026-08-27T18:32:29Z</time>
  <course>0.0</course>
  <speed>0.0</speed>
  <fix>3d</fix>
</trkpt>
<trkpt lat="-27.2744389" lon="151.2900641">
  <ele>342.99</ele>
  <time>2026-08-27T18:32:29Z</time>
  <course>271.39</course>
  <speed>0.0282842712474619</speed>
  <fix>3d</fix>
</trkpt>
<trkpt lat="-27.274439" lon="151.290064">
  <ele>343.0</ele>
  <time>2026-08-27T18:32:29Z</time>
  <course>0.0</course>
  <speed>0.0</speed>
  <fix>3d</fix>
</trkpt>
<trkpt lat="-27.2744389" lon="151.2900641">
  <ele>343.0</ele>
  <time>2026-08-27T18:32:29Z</time>
  <course>271.38</course>
  <speed>0.0282842712474619</speed>
  <fix>3d</fix>
</trkpt>
<trkpt lat="-27.274439" lon="151.290064">
  <ele>343.0</ele>
  <time>2026-08-27T18:32:29Z</time>
  <course>0.0</course>
  <speed>0.0</speed>
  <fix>3d</fix>
</trkpt>
<trkpt lat="-27.274439" lon="151.290064">
  <ele>343.0</ele>
  <time>2026-08-27T18:32:29Z</time>
  <course>325.88</course>
  <speed>0.0</speed>
  <fix>3d</fix>
</trkpt>
<trkpt lat="-27.274439" lon="151.290064">
  <ele>343.0</ele>
  <time>2026-08-27T18:32:29Z</time>
  <course>324.43</course>
  <speed>0.0</speed>
  <fix>3d</fix>
</trkpt>
<trkpt lat="-27.274439" lon="151.290064">
  <ele>343.0</ele>
  <time>2026-08-27T18:32:29Z</time>
  <course>321.85</course>
  <speed>0.0</speed>
  <fix>3d</fix>
</trkpt>
<trkpt lat="-27.274439" lon="151.290064">
  <ele>343.0</ele>
  <time>2026-08-27T18:32:29Z</time>
  <course>295.0</course>
  <speed>0.0</speed>
  <fix>3d</fix>
</trkpt>
<trkpt lat="-27.274439" lon="151.290064">
  <ele>343.0</ele>
  <time>2026-08-27T18:32:29Z</time>
  <course>290.72</course>
  <speed>0.0</speed>
  <fix>3d</fix>
</trkpt>
<trkpt lat="-27.274439" lon="151.290064">
  <ele>343.0</ele>
  <time>2026-08-27T18:32:29Z</time>
  <course>284.85</course>
  <speed>0.0</speed>
  <fix>3d</fix>
</trkpt>
<trkpt lat="-27.274439" lon="151.290064">
  <ele>343.0</ele>
  <time>2026-08-27T18:32:29Z</time>
  <course>277.8</course>
  <speed>0.0</speed>
  <fix>3d</fix>
</trkpt>
<trkpt lat="-27.274439" lon="151.290064">
  <ele>343.0</ele>
  <time>2026-08-27T18:32:29Z</time>
  <course>269.53</course>
  <speed>0.0</speed>
  <fix>3d</fix>
</trkpt>
<trkpt lat="-27.274439" lon="151.290064">
  <ele>343.0</ele>
  <time>2026-08-27T18:32:29Z</time>
  <course>262.12</course>
  <speed>0.93637599285757</speed>
  <fix>3d</fix>
</trkpt>
<trkpt lat="-27.274439" lon="151.290064">
  <ele>343.0</ele>
  <time>2026-08-27T18:32:29Z</time>
  <course>0.0</course>
  <speed>0.0</speed>
  <fix>3d</fix>
</trkpt>
<trkpt lat="-27.274439" lon="151.290064">
  <ele>343.0</ele>
  <time>2026-08-27T18:32:29Z</time>
  <course>256.38</course>
  <speed>0.9097252332435327</speed>
  <fix>3d</fix>
</trkpt>
<trkpt lat="-27.274439" lon="151.290064">
  <ele>343.0</ele>
  <time>2026-08-27T18:32:29Z</time>
  <course>0.0</course>
  <speed>0.0</speed>
  <fix>3d</fix>
</trkpt>
<trkpt lat="-27.274439" lon="151.290064">
  <ele>343.0</ele>
  <time>2026-08-27T18:32:29Z</time>
  <course>249.46</course>
  <speed>0.7360027173862879</speed>
  <fix>3d</fix>
</trkpt>
<trkpt lat="-27.274439" lon="151.290064">
  <ele>343.0</ele>
  <time>2026-08-27T18:32:29Z</time>
  <course>0.0</course>
  <speed>0.0</speed>
  <fix>3d</fix>
</trkpt>
<trkpt lat="-27.274439" lon="151.290064">
  <ele>343.0</ele>
  <time>2026-08-27T18:32:29Z</time>
  <course>241.81</course>
  <speed>0.6670832032063168</speed>
  <fix>3d</fix>
</trkpt>
<trkpt lat="-27.274439" lon="151.290064">
  <ele>343.0</ele>
  <time>2026-08-27T18:32:29Z</time>
  <course>0.0</course>
  <speed>0.0</speed>
  <fix>3d</fix>
</trkpt>
<trkpt lat="-27.274439" lon="151.290064">
  <ele>343.0</ele>
  <time>2026-08-27T18:32:29Z</time>
  <course>233.61</course>
  <speed>0.6612110101926616</speed>
  <fix>3d</fix>
</trkpt>
<trkpt lat="-27.274439" lon="151.290064">
  <ele>343.0</ele>
  <time>2026-08-27T18:32:29Z</time>
  <course>0.0</course>
  <speed>0.0</speed>
  <fix>3d</fix>
</trkpt>
<trkpt lat="-27.274439" lon="151.290064">
  <ele>343.0</ele>
  <time>2026-08-27T18:32:29Z</time>
  <course>225.03</course>
  <speed>0.6937578828380979</speed>
  <fix>3d</fix>
</trkpt>
<trkpt lat="-27.274439" lon="151.290064">
  <ele>343.0</ele>
  <time>2026-08-27T18:32:29Z</time>
  <course>0.0</course>
  <speed>0.0</speed>
  <fix>3d</fix>
</trkpt>
<trkpt lat="-27.274439" lon="151.290064">
  <ele>343.0</ele>
  <time>2026-08-27T18:32:29Z</time>
  <course>216.19</course>
  <speed>0.7689603370785778</speed>
  <fix>3d</fix>
</trkpt>
<trkpt lat="-27.274439" lon="151.290064">
  <ele>343.0</ele>
  <time>2026-08-27T18:32:29Z</time>
  <course>0.0</course>
  <speed>0.0</speed>
  <fix>3d</fix>
</trkpt>
<trkpt lat="-27.274439" lon="151.290064">
  <ele>343.0</ele>
  <time>2026-08-27T18:32:30Z</time>
  <course>261.98</course>
  <speed>1.283627671873741</speed>
  <fix>3d</fix>
</trkpt>
<trkpt lat="-27.274439" lon="151.290064">
  <ele>343.0</ele>
  <time>2026-08-27T18:32:30Z</time>
  <course>0.0</course>
  <speed>0.0</speed>
  <fix>3d</fix>
</trkpt>
<trkpt lat="-27.274439" lon="151.290064">
  <ele>343.0</ele>
  <time>2026-08-27T18:32:30Z</time>
  <course>255.57</course>
  <speed>1.5463828762631846</speed>
  <fix>3d</fix>
</trkpt>
<trkpt lat="-27.274439" lon="151.290064">
  <ele>343.0</ele>
  <time>2026-08-27T18:32:30Z</time>
  <course>0.0</course>
  <speed>0.0</speed>
  <fix>3d</fix>
</trkpt>
<trkpt lat="-27.274439" lon="151.290064">
  <ele>343.0</ele>
  <time>2026-08-27T18:32:30Z</time>
  <course>247.73</course>
  <speed>1.486371420607918</speed>
  <fix>3d</fix>
</trkpt>
<trkpt lat="-27.274439" lon="151.290064">
  <ele>343.0</ele>
  <time>2026-08-27T18:32:30Z</time>
  <course>0.0</course>
  <speed>0.0</speed>
  <fix>3d</fix>
</trkpt>
<trkpt lat="-27.274439" lon="151.290064">
  <ele>343.0</ele>
  <time>2026-08-27T18:32:30Z</time>
  <course>239.18</course>
  <speed>1.3601470508735443</speed>
  <fix>3d</fix>
</trkpt>
<trkpt lat="-27.274439" lon="151.290064">
  <ele>343.0</ele>
  <time>2026-08-27T18:32:30Z</time>
  <course>0.0</course>
  <speed>0.0</speed>
  <fix>3d</fix>
</trkpt>
<trkpt lat="-27.274439" lon="151.290064">
  <ele>343.0</ele>
  <time>2026-08-27T18:32:30Z</time>
  <course>230.14</course>
  <speed>1.2220065466273085</speed>
  <fix>3d</fix>
</trkpt>
<trkpt lat="-27.274439" lon="151.290064">
  <ele>343.0</ele>
  <time>2026-08-27T18:32:30Z</time>
  <course>0.0</course>
  <speed>0.0</speed>
  <fix>3d</fix>
</trkpt>
<trkpt lat="-27.274439" lon="151.290064">
  <ele>343.0</ele>
  <time>2026-08-27T18:32:30Z</time>
  <course>220.8</course>
  <speed>1.115437134042076</speed>
  <fix>3d</fix>
</trkpt>
<trkpt lat="-27.274439" lon="151.290064">
  <ele>343.0</ele>
  <time>2026-08-27T18:32:30Z</time>
  <course>0.0</course>
  <speed>0.0</speed>
  <fix>3d</fix>
</trkpt>
<trkpt lat="-27.274439" lon="151.290064">
  <ele>343.0</ele>
  <time>2026-08-27T18:32:30Z</time>
  <course>211.27</course>
  <speed>1.035857133006285</speed>
  <fix>3d</fix>
</trkpt>
<trkpt lat="-27.274439" lon="151.290064">
  <ele>343.0</ele>
  <time>2026-08-27T18:32:30Z</time>
  <course>0.0</course>
  <speed>0.0</speed>
  <fix>3d</fix>
</trkpt>
<trkpt lat="-27.274439" lon="151.290064">
  <ele>343.0</ele>
  <time>2026-08-27T18:32:30Z</time>
  <course>218.08</course>
  <speed>0.9841239759298622</speed>
  <fix>3d</fix>
</trkpt>
<trkpt lat="-27.274439" lon="151.290064">
  <ele>343.0</ele>
  <time>2026-08-27T18:32:30Z</time>
  <course>0.0</course>
  <speed>0.0</speed>
  <fix>3d</fix>
</trkpt>
<trkpt lat="-27.274439" lon="151.290064">
  <ele>343.0</ele>
  <time>2026-08-27T18:32:30Z</time>
  <course>226.94</course>
  <speed>0.9824968193332739</speed>
  <fix>3d</fix>
</trkpt>
<trkpt lat="-27.274439" lon="151.290064">
  <ele>343.0</ele>
  <time>2026-08-27T18:32:30Z</time>
  <course>0.0</course>
  <speed>0.0</speed>
  <fix>3d</fix>
</trkpt>
<trkpt lat="-27.274439" lon="151.290064">
  <ele>343.0</ele>
  <time>2026-08-27T18:32:30Z</time>
  <course>235.72</course>
  <speed>0.931933474020544</speed>
  <fix>3d</fix>
</trkpt>
<trkpt lat="-27.274439" lon="151.290064">
  <ele>343.0</ele>
  <time>2026-08-27T18:32:30Z</time>
  <course>0.0</course>
  <speed>0.0</speed>
  <fix>3d</fix>
</trkpt>
<trkpt lat="-27.274439" lon="151.290064">
  <ele>343.0</ele>
  <time>2026-08-27T18:32:30Z</time>
  <course>244.5</course>
  <speed>0.8221921916437787</speed>
  <fix>3d</fix>
</trkpt>
<trkpt lat="-27.274439" lon="151.290064">
  <ele>343.0</ele>
  <time>2026-08-27T18:32:30Z</time>
  <course>0.0</course>
  <speed>0.0</speed>
  <fix>3d</fix>
</trkpt>
<trkpt lat="-27.274439" lon="151.290064">
  <ele>343.0</ele>
  <time>2026-08-27T18:32:30Z</time>
  <course>253.28</course>
  <speed>0.7510659092250159</speed>
  <fix>3d</fix>
</trkpt>
<trkpt lat="-27.274439" lon="151.290064">
  <ele>343.0</ele>
  <time>2026-08-27T18:32:30Z</time>
  <course>0.0</course>
  <speed>0.0</speed>
  <fix>3d</fix>
</trkpt>
<trkpt lat="-27.274439" lon="151.290064">
  <ele>343.0</ele>
  <time>2026-08-27T18:32:30Z</time>
  <course>262.05</course>
  <speed>0.6506919393998976</speed>
  <fix>3d</fix>
</trkpt>
<trkpt lat="-27.274439" lon="151.290064">
  <ele>343.0</ele>
  <time>2026-08-27T18:32:30Z</time>
  <course>0.0</course>
  <speed>0.0</speed>
  <fix>3d</fix>
</trkpt>
<trkpt lat="-27.274439" lon="151.290064">
  <ele>343.0</ele>
  <time>2026-08-27T18:32:30Z</time>
  <course>270.86</course>
  <speed>0.55</speed>
  <fix>3d</fix>
</trkpt>
<trkpt lat="-27.274439" lon="151.290064">
  <ele>343.0</ele>
  <time>2026-08-27T18:32:30Z</time>
  <course>0.0</course>
  <speed>0.0</speed>
  <fix>3d</fix>
</trkpt>
<trkpt lat="-27.274439" lon="151.290064">
  <ele>343.0</ele>
  <time>2026-08-27T18:32:30Z</time>
  <course>279.64</course>
  <speed>0.45044422518220834</speed>
  <fix>3d</fix>
</trkpt>
<trkpt lat="-27.274439" lon="151.290064">
  <ele>343.0</ele>
  <time>2026-08-27T18:32:30Z</time>
  <course>0.0</course>
  <speed>0.0</speed>
  <fix>3d</fix>
</trkpt>
<trkpt lat="-27.274439" lon="151.290064">
  <ele>343.0</ele>
  <time>2026-08-27T18:32:30Z</time>
  <course>288.46</course>
  <speed>0.3238826948140329</speed>
  <fix>3d</fix>
</trkpt>
<trkpt lat="-27.274439" lon="151.290064">
  <ele>343.0</ele>
  <time>2026-08-27T18:32:30Z</time>
  <course>0.0</course>
  <speed>0.0</speed>
  <fix>3d</fix>
</trkpt>
<trkpt lat="-27.274439" lon="151.290064">
  <ele>343.0</ele>
  <time>2026-08-27T18:32:30Z</time>
  <course>297.28</course>
  <speed>0.17492855684535902</speed>
  <fix>3d</fix>
</trkpt>
<trkpt lat="-27.274439" lon="151.290064">
  <ele>343.0</ele>
  <time>2026-08-27T18:32:30Z</time>
  <course>0.0</course>
  <speed>0.0</speed>
  <fix>3d</fix>
</trkpt>
<trkpt lat="-27.274439" lon="151.290064">
  <ele>343.0</ele>
  <time>2026-08-27T18:32:30Z</time>
  <course>306.09</course>
  <speed>0.14</speed>
  <fix>3d</fix>
</trkpt>
<trkpt lat="-27.274439" lon="151.290064">
  <ele>343.0</ele>
  <time>2026-08-27T18:32:30Z</time>
  <course>0.0</course>
  <speed>0.0</speed>
  <fix>3d</fix>
</trkpt>
<trkpt lat="-27.274439" lon="151.290064">
  <ele>343.0</ele>
  <time>2026-08-27T18:32:30Z</time>
  <course>314.83</course>
  <speed>0.2340939982143925</speed>
  <fix>3d</fix>
</trkpt>
<trkpt lat="-27.274439" lon="151.290064">
  <ele>343.0</ele>
  <time>2026-08-27T18:32:30Z</time>
  <course>0.0</course>
  <speed>0.0</speed>
  <fix>3d</fix>
</trkpt>
<trkpt lat="-27.274439" lon="151.290064">
  <ele>343.0</ele>
  <time>2026-08-27T18:32:30Z</time>
  <course>310.31</course>
  <speed>0.3195309061734092</speed>
  <fix>3d</fix>
</trkpt>
<trkpt lat="-27.274439" lon="151.290064">
  <ele>343.0</ele>
  <time>2026-08-27T18:32:30Z</time>
  <course>0.0</course>
  <speed>0.0</speed>
  <fix>3d</fix>
</trkpt>
<trkpt lat="-27.274439" lon="151.290064">
  <ele>343.0</ele>
  <time>2026-08-27T18:32:30Z</time>
  <course>301.08</course>
  <speed>0.39395431207184417</speed>
  <fix>3d</fix>
</trkpt>
<trkpt lat="-27.274439" lon="151.290064">
  <ele>343.0</ele>
  <time>2026-08-27T18:32:30Z</time>
  <course>0.0</course>
  <speed>0.0</speed>
  <fix>3d</fix>
</trkpt>
<trkpt lat="-27.274439" lon="151.290064">
  <ele>343.0</ele>
  <time>2026-08-27T18:32:30Z</time>
  <course>291.86</course>
  <speed>0.47507894080878815</speed>
  <fix>3d</fix>
</trkpt>
<trkpt lat="-27.274439" lon="151.290064">
  <ele>343.0</ele>
  <time>2026-08-27T18:32:30Z</time>
  <course>0.0</course>
  <speed>0.0</speed>
  <fix>3d</fix>
</trkpt>
<trkpt lat="-27.274439" lon="151.290064">
  <ele>343.0</ele>
  <time>2026-08-27T18:32:30Z</time>
  <course>282.64</course>
  <speed>0.5382378656319156</speed>
  <fix>3d</fix>
</trkpt>
<trkpt lat="-27.274439" lon="151.290064">
  <ele>343.0</ele>
  <time>2026-08-27T18:32:30Z</time>
  <course>0.0</course>
  <speed>0.0</speed>
  <fix>3d</fix>
</trkpt>
<trkpt lat="-27.274439" lon="151.290064">
  <ele>343.0</ele>
  <time>2026-08-27T18:32:30Z</time>
  <course>273.4</course>
  <speed>0.5762811813689563</speed>
  <fix>3d</fix>
</trkpt>
<trkpt lat="-27.274439" lon="151.290064">
  <ele>343.0</ele>
  <time>2026-08-27T18:32:30Z</time>
  <course>0.0</course>
  <speed>0.0</speed>
  <fix>3d</fix>
</trkpt>
<trkpt lat="-27.274439" lon="151.290064">
  <ele>343.0</ele>
  <time>2026-08-27T18:32:30Z</time>
  <course>264.16</course>
  <speed>0.6095900261651268</speed>
  <fix>3d</fix>
</trkpt>
<trkpt lat="-27.274439" lon="151.290064">
  <ele>343.0</ele>
  <time>2026-08-27T18:32:30Z</time>
  <course>0.0</course>
  <speed>0.0</speed>
  <fix>3d</fix>
</trkpt>
<trkpt lat="-27.274439" lon="151.290064">
  <ele>343.0</ele>
  <time>2026-08-27T18:32:30Z</time>
  <course>254.92</course>
  <speed>0.6155485358604957</speed>
  <fix>3d</fix>
</trkpt>
<trkpt lat="-27.274439" lon="151.290064">
  <ele>343.0</ele>
  <time>2026-08-27T18:32:30Z</time>
  <course>0.0</course>
  <speed>0.0</speed>
  <fix>3d</fix>
</trkpt>
<trkpt lat="-27.274439" lon="151.290064">
  <ele>343.0</ele>
  <time>2026-08-27T18:32:30Z</time>
  <course>245.68</course>
  <speed>0.6152235366108809</speed>
  <fix>3d</fix>
</trkpt>
<trkpt lat="-27.274439" lon="151.290064">
  <ele>343.0</ele>
  <time>2026-08-27T18:32:30Z</time>
  <course>0.0</course>
  <speed>0.0</speed>
  <fix>3d</fix>
</trkpt>
<trkpt lat="-27.274439" lon="151.290064">
  <ele>343.0</ele>
  <time>2026-08-27T18:32:30Z</time>
  <course>236.44</course>
  <speed>0.6161980201201558</speed>
  <fix>3d</fix>
</trkpt>
<trkpt lat="-27.274439" lon="151.290064">
  <ele>343.0</ele>
  <time>2026-08-27T18:32:30Z</time>
  <course>0.0</course>
  <speed>0.0</speed>
  <fix>3d</fix>
</trkpt>
<trkpt lat="-27.274439" lon="151.290064">
  <ele>343.0</ele>
  <time>2026-08-27T18:32:30Z</time>
  <course>227.21</course>
  <speed>0.6122091146005587</speed>
  <fix>3d</fix>
</trkpt>
<trkpt lat="-27.274439" lon="151.290064">
  <ele>343.0</ele>
  <time>2026-08-27T18:32:30Z</time>
  <course>0.0</course>
  <speed>0.0</speed>
  <fix>3d</fix>
</trkpt>
<trkpt lat="-27.274439" lon="151.290064">
  <ele>343.0</ele>
  <time>2026-08-27T18:32:30Z</time>
  <course>218.0</course>
  <speed>0.6158733636065129</speed>
  <fix>3d</fix>
</trkpt>
<trkpt lat="-27.274439" lon="151.290064">
  <ele>343.0</ele>
  <time>2026-08-27T18:32:30Z</time>
  <course>0.0</course>
  <speed>0.0</speed>
  <fix>3d</fix>
</trkpt>
<trkpt lat="-27.274439" lon="151.290064">
  <ele>343.0</ele>
  <time>2026-08-27T18:32:30Z</time>
  <course>208.76</course>
  <speed>0.608276253029822</speed>
  <fix>3d</fix>
</trkpt>
<trkpt lat="-27.274439" lon="151.290064">
  <ele>343.0</ele>
  <time>2026-08-27T18:32:30Z</time>
  <course>0.0</course>
  <speed>0.0</speed>
  <fix>3d</fix>
</trkpt>
<trkpt lat="-27.274439" lon="151.290064">
  <ele>343.0</ele>
  <time>2026-08-27T18:32:30Z</time>
  <course>199.52</course>
  <speed>0.5980802621722272</speed>
  <fix>3d</fix>
</trkpt>
<trkpt lat="-27.274439" lon="151.290064">
  <ele>343.0</ele>
  <time>2026-08-27T18:32:30Z</time>
  <course>0.0</course>
  <speed>0.0</speed>
  <fix>3d</fix>
</trkpt>
<trkpt lat="-27.274439" lon="151.290064">
  <ele>343.0</ele>
  <time>2026-08-27T18:32:30Z</time>
  <course>190.28</course>
  <speed>0.5943904440685432</speed>
  <fix>3d</fix>
</trkpt>
<trkpt lat="-27.274439" lon="151.290064">
  <ele>343.0</ele>
  <time>2026-08-27T18:32:30Z</time>
  <course>0.0</course>
  <speed>0.0</speed>
  <fix>3d</fix>
</trkpt>
<trkpt lat="-27.274439" lon="151.290064">
  <ele>343.0</ele>
  <time>2026-08-27T18:32:30Z</time>
  <course>199.11</course>
  <speed>0.6107372593840988</speed>
  <fix>3d</fix>
</trkpt>
<trkpt lat="-27.274439" lon="151.290064">
  <ele>343.0</ele>
  <time>2026-08-27T18:32:30Z</time>
  <course>0.0</course>
  <speed>0.0</speed>
  <fix>3d</fix>
</trkpt>
<trkpt lat="-27.274439" lon="151.290064">
  <ele>343.0</ele>
  <time>2026-08-27T18:32:30Z</time>
  <course>208.34</course>
  <speed>0.6328506932918696</speed>
  <fix>3d</fix>
</trkpt>
<trkpt lat="-27.274439" lon="151.290064">
  <ele>343.0</ele>
  <time>2026-08-27T18:32:30Z</time>
  <course>0.0</course>
  <speed>0.0</speed>
  <fix>3d</fix>
</trkpt>
<trkpt lat="-27.274439" lon="151.290064">
  <ele>343.0</ele>
  <time>2026-08-27T18:32:30Z</time>
  <course>217.61</course>
  <speed>0.655133574166368</speed>
  <fix>3d</fix>
</trkpt>
<trkpt lat="-27.274439" lon="151.290064">
  <ele>343.0</ele>
  <time>2026-08-27T18:32:30Z</time>
  <course>0.0</course>
  <speed>0.0</speed>
  <fix>3d</fix>
</trkpt>
<trkpt lat="-27.274439" lon="151.290064">
  <ele>343.0</ele>
  <time>2026-08-27T18:32:30Z</time>
  <course>213.79</course>
  <speed>0.7212489168102785</speed>
  <fix>3d</fix>
</trkpt>
<trkpt lat="-27.274439" lon="151.290064">
  <ele>343.0</ele>
  <time>2026-08-27T18:32:30Z</time>
  <course>0.0</course>
  <speed>0.0</speed>
  <fix>3d</fix>
</trkpt>
<trkpt lat="-27.274439" lon="151.290064">
  <ele>343.0</ele>
  <time>2026-08-27T18:32:31Z</time>
  <course>204.42</course>
  <speed>0.7818567643756751</speed>
  <fix>3d</fix>
</trkpt>
<trkpt lat="-27.274439" lon="151.290064">
  <ele>343.0</ele>
  <time>2026-08-27T18:32:31Z</time>
  <course>0.0</course>
  <speed>0.0</speed>
  <fix>3d</fix>
</trkpt>
<trkpt lat="-27.274439" lon="151.290064">
  <ele>343.0</ele>
  <time>2026-08-27T18:32:31Z</time>
  <course>194.98</course>
  <speed>0.8193900170248598</speed>
  <fix>3d</fix>
</trkpt>
<trkpt lat="-27.274439" lon="151.290064">
  <ele>343.0</ele>
  <time>2026-08-27T18:32:31Z</time>
  <course>0.0</course>
  <speed>0.0</speed>
  <fix>3d</fix>
</trkpt>
<trkpt lat="-27.2744397" lon="151.290064">
  <ele>343.1</ele>
  <time>2026-08-27T18:32:31Z</time>
  <course>185.52</course>
  <speed>0.022360679774997897</speed>
  <fix>3d</fix>
</trkpt>
<trkpt lat="-27.274439" lon="151.290064">
  <ele>343.0</ele>
  <time>2026-08-27T18:32:31Z</time>
  <course>0.0</course>
  <speed>0.0</speed>
  <fix>3d</fix>
</trkpt>
<trkpt lat="-27.2744396" lon="151.2900637">
  <ele>343.1</ele>
  <time>2026-08-27T18:32:31Z</time>
  <course>176.01</course>
  <speed>0.12727922061357855</speed>
  <fix>3d</fix>
</trkpt>
<trkpt lat="-27.274439" lon="151.290064">
  <ele>343.0</ele>
  <time>2026-08-27T18:32:31Z</time>
  <course>0.0</course>
  <speed>0.0</speed>
  <fix>3d</fix>
</trkpt>
<trkpt lat="-27.274439" lon="151.2900635">
  <ele>343.07</ele>
  <time>2026-08-27T18:32:31Z</time>
  <course>166.25</course>
  <speed>0.14866068747318506</speed>
  <fix>3d</fix>
</trkpt>
<trkpt lat="-27.274439" lon="151.290064">
  <ele>343.0</ele>
  <time>2026-08-27T18:32:31Z</time>
  <course>0.0</course>
  <speed>0.0</speed>
  <fix>3d</fix>
</trkpt>
<trkpt lat="-27.2744388" lon="151.2900636">
  <ele>343.09</ele>
  <time>2026-08-27T18:32:31Z</time>
  <course>165.23</course>
  <speed>0.09899494936611665</speed>
  <fix>3d</fix>
</trkpt>
<trkpt lat="-27.274439" lon="151.290064">
  <ele>343.0</ele>
  <time>2026-08-27T18:32:31Z</time>
  <course>0.0</course>
  <speed>0.0</speed>
  <fix>3d</fix>
</trkpt>
<trkpt lat="-27.2744389" lon="151.2900637">
  <ele>343.08</ele>
  <time>2026-08-27T18:32:31Z</time>
  <course>174.4</course>
  <speed>0.06403124237432849</speed>
  <fix>3d</fix>
</trkpt>
<trkpt lat="-27.274439" lon="151.290064">
  <ele>343.0</ele>
  <time>2026-08-27T18:32:31Z</time>
  <course>0.0</course>
  <speed>0.0</speed>
  <fix>3d</fix>
</trkpt>
<trkpt lat="-27.2744389" lon="151.2900637">
  <ele>343.09</ele>
  <time>2026-08-27T18:32:31Z</time>
  <course>183.6</course>
  <speed>0.044721359549995794</speed>
  <fix>3d</fix>
</trkpt>
<trkpt lat="-27.274439" lon="151.290064">
  <ele>343.0</ele>
  <time>2026-08-27T18:32:31Z</time>
  <course>0.0</course>
  <speed>0.0</speed>
  <fix>3d</fix>
</trkpt>
<trkpt lat="-27.2744389" lon="151.2900637">
  <ele>343.07</ele>
  <time>2026-08-27T18:32:31Z</time>
  <course>192.75</course>
  <speed>0.05</speed>
  <fix>3d</fix>
</trkpt>
<trkpt lat="-27.274439" lon="151.290064">
  <ele>343.0</ele>
  <time>2026-08-27T18:32:31Z</time>
  <course>0.0</course>
  <speed>0.0</speed>
  <fix>3d</fix>
</trkpt>
<trkpt lat="-27.2744388" lon="151.2900637">
  <ele>343.06</ele>
  <time>2026-08-27T18:32:31Z</time>
  <course>201.88</course>
  <speed>0.0565685424949238</speed>
  <fix>3d</fix>
</trkpt>
<trkpt lat="-27.274439" lon="151.290064">
  <ele>343.0</ele>
  <time>2026-08-27T18:32:31Z</time>
  <course>0.0</course>
  <speed>0.0</speed>
  <fix>3d</fix>
</trkpt>
<trkpt lat="-27.2744387" lon="151.2900637">
  <ele>343.03</ele>
  <time>2026-08-27T18:32:31Z</time>
  <course>210.96</course>
  <speed>0.06403124237432849</speed>
  <fix>3d</fix>
</trkpt>
<trkpt lat="-27.274439" lon="151.290064">
  <ele>343.0</ele>
  <time>2026-08-27T18:32:31Z</time>
  <course>0.0</course>
  <speed>0.0</speed>
  <fix>3d</fix>
</trkpt>
<trkpt lat="-27.2744387" lon="151.2900637">
  <ele>343.03</ele>
  <time>2026-08-27T18:32:31Z</time>
  <course>220.04</course>
  <speed>0.06403124237432849</speed>
  <fix>3d</fix>
</trkpt>
<trkpt lat="-27.274439" lon="151.290064">
  <ele>343.0</ele>
  <time>2026-08-27T18:32:31Z</time>
  <course>0.0</course>
  <speed>0.0</speed>
  <fix>3d</fix>
</trkpt>
<trkpt lat="-27.2744387" lon="151.2900637">
  <ele>343.05</ele>
  <time>2026-08-27T18:32:31Z</time>
  <course>238.13</course>
  <speed>0.044721359549995794</speed>
  <fix>3d</fix>
</trkpt>
<trkpt lat="-27.274439" lon="151.290064">
  <ele>343.0</ele>
  <time>2026-08-27T18:32:31Z</time>
  <course>0.0</course>
  <speed>0.0</speed>
  <fix>3d</fix>
</trkpt>
<trkpt lat="-27.2744387" lon="151.2900638">
  <ele>343.05</ele>
  <time>2026-08-27T18:32:31Z</time>
  <course>247.15</course>
  <speed>0.0412310562561766</speed>
  <fix>3d</fix>
</trkpt>
<trkpt lat="-27.274439" lon="151.290064">
  <ele>343.0</ele>
  <time>2026-08-27T18:32:31Z</time>
  <course>0.0</course>
  <speed>0.0</speed>
  <fix>3d</fix>
</trkpt>
<trkpt lat="-27.2744387" lon="151.2900639">
  <ele>343.06</ele>
  <time>2026-08-27T18:32:31Z</time>
  <course>256.17</course>
  <speed>0.03</speed>
  <fix>3d</fix>
</trkpt>
<trkpt lat="-27.274439" lon="151.290064">
  <ele>343.0</ele>
  <time>2026-08-27T18:32:31Z</time>
  <course>0.0</course>
  <speed>0.0</speed>
  <fix>3d</fix>
</trkpt>
<trkpt lat="-27.2744387" lon="151.2900639">
  <ele>343.05</ele>
  <time>2026-08-27T18:32:31Z</time>
  <course>265.17</course>
  <speed>0.03</speed>
  <fix>3d</fix>
</trkpt>
<trkpt lat="-27.274439" lon="151.290064">
  <ele>343.0</ele>
  <time>2026-08-27T18:32:31Z</time>
  <course>0.0</course>
  <speed>0.0</speed>
  <fix>3d</fix>
</trkpt>
<trkpt lat="-27.2744387" lon="151.290064">
  <ele>343.04</ele>
  <time>2026-08-27T18:32:31Z</time>
  <course>274.17</course>
  <speed>0.02</speed>
  <fix>3d</fix>
</trkpt>
<trkpt lat="-27.274439" lon="151.290064">
  <ele>343.0</ele>
  <time>2026-08-27T18:32:31Z</time>
  <course>0.0</course>
  <speed>0.0</speed>
  <fix>3d</fix>
</trkpt>
<trkpt lat="-27.2744387" lon="151.290064">
  <ele>343.06</ele>
  <time>2026-08-27T18:32:31Z</time>
  <course>283.16</course>
  <speed>0.022360679774997897</speed>
  <fix>3d</fix>
</trkpt>
<trkpt lat="-27.274439" lon="151.290064">
  <ele>343.0</ele>
  <time>2026-08-27T18:32:31Z</time>
  <course>0.0</course>
  <speed>0.0</speed>
  <fix>3d</fix>
</trkpt>
<trkpt lat="-27.2744388" lon="151.2900641">
  <ele>343.06</ele>
  <time>2026-08-27T18:32:31Z</time>
  <course>292.16</course>
  <speed>0.01414213562373095</speed>
  <fix>3d</fix>
</trkpt>
<trkpt lat="-27.274439" lon="151.290064">
  <ele>343.0</ele>
  <time>2026-08-27T18:32:31Z</time>
  <course>0.0</course>
  <speed>0.0</speed>
  <fix>3d</fix>
</trkpt>
<trkpt lat="-27.2744388" lon="151.2900641">
  <ele>343.07</ele>
  <time>2026-08-27T18:32:31Z</time>
  <course>301.15</course>
  <speed>0.01414213562373095</speed>
  <fix>3d</fix>
</trkpt>
<trkpt lat="-27.274439" lon="151.290064">
  <ele>343.0</ele>
  <time>2026-08-27T18:32:31Z</time>
  <course>0.0</course>
  <speed>0.0</speed>
  <fix>3d</fix>
</trkpt>
<trkpt lat="-27.2744389" lon="151.2900641">
  <ele>343.0</ele>
  <time>2026-08-27T18:32:31Z</time>
  <course>294.31</course>
  <speed>0.01414213562373095</speed>
  <fix>3d</fix>
</trkpt>
<trkpt lat="-27.274439" lon="151.290064">
  <ele>343.0</ele>
  <time>2026-08-27T18:32:31Z</time>
  <course>0.0</course>
  <speed>0.0</speed>
  <fix>3d</fix>
</trkpt>
<trkpt lat="-27.2744389" lon="151.2900641">
  <ele>343.01</ele>
  <time>2026-08-27T18:32:31Z</time>
  <course>285.32</course>
  <speed>0.02</speed>
  <fix>3d</fix>
</trkpt>
<trkpt lat="-27.274439" lon="151.290064">
  <ele>343.0</ele>
  <time>2026-08-27T18:32:31Z</time>
  <course>0.0</course>
  <speed>0.0</speed>
  <fix>3d</fix>
</trkpt>
<trkpt lat="-27.2744389" lon="151.2900641">
  <ele>343.03</ele>
  <time>2026-08-27T18:32:31Z</time>
  <course>276.3</course>
  <speed>0.02</speed>
  <fix>3d</fix>
</trkpt>
<trkpt lat="-27.274439" lon="151.290064">
  <ele>343.0</ele>
  <time>2026-08-27T18:32:31Z</time>
  <course>0.0</course>
  <speed>0.0</speed>
  <fix>3d</fix>
</trkpt>
<trkpt lat="-27.2744389" lon="151.2900641">
  <ele>343.05</ele>
  <time>2026-08-27T18:32:31Z</time>
  <course>267.28</course>
  <speed>0.02</speed>
  <fix>3d</fix>
</trkpt>
<trkpt lat="-27.274439" lon="151.290064">
  <ele>343.0</ele>
  <time>2026-08-27T18:32:31Z</time>
  <course>0.0</course>
  <speed>0.0</speed>
  <fix>3d</fix>
</trkpt>
<trkpt lat="-27.274439" lon="151.290064">
  <ele>343.0</ele>
  <time>2026-08-27T18:32:31Z</time>
  <course>325.88</course>
  <speed>0.0</speed>
  <fix>3d</fix>
</trkpt>
<trkpt lat="-27.274439" lon="151.290064">
  <ele>343.0</ele>
  <time>2026-08-27T18:32:31Z</time>
  <course>324.43</course>
  <speed>0.0</speed>
  <fix>3d</fix>
</trkpt>
<trkpt lat="-27.274439" lon="151.290064">
  <ele>343.0</ele>
  <time>2026-08-27T18:32:31Z</time>
  <course>321.86</course>
  <speed>0.0</speed>
  <fix>3d</fix>
</trkpt>
<trkpt lat="-27.274439" lon="151.290064">
  <ele>343.0</ele>
  <time>2026-08-27T18:32:31Z</time>
  <course>295.0</course>
  <speed>0.0</speed>
  <fix>3d</fix>
</trkpt>
<trkpt lat="-27.274439" lon="151.290064">
  <ele>343.0</ele>
  <time>2026-08-27T18:32:31Z</time>
  <course>290.72</course>
  <speed>0.0</speed>
  <fix>3d</fix>
</trkpt>
<trkpt lat="-27.274439" lon="151.290064">
  <ele>343.0</ele>
  <time>2026-08-27T18:32:31Z</time>
  <course>284.84</course>
  <speed>0.0</speed>
  <fix>3d</fix>
</trkpt>
<trkpt lat="-27.274439" lon="151.290064">
  <ele>343.0</ele>
  <time>2026-08-27T18:32:31Z</time>
  <course>277.79</course>
  <speed>0.0</speed>
  <fix>3d</fix>
</trkpt>
<trkpt lat="-27.274439" lon="151.290064">
  <ele>343.0</ele>
  <time>2026-08-27T18:32:31Z</time>
  <course>269.55</course>
  <speed>0.0</speed>
  <fix>3d</fix>
</trkpt>
<trkpt lat="-27.274439" lon="151.290064">
  <ele>343.0</ele>
  <time>2026-08-27T18:32:31Z</time>
  <course>262.16</course>
  <speed>0.9176055797563569</speed>
  <fix>3d</fix>
</trkpt>
<trkpt lat="-27.274439" lon="151.290064">
  <ele>343.0</ele>
  <time>2026-08-27T18:32:31Z</time>
  <course>0.0</course>
  <speed>0.0</speed>
  <fix>3d</fix>
</trkpt>
<trkpt lat="-27.274439" lon="151.290064">
  <ele>343.0</ele>
  <time>2026-08-27T18:32:31Z</time>
  <course>256.4</course>
  <speed>0.9403190947758107</speed>
  <fix>3d</fix>
</trkpt>
<trkpt lat="-27.274439" lon="151.290064">
  <ele>343.0</ele>
  <time>2026-08-27T18:32:31Z</time>
  <course>0.0</course>
  <speed>0.0</speed>
  <fix>3d</fix>
</trkpt>
<trkpt lat="-27.274439" lon="151.290064">
  <ele>343.0</ele>
  <time>2026-08-27T18:32:31Z</time>
  <course>249.45</course>
  <speed>0.756042326857432</speed>
  <fix>3d</fix>
</trkpt>
<trkpt lat="-27.274439" lon="151.290064">
  <ele>343.0</ele>
  <time>2026-08-27T18:32:31Z</time>
  <course>0.0</course>
  <speed>0.0</speed>
  <fix>3d</fix>
</trkpt>
<trkpt lat="-27.274439" lon="151.290064">
  <ele>343.0</ele>
  <time>2026-08-27T18:32:31Z</time>
  <course>241.83</course>
  <speed>0.29546573405388316</speed>
  <fix>3d</fix>
</trkpt>
<trkpt lat="-27.274439" lon="151.290064">
  <ele>343.0</ele>
  <time>2026-08-27T18:32:31Z</time>
  <course>0.0</course>
  <speed>0.0</speed>
  <fix>3d</fix>
</trkpt>
<trkpt lat="-27.274439" lon="151.290064">
  <ele>343.0</ele>
  <time>2026-08-27T18:32:31Z</time>
  <course>233.46</course>
  <speed>0.12806248474865697</speed>
  <fix>3d</fix>
</trkpt>
<trkpt lat="-27.274439" lon="151.290064">
  <ele>343.0</ele>
  <time>2026-08-27T18:32:31Z</time>
  <course>0.0</course>
  <speed>0.0</speed>
  <fix>3d</fix>
</trkpt>
<trkpt lat="-27.274439" lon="151.290064">
  <ele>343.0</ele>
  <time>2026-08-27T18:32:31Z</time>
  <course>224.61</course>
  <speed>0.0848528137423857</speed>
  <fix>3d</fix>
</trkpt>
<trkpt lat="-27.274439" lon="151.290064">
  <ele>343.0</ele>
  <time>2026-08-27T18:32:31Z</time>
  <course>0.0</course>
  <speed>0.0</speed>
  <fix>3d</fix>
</trkpt>
<trkpt lat="-27.274439" lon="151.290064">
  <ele>343.0</ele>
  <time>2026-08-27T18:32:31Z</time>
  <course>215.48</course>
  <speed>0.0670820393249937</speed>
  <fix>3d</fix>
</trkpt>
<trkpt lat="-27.274439" lon="151.290064">
  <ele>343.0</ele>
  <time>2026-08-27T18:32:31Z</time>
  <course>0.0</course>
  <speed>0.0</speed>
  <fix>3d</fix>
</trkpt>
<trkpt lat="-27.274439" lon="151.290064">
  <ele>343.0</ele>
  <time>2026-08-27T18:32:31Z</time>
  <course>325.88</course>
  <speed>0.0</speed>
  <fix>3d</fix>
</trkpt>
<trkpt lat="-27.274439" lon="151.290064">
  <ele>343.0</ele>
  <time>2026-08-27T18:32:31Z</time>
  <course>324.43</course>
  <speed>0.0</speed>
  <fix>3d</fix>
</trkpt>
<trkpt lat="-27.274439" lon="151.290064">
  <ele>343.0</ele>
  <time>2026-08-27T18:32:31Z</time>
  <course>321.86</course>
  <speed>0.0</speed>
  <fix>3d</fix>
</trkpt>
<trkpt lat="-27.274439" lon="151.290064">
  <ele>343.0</ele>
  <time>2026-08-27T18:32:31Z</time>
  <course>295.0</course>
  <speed>0.0</speed>
  <fix>3d</fix>
</trkpt>
<trkpt lat="-27.274439" lon="151.290064">
  <ele>343.0</ele>
  <time>2026-08-27T18:32:31Z</time>
  <course>290.72</course>
  <speed>0.0</speed>
  <fix>3d</fix>
</trkpt>
<trkpt lat="-27.274439" lon="151.290064">
  <ele>343.0</ele>
  <time>2026-08-27T18:32:31Z</time>
  <course>284.84</course>
  <speed>0.0</speed>
  <fix>3d</fix>
</trkpt>
<trkpt lat="-27.274439" lon="151.290064">
  <ele>343.0</ele>
  <time>2026-08-27T18:32:31Z</time>
  <course>277.79</course>
  <speed>0.0</speed>
  <fix>3d</fix>
</trkpt>
<trkpt lat="-27.274439" lon="151.290064">
  <ele>343.0</ele>
  <time>2026-08-27T18:32:31Z</time>
  <course>269.55</course>
  <speed>0.0</speed>
  <fix>3d</fix>
</trkpt>
<trkpt lat="-27.274439" lon="151.290064">
  <ele>343.0</ele>
  <time>2026-08-27T18:32:32Z</time>
  <course>256.4</course>
  <speed>0.9403190947758107</speed>
  <fix>3d</fix>
</trkpt>
<trkpt lat="-27.274439" lon="151.290064">
  <ele>343.0</ele>
  <time>2026-08-27T18:32:32Z</time>
  <course>0.0</course>
  <speed>0.0</speed>
  <fix>3d</fix>
</trkpt>
<trkpt lat="-27.274439" lon="151.290064">
  <ele>343.0</ele>
  <time>2026-08-27T18:32:32Z</time>
  <course>249.45</course>
  <speed>0.756042326857432</speed>
  <fix>3d</fix>
</trkpt>
<trkpt lat="-27.274439" lon="151.290064">
  <ele>343.0</ele>
  <time>2026-08-27T18:32:32Z</time>
  <course>0.0</course>
  <speed>0.0</speed>
  <fix>3d</fix>
</trkpt>
<trkpt lat="-27.274439" lon="151.290064">
  <ele>343.0</ele>
  <time>2026-08-27T18:32:32Z</time>
  <course>241.79</course>
  <speed>0.6596969000988256</speed>
  <fix>3d</fix>
</trkpt>
<trkpt lat="-27.274439" lon="151.290064">
  <ele>343.0</ele>
  <time>2026-08-27T18:32:32Z</time>
  <course>0.0</course>
  <speed>0.0</speed>
  <fix>3d</fix>
</trkpt>
<trkpt lat="-27.274439" lon="151.290064">
  <ele>343.0</ele>
  <time>2026-08-27T18:32:32Z</time>
  <course>233.59</course>
  <speed>0.6618912297349165</speed>
  <fix>3d</fix>
</trkpt>
<trkpt lat="-27.274439" lon="151.290064">
  <ele>343.0</ele>
  <time>2026-08-27T18:32:32Z</time>
  <course>0.0</course>
  <speed>0.0</speed>
  <fix>3d</fix>
</trkpt>
<trkpt lat="-27.274439" lon="151.290064">
  <ele>343.0</ele>
  <time>2026-08-27T18:32:32Z</time>
  <course>225.02</course>
  <speed>0.7034202158027589</speed>
  <fix>3d</fix>
</trkpt>
<trkpt lat="-27.274439" lon="151.290064">
  <ele>343.0</ele>
  <time>2026-08-27T18:32:32Z</time>
  <course>0.0</course>
  <speed>0.0</speed>
  <fix>3d</fix>
</trkpt>
<trkpt lat="-27.274439" lon="151.290064">
  <ele>343.0</ele>
  <time>2026-08-27T18:32:32Z</time>
  <course>216.17</course>
  <speed>0.7539230729988305</speed>
  <fix>3d</fix>
</trkpt>
<trkpt lat="-27.274439" lon="151.290064">
  <ele>343.0</ele>
  <time>2026-08-27T18:32:32Z</time>
  <course>0.0</course>
  <speed>0.0</speed>
  <fix>3d</fix>
</trkpt>
<trkpt lat="-27.274439" lon="151.290064">
  <ele>343.0</ele>
  <time>2026-08-27T18:32:32Z</time>
  <course>207.13</course>
  <speed>0.8052949770115296</speed>
  <fix>3d</fix>
</trkpt>
<trkpt lat="-27.274439" lon="151.290064">
  <ele>343.0</ele>
  <time>2026-08-27T18:32:32Z</time>
  <course>0.0</course>
  <speed>0.0</speed>
  <fix>3d</fix>
</trkpt>
<trkpt lat="-27.2744392" lon="151.2900659">
  <ele>342.99</ele>
  <time>2026-08-27T18:32:32Z</time>
  <course>199.62</course>
  <speed>0.8588364221433555</speed>
  <fix>3d</fix>
</trkpt>
<trkpt lat="-27.2744392" lon="151.2900659">
  <ele>342.99</ele>
  <time>2026-08-27T18:32:32Z</time>
  <course>8.95</course>
  <speed>0.03</speed>
  <fix>3d</fix>
</trkpt>
<trkpt lat="-27.274439" lon="151.290066">
  <ele>342.99</ele>
  <time>2026-08-27T18:32:32Z</time>
  <course>192.87</course>
  <speed>0.9055385138137417</speed>
  <fix>3d</fix>
</trkpt>
<trkpt lat="-27.2744389" lon="151.290066">
  <ele>342.99</ele>
  <time>2026-08-27T18:32:32Z</time>
  <course>359.8</course>
  <speed>0.03</speed>
  <fix>3d</fix>
</trkpt>
<trkpt lat="-27.2744387" lon="151.290066">
  <ele>342.99</ele>
  <time>2026-08-27T18:32:32Z</time>
  <course>185.99</course>
  <speed>0.4522167621838005</speed>
  <fix>3d</fix>
</trkpt>
<trkpt lat="-27.2744387" lon="151.2900659">
  <ele>342.99</ele>
  <time>2026-08-27T18:32:32Z</time>
  <course>350.67</course>
  <speed>0.03</speed>
  <fix>3d</fix>
</trkpt>
<trkpt lat="-27.2744384" lon="151.2900659">
  <ele>342.99</ele>
  <time>2026-08-27T18:32:32Z</time>
  <course>179.24</course>
  <speed>0.17804493814764857</speed>
  <fix>3d</fix>
</trkpt>
<trkpt lat="-27.2744384" lon="151.2900659">
  <ele>342.99</ele>
  <time>2026-08-27T18:32:32Z</time>
  <course>341.53</course>
  <speed>0.03</speed>
  <fix>3d</fix>
</trkpt>
<trkpt lat="-27.2744382" lon="151.2900658">
  <ele>342.99</ele>
  <time>2026-08-27T18:32:32Z</time>
  <course>172.62</course>
  <speed>0.16278820596099705</speed>
  <fix>3d</fix>
</trkpt>
<trkpt lat="-27.2744381" lon="151.2900657">
  <ele>342.99</ele>
  <time>2026-08-27T18:32:32Z</time>
  <course>332.41</course>
  <speed>0.03</speed>
  <fix>3d</fix>
</trkpt>
<trkpt lat="-27.2744379" lon="151.2900656">
  <ele>342.99</ele>
  <time>2026-08-27T18:32:32Z</time>
  <course>165.97</course>
  <speed>0.19849433241279207</speed>
  <fix>3d</fix>
</trkpt>
<trkpt lat="-27.2744379" lon="151.2900656">
  <ele>342.99</ele>
  <time>2026-08-27T18:32:32Z</time>
  <course>323.31</course>
  <speed>0.03</speed>
  <fix>3d</fix>
</trkpt>
<trkpt lat="-27.2744386" lon="151.2900659">
  <ele>342.99</ele>
  <time>2026-08-27T18:32:32Z</time>
  <course>325.88</course>
  <speed>0.0</speed>
  <fix>3d</fix>
</trkpt>
<trkpt lat="-27.2744386" lon="151.2900659">
  <ele>342.99</ele>
  <time>2026-08-27T18:32:32Z</time>
  <course>324.43</course>
  <speed>0.0</speed>
  <fix>3d</fix>
</trkpt>
<trkpt lat="-27.2744386" lon="151.2900659">
  <ele>342.99</ele>
  <time>2026-08-27T18:32:32Z</time>
  <course>321.86</course>
  <speed>0.0</speed>
  <fix>3d</fix>
</trkpt>
<trkpt lat="-27.2744386" lon="151.2900659">
  <ele>342.99</ele>
  <time>2026-08-27T18:32:32Z</time>
  <course>318.37</course>
  <speed>0.0</speed>
  <fix>3d</fix>
</trkpt>
<trkpt lat="-27.2744386" lon="151.2900659">
  <ele>342.99</ele>
  <time>2026-08-27T18:32:32Z</time>
  <course>314.12</course>
  <speed>0.0</speed>
  <fix>3d</fix>
</trkpt>
<trkpt lat="-27.2744386" lon="151.2900659">
  <ele>342.99</ele>
  <time>2026-08-27T18:32:32Z</time>
  <course>309.23</course>
  <speed>0.0</speed>
  <fix>3d</fix>
</trkpt>
<trkpt lat="-27.2744386" lon="151.2900659">
  <ele>342.99</ele>
  <time>2026-08-27T18:32:32Z</time>
  <course>303.85</course>
  <speed>0.0</speed>
  <fix>3d</fix>
</trkpt>
<trkpt lat="-27.2744386" lon="151.2900659">
  <ele>342.99</ele>
  <time>2026-08-27T18:32:32Z</time>
  <course>298.09</course>
  <speed>0.0</speed>
  <fix>3d</fix>
</trkpt>
<trkpt lat="-27.2744386" lon="151.2900659">
  <ele>342.99</ele>
  <time>2026-08-27T18:32:32Z</time>
  <course>292.03</course>
  <speed>0.0</speed>
  <fix>3d</fix>
</trkpt>
<trkpt lat="-27.2744407" lon="151.2900645">
  <ele>-0.14</ele>
  <time>2026-08-27T18:32:32Z</time>
  <course>285.91</course>
  <speed>0.03</speed>
  <fix>3d</fix>
</trkpt>
<trkpt lat="-27.2744407" lon="151.2900645">
  <ele>342.99</ele>
  <time>2026-08-27T18:32:32Z</time>
  <course>73.33</course>
  <speed>0.03</speed>
  <fix>3d</fix>
</trkpt>
<trkpt lat="-27.2744406" lon="151.2900648">
  <ele>-0.06</ele>
  <time>2026-08-27T18:32:32Z</time>
  <course>280.34</course>
  <speed>0.022360679774997897</speed>
  <fix>3d</fix>
</trkpt>
<trkpt lat="-27.2744405" lon="151.2900649">
  <ele>342.99</ele>
  <time>2026-08-27T18:32:32Z</time>
  <course>62.5</course>
  <speed>0.03</speed>
  <fix>3d</fix>
</trkpt>
<trkpt lat="-27.2744404" lon="151.2900651">
  <ele>342.99</ele>
  <time>2026-08-27T18:32:32Z</time>
  <course>0.0</course>
  <speed>0.2640075756488817</speed>
  <fix>3d</fix>
</trkpt>
<trkpt lat="-27.2744404" lon="151.2900651">
  <ele>342.99</ele>
  <time>2026-08-27T18:32:32Z</time>
  <course>55.27</course>
  <speed>0.03</speed>
  <fix>3d</fix>
</trkpt>
<trkpt lat="-27.2744402" lon="151.2900653">
  <ele>342.99</ele>
  <time>2026-08-27T18:32:32Z</time>
  <course>230.64</course>
  <speed>0.3138470965295043</speed>
  <fix>3d</fix>
</trkpt>
<trkpt lat="-27.2744402" lon="151.2900654">
  <ele>342.99</ele>
  <time>2026-08-27T18:32:32Z</time>
  <course>44.41</course>
  <speed>0.03</speed>
  <fix>3d</fix>
</trkpt>
<trkpt lat="-27.27444" lon="151.2900656">
  <ele>342.99</ele>
  <time>2026-08-27T18:32:32Z</time>
  <course>226.13</course>
  <speed>0.7647875521999558</speed>
  <fix>3d</fix>
</trkpt>
<trkpt lat="-27.27444" lon="151.2900656">
  <ele>342.99</ele>
  <time>2026-08-27T18:32:32Z</time>
  <course>37.16</course>
  <speed>0.03</speed>
  <fix>3d</fix>
</trkpt>
<trkpt lat="-27.2744398" lon="151.2900657">
  <ele>342.99</ele>
  <time>2026-08-27T18:32:32Z</time>
  <course>215.84</course>
  <speed>1.4937536610833797</speed>
  <fix>3d</fix>
</trkpt>
<trkpt lat="-27.2744397" lon="151.2900658">
  <ele>342.99</ele>
  <time>2026-08-27T18:32:32Z</time>
  <course>26.26</course>
  <speed>0.03</speed>
  <fix>3d</fix>
</trkpt>
<trkpt lat="-27.2744395" lon="151.2900659">
  <ele>342.99</ele>
  <time>2026-08-27T18:32:32Z</time>
  <course>202.56</course>
  <speed>2.4738633753705965</speed>
  <fix>3d</fix>
</trkpt>
<trkpt lat="-27.2744395" lon="151.2900659">
  <ele>342.99</ele>
  <time>2026-08-27T18:32:32Z</time>
  <course>18.98</course>
  <speed>0.03</speed>
  <fix>3d</fix>
</trkpt>
<trkpt lat="-27.2744393" lon="151.2900659">
  <ele>342.99</ele>
  <time>2026-08-27T18:32:32Z</time>
  <course>190.96</course>
  <speed>3.3148906467634793</speed>
  <fix>3d</fix>
</trkpt>
<trkpt lat="-27.2744392" lon="151.290066">
  <ele>342.99</ele>
  <time>2026-08-27T18:32:32Z</time>
  <course>8.04</course>
  <speed>0.03</speed>
  <fix>3d</fix>
</trkpt>
<trkpt lat="-27.274439" lon="151.290066">
  <ele>342.99</ele>
  <time>2026-08-27T18:32:32Z</time>
  <course>180.01</course>
  <speed>3.4461137532008426</speed>
  <fix>3d</fix>
</trkpt>
<trkpt lat="-27.274439" lon="151.290066">
  <ele>342.99</ele>
  <time>2026-08-27T18:32:32Z</time>
  <course>0.72</course>
  <speed>0.03</speed>
  <fix>3d</fix>
</trkpt>
<trkpt lat="-27.2744387" lon="151.290066">
  <ele>342.99</ele>
  <time>2026-08-27T18:32:32Z</time>
  <course>170.21</course>
  <speed>2.820815484926301</speed>
  <fix>3d</fix>
</trkpt>
<trkpt lat="-27.2744386" lon="151.2900659">
  <ele>342.99</ele>
  <time>2026-08-27T18:32:32Z</time>
  <course>349.73</course>
  <speed>0.03</speed>
  <fix>3d</fix>
</trkpt>
<trkpt lat="-27.2744384" lon="151.2900659">
  <ele>342.99</ele>
  <time>2026-08-27T18:32:32Z</time>
  <course>160.69</course>
  <speed>1.9504102132628407</speed>
  <fix>3d</fix>
</trkpt>
<trkpt lat="-27.2744384" lon="151.2900659">
  <ele>342.99</ele>
  <time>2026-08-27T18:32:32Z</time>
  <course>342.39</course>
  <speed>0.03</speed>
  <fix>3d</fix>
</trkpt>
<trkpt lat="-27.2744382" lon="151.2900658">
  <ele>342.99</ele>
  <time>2026-08-27T18:32:32Z</time>
  <course>152.95</course>
  <speed>1.2360016181219182</speed>
  <fix>3d</fix>
</trkpt>
<trkpt lat="-27.2744382" lon="151.2900658">
  <ele>342.99</ele>
  <time>2026-08-27T18:32:32Z</time>
  <course>333.77</course>
  <speed>0.02</speed>
  <fix>3d</fix>
</trkpt>
<trkpt lat="-27.274438" lon="151.2900657">
  <ele>342.99</ele>
  <time>2026-08-27T18:32:32Z</time>
  <course>149.77</course>
  <speed>0.7636753236814714</speed>
  <fix>3d</fix>
</trkpt>
<trkpt lat="-27.274438" lon="151.2900657">
  <ele>342.99</ele>
  <time>2026-08-27T18:32:32Z</time>
  <course>329.51</course>
  <speed>0.0</speed>
  <fix>3d</fix>
</trkpt>
<trkpt lat="-27.274438" lon="151.2900657">
  <ele>342.99</ele>
  <time>2026-08-27T18:32:32Z</time>
  <course>148.35</course>
  <speed>0.5682429058070149</speed>
  <fix>3d</fix>
</trkpt>
<trkpt lat="-27.274438" lon="151.2900657">
  <ele>342.99</ele>
  <time>2026-08-27T18:32:32Z</time>
  <course>327.82</course>
  <speed>0.0</speed>
  <fix>3d</fix>
</trkpt>
<trkpt lat="-27.274438" lon="151.2900656">
  <ele>342.99</ele>
  <time>2026-08-27T18:32:32Z</time>
  <course>147.61</course>
  <speed>0.5756735185849702</speed>
  <fix>3d</fix>
</trkpt>
<trkpt lat="-27.274438" lon="151.2900656">
  <ele>342.99</ele>
  <time>2026-08-27T18:32:32Z</time>
  <course>327.12</course>
  <speed>0.0</speed>
  <fix>3d</fix>
</trkpt>
<trkpt lat="-27.274438" lon="151.2900656">
  <ele>342.99</ele>
  <time>2026-08-27T18:32:32Z</time>
  <course>147.24</course>
  <speed>0.5608921464952064</speed>
  <fix>3d</fix>
</trkpt>
<trkpt lat="-27.274438" lon="151.2900656">
  <ele>342.99</ele>
  <time>2026-08-27T18:32:32Z</time>
  <course>326.81</course>
  <speed>0.0</speed>
  <fix>3d</fix>
</trkpt>
<trkpt lat="-27.274438" lon="151.2900656">
  <ele>342.99</ele>
  <time>2026-08-27T18:32:32Z</time>
  <course>146.99</course>
  <speed>0.5277309920783505</speed>
  <fix>3d</fix>
</trkpt>
<trkpt lat="-27.274438" lon="151.2900656">
  <ele>342.99</ele>
  <time>2026-08-27T18:32:32Z</time>
  <course>326.68</course>
  <speed>0.0</speed>
  <fix>3d</fix>
</trkpt>
<trkpt lat="-27.274438" lon="151.2900656">
  <ele>342.99</ele>
  <time>2026-08-27T18:32:32Z</time>
  <course>146.86</course>
  <speed>0.4219004621945798</speed>
  <fix>3d</fix>
</trkpt>
<trkpt lat="-27.274438" lon="151.2900656">
  <ele>342.99</ele>
  <time>2026-08-27T18:32:32Z</time>
  <course>326.62</course>
  <speed>0.0</speed>
  <fix>3d</fix>
</trkpt>
<trkpt lat="-27.274438" lon="151.2900656">
  <ele>342.99</ele>
  <time>2026-08-27T18:32:32Z</time>
  <course>146.78</course>
  <speed>0.3014962686336267</speed>
  <fix>3d</fix>
</trkpt>
<trkpt lat="-27.274438" lon="151.2900656">
  <ele>342.99</ele>
  <time>2026-08-27T18:32:32Z</time>
  <course>326.59</course>
  <speed>0.0</speed>
  <fix>3d</fix>
</trkpt>
<trkpt lat="-27.274438" lon="151.2900656">
  <ele>343.0</ele>
  <time>2026-08-27T18:32:32Z</time>
  <course>146.73</course>
  <speed>0.20124611797498107</speed>
  <fix>3d</fix>
</trkpt>
<trkpt lat="-27.274438" lon="151.2900656">
  <ele>343.0</ele>
  <time>2026-08-27T18:32:32Z</time>
  <course>326.58</course>
  <speed>0.0</speed>
  <fix>3d</fix>
</trkpt>
<trkpt lat="-27.274438" lon="151.2900656">
  <ele>343.0</ele>
  <time>2026-08-27T18:32:32Z</time>
  <course>146.69</course>
  <speed>0.16552945357246848</speed>
  <fix>3d</fix>
</trkpt>
<trkpt lat="-27.274438" lon="151.2900656">
  <ele>343.0</ele>
  <time>2026-08-27T18:32:32Z</time>
  <course>326.58</course>
  <speed>0.0</speed>
  <fix>3d</fix>
</trkpt>
<trkpt lat="-27.274438" lon="151.2900656">
  <ele>343.0</ele>
  <time>2026-08-27T18:32:32Z</time>
  <course>146.67</course>
  <speed>0.2009975124224178</speed>
  <fix>3d</fix>
</trkpt>
<trkpt lat="-27.274438" lon="151.2900656">
  <ele>343.0</ele>
  <time>2026-08-27T18:32:32Z</time>
  <course>326.58</course>
  <speed>0.0</speed>
  <fix>3d</fix>
</trkpt>
<trkpt lat="-27.274438" lon="151.2900656">
  <ele>343.0</ele>
  <time>2026-08-27T18:32:32Z</time>
  <course>146.65</course>
  <speed>0.26</speed>
  <fix>3d</fix>
</trkpt>
<trkpt lat="-27.274438" lon="151.2900656">
  <ele>343.0</ele>
  <time>2026-08-27T18:32:32Z</time>
  <course>326.58</course>
  <speed>0.0</speed>
  <fix>3d</fix>
</trkpt>
<trkpt lat="-27.274438" lon="151.2900656">
  <ele>343.0</ele>
  <time>2026-08-27T18:32:32Z</time>
  <course>146.63</course>
  <speed>0.2968164415931166</speed>
  <fix>3d</fix>
</trkpt>
<trkpt lat="-27.274438" lon="151.2900656">
  <ele>343.0</ele>
  <time>2026-08-27T18:32:32Z</time>
  <course>326.58</course>
  <speed>0.0</speed>
  <fix>3d</fix>
</trkpt>
<trkpt lat="-27.274438" lon="151.2900656">
  <ele>343.0</ele>
  <time>2026-08-27T18:32:32Z</time>
  <course>146.64</course>
  <speed>0.35805027579936316</speed>
  <fix>3d</fix>
</trkpt>
<trkpt lat="-27.274438" lon="151.2900656">
  <ele>343.0</ele>
  <time>2026-08-27T18:32:32Z</time>
  <course>326.58</course>
  <speed>0.0</speed>
  <fix>3d</fix>
</trkpt>
<trkpt lat="-27.274439" lon="151.290064">
  <ele>343.0</ele>
  <time>2026-08-27T18:32:32Z</time>
  <course>147.08</course>
  <speed>0.354682957019364</speed>
  <fix>3d</fix>
</trkpt>
<trkpt lat="-27.274439" lon="151.290064">
  <ele>343.0</ele>
  <time>2026-08-27T18:32:32Z</time>
  <course>0.0</course>
  <speed>0.0</speed>
  <fix>3d</fix>
</trkpt>
<trkpt lat="-27.274439" lon="151.290064">
  <ele>343.0</ele>
  <time>2026-08-27T18:32:32Z</time>
  <course>146.96</course>
  <speed>0.34713109915419565</speed>
  <fix>3d</fix>
</trkpt>
<trkpt lat="-27.274439" lon="151.290064">
  <ele>343.0</ele>
  <time>2026-08-27T18:32:32Z</time>
  <course>0.0</course>
  <speed>0.0</speed>
  <fix>3d</fix>
</trkpt>
<trkpt lat="-27.274439" lon="151.290064">
  <ele>343.0</ele>
  <time>2026-08-27T18:32:32Z</time>
  <course>138.65</course>
  <speed>0.12041594578792296</speed>
  <fix>3d</fix>
</trkpt>
<trkpt lat="-27.274439" lon="151.290064">
  <ele>343.0</ele>
  <time>2026-08-27T18:32:32Z</time>
  <course>0.0</course>
  <speed>0.0</speed>
  <fix>3d</fix>
</trkpt>
<trkpt lat="-27.274439" lon="151.290064">
  <ele>343.0</ele>
  <time>2026-08-27T18:32:32Z</time>
  <course>129.28</course>
  <speed>0.044721359549995794</speed>
  <fix>3d</fix>
</trkpt>
<trkpt lat="-27.274439" lon="151.290064">
  <ele>343.0</ele>
  <time>2026-08-27T18:32:32Z</time>
  <course>0.0</course>
  <speed>0.0</speed>
  <fix>3d</fix>
</trkpt>
<trkpt lat="-27.274439" lon="151.290064">
  <ele>343.0</ele>
  <time>2026-08-27T18:32:32Z</time>
  <course>120.23</course>
  <speed>0.0565685424949238</speed>
  <fix>3d</fix>
</trkpt>
<trkpt lat="-27.274439" lon="151.290064">
  <ele>343.0</ele>
  <time>2026-08-27T18:32:32Z</time>
  <course>0.0</course>
  <speed>0.0</speed>
  <fix>3d</fix>
</trkpt>
<trkpt lat="-27.274439" lon="151.290064">
  <ele>343.0</ele>
  <time>2026-08-27T18:32:32Z</time>
  <course>111.21</course>
  <speed>0.04242640687119285</speed>
  <fix>3d</fix>
</trkpt>
<trkpt lat="-27.274439" lon="151.290064">
  <ele>343.0</ele>
  <time>2026-08-27T18:32:32Z</time>
  <course>0.0</course>
  <speed>0.0</speed>
  <fix>3d</fix>
</trkpt>
<trkpt lat="-27.2744381" lon="151.2900657">
  <ele>342.99</ele>
  <time>2026-08-27T18:32:33Z</time>
  <course>325.88</course>
  <speed>0.0</speed>
  <fix>3d</fix>
</trkpt>
<trkpt lat="-27.2744381" lon="151.2900657">
  <ele>342.99</ele>
  <time>2026-08-27T18:32:33Z</time>
  <course>324.43</course>
  <speed>0.0</speed>
  <fix>3d</fix>
</trkpt>
<trkpt lat="-27.2744381" lon="151.2900657">
  <ele>342.99</ele>
  <time>2026-08-27T18:32:33Z</time>
  <course>321.86</course>
  <speed>0.0</speed>
  <fix>3d</fix>
</trkpt>
<trkpt lat="-27.2744381" lon="151.2900657">
  <ele>342.99</ele>
  <time>2026-08-27T18:32:33Z</time>
  <course>295.0</course>
  <speed>0.0</speed>
  <fix>3d</fix>
</trkpt>
<trkpt lat="-27.2744381" lon="151.2900657">
  <ele>342.99</ele>
  <time>2026-08-27T18:32:33Z</time>
  <course>290.72</course>
  <speed>0.0</speed>
  <fix>3d</fix>
</trkpt>
<trkpt lat="-27.2744381" lon="151.2900657">
  <ele>342.99</ele>
  <time>2026-08-27T18:32:33Z</time>
  <course>284.84</course>
  <speed>0.0</speed>
  <fix>3d</fix>
</trkpt>
<trkpt lat="-27.2744381" lon="151.2900657">
  <ele>342.99</ele>
  <time>2026-08-27T18:32:33Z</time>
  <course>277.79</course>
  <speed>0.0</speed>
  <fix>3d</fix>
</trkpt>
<trkpt lat="-27.2744381" lon="151.2900657">
  <ele>342.99</ele>
  <time>2026-08-27T18:32:33Z</time>
  <course>269.55</course>
  <speed>0.0</speed>
  <fix>3d</fix>
</trkpt>
<trkpt lat="-27.274439" lon="151.290064">
  <ele>343.0</ele>
  <time>2026-08-27T18:32:33Z</time>
  <course>256.4</course>
  <speed>0.9403190947758107</speed>
  <fix>3d</fix>
</trkpt>
<trkpt lat="-27.274439" lon="151.290064">
  <ele>343.0</ele>
  <time>2026-08-27T18:32:33Z</time>
  <course>0.0</course>
  <speed>0.0</speed>
  <fix>3d</fix>
</trkpt>
<trkpt lat="-27.274439" lon="151.290064">
  <ele>343.0</ele>
  <time>2026-08-27T18:32:33Z</time>
  <course>249.45</course>
  <speed>0.756042326857432</speed>
  <fix>3d</fix>
</trkpt>
<trkpt lat="-27.274439" lon="151.290064">
  <ele>343.0</ele>
  <time>2026-08-27T18:32:33Z</time>
  <course>0.0</course>
  <speed>0.0</speed>
  <fix>3d</fix>
</trkpt>
<trkpt lat="-27.274439" lon="151.290064">
  <ele>343.0</ele>
  <time>2026-08-27T18:32:33Z</time>
  <course>241.79</course>
  <speed>0.6596969000988256</speed>
  <fix>3d</fix>
</trkpt>
<trkpt lat="-27.274439" lon="151.290064">
  <ele>343.0</ele>
  <time>2026-08-27T18:32:33Z</time>
  <course>0.0</course>
  <speed>0.0</speed>
  <fix>3d</fix>
</trkpt>
<trkpt lat="-27.274439" lon="151.290064">
  <ele>343.0</ele>
  <time>2026-08-27T18:32:33Z</time>
  <course>233.59</course>
  <speed>0.6618912297349165</speed>
  <fix>3d</fix>
</trkpt>
<trkpt lat="-27.274439" lon="151.290064">
  <ele>343.0</ele>
  <time>2026-08-27T18:32:33Z</time>
  <course>0.0</course>
  <speed>0.0</speed>
  <fix>3d</fix>
</trkpt>
<trkpt lat="-27.274439" lon="151.290064">
  <ele>343.0</ele>
  <time>2026-08-27T18:32:33Z</time>
  <course>225.02</course>
  <speed>0.7034202158027589</speed>
  <fix>3d</fix>
</trkpt>
<trkpt lat="-27.274439" lon="151.290064">
  <ele>343.0</ele>
  <time>2026-08-27T18:32:33Z</time>
  <course>0.0</course>
  <speed>0.0</speed>
  <fix>3d</fix>
</trkpt>
<trkpt lat="-27.274439" lon="151.290064">
  <ele>343.0</ele>
  <time>2026-08-27T18:32:33Z</time>
  <course>216.17</course>
  <speed>0.7539230729988305</speed>
  <fix>3d</fix>
</trkpt>
<trkpt lat="-27.274439" lon="151.290064">
  <ele>343.0</ele>
  <time>2026-08-27T18:32:33Z</time>
  <course>0.0</course>
  <speed>0.0</speed>
  <fix>3d</fix>
</trkpt>
<trkpt lat="-27.274439" lon="151.290064">
  <ele>343.0</ele>
  <time>2026-08-27T18:32:33Z</time>
  <course>207.13</course>
  <speed>0.8052949770115296</speed>
  <fix>3d</fix>
</trkpt>
<trkpt lat="-27.274439" lon="151.290064">
  <ele>343.0</ele>
  <time>2026-08-27T18:32:33Z</time>
  <course>0.0</course>
  <speed>0.0</speed>
  <fix>3d</fix>
</trkpt>
<trkpt lat="-27.274439" lon="151.290064">
  <ele>343.0</ele>
  <time>2026-08-27T18:32:33Z</time>
  <course>197.95</course>
  <speed>0.8453401682163222</speed>
  <fix>3d</fix>
</trkpt>
<trkpt lat="-27.274439" lon="151.290064">
  <ele>343.0</ele>
  <time>2026-08-27T18:32:33Z</time>
  <course>0.0</course>
  <speed>0.0</speed>
  <fix>3d</fix>
</trkpt>
<trkpt lat="-27.274439" lon="151.290064">
  <ele>343.0</ele>
  <time>2026-08-27T18:32:33Z</time>
  <course>188.67</course>
  <speed>0.878179936004006</speed>
  <fix>3d</fix>
</trkpt>
<trkpt lat="-27.274439" lon="151.290064">
  <ele>343.0</ele>
  <time>2026-08-27T18:32:33Z</time>
  <course>0.0</course>
  <speed>0.0</speed>
  <fix>3d</fix>
</trkpt>
<trkpt lat="-27.274439" lon="151.290064">
  <ele>343.0</ele>
  <time>2026-08-27T18:32:33Z</time>
  <course>179.31</course>
  <speed>0.8848163651289458</speed>
  <fix>3d</fix>
</trkpt>
<trkpt lat="-27.274439" lon="151.290064">
  <ele>343.0</ele>
  <time>2026-08-27T18:32:33Z</time>
  <course>0.0</course>
  <speed>0.0</speed>
  <fix>3d</fix>
</trkpt>
<trkpt lat="-27.274439" lon="151.290064">
  <ele>343.0</ele>
  <time>2026-08-27T18:32:33Z</time>
  <course>169.93</course>
  <speed>0.9140021881811882</speed>
  <fix>3d</fix>
</trkpt>
<trkpt lat="-27.274439" lon="151.290064">
  <ele>343.0</ele>
  <time>2026-08-27T18:32:33Z</time>
  <course>0.0</course>
  <speed>0.0</speed>
  <fix>3d</fix>
</trkpt>
<trkpt lat="-27.274439" lon="151.290064">
  <ele>343.0</ele>
  <time>2026-08-27T18:32:33Z</time>
  <course>161.9</course>
  <speed>0.9219544457292888</speed>
  <fix>3d</fix>
</trkpt>
<trkpt lat="-27.274439" lon="151.290064">
  <ele>343.0</ele>
  <time>2026-08-27T18:32:33Z</time>
  <course>0.0</course>
  <speed>0.0</speed>
  <fix>3d</fix>
</trkpt>
<trkpt lat="-27.274439" lon="151.290064">
  <ele>343.0</ele>
  <time>2026-08-27T18:32:33Z</time>
  <course>158.55</course>
  <speed>0.9411163583744573</speed>
  <fix>3d</fix>
</trkpt>
<trkpt lat="-27.274439" lon="151.290064">
  <ele>343.0</ele>
  <time>2026-08-27T18:32:33Z</time>
  <course>0.0</course>
  <speed>0.0</speed>
  <fix>3d</fix>
</trkpt>
<trkpt lat="-27.274439" lon="151.290064">
  <ele>343.0</ele>
  <time>2026-08-27T18:32:33Z</time>
  <course>157.2</course>
  <speed>0.9546203433826455</speed>
  <fix>3d</fix>
</trkpt>
<trkpt lat="-27.274439" lon="151.290064">
  <ele>343.0</ele>
  <time>2026-08-27T18:32:33Z</time>
  <course>0.0</course>
  <speed>0.0</speed>
  <fix>3d</fix>
</trkpt>
<trkpt lat="-27.274439" lon="151.290064">
  <ele>343.0</ele>
  <time>2026-08-27T18:32:33Z</time>
  <course>156.57</course>
  <speed>0.9642613753542137</speed>
  <fix>3d</fix>
</trkpt>
<trkpt lat="-27.274439" lon="151.290064">
  <ele>343.0</ele>
  <time>2026-08-27T18:32:33Z</time>
  <course>0.0</course>
  <speed>0.0</speed>
  <fix>3d</fix>
</trkpt>
<trkpt lat="-27.274439" lon="151.290064">
  <ele>343.0</ele>
  <time>2026-08-27T18:32:33Z</time>
  <course>156.21</course>
  <speed>0.9602083107326242</speed>
  <fix>3d</fix>
</trkpt>
<trkpt lat="-27.274439" lon="151.290064">
  <ele>343.0</ele>
  <time>2026-08-27T18:32:33Z</time>
  <course>0.0</course>
  <speed>0.0</speed>
  <fix>3d</fix>
</trkpt>
<trkpt lat="-27.274439" lon="151.290064">
  <ele>343.0</ele>
  <time>2026-08-27T18:32:33Z</time>
  <course>155.95</course>
  <speed>0.9689685237405805</speed>
  <fix>3d</fix>
</trkpt>
<trkpt lat="-27.274439" lon="151.290064">
  <ele>343.0</ele>
  <time>2026-08-27T18:32:33Z</time>
  <course>0.0</course>
  <speed>0.0</speed>
  <fix>3d</fix>
</trkpt>
<trkpt lat="-27.274439" lon="151.290064">
  <ele>343.0</ele>
  <time>2026-08-27T18:32:33Z</time>
  <course>155.71</course>
  <speed>0.9800510190801294</speed>
  <fix>3d</fix>
</trkpt>
<trkpt lat="-27.274439" lon="151.290064">
  <ele>343.0</ele>
  <time>2026-08-27T18:32:33Z</time>
  <course>0.0</course>
  <speed>0.0</speed>
  <fix>3d</fix>
</trkpt>
<trkpt lat="-27.274439" lon="151.290064">
  <ele>343.0</ele>
  <time>2026-08-27T18:32:33Z</time>
  <course>155.49</course>
  <speed>0.9972963451251589</speed>
  <fix>3d</fix>
</trkpt>
<trkpt lat="-27.274439" lon="151.290064">
  <ele>343.0</ele>
  <time>2026-08-27T18:32:33Z</time>
  <course>0.0</course>
  <speed>0.0</speed>
  <fix>3d</fix>
</trkpt>
<trkpt lat="-27.274439" lon="151.290064">
  <ele>343.0</ele>
  <time>2026-08-27T18:32:33Z</time>
  <course>155.27</course>
  <speed>1.0113357503816425</speed>
  <fix>3d</fix>
</trkpt>
<trkpt lat="-27.274439" lon="151.290064">
  <ele>343.0</ele>
  <time>2026-08-27T18:32:33Z</time>
  <course>0.0</course>
  <speed>0.0</speed>
  <fix>3d</fix>
</trkpt>
<trkpt lat="-27.274439" lon="151.290064">
  <ele>343.0</ele>
  <time>2026-08-27T18:32:33Z</time>
  <course>155.07</course>
  <speed>1.010198000393982</speed>
  <fix>3d</fix>
</trkpt>
<trkpt lat="-27.274439" lon="151.290064">
  <ele>343.0</ele>
  <time>2026-08-27T18:32:33Z</time>
  <course>0.0</course>
  <speed>0.0</speed>
  <fix>3d</fix>
</trkpt>
<trkpt lat="-27.274439" lon="151.290064">
  <ele>343.0</ele>
  <time>2026-08-27T18:32:33Z</time>
  <course>146.83</course>
  <speed>0.5119570294468082</speed>
  <fix>3d</fix>
</trkpt>
<trkpt lat="-27.274439" lon="151.290064">
  <ele>343.0</ele>
  <time>2026-08-27T18:32:33Z</time>
  <course>0.0</course>
  <speed>0.0</speed>
  <fix>3d</fix>
</trkpt>
<trkpt lat="-27.274439" lon="151.290064">
  <ele>343.0</ele>
  <time>2026-08-27T18:32:33Z</time>
  <course>137.34</course>
  <speed>0.21840329667841554</speed>
  <fix>3d</fix>
</trkpt>
<trkpt lat="-27.274439" lon="151.290064">
  <ele>343.0</ele>
  <time>2026-08-27T18:32:33Z</time>
  <course>0.0</course>
  <speed>0.0</speed>
  <fix>3d</fix>
</trkpt>
<trkpt lat="-27.274439" lon="151.290064">
  <ele>343.0</ele>
  <time>2026-08-27T18:32:33Z</time>
  <course>127.88</course>
  <speed>0.13</speed>
  <fix>3d</fix>
</trkpt>
<trkpt lat="-27.274439" lon="151.290064">
  <ele>343.0</ele>
  <time>2026-08-27T18:32:33Z</time>
  <course>0.0</course>
  <speed>0.0</speed>
  <fix>3d</fix>
</trkpt>
<trkpt lat="-27.274439" lon="151.290064">
  <ele>343.0</ele>
  <time>2026-08-27T18:32:33Z</time>
  <course>118.45</course>
  <speed>0.11</speed>
  <fix>3d</fix>
</trkpt>
<trkpt lat="-27.274439" lon="151.290064">
  <ele>343.0</ele>
  <time>2026-08-27T18:32:33Z</time>
  <course>0.0</course>
  <speed>0.0</speed>
  <fix>3d</fix>
</trkpt>
<trkpt lat="-27.274439" lon="151.290064">
  <ele>343.0</ele>
  <time>2026-08-27T18:32:33Z</time>
  <course>325.88</course>
  <speed>0.0</speed>
  <fix>3d</fix>
</trkpt>
<trkpt lat="-27.274439" lon="151.290064">
  <ele>343.0</ele>
  <time>2026-08-27T18:32:33Z</time>
  <course>324.43</course>
  <speed>0.0</speed>
  <fix>3d</fix>
</trkpt>
<trkpt lat="-27.274439" lon="151.290064">
  <ele>343.0</ele>
  <time>2026-08-27T18:32:33Z</time>
  <course>321.86</course>
  <speed>0.0</speed>
  <fix>3d</fix>
</trkpt>
<trkpt lat="-27.274439" lon="151.290064">
  <ele>343.0</ele>
  <time>2026-08-27T18:32:33Z</time>
  <course>295.0</course>
  <speed>0.0</speed>
  <fix>3d</fix>
</trkpt>
<trkpt lat="-27.274439" lon="151.290064">
  <ele>343.0</ele>
  <time>2026-08-27T18:32:33Z</time>
  <course>290.72</course>
  <speed>0.0</speed>
  <fix>3d</fix>
</trkpt>
<trkpt lat="-27.274439" lon="151.290064">
  <ele>343.0</ele>
  <time>2026-08-27T18:32:33Z</time>
  <course>284.84</course>
  <speed>0.0</speed>
  <fix>3d</fix>
</trkpt>
<trkpt lat="-27.274439" lon="151.290064">
  <ele>343.0</ele>
  <time>2026-08-27T18:32:33Z</time>
  <course>277.79</course>
  <speed>0.0</speed>
  <fix>3d</fix>
</trkpt>
<trkpt lat="-27.274439" lon="151.290064">
  <ele>343.0</ele>
  <time>2026-08-27T18:32:33Z</time>
  <course>269.55</course>
  <speed>0.0</speed>
  <fix>3d</fix>
</trkpt>
<trkpt lat="-27.274439" lon="151.290064">
  <ele>343.0</ele>
  <time>2026-08-27T18:32:33Z</time>
  <course>262.16</course>
  <speed>0.9176055797563569</speed>
  <fix>3d</fix>
</trkpt>
<trkpt lat="-27.274439" lon="151.290064">
  <ele>343.0</ele>
  <time>2026-08-27T18:32:33Z</time>
  <course>0.0</course>
  <speed>0.0</speed>
  <fix>3d</fix>
</trkpt>
<trkpt lat="-27.274439" lon="151.290064">
  <ele>343.0</ele>
  <time>2026-08-27T18:32:33Z</time>
  <course>256.4</course>
  <speed>0.9403190947758107</speed>
  <fix>3d</fix>
</trkpt>
<trkpt lat="-27.274439" lon="151.290064">
  <ele>343.0</ele>
  <time>2026-08-27T18:32:33Z</time>
  <course>0.0</course>
  <speed>0.0</speed>
  <fix>3d</fix>
</trkpt>
<trkpt lat="-27.274439" lon="151.290064">
  <ele>343.0</ele>
  <time>2026-08-27T18:32:33Z</time>
  <course>249.69</course>
  <speed>0.2692582403567252</speed>
  <fix>3d</fix>
</trkpt>
<trkpt lat="-27.274439" lon="151.290064">
  <ele>343.0</ele>
  <time>2026-08-27T18:32:33Z</time>
  <course>0.0</course>
  <speed>0.0</speed>
  <fix>3d</fix>
</trkpt>
<trkpt lat="-27.274439" lon="151.290064">
  <ele>343.0</ele>
  <time>2026-08-27T18:32:33Z</time>
  <course>242.03</course>
  <speed>0.12806248474865697</speed>
  <fix>3d</fix>
</trkpt>
<trkpt lat="-27.274439" lon="151.290064">
  <ele>343.0</ele>
  <time>2026-08-27T18:32:33Z</time>
  <course>0.0</course>
  <speed>0.0</speed>
  <fix>3d</fix>
</trkpt>
<trkpt lat="-27.274439" lon="151.290064">
  <ele>343.0</ele>
  <time>2026-08-27T18:32:33Z</time>
  <course>233.59</course>
  <speed>0.08602325267042626</speed>
  <fix>3d</fix>
</trkpt>
<trkpt lat="-27.274439" lon="151.290064">
  <ele>343.0</ele>
  <time>2026-08-27T18:32:33Z</time>
  <course>0.0</course>
  <speed>0.0</speed>
  <fix>3d</fix>
</trkpt>
<trkpt lat="-27.274439" lon="151.290064">
  <ele>343.0</ele>
  <time>2026-08-27T18:32:33Z</time>
  <course>224.66</course>
  <speed>0.05</speed>
  <fix>3d</fix>
</trkpt>
<trkpt lat="-27.274439" lon="151.290064">
  <ele>343.0</ele>
  <time>2026-08-27T18:32:33Z</time>
  <course>0.0</course>
  <speed>0.0</speed>
  <fix>3d</fix>
</trkpt>
<trkpt lat="-27.274439" lon="151.290064">
  <ele>343.0</ele>
  <time>2026-08-27T18:32:34Z</time>
  <course>325.88</course>
  <speed>0.0</speed>
  <fix>3d</fix>
</trkpt>
<trkpt lat="-27.274439" lon="151.290064">
  <ele>343.0</ele>
  <time>2026-08-27T18:32:34Z</time>
  <course>324.43</course>
  <speed>0.0</speed>
  <fix>3d</fix>
</trkpt>
<trkpt lat="-27.274439" lon="151.290064">
  <ele>343.0</ele>
  <time>2026-08-27T18:32:34Z</time>
  <course>321.86</course>
  <speed>0.0</speed>
  <fix>3d</fix>
</trkpt>
<trkpt lat="-27.274439" lon="151.290064">
  <ele>343.0</ele>
  <time>2026-08-27T18:32:34Z</time>
  <course>295.0</course>
  <speed>0.0</speed>
  <fix>3d</fix>
</trkpt>
<trkpt lat="-27.274439" lon="151.290064">
  <ele>343.0</ele>
  <time>2026-08-27T18:32:34Z</time>
  <course>290.72</course>
  <speed>0.0</speed>
  <fix>3d</fix>
</trkpt>
<trkpt lat="-27.274439" lon="151.290064">
  <ele>343.0</ele>
  <time>2026-08-27T18:32:34Z</time>
  <course>284.84</course>
  <speed>0.0</speed>
  <fix>3d</fix>
</trkpt>
<trkpt lat="-27.274439" lon="151.290064">
  <ele>343.0</ele>
  <time>2026-08-27T18:32:34Z</time>
  <course>277.79</course>
  <speed>0.0</speed>
  <fix>3d</fix>
</trkpt>
<trkpt lat="-27.274439" lon="151.290064">
  <ele>343.0</ele>
  <time>2026-08-27T18:32:34Z</time>
  <course>269.55</course>
  <speed>0.0</speed>
  <fix>3d</fix>
</trkpt>
<trkpt lat="-27.274439" lon="151.290064">
  <ele>343.0</ele>
  <time>2026-08-27T18:32:34Z</time>
  <course>256.4</course>
  <speed>0.9403190947758107</speed>
  <fix>3d</fix>
</trkpt>
<trkpt lat="-27.274439" lon="151.290064">
  <ele>343.0</ele>
  <time>2026-08-27T18:32:34Z</time>
  <course>0.0</course>
  <speed>0.0</speed>
  <fix>3d</fix>
</trkpt>
<trkpt lat="-27.274439" lon="151.290064">
  <ele>343.0</ele>
  <time>2026-08-27T18:32:34Z</time>
  <course>249.45</course>
  <speed>0.756042326857432</speed>
  <fix>3d</fix>
</trkpt>
<trkpt lat="-27.274439" lon="151.290064">
  <ele>343.0</ele>
  <time>2026-08-27T18:32:34Z</time>
  <course>0.0</course>
  <speed>0.0</speed>
  <fix>3d</fix>
</trkpt>
<trkpt lat="-27.274439" lon="151.290064">
  <ele>343.0</ele>
  <time>2026-08-27T18:32:34Z</time>
  <course>241.79</course>
  <speed>0.6596969000988256</speed>
  <fix>3d</fix>
</trkpt>
<trkpt lat="-27.274439" lon="151.290064">
  <ele>343.0</ele>
  <time>2026-08-27T18:32:34Z</time>
  <course>0.0</course>
  <speed>0.0</speed>
  <fix>3d</fix>
</trkpt>
<trkpt lat="-27.274439" lon="151.290064">
  <ele>343.0</ele>
  <time>2026-08-27T18:32:34Z</time>
  <course>233.59</course>
  <speed>0.6618912297349165</speed>
  <fix>3d</fix>
</trkpt>
<trkpt lat="-27.274439" lon="151.290064">
  <ele>343.0</ele>
  <time>2026-08-27T18:32:34Z</time>
  <course>0.0</course>
  <speed>0.0</speed>
  <fix>3d</fix>
</trkpt>
<trkpt lat="-27.274439" lon="151.290064">
  <ele>343.0</ele>
  <time>2026-08-27T18:32:34Z</time>
  <course>225.02</course>
  <speed>0.7034202158027589</speed>
  <fix>3d</fix>
</trkpt>
<trkpt lat="-27.274439" lon="151.290064">
  <ele>343.0</ele>
  <time>2026-08-27T18:32:34Z</time>
  <course>0.0</course>
  <speed>0.0</speed>
  <fix>3d</fix>
</trkpt>
<trkpt lat="-27.274439" lon="151.290064">
  <ele>343.0</ele>
  <time>2026-08-27T18:32:34Z</time>
  <course>216.17</course>
  <speed>0.7539230729988305</speed>
  <fix>3d</fix>
</trkpt>
<trkpt lat="-27.274439" lon="151.290064">
  <ele>343.0</ele>
  <time>2026-08-27T18:32:34Z</time>
  <course>0.0</course>
  <speed>0.0</speed>
  <fix>3d</fix>
</trkpt>
<trkpt lat="-27.274439" lon="151.290064">
  <ele>343.0</ele>
  <time>2026-08-27T18:32:34Z</time>
  <course>207.13</course>
  <speed>0.8052949770115296</speed>
  <fix>3d</fix>
</trkpt>
<trkpt lat="-27.274439" lon="151.290064">
  <ele>343.0</ele>
  <time>2026-08-27T18:32:34Z</time>
  <course>0.0</course>
  <speed>0.0</speed>
  <fix>3d</fix>
</trkpt>
<trkpt lat="-27.274439" lon="151.290064">
  <ele>-0.16</ele>
  <time>2026-08-27T18:32:34Z</time>
  <course>197.95</course>
  <speed>0.8453401682163222</speed>
  <fix>3d</fix>
</trkpt>
<trkpt lat="-27.274439" lon="151.290064">
  <ele>-0.06</ele>
  <time>2026-08-27T18:32:34Z</time>
  <course>188.67</course>
  <speed>0.878179936004006</speed>
  <fix>3d</fix>
</trkpt>
<trkpt lat="-27.274439" lon="151.290064">
  <ele>0.22</ele>
  <time>2026-08-27T18:32:34Z</time>
  <course>179.13</course>
  <speed>0.43266615305567874</speed>
  <fix>3d</fix>
</trkpt>
<trkpt lat="-27.274439" lon="151.290064">
  <ele>0.04</ele>
  <time>2026-08-27T18:32:34Z</time>
  <course>169.57</course>
  <speed>0.15</speed>
  <fix>3d</fix>
</trkpt>
<trkpt lat="-27.274439" lon="151.290064">
  <ele>0.1</ele>
  <time>2026-08-27T18:32:34Z</time>
  <course>160.09</course>
  <speed>0.11401754250991379</speed>
  <fix>3d</fix>
</trkpt>
<trkpt lat="-27.274439" lon="151.290064">
  <ele>-0.07</ele>
  <time>2026-08-27T18:32:34Z</time>
  <course>150.63</course>
  <speed>0.1345362404707371</speed>
  <fix>3d</fix>
</trkpt>
<trkpt lat="-27.274439" lon="151.290064">
  <ele>-0.02</ele>
  <time>2026-08-27T18:32:34Z</time>
  <course>325.88</course>
  <speed>0.0</speed>
  <fix>3d</fix>
</trkpt>
<trkpt lat="-27.274439" lon="151.290064">
  <ele>-0.02</ele>
  <time>2026-08-27T18:32:34Z</time>
  <course>324.43</course>
  <speed>0.0</speed>
  <fix>3d</fix>
</trkpt>
<trkpt lat="-27.274439" lon="151.290064">
  <ele>-0.02</ele>
  <time>2026-08-27T18:32:34Z</time>
  <course>321.86</course>
  <speed>0.0</speed>
  <fix>3d</fix>
</trkpt>
<trkpt lat="-27.274439" lon="151.290064">
  <ele>-0.02</ele>
  <time>2026-08-27T18:32:34Z</time>
  <course>294.93</course>
  <speed>0.0</speed>
  <fix>3d</fix>
</trkpt>
<trkpt lat="-27.274439" lon="151.290064">
  <ele>-0.02</ele>
  <time>2026-08-27T18:32:34Z</time>
  <course>290.06</course>
  <speed>0.0</speed>
  <fix>3d</fix>
</trkpt>
<trkpt lat="-27.274439" lon="151.290064">
  <ele>-0.02</ele>
  <time>2026-08-27T18:32:34Z</time>
  <course>284.12</course>
  <speed>0.0</speed>
  <fix>3d</fix>
</trkpt>
<trkpt lat="-27.274439" lon="151.290064">
  <ele>-0.02</ele>
  <time>2026-08-27T18:32:34Z</time>
  <course>277.04</course>
  <speed>0.0</speed>
  <fix>3d</fix>
</trkpt>
<trkpt lat="-27.274439" lon="151.290064">
  <ele>-0.02</ele>
  <time>2026-08-27T18:32:34Z</time>
  <course>268.85</course>
  <speed>0.0</speed>
  <fix>3d</fix>
</trkpt>
<trkpt lat="-27.274439" lon="151.290064">
  <ele>343.0</ele>
  <time>2026-08-27T18:32:34Z</time>
  <course>259.88</course>
  <speed>0.0</speed>
  <fix>3d</fix>
</trkpt>
<trkpt lat="-27.274439" lon="151.290064">
  <ele>343.0</ele>
  <time>2026-08-27T18:32:34Z</time>
  <course>250.47</course>
  <speed>0.0</speed>
  <fix>3d</fix>
</trkpt>
<trkpt lat="-27.274439" lon="151.290064">
  <ele>343.0</ele>
  <time>2026-08-27T18:32:34Z</time>
  <course>240.88</course>
  <speed>0.0</speed>
  <fix>3d</fix>
</trkpt>
<trkpt lat="-27.274439" lon="151.290064">
  <ele>343.0</ele>
  <time>2026-08-27T18:32:34Z</time>
  <course>231.22</course>
  <speed>0.0</speed>
  <fix>3d</fix>
</trkpt>
<trkpt lat="-27.274439" lon="151.290064">
  <ele>343.0</ele>
  <time>2026-08-27T18:32:34Z</time>
  <course>221.53</course>
  <speed>0.0</speed>
  <fix>3d</fix>
</trkpt>
<trkpt lat="-27.274439" lon="151.290064">
  <ele>343.0</ele>
  <time>2026-08-27T18:32:34Z</time>
  <course>211.76</course>
  <speed>0.0</speed>
  <fix>3d</fix>
</trkpt>
<trkpt lat="-27.274439" lon="151.290064">
  <ele>343.0</ele>
  <time>2026-08-27T18:32:34Z</time>
  <course>202.01</course>
  <speed>0.0</speed>
  <fix>3d</fix>
</trkpt>
<trkpt lat="-27.274439" lon="151.290064">
  <ele>343.0</ele>
  <time>2026-08-27T18:32:34Z</time>
  <course>192.37</course>
  <speed>0.0</speed>
  <fix>3d</fix>
</trkpt>
<trkpt lat="-27.274439" lon="151.290064">
  <ele>343.0</ele>
  <time>2026-08-27T18:32:34Z</time>
  <course>182.78</course>
  <speed>0.0</speed>
  <fix>3d</fix>
</trkpt>
<trkpt lat="-27.274439" lon="151.290064">
  <ele>343.0</ele>
  <time>2026-08-27T18:32:34Z</time>
  <course>325.88</course>
  <speed>0.0</speed>
  <fix>3d</fix>
</trkpt>
<trkpt lat="-27.274439" lon="151.290064">
  <ele>343.0</ele>
  <time>2026-08-27T18:32:34Z</time>
  <course>324.43</course>
  <speed>0.0</speed>
  <fix>3d</fix>
</trkpt>
<trkpt lat="-27.274439" lon="151.290064">
  <ele>343.0</ele>
  <time>2026-08-27T18:32:34Z</time>
  <course>321.86</course>
  <speed>0.0</speed>
  <fix>3d</fix>
</trkpt>
<trkpt lat="-27.274439" lon="151.290064">
  <ele>343.0</ele>
  <time>2026-08-27T18:32:34Z</time>
  <course>295.0</course>
  <speed>0.0</speed>
  <fix>3d</fix>
</trkpt>
<trkpt lat="-27.274439" lon="151.290064">
  <ele>343.0</ele>
  <time>2026-08-27T18:32:34Z</time>
  <course>290.72</course>
  <speed>0.0</speed>
  <fix>3d</fix>
</trkpt>
<trkpt lat="-27.274439" lon="151.290064">
  <ele>343.0</ele>
  <time>2026-08-27T18:32:34Z</time>
  <course>284.84</course>
  <speed>0.0</speed>
  <fix>3d</fix>
</trkpt>
<trkpt lat="-27.274439" lon="151.290064">
  <ele>343.0</ele>
  <time>2026-08-27T18:32:34Z</time>
  <course>277.79</course>
  <speed>0.0</speed>
  <fix>3d</fix>
</trkpt>
<trkpt lat="-27.274439" lon="151.290064">
  <ele>343.0</ele>
  <time>2026-08-27T18:32:34Z</time>
  <course>269.55</course>
  <speed>0.0</speed>
  <fix>3d</fix>
</trkpt>
</trkseg>
</trk>
</gpx>
